<?xml version="1.0" encoding="UTF-8" standalone="no" ?>
<gpx xmlns="http://www.topografix.com/GPX/1/1" xmlns:xsi="http://www.w3.org/2001/XMLSchema-instance" xsi:schemaLocation="http://www.topografix.com/GPX/1/1 http://www.topografix.com/GPX/1/1/gpx.xsd" version="1.1" creator="VisuGPX - https://www.visugpx.com">
  <metadata>
    <name>Sortie Cransac 27-02-11</name>
    <desc><![CDATA[Sortie Cransac 27-02-11]]></desc>
  </metadata>
  <trk>
    <name><![CDATA[2011-02-27-01]]></name>
    <trkseg>
      <trkpt lat="44.52496" lon="2.2921">
        <ele>329.2</ele>
        <time>2011-02-27T08:19:27Z</time>
      </trkpt>
      <trkpt lat="44.52498" lon="2.29207">
        <ele>330</ele>
        <time>2011-02-27T08:19:28Z</time>
      </trkpt>
      <trkpt lat="44.525" lon="2.29205">
        <ele>330.8</ele>
        <time>2011-02-27T08:19:29Z</time>
      </trkpt>
      <trkpt lat="44.52502" lon="2.29203">
        <ele>331.8</ele>
        <time>2011-02-27T08:19:30Z</time>
      </trkpt>
      <trkpt lat="44.52503" lon="2.292">
        <ele>332.6</ele>
        <time>2011-02-27T08:19:31Z</time>
      </trkpt>
      <trkpt lat="44.52505" lon="2.29197">
        <ele>333.4</ele>
        <time>2011-02-27T08:19:32Z</time>
      </trkpt>
      <trkpt lat="44.52506" lon="2.29194">
        <ele>334.2</ele>
        <time>2011-02-27T08:19:33Z</time>
      </trkpt>
      <trkpt lat="44.52508" lon="2.29191">
        <ele>335.2</ele>
        <time>2011-02-27T08:19:34Z</time>
      </trkpt>
      <trkpt lat="44.5251" lon="2.29186">
        <ele>336.3</ele>
        <time>2011-02-27T08:19:37Z</time>
      </trkpt>
      <trkpt lat="44.52511" lon="2.29182">
        <ele>337.4</ele>
        <time>2011-02-27T08:19:40Z</time>
      </trkpt>
      <trkpt lat="44.52512" lon="2.29179">
        <ele>338</ele>
        <time>2011-02-27T08:19:41Z</time>
      </trkpt>
      <trkpt lat="44.52514" lon="2.29174">
        <ele>339.2</ele>
        <time>2011-02-27T08:19:43Z</time>
      </trkpt>
      <trkpt lat="44.52517" lon="2.29174">
        <ele>340.3</ele>
        <time>2011-02-27T08:19:45Z</time>
      </trkpt>
      <trkpt lat="44.52522" lon="2.29175">
        <ele>341.9</ele>
        <time>2011-02-27T08:19:47Z</time>
      </trkpt>
      <trkpt lat="44.52524" lon="2.2917">
        <ele>343.2</ele>
        <time>2011-02-27T08:19:49Z</time>
      </trkpt>
      <trkpt lat="44.52524" lon="2.29163">
        <ele>343.5</ele>
        <time>2011-02-27T08:19:51Z</time>
      </trkpt>
      <trkpt lat="44.52525" lon="2.29157">
        <ele>343.4</ele>
        <time>2011-02-27T08:19:53Z</time>
      </trkpt>
      <trkpt lat="44.52526" lon="2.29151">
        <ele>343.4</ele>
        <time>2011-02-27T08:19:55Z</time>
      </trkpt>
      <trkpt lat="44.52526" lon="2.29145">
        <ele>343.1</ele>
        <time>2011-02-27T08:19:57Z</time>
      </trkpt>
      <trkpt lat="44.52526" lon="2.2914">
        <ele>342.8</ele>
        <time>2011-02-27T08:19:59Z</time>
      </trkpt>
      <trkpt lat="44.52526" lon="2.29134">
        <ele>342.5</ele>
        <time>2011-02-27T08:20:01Z</time>
      </trkpt>
      <trkpt lat="44.52526" lon="2.29129">
        <ele>342.3</ele>
        <time>2011-02-27T08:20:03Z</time>
      </trkpt>
      <trkpt lat="44.52526" lon="2.29124">
        <ele>342</ele>
        <time>2011-02-27T08:20:05Z</time>
      </trkpt>
      <trkpt lat="44.52526" lon="2.29119">
        <ele>341.9</ele>
        <time>2011-02-27T08:20:07Z</time>
      </trkpt>
      <trkpt lat="44.52526" lon="2.29116">
        <ele>341.7</ele>
        <time>2011-02-27T08:20:08Z</time>
      </trkpt>
      <trkpt lat="44.52525" lon="2.29107">
        <ele>340.9</ele>
        <time>2011-02-27T08:20:14Z</time>
      </trkpt>
      <trkpt lat="44.52525" lon="2.29104">
        <ele>340.7</ele>
        <time>2011-02-27T08:20:16Z</time>
      </trkpt>
      <trkpt lat="44.52524" lon="2.29098">
        <ele>340.1</ele>
        <time>2011-02-27T08:20:18Z</time>
      </trkpt>
      <trkpt lat="44.52523" lon="2.29095">
        <ele>339.6</ele>
        <time>2011-02-27T08:20:19Z</time>
      </trkpt>
      <trkpt lat="44.52522" lon="2.29091">
        <ele>339</ele>
        <time>2011-02-27T08:20:20Z</time>
      </trkpt>
      <trkpt lat="44.52521" lon="2.29086">
        <ele>338.3</ele>
        <time>2011-02-27T08:20:21Z</time>
      </trkpt>
      <trkpt lat="44.52519" lon="2.29081">
        <ele>337.3</ele>
        <time>2011-02-27T08:20:22Z</time>
      </trkpt>
      <trkpt lat="44.52517" lon="2.29076">
        <ele>336.1</ele>
        <time>2011-02-27T08:20:23Z</time>
      </trkpt>
      <trkpt lat="44.52515" lon="2.29069">
        <ele>334.7</ele>
        <time>2011-02-27T08:20:24Z</time>
      </trkpt>
      <trkpt lat="44.52512" lon="2.29064">
        <ele>333.1</ele>
        <time>2011-02-27T08:20:25Z</time>
      </trkpt>
      <trkpt lat="44.52509" lon="2.29058">
        <ele>331.5</ele>
        <time>2011-02-27T08:20:26Z</time>
      </trkpt>
      <trkpt lat="44.52507" lon="2.29054">
        <ele>330.3</ele>
        <time>2011-02-27T08:20:27Z</time>
      </trkpt>
      <trkpt lat="44.52505" lon="2.29049">
        <ele>329.2</ele>
        <time>2011-02-27T08:20:28Z</time>
      </trkpt>
      <trkpt lat="44.52503" lon="2.29046">
        <ele>328.1</ele>
        <time>2011-02-27T08:20:29Z</time>
      </trkpt>
      <trkpt lat="44.52502" lon="2.29042">
        <ele>327.2</ele>
        <time>2011-02-27T08:20:30Z</time>
      </trkpt>
      <trkpt lat="44.52501" lon="2.29038">
        <ele>326.3</ele>
        <time>2011-02-27T08:20:31Z</time>
      </trkpt>
      <trkpt lat="44.52499" lon="2.29034">
        <ele>325.2</ele>
        <time>2011-02-27T08:20:32Z</time>
      </trkpt>
      <trkpt lat="44.52498" lon="2.29029">
        <ele>324.5</ele>
        <time>2011-02-27T08:20:33Z</time>
      </trkpt>
      <trkpt lat="44.52497" lon="2.29023">
        <ele>323.6</ele>
        <time>2011-02-27T08:20:34Z</time>
      </trkpt>
      <trkpt lat="44.52497" lon="2.29017">
        <ele>322.9</ele>
        <time>2011-02-27T08:20:35Z</time>
      </trkpt>
      <trkpt lat="44.52498" lon="2.29011">
        <ele>322.5</ele>
        <time>2011-02-27T08:20:36Z</time>
      </trkpt>
      <trkpt lat="44.52499" lon="2.29006">
        <ele>322.4</ele>
        <time>2011-02-27T08:20:37Z</time>
      </trkpt>
      <trkpt lat="44.52501" lon="2.29001">
        <ele>322.4</ele>
        <time>2011-02-27T08:20:38Z</time>
      </trkpt>
      <trkpt lat="44.52503" lon="2.28995">
        <ele>323.3</ele>
        <time>2011-02-27T08:20:39Z</time>
      </trkpt>
      <trkpt lat="44.52506" lon="2.28989">
        <ele>324.2</ele>
        <time>2011-02-27T08:20:40Z</time>
      </trkpt>
      <trkpt lat="44.52508" lon="2.28983">
        <ele>325.4</ele>
        <time>2011-02-27T08:20:41Z</time>
      </trkpt>
      <trkpt lat="44.5251" lon="2.28977">
        <ele>326.2</ele>
        <time>2011-02-27T08:20:42Z</time>
      </trkpt>
      <trkpt lat="44.52512" lon="2.28969">
        <ele>326.7</ele>
        <time>2011-02-27T08:20:43Z</time>
      </trkpt>
      <trkpt lat="44.52513" lon="2.28961">
        <ele>327</ele>
        <time>2011-02-27T08:20:44Z</time>
      </trkpt>
      <trkpt lat="44.52512" lon="2.28954">
        <ele>326.9</ele>
        <time>2011-02-27T08:20:45Z</time>
      </trkpt>
      <trkpt lat="44.52512" lon="2.28947">
        <ele>326.9</ele>
        <time>2011-02-27T08:20:46Z</time>
      </trkpt>
      <trkpt lat="44.52512" lon="2.28941">
        <ele>326.6</ele>
        <time>2011-02-27T08:20:47Z</time>
      </trkpt>
      <trkpt lat="44.52511" lon="2.28936">
        <ele>326.2</ele>
        <time>2011-02-27T08:20:48Z</time>
      </trkpt>
      <trkpt lat="44.5251" lon="2.28932">
        <ele>325.9</ele>
        <time>2011-02-27T08:20:49Z</time>
      </trkpt>
      <trkpt lat="44.5251" lon="2.28927">
        <ele>325.8</ele>
        <time>2011-02-27T08:20:50Z</time>
      </trkpt>
      <trkpt lat="44.52509" lon="2.28923">
        <ele>325.6</ele>
        <time>2011-02-27T08:20:51Z</time>
      </trkpt>
      <trkpt lat="44.52509" lon="2.28919">
        <ele>325.4</ele>
        <time>2011-02-27T08:20:52Z</time>
      </trkpt>
      <trkpt lat="44.52508" lon="2.28915">
        <ele>325.3</ele>
        <time>2011-02-27T08:20:53Z</time>
      </trkpt>
      <trkpt lat="44.52508" lon="2.28911">
        <ele>325.4</ele>
        <time>2011-02-27T08:20:54Z</time>
      </trkpt>
      <trkpt lat="44.52507" lon="2.28907">
        <ele>325.6</ele>
        <time>2011-02-27T08:20:55Z</time>
      </trkpt>
      <trkpt lat="44.52507" lon="2.28903">
        <ele>325.8</ele>
        <time>2011-02-27T08:20:56Z</time>
      </trkpt>
      <trkpt lat="44.52507" lon="2.289">
        <ele>326.1</ele>
        <time>2011-02-27T08:20:57Z</time>
      </trkpt>
      <trkpt lat="44.52507" lon="2.28896">
        <ele>326.2</ele>
        <time>2011-02-27T08:20:58Z</time>
      </trkpt>
      <trkpt lat="44.52506" lon="2.2889">
        <ele>326.5</ele>
        <time>2011-02-27T08:21:00Z</time>
      </trkpt>
      <trkpt lat="44.52506" lon="2.28885">
        <ele>326.9</ele>
        <time>2011-02-27T08:21:02Z</time>
      </trkpt>
      <trkpt lat="44.52506" lon="2.28881">
        <ele>327.5</ele>
        <time>2011-02-27T08:21:03Z</time>
      </trkpt>
      <trkpt lat="44.52507" lon="2.28877">
        <ele>327.8</ele>
        <time>2011-02-27T08:21:04Z</time>
      </trkpt>
      <trkpt lat="44.52507" lon="2.28873">
        <ele>328.1</ele>
        <time>2011-02-27T08:21:05Z</time>
      </trkpt>
      <trkpt lat="44.52507" lon="2.28869">
        <ele>328.6</ele>
        <time>2011-02-27T08:21:06Z</time>
      </trkpt>
      <trkpt lat="44.52507" lon="2.28864">
        <ele>329.1</ele>
        <time>2011-02-27T08:21:08Z</time>
      </trkpt>
      <trkpt lat="44.52508" lon="2.28861">
        <ele>329.6</ele>
        <time>2011-02-27T08:21:09Z</time>
      </trkpt>
      <trkpt lat="44.52508" lon="2.28855">
        <ele>330.3</ele>
        <time>2011-02-27T08:21:11Z</time>
      </trkpt>
      <trkpt lat="44.52508" lon="2.28852">
        <ele>330.6</ele>
        <time>2011-02-27T08:21:12Z</time>
      </trkpt>
      <trkpt lat="44.52509" lon="2.28848">
        <ele>330.9</ele>
        <time>2011-02-27T08:21:13Z</time>
      </trkpt>
      <trkpt lat="44.52509" lon="2.28844">
        <ele>331.2</ele>
        <time>2011-02-27T08:21:14Z</time>
      </trkpt>
      <trkpt lat="44.52508" lon="2.2884">
        <ele>331.4</ele>
        <time>2011-02-27T08:21:15Z</time>
      </trkpt>
      <trkpt lat="44.52508" lon="2.28837">
        <ele>331.7</ele>
        <time>2011-02-27T08:21:16Z</time>
      </trkpt>
      <trkpt lat="44.52508" lon="2.28833">
        <ele>331.8</ele>
        <time>2011-02-27T08:21:17Z</time>
      </trkpt>
      <trkpt lat="44.52508" lon="2.28829">
        <ele>331.4</ele>
        <time>2011-02-27T08:21:18Z</time>
      </trkpt>
      <trkpt lat="44.52508" lon="2.28826">
        <ele>330.9</ele>
        <time>2011-02-27T08:21:19Z</time>
      </trkpt>
      <trkpt lat="44.52508" lon="2.28823">
        <ele>330.5</ele>
        <time>2011-02-27T08:21:20Z</time>
      </trkpt>
      <trkpt lat="44.52508" lon="2.28819">
        <ele>330</ele>
        <time>2011-02-27T08:21:21Z</time>
      </trkpt>
      <trkpt lat="44.52508" lon="2.28813">
        <ele>329.3</ele>
        <time>2011-02-27T08:21:23Z</time>
      </trkpt>
      <trkpt lat="44.52509" lon="2.2881">
        <ele>329.3</ele>
        <time>2011-02-27T08:21:24Z</time>
      </trkpt>
      <trkpt lat="44.5251" lon="2.28805">
        <ele>329.2</ele>
        <time>2011-02-27T08:21:26Z</time>
      </trkpt>
      <trkpt lat="44.52511" lon="2.288">
        <ele>328.9</ele>
        <time>2011-02-27T08:21:28Z</time>
      </trkpt>
      <trkpt lat="44.52512" lon="2.28795">
        <ele>328.4</ele>
        <time>2011-02-27T08:21:30Z</time>
      </trkpt>
      <trkpt lat="44.52512" lon="2.28789">
        <ele>327.7</ele>
        <time>2011-02-27T08:21:32Z</time>
      </trkpt>
      <trkpt lat="44.52511" lon="2.28784">
        <ele>327</ele>
        <time>2011-02-27T08:21:34Z</time>
      </trkpt>
      <trkpt lat="44.5251" lon="2.28779">
        <ele>325.6</ele>
        <time>2011-02-27T08:21:37Z</time>
      </trkpt>
      <trkpt lat="44.52509" lon="2.28774">
        <ele>324.8</ele>
        <time>2011-02-27T08:21:39Z</time>
      </trkpt>
      <trkpt lat="44.52508" lon="2.28769">
        <ele>323.8</ele>
        <time>2011-02-27T08:21:41Z</time>
      </trkpt>
      <trkpt lat="44.52508" lon="2.28766">
        <ele>323.4</ele>
        <time>2011-02-27T08:21:42Z</time>
      </trkpt>
      <trkpt lat="44.52508" lon="2.28762">
        <ele>323</ele>
        <time>2011-02-27T08:21:43Z</time>
      </trkpt>
      <trkpt lat="44.52509" lon="2.28758">
        <ele>322.8</ele>
        <time>2011-02-27T08:21:44Z</time>
      </trkpt>
      <trkpt lat="44.52509" lon="2.28754">
        <ele>322.5</ele>
        <time>2011-02-27T08:21:45Z</time>
      </trkpt>
      <trkpt lat="44.5251" lon="2.28751">
        <ele>322.1</ele>
        <time>2011-02-27T08:21:46Z</time>
      </trkpt>
      <trkpt lat="44.5251" lon="2.28747">
        <ele>321.6</ele>
        <time>2011-02-27T08:21:47Z</time>
      </trkpt>
      <trkpt lat="44.52511" lon="2.28743">
        <ele>321.4</ele>
        <time>2011-02-27T08:21:48Z</time>
      </trkpt>
      <trkpt lat="44.52512" lon="2.28739">
        <ele>321</ele>
        <time>2011-02-27T08:21:49Z</time>
      </trkpt>
      <trkpt lat="44.52512" lon="2.28735">
        <ele>320.7</ele>
        <time>2011-02-27T08:21:50Z</time>
      </trkpt>
      <trkpt lat="44.52513" lon="2.28731">
        <ele>320.2</ele>
        <time>2011-02-27T08:21:51Z</time>
      </trkpt>
      <trkpt lat="44.52513" lon="2.28727">
        <ele>319.7</ele>
        <time>2011-02-27T08:21:52Z</time>
      </trkpt>
      <trkpt lat="44.52514" lon="2.28723">
        <ele>319.3</ele>
        <time>2011-02-27T08:21:53Z</time>
      </trkpt>
      <trkpt lat="44.52514" lon="2.28719">
        <ele>318.8</ele>
        <time>2011-02-27T08:21:54Z</time>
      </trkpt>
      <trkpt lat="44.52515" lon="2.28715">
        <ele>318.5</ele>
        <time>2011-02-27T08:21:55Z</time>
      </trkpt>
      <trkpt lat="44.52515" lon="2.28711">
        <ele>318.1</ele>
        <time>2011-02-27T08:21:56Z</time>
      </trkpt>
      <trkpt lat="44.52516" lon="2.28706">
        <ele>317.6</ele>
        <time>2011-02-27T08:21:57Z</time>
      </trkpt>
      <trkpt lat="44.52517" lon="2.28702">
        <ele>317.2</ele>
        <time>2011-02-27T08:21:58Z</time>
      </trkpt>
      <trkpt lat="44.52517" lon="2.28698">
        <ele>316.9</ele>
        <time>2011-02-27T08:21:59Z</time>
      </trkpt>
      <trkpt lat="44.52518" lon="2.28694">
        <ele>316.2</ele>
        <time>2011-02-27T08:22:00Z</time>
      </trkpt>
      <trkpt lat="44.52518" lon="2.28689">
        <ele>315.7</ele>
        <time>2011-02-27T08:22:01Z</time>
      </trkpt>
      <trkpt lat="44.52518" lon="2.28685">
        <ele>315.2</ele>
        <time>2011-02-27T08:22:02Z</time>
      </trkpt>
      <trkpt lat="44.52519" lon="2.28681">
        <ele>314.9</ele>
        <time>2011-02-27T08:22:03Z</time>
      </trkpt>
      <trkpt lat="44.52519" lon="2.28677">
        <ele>314.4</ele>
        <time>2011-02-27T08:22:04Z</time>
      </trkpt>
      <trkpt lat="44.5252" lon="2.28672">
        <ele>313.9</ele>
        <time>2011-02-27T08:22:05Z</time>
      </trkpt>
      <trkpt lat="44.5252" lon="2.28668">
        <ele>313.4</ele>
        <time>2011-02-27T08:22:06Z</time>
      </trkpt>
      <trkpt lat="44.52521" lon="2.28663">
        <ele>313.5</ele>
        <time>2011-02-27T08:22:07Z</time>
      </trkpt>
      <trkpt lat="44.52521" lon="2.28658">
        <ele>313.4</ele>
        <time>2011-02-27T08:22:08Z</time>
      </trkpt>
      <trkpt lat="44.52522" lon="2.28653">
        <ele>313.2</ele>
        <time>2011-02-27T08:22:09Z</time>
      </trkpt>
      <trkpt lat="44.52522" lon="2.28648">
        <ele>313.2</ele>
        <time>2011-02-27T08:22:10Z</time>
      </trkpt>
      <trkpt lat="44.52522" lon="2.28643">
        <ele>313.1</ele>
        <time>2011-02-27T08:22:11Z</time>
      </trkpt>
      <trkpt lat="44.52522" lon="2.28638">
        <ele>313</ele>
        <time>2011-02-27T08:22:12Z</time>
      </trkpt>
      <trkpt lat="44.52523" lon="2.28633">
        <ele>312.8</ele>
        <time>2011-02-27T08:22:13Z</time>
      </trkpt>
      <trkpt lat="44.52523" lon="2.28628">
        <ele>312.7</ele>
        <time>2011-02-27T08:22:14Z</time>
      </trkpt>
      <trkpt lat="44.52523" lon="2.28622">
        <ele>312.5</ele>
        <time>2011-02-27T08:22:15Z</time>
      </trkpt>
      <trkpt lat="44.52523" lon="2.28617">
        <ele>312.5</ele>
        <time>2011-02-27T08:22:16Z</time>
      </trkpt>
      <trkpt lat="44.52524" lon="2.28612">
        <ele>312.3</ele>
        <time>2011-02-27T08:22:17Z</time>
      </trkpt>
      <trkpt lat="44.52524" lon="2.28607">
        <ele>312.2</ele>
        <time>2011-02-27T08:22:18Z</time>
      </trkpt>
      <trkpt lat="44.52524" lon="2.28602">
        <ele>311.9</ele>
        <time>2011-02-27T08:22:19Z</time>
      </trkpt>
      <trkpt lat="44.52524" lon="2.28597">
        <ele>311.7</ele>
        <time>2011-02-27T08:22:20Z</time>
      </trkpt>
      <trkpt lat="44.52524" lon="2.28592">
        <ele>311.5</ele>
        <time>2011-02-27T08:22:21Z</time>
      </trkpt>
      <trkpt lat="44.52524" lon="2.28587">
        <ele>311.3</ele>
        <time>2011-02-27T08:22:22Z</time>
      </trkpt>
      <trkpt lat="44.52524" lon="2.28582">
        <ele>311</ele>
        <time>2011-02-27T08:22:23Z</time>
      </trkpt>
      <trkpt lat="44.52524" lon="2.28578">
        <ele>310.8</ele>
        <time>2011-02-27T08:22:24Z</time>
      </trkpt>
      <trkpt lat="44.52523" lon="2.28574">
        <ele>310.4</ele>
        <time>2011-02-27T08:22:25Z</time>
      </trkpt>
      <trkpt lat="44.52523" lon="2.28571">
        <ele>310</ele>
        <time>2011-02-27T08:22:26Z</time>
      </trkpt>
      <trkpt lat="44.52522" lon="2.28567">
        <ele>309.5</ele>
        <time>2011-02-27T08:22:27Z</time>
      </trkpt>
      <trkpt lat="44.52521" lon="2.28562">
        <ele>308.4</ele>
        <time>2011-02-27T08:22:29Z</time>
      </trkpt>
      <trkpt lat="44.52518" lon="2.28557">
        <ele>307.2</ele>
        <time>2011-02-27T08:22:31Z</time>
      </trkpt>
      <trkpt lat="44.52517" lon="2.28552">
        <ele>306.3</ele>
        <time>2011-02-27T08:22:33Z</time>
      </trkpt>
      <trkpt lat="44.52516" lon="2.28546">
        <ele>305.6</ele>
        <time>2011-02-27T08:22:35Z</time>
      </trkpt>
      <trkpt lat="44.52515" lon="2.28543">
        <ele>305.3</ele>
        <time>2011-02-27T08:22:36Z</time>
      </trkpt>
      <trkpt lat="44.52515" lon="2.28539">
        <ele>304.7</ele>
        <time>2011-02-27T08:22:37Z</time>
      </trkpt>
      <trkpt lat="44.52516" lon="2.28535">
        <ele>304.8</ele>
        <time>2011-02-27T08:22:38Z</time>
      </trkpt>
      <trkpt lat="44.52517" lon="2.28531">
        <ele>304.9</ele>
        <time>2011-02-27T08:22:39Z</time>
      </trkpt>
      <trkpt lat="44.52518" lon="2.28526">
        <ele>305.3</ele>
        <time>2011-02-27T08:22:40Z</time>
      </trkpt>
      <trkpt lat="44.52519" lon="2.28521">
        <ele>305.3</ele>
        <time>2011-02-27T08:22:41Z</time>
      </trkpt>
      <trkpt lat="44.5252" lon="2.28517">
        <ele>305.4</ele>
        <time>2011-02-27T08:22:42Z</time>
      </trkpt>
      <trkpt lat="44.52521" lon="2.28511">
        <ele>305.4</ele>
        <time>2011-02-27T08:22:43Z</time>
      </trkpt>
      <trkpt lat="44.52522" lon="2.28506">
        <ele>305.3</ele>
        <time>2011-02-27T08:22:44Z</time>
      </trkpt>
      <trkpt lat="44.52524" lon="2.285">
        <ele>305.4</ele>
        <time>2011-02-27T08:22:45Z</time>
      </trkpt>
      <trkpt lat="44.52525" lon="2.28495">
        <ele>305.6</ele>
        <time>2011-02-27T08:22:46Z</time>
      </trkpt>
      <trkpt lat="44.52526" lon="2.28489">
        <ele>305.5</ele>
        <time>2011-02-27T08:22:47Z</time>
      </trkpt>
      <trkpt lat="44.52527" lon="2.28484">
        <ele>305.7</ele>
        <time>2011-02-27T08:22:48Z</time>
      </trkpt>
      <trkpt lat="44.52528" lon="2.28478">
        <ele>305.7</ele>
        <time>2011-02-27T08:22:49Z</time>
      </trkpt>
      <trkpt lat="44.52529" lon="2.28474">
        <ele>305.7</ele>
        <time>2011-02-27T08:22:50Z</time>
      </trkpt>
      <trkpt lat="44.5253" lon="2.2847">
        <ele>305.6</ele>
        <time>2011-02-27T08:22:51Z</time>
      </trkpt>
      <trkpt lat="44.5253" lon="2.28466">
        <ele>305.5</ele>
        <time>2011-02-27T08:22:52Z</time>
      </trkpt>
      <trkpt lat="44.52531" lon="2.28461">
        <ele>305.5</ele>
        <time>2011-02-27T08:22:53Z</time>
      </trkpt>
      <trkpt lat="44.52532" lon="2.28457">
        <ele>305.3</ele>
        <time>2011-02-27T08:22:54Z</time>
      </trkpt>
      <trkpt lat="44.52532" lon="2.28452">
        <ele>305.2</ele>
        <time>2011-02-27T08:22:55Z</time>
      </trkpt>
      <trkpt lat="44.52533" lon="2.28448">
        <ele>305</ele>
        <time>2011-02-27T08:22:56Z</time>
      </trkpt>
      <trkpt lat="44.52534" lon="2.28443">
        <ele>304.9</ele>
        <time>2011-02-27T08:22:57Z</time>
      </trkpt>
      <trkpt lat="44.52534" lon="2.28439">
        <ele>304.8</ele>
        <time>2011-02-27T08:22:58Z</time>
      </trkpt>
      <trkpt lat="44.52535" lon="2.28434">
        <ele>304.7</ele>
        <time>2011-02-27T08:22:59Z</time>
      </trkpt>
      <trkpt lat="44.52536" lon="2.2843">
        <ele>304.6</ele>
        <time>2011-02-27T08:23:00Z</time>
      </trkpt>
      <trkpt lat="44.52537" lon="2.28425">
        <ele>304.4</ele>
        <time>2011-02-27T08:23:01Z</time>
      </trkpt>
      <trkpt lat="44.52538" lon="2.2842">
        <ele>304.3</ele>
        <time>2011-02-27T08:23:02Z</time>
      </trkpt>
      <trkpt lat="44.52539" lon="2.28416">
        <ele>304.1</ele>
        <time>2011-02-27T08:23:03Z</time>
      </trkpt>
      <trkpt lat="44.52539" lon="2.28411">
        <ele>303.6</ele>
        <time>2011-02-27T08:23:04Z</time>
      </trkpt>
      <trkpt lat="44.5254" lon="2.28406">
        <ele>303.2</ele>
        <time>2011-02-27T08:23:05Z</time>
      </trkpt>
      <trkpt lat="44.52541" lon="2.28401">
        <ele>302.7</ele>
        <time>2011-02-27T08:23:06Z</time>
      </trkpt>
      <trkpt lat="44.52542" lon="2.28396">
        <ele>302.3</ele>
        <time>2011-02-27T08:23:07Z</time>
      </trkpt>
      <trkpt lat="44.52543" lon="2.28391">
        <ele>301.9</ele>
        <time>2011-02-27T08:23:08Z</time>
      </trkpt>
      <trkpt lat="44.52544" lon="2.28386">
        <ele>301.5</ele>
        <time>2011-02-27T08:23:09Z</time>
      </trkpt>
      <trkpt lat="44.52544" lon="2.28382">
        <ele>301.1</ele>
        <time>2011-02-27T08:23:10Z</time>
      </trkpt>
      <trkpt lat="44.52545" lon="2.28377">
        <ele>300.6</ele>
        <time>2011-02-27T08:23:11Z</time>
      </trkpt>
      <trkpt lat="44.52546" lon="2.28373">
        <ele>300.2</ele>
        <time>2011-02-27T08:23:12Z</time>
      </trkpt>
      <trkpt lat="44.52546" lon="2.28369">
        <ele>299.8</ele>
        <time>2011-02-27T08:23:13Z</time>
      </trkpt>
      <trkpt lat="44.52547" lon="2.28364">
        <ele>299.2</ele>
        <time>2011-02-27T08:23:14Z</time>
      </trkpt>
      <trkpt lat="44.52547" lon="2.2836">
        <ele>298.8</ele>
        <time>2011-02-27T08:23:15Z</time>
      </trkpt>
      <trkpt lat="44.52546" lon="2.28356">
        <ele>298</ele>
        <time>2011-02-27T08:23:16Z</time>
      </trkpt>
      <trkpt lat="44.52544" lon="2.28353">
        <ele>297.3</ele>
        <time>2011-02-27T08:23:17Z</time>
      </trkpt>
      <trkpt lat="44.52541" lon="2.2835">
        <ele>296.5</ele>
        <time>2011-02-27T08:23:18Z</time>
      </trkpt>
      <trkpt lat="44.52537" lon="2.28348">
        <ele>295.5</ele>
        <time>2011-02-27T08:23:19Z</time>
      </trkpt>
      <trkpt lat="44.52534" lon="2.28347">
        <ele>294.8</ele>
        <time>2011-02-27T08:23:20Z</time>
      </trkpt>
      <trkpt lat="44.5253" lon="2.28346">
        <ele>294</ele>
        <time>2011-02-27T08:23:21Z</time>
      </trkpt>
      <trkpt lat="44.52526" lon="2.28345">
        <ele>293.3</ele>
        <time>2011-02-27T08:23:22Z</time>
      </trkpt>
      <trkpt lat="44.52523" lon="2.28344">
        <ele>292.7</ele>
        <time>2011-02-27T08:23:23Z</time>
      </trkpt>
      <trkpt lat="44.5252" lon="2.28343">
        <ele>292.1</ele>
        <time>2011-02-27T08:23:24Z</time>
      </trkpt>
      <trkpt lat="44.52517" lon="2.28342">
        <ele>291.5</ele>
        <time>2011-02-27T08:23:25Z</time>
      </trkpt>
      <trkpt lat="44.52515" lon="2.28338">
        <ele>290.7</ele>
        <time>2011-02-27T08:23:27Z</time>
      </trkpt>
      <trkpt lat="44.52514" lon="2.28333">
        <ele>290.1</ele>
        <time>2011-02-27T08:23:29Z</time>
      </trkpt>
      <trkpt lat="44.52514" lon="2.28329">
        <ele>289.9</ele>
        <time>2011-02-27T08:23:30Z</time>
      </trkpt>
      <trkpt lat="44.52514" lon="2.28326">
        <ele>289.7</ele>
        <time>2011-02-27T08:23:31Z</time>
      </trkpt>
      <trkpt lat="44.52514" lon="2.28322">
        <ele>289.6</ele>
        <time>2011-02-27T08:23:32Z</time>
      </trkpt>
      <trkpt lat="44.52514" lon="2.28319">
        <ele>289.4</ele>
        <time>2011-02-27T08:23:33Z</time>
      </trkpt>
      <trkpt lat="44.52514" lon="2.28316">
        <ele>289.1</ele>
        <time>2011-02-27T08:23:34Z</time>
      </trkpt>
      <trkpt lat="44.52514" lon="2.28312">
        <ele>288.9</ele>
        <time>2011-02-27T08:23:35Z</time>
      </trkpt>
      <trkpt lat="44.52514" lon="2.28306">
        <ele>288.6</ele>
        <time>2011-02-27T08:23:37Z</time>
      </trkpt>
      <trkpt lat="44.52513" lon="2.28301">
        <ele>288.2</ele>
        <time>2011-02-27T08:23:39Z</time>
      </trkpt>
      <trkpt lat="44.52513" lon="2.28295">
        <ele>287.8</ele>
        <time>2011-02-27T08:23:41Z</time>
      </trkpt>
      <trkpt lat="44.52513" lon="2.28291">
        <ele>287.6</ele>
        <time>2011-02-27T08:23:42Z</time>
      </trkpt>
      <trkpt lat="44.52513" lon="2.28287">
        <ele>287.3</ele>
        <time>2011-02-27T08:23:43Z</time>
      </trkpt>
      <trkpt lat="44.52513" lon="2.28284">
        <ele>287.2</ele>
        <time>2011-02-27T08:23:44Z</time>
      </trkpt>
      <trkpt lat="44.52514" lon="2.28279">
        <ele>287</ele>
        <time>2011-02-27T08:23:45Z</time>
      </trkpt>
      <trkpt lat="44.52514" lon="2.28275">
        <ele>286.8</ele>
        <time>2011-02-27T08:23:46Z</time>
      </trkpt>
      <trkpt lat="44.52514" lon="2.28271">
        <ele>286.6</ele>
        <time>2011-02-27T08:23:47Z</time>
      </trkpt>
      <trkpt lat="44.52514" lon="2.28267">
        <ele>286.3</ele>
        <time>2011-02-27T08:23:48Z</time>
      </trkpt>
      <trkpt lat="44.52514" lon="2.28263">
        <ele>286</ele>
        <time>2011-02-27T08:23:49Z</time>
      </trkpt>
      <trkpt lat="44.52513" lon="2.28259">
        <ele>285.7</ele>
        <time>2011-02-27T08:23:50Z</time>
      </trkpt>
      <trkpt lat="44.52513" lon="2.28255">
        <ele>285.4</ele>
        <time>2011-02-27T08:23:51Z</time>
      </trkpt>
      <trkpt lat="44.52512" lon="2.28251">
        <ele>285.2</ele>
        <time>2011-02-27T08:23:52Z</time>
      </trkpt>
      <trkpt lat="44.52511" lon="2.28247">
        <ele>284.9</ele>
        <time>2011-02-27T08:23:53Z</time>
      </trkpt>
      <trkpt lat="44.52509" lon="2.28242">
        <ele>284.6</ele>
        <time>2011-02-27T08:23:54Z</time>
      </trkpt>
      <trkpt lat="44.52508" lon="2.28238">
        <ele>284.3</ele>
        <time>2011-02-27T08:23:55Z</time>
      </trkpt>
      <trkpt lat="44.52506" lon="2.28234">
        <ele>284</ele>
        <time>2011-02-27T08:23:56Z</time>
      </trkpt>
      <trkpt lat="44.52505" lon="2.2823">
        <ele>283.7</ele>
        <time>2011-02-27T08:23:57Z</time>
      </trkpt>
      <trkpt lat="44.52503" lon="2.28227">
        <ele>283.5</ele>
        <time>2011-02-27T08:23:58Z</time>
      </trkpt>
      <trkpt lat="44.52502" lon="2.28223">
        <ele>283.2</ele>
        <time>2011-02-27T08:23:59Z</time>
      </trkpt>
      <trkpt lat="44.52501" lon="2.28219">
        <ele>283</ele>
        <time>2011-02-27T08:24:00Z</time>
      </trkpt>
      <trkpt lat="44.525" lon="2.28215">
        <ele>282.8</ele>
        <time>2011-02-27T08:24:01Z</time>
      </trkpt>
      <trkpt lat="44.525" lon="2.2821">
        <ele>282.5</ele>
        <time>2011-02-27T08:24:02Z</time>
      </trkpt>
      <trkpt lat="44.525" lon="2.28205">
        <ele>282.4</ele>
        <time>2011-02-27T08:24:03Z</time>
      </trkpt>
      <trkpt lat="44.525" lon="2.282">
        <ele>282.2</ele>
        <time>2011-02-27T08:24:04Z</time>
      </trkpt>
      <trkpt lat="44.525" lon="2.28196">
        <ele>282</ele>
        <time>2011-02-27T08:24:05Z</time>
      </trkpt>
      <trkpt lat="44.52501" lon="2.28191">
        <ele>282</ele>
        <time>2011-02-27T08:24:06Z</time>
      </trkpt>
      <trkpt lat="44.52502" lon="2.28187">
        <ele>281.9</ele>
        <time>2011-02-27T08:24:07Z</time>
      </trkpt>
      <trkpt lat="44.52502" lon="2.2818">
        <ele>281.7</ele>
        <time>2011-02-27T08:24:08Z</time>
      </trkpt>
      <trkpt lat="44.52503" lon="2.28175">
        <ele>281.6</ele>
        <time>2011-02-27T08:24:09Z</time>
      </trkpt>
      <trkpt lat="44.52504" lon="2.28169">
        <ele>281.6</ele>
        <time>2011-02-27T08:24:10Z</time>
      </trkpt>
      <trkpt lat="44.52505" lon="2.28164">
        <ele>281.5</ele>
        <time>2011-02-27T08:24:11Z</time>
      </trkpt>
      <trkpt lat="44.52505" lon="2.28159">
        <ele>281.5</ele>
        <time>2011-02-27T08:24:12Z</time>
      </trkpt>
      <trkpt lat="44.52504" lon="2.28155">
        <ele>281.5</ele>
        <time>2011-02-27T08:24:13Z</time>
      </trkpt>
      <trkpt lat="44.52503" lon="2.2815">
        <ele>281.3</ele>
        <time>2011-02-27T08:24:14Z</time>
      </trkpt>
      <trkpt lat="44.52502" lon="2.28146">
        <ele>281.2</ele>
        <time>2011-02-27T08:24:15Z</time>
      </trkpt>
      <trkpt lat="44.525" lon="2.28142">
        <ele>281</ele>
        <time>2011-02-27T08:24:16Z</time>
      </trkpt>
      <trkpt lat="44.52497" lon="2.28138">
        <ele>281</ele>
        <time>2011-02-27T08:24:17Z</time>
      </trkpt>
      <trkpt lat="44.52495" lon="2.28134">
        <ele>281</ele>
        <time>2011-02-27T08:24:18Z</time>
      </trkpt>
      <trkpt lat="44.52492" lon="2.28131">
        <ele>281.1</ele>
        <time>2011-02-27T08:24:19Z</time>
      </trkpt>
      <trkpt lat="44.5249" lon="2.28127">
        <ele>281.1</ele>
        <time>2011-02-27T08:24:20Z</time>
      </trkpt>
      <trkpt lat="44.52487" lon="2.28124">
        <ele>281.2</ele>
        <time>2011-02-27T08:24:21Z</time>
      </trkpt>
      <trkpt lat="44.52485" lon="2.2812">
        <ele>281.2</ele>
        <time>2011-02-27T08:24:22Z</time>
      </trkpt>
      <trkpt lat="44.52482" lon="2.28117">
        <ele>281.3</ele>
        <time>2011-02-27T08:24:23Z</time>
      </trkpt>
      <trkpt lat="44.52479" lon="2.28113">
        <ele>281.3</ele>
        <time>2011-02-27T08:24:24Z</time>
      </trkpt>
      <trkpt lat="44.52476" lon="2.2811">
        <ele>281.4</ele>
        <time>2011-02-27T08:24:25Z</time>
      </trkpt>
      <trkpt lat="44.52473" lon="2.28107">
        <ele>281.5</ele>
        <time>2011-02-27T08:24:26Z</time>
      </trkpt>
      <trkpt lat="44.5247" lon="2.28105">
        <ele>281.5</ele>
        <time>2011-02-27T08:24:27Z</time>
      </trkpt>
      <trkpt lat="44.52467" lon="2.28102">
        <ele>281.6</ele>
        <time>2011-02-27T08:24:28Z</time>
      </trkpt>
      <trkpt lat="44.52464" lon="2.281">
        <ele>281.7</ele>
        <time>2011-02-27T08:24:29Z</time>
      </trkpt>
      <trkpt lat="44.52461" lon="2.28097">
        <ele>281.8</ele>
        <time>2011-02-27T08:24:30Z</time>
      </trkpt>
      <trkpt lat="44.52459" lon="2.28095">
        <ele>281.9</ele>
        <time>2011-02-27T08:24:31Z</time>
      </trkpt>
      <trkpt lat="44.52456" lon="2.28092">
        <ele>281.9</ele>
        <time>2011-02-27T08:24:32Z</time>
      </trkpt>
      <trkpt lat="44.52454" lon="2.2809">
        <ele>282</ele>
        <time>2011-02-27T08:24:33Z</time>
      </trkpt>
      <trkpt lat="44.52451" lon="2.28088">
        <ele>282.1</ele>
        <time>2011-02-27T08:24:34Z</time>
      </trkpt>
      <trkpt lat="44.52449" lon="2.28086">
        <ele>282.2</ele>
        <time>2011-02-27T08:24:35Z</time>
      </trkpt>
      <trkpt lat="44.52447" lon="2.28085">
        <ele>282.3</ele>
        <time>2011-02-27T08:24:36Z</time>
      </trkpt>
      <trkpt lat="44.52445" lon="2.28083">
        <ele>282.3</ele>
        <time>2011-02-27T08:24:37Z</time>
      </trkpt>
      <trkpt lat="44.52443" lon="2.28081">
        <ele>282.3</ele>
        <time>2011-02-27T08:24:38Z</time>
      </trkpt>
      <trkpt lat="44.52441" lon="2.28079">
        <ele>282.3</ele>
        <time>2011-02-27T08:24:39Z</time>
      </trkpt>
      <trkpt lat="44.52439" lon="2.28078">
        <ele>282.4</ele>
        <time>2011-02-27T08:24:40Z</time>
      </trkpt>
      <trkpt lat="44.52436" lon="2.28075">
        <ele>282.4</ele>
        <time>2011-02-27T08:24:41Z</time>
      </trkpt>
      <trkpt lat="44.52434" lon="2.28074">
        <ele>282.4</ele>
        <time>2011-02-27T08:24:42Z</time>
      </trkpt>
      <trkpt lat="44.52431" lon="2.28072">
        <ele>282.5</ele>
        <time>2011-02-27T08:24:43Z</time>
      </trkpt>
      <trkpt lat="44.52428" lon="2.28071">
        <ele>282.5</ele>
        <time>2011-02-27T08:24:44Z</time>
      </trkpt>
      <trkpt lat="44.52426" lon="2.28069">
        <ele>282.6</ele>
        <time>2011-02-27T08:24:45Z</time>
      </trkpt>
      <trkpt lat="44.52423" lon="2.28068">
        <ele>282.6</ele>
        <time>2011-02-27T08:24:46Z</time>
      </trkpt>
      <trkpt lat="44.5242" lon="2.28067">
        <ele>282.7</ele>
        <time>2011-02-27T08:24:47Z</time>
      </trkpt>
      <trkpt lat="44.52417" lon="2.28066">
        <ele>282.8</ele>
        <time>2011-02-27T08:24:48Z</time>
      </trkpt>
      <trkpt lat="44.52415" lon="2.28065">
        <ele>282.9</ele>
        <time>2011-02-27T08:24:49Z</time>
      </trkpt>
      <trkpt lat="44.52412" lon="2.28064">
        <ele>283.1</ele>
        <time>2011-02-27T08:24:50Z</time>
      </trkpt>
      <trkpt lat="44.52409" lon="2.28063">
        <ele>283.3</ele>
        <time>2011-02-27T08:24:51Z</time>
      </trkpt>
      <trkpt lat="44.52406" lon="2.28062">
        <ele>283.5</ele>
        <time>2011-02-27T08:24:52Z</time>
      </trkpt>
      <trkpt lat="44.52404" lon="2.28061">
        <ele>283.6</ele>
        <time>2011-02-27T08:24:53Z</time>
      </trkpt>
      <trkpt lat="44.52401" lon="2.2806">
        <ele>283.8</ele>
        <time>2011-02-27T08:24:54Z</time>
      </trkpt>
      <trkpt lat="44.52398" lon="2.28059">
        <ele>284</ele>
        <time>2011-02-27T08:24:55Z</time>
      </trkpt>
      <trkpt lat="44.52395" lon="2.28057">
        <ele>284.2</ele>
        <time>2011-02-27T08:24:56Z</time>
      </trkpt>
      <trkpt lat="44.52392" lon="2.28056">
        <ele>284.5</ele>
        <time>2011-02-27T08:24:57Z</time>
      </trkpt>
      <trkpt lat="44.52388" lon="2.28055">
        <ele>284.7</ele>
        <time>2011-02-27T08:24:58Z</time>
      </trkpt>
      <trkpt lat="44.52385" lon="2.28054">
        <ele>285</ele>
        <time>2011-02-27T08:24:59Z</time>
      </trkpt>
      <trkpt lat="44.52381" lon="2.28053">
        <ele>285.2</ele>
        <time>2011-02-27T08:25:00Z</time>
      </trkpt>
      <trkpt lat="44.52378" lon="2.28052">
        <ele>285.4</ele>
        <time>2011-02-27T08:25:01Z</time>
      </trkpt>
      <trkpt lat="44.52375" lon="2.28051">
        <ele>285.7</ele>
        <time>2011-02-27T08:25:02Z</time>
      </trkpt>
      <trkpt lat="44.52371" lon="2.2805">
        <ele>286</ele>
        <time>2011-02-27T08:25:03Z</time>
      </trkpt>
      <trkpt lat="44.52368" lon="2.28048">
        <ele>286.2</ele>
        <time>2011-02-27T08:25:04Z</time>
      </trkpt>
      <trkpt lat="44.52365" lon="2.28047">
        <ele>286.5</ele>
        <time>2011-02-27T08:25:05Z</time>
      </trkpt>
      <trkpt lat="44.52361" lon="2.28046">
        <ele>286.8</ele>
        <time>2011-02-27T08:25:06Z</time>
      </trkpt>
      <trkpt lat="44.52358" lon="2.28045">
        <ele>287</ele>
        <time>2011-02-27T08:25:07Z</time>
      </trkpt>
      <trkpt lat="44.52355" lon="2.28044">
        <ele>287.3</ele>
        <time>2011-02-27T08:25:08Z</time>
      </trkpt>
      <trkpt lat="44.52353" lon="2.28043">
        <ele>287.5</ele>
        <time>2011-02-27T08:25:09Z</time>
      </trkpt>
      <trkpt lat="44.5235" lon="2.28042">
        <ele>287.7</ele>
        <time>2011-02-27T08:25:10Z</time>
      </trkpt>
      <trkpt lat="44.52347" lon="2.28041">
        <ele>288</ele>
        <time>2011-02-27T08:25:11Z</time>
      </trkpt>
      <trkpt lat="44.52344" lon="2.2804">
        <ele>288.2</ele>
        <time>2011-02-27T08:25:12Z</time>
      </trkpt>
      <trkpt lat="44.52342" lon="2.2804">
        <ele>288.4</ele>
        <time>2011-02-27T08:25:13Z</time>
      </trkpt>
      <trkpt lat="44.5234" lon="2.2804">
        <ele>288.6</ele>
        <time>2011-02-27T08:25:14Z</time>
      </trkpt>
      <trkpt lat="44.52337" lon="2.2804">
        <ele>288.8</ele>
        <time>2011-02-27T08:25:15Z</time>
      </trkpt>
      <trkpt lat="44.52335" lon="2.2804">
        <ele>289</ele>
        <time>2011-02-27T08:25:16Z</time>
      </trkpt>
      <trkpt lat="44.52332" lon="2.2804">
        <ele>289.1</ele>
        <time>2011-02-27T08:25:17Z</time>
      </trkpt>
      <trkpt lat="44.5233" lon="2.2804">
        <ele>289.2</ele>
        <time>2011-02-27T08:25:18Z</time>
      </trkpt>
      <trkpt lat="44.52328" lon="2.2804">
        <ele>289.2</ele>
        <time>2011-02-27T08:25:19Z</time>
      </trkpt>
      <trkpt lat="44.52325" lon="2.28041">
        <ele>289.3</ele>
        <time>2011-02-27T08:25:20Z</time>
      </trkpt>
      <trkpt lat="44.52323" lon="2.28041">
        <ele>289.4</ele>
        <time>2011-02-27T08:25:21Z</time>
      </trkpt>
      <trkpt lat="44.52321" lon="2.28042">
        <ele>289.5</ele>
        <time>2011-02-27T08:25:22Z</time>
      </trkpt>
      <trkpt lat="44.52318" lon="2.28043">
        <ele>289.5</ele>
        <time>2011-02-27T08:25:23Z</time>
      </trkpt>
      <trkpt lat="44.52316" lon="2.28043">
        <ele>289.6</ele>
        <time>2011-02-27T08:25:24Z</time>
      </trkpt>
      <trkpt lat="44.52313" lon="2.28044">
        <ele>289.7</ele>
        <time>2011-02-27T08:25:25Z</time>
      </trkpt>
      <trkpt lat="44.52311" lon="2.28045">
        <ele>289.8</ele>
        <time>2011-02-27T08:25:26Z</time>
      </trkpt>
      <trkpt lat="44.52308" lon="2.28045">
        <ele>289.9</ele>
        <time>2011-02-27T08:25:27Z</time>
      </trkpt>
      <trkpt lat="44.52305" lon="2.28046">
        <ele>290</ele>
        <time>2011-02-27T08:25:28Z</time>
      </trkpt>
      <trkpt lat="44.52303" lon="2.28046">
        <ele>290.1</ele>
        <time>2011-02-27T08:25:29Z</time>
      </trkpt>
      <trkpt lat="44.523" lon="2.28045">
        <ele>290.2</ele>
        <time>2011-02-27T08:25:30Z</time>
      </trkpt>
      <trkpt lat="44.52297" lon="2.28044">
        <ele>290.3</ele>
        <time>2011-02-27T08:25:31Z</time>
      </trkpt>
      <trkpt lat="44.52294" lon="2.28043">
        <ele>290.4</ele>
        <time>2011-02-27T08:25:32Z</time>
      </trkpt>
      <trkpt lat="44.52292" lon="2.28041">
        <ele>290.5</ele>
        <time>2011-02-27T08:25:33Z</time>
      </trkpt>
      <trkpt lat="44.52289" lon="2.28039">
        <ele>290.5</ele>
        <time>2011-02-27T08:25:34Z</time>
      </trkpt>
      <trkpt lat="44.52287" lon="2.28036">
        <ele>290.6</ele>
        <time>2011-02-27T08:25:35Z</time>
      </trkpt>
      <trkpt lat="44.52285" lon="2.28033">
        <ele>290.6</ele>
        <time>2011-02-27T08:25:36Z</time>
      </trkpt>
      <trkpt lat="44.52283" lon="2.2803">
        <ele>290.6</ele>
        <time>2011-02-27T08:25:37Z</time>
      </trkpt>
      <trkpt lat="44.52282" lon="2.28027">
        <ele>290.5</ele>
        <time>2011-02-27T08:25:38Z</time>
      </trkpt>
      <trkpt lat="44.5228" lon="2.28024">
        <ele>290.5</ele>
        <time>2011-02-27T08:25:39Z</time>
      </trkpt>
      <trkpt lat="44.52279" lon="2.28021">
        <ele>290.5</ele>
        <time>2011-02-27T08:25:40Z</time>
      </trkpt>
      <trkpt lat="44.52278" lon="2.28018">
        <ele>290.4</ele>
        <time>2011-02-27T08:25:41Z</time>
      </trkpt>
      <trkpt lat="44.52276" lon="2.28016">
        <ele>290.4</ele>
        <time>2011-02-27T08:25:42Z</time>
      </trkpt>
      <trkpt lat="44.52275" lon="2.28013">
        <ele>290.3</ele>
        <time>2011-02-27T08:25:43Z</time>
      </trkpt>
      <trkpt lat="44.52274" lon="2.28009">
        <ele>290.3</ele>
        <time>2011-02-27T08:25:44Z</time>
      </trkpt>
      <trkpt lat="44.52273" lon="2.28006">
        <ele>290.1</ele>
        <time>2011-02-27T08:25:45Z</time>
      </trkpt>
      <trkpt lat="44.52272" lon="2.28003">
        <ele>290.1</ele>
        <time>2011-02-27T08:25:46Z</time>
      </trkpt>
      <trkpt lat="44.52271" lon="2.28">
        <ele>290</ele>
        <time>2011-02-27T08:25:47Z</time>
      </trkpt>
      <trkpt lat="44.52268" lon="2.27995">
        <ele>290.6</ele>
        <time>2011-02-27T08:25:49Z</time>
      </trkpt>
      <trkpt lat="44.52267" lon="2.27992">
        <ele>290.9</ele>
        <time>2011-02-27T08:25:50Z</time>
      </trkpt>
      <trkpt lat="44.52266" lon="2.27989">
        <ele>291.4</ele>
        <time>2011-02-27T08:25:51Z</time>
      </trkpt>
      <trkpt lat="44.52265" lon="2.27986">
        <ele>291.7</ele>
        <time>2011-02-27T08:25:52Z</time>
      </trkpt>
      <trkpt lat="44.52263" lon="2.27983">
        <ele>292.2</ele>
        <time>2011-02-27T08:25:53Z</time>
      </trkpt>
      <trkpt lat="44.52263" lon="2.2798">
        <ele>292.5</ele>
        <time>2011-02-27T08:25:54Z</time>
      </trkpt>
      <trkpt lat="44.5226" lon="2.27974">
        <ele>293.2</ele>
        <time>2011-02-27T08:25:56Z</time>
      </trkpt>
      <trkpt lat="44.52259" lon="2.27969">
        <ele>294</ele>
        <time>2011-02-27T08:25:58Z</time>
      </trkpt>
      <trkpt lat="44.52257" lon="2.27963">
        <ele>294.8</ele>
        <time>2011-02-27T08:26:00Z</time>
      </trkpt>
      <trkpt lat="44.52256" lon="2.2796">
        <ele>295.1</ele>
        <time>2011-02-27T08:26:01Z</time>
      </trkpt>
      <trkpt lat="44.52255" lon="2.27957">
        <ele>295.5</ele>
        <time>2011-02-27T08:26:02Z</time>
      </trkpt>
      <trkpt lat="44.52255" lon="2.27954">
        <ele>296</ele>
        <time>2011-02-27T08:26:03Z</time>
      </trkpt>
      <trkpt lat="44.52254" lon="2.2795">
        <ele>296.5</ele>
        <time>2011-02-27T08:26:04Z</time>
      </trkpt>
      <trkpt lat="44.52253" lon="2.27947">
        <ele>296.9</ele>
        <time>2011-02-27T08:26:05Z</time>
      </trkpt>
      <trkpt lat="44.52253" lon="2.27944">
        <ele>297.4</ele>
        <time>2011-02-27T08:26:06Z</time>
      </trkpt>
      <trkpt lat="44.52252" lon="2.2794">
        <ele>297.8</ele>
        <time>2011-02-27T08:26:07Z</time>
      </trkpt>
      <trkpt lat="44.52251" lon="2.27937">
        <ele>298.4</ele>
        <time>2011-02-27T08:26:08Z</time>
      </trkpt>
      <trkpt lat="44.52251" lon="2.27933">
        <ele>298.9</ele>
        <time>2011-02-27T08:26:09Z</time>
      </trkpt>
      <trkpt lat="44.5225" lon="2.2793">
        <ele>299.3</ele>
        <time>2011-02-27T08:26:10Z</time>
      </trkpt>
      <trkpt lat="44.52249" lon="2.27926">
        <ele>299.8</ele>
        <time>2011-02-27T08:26:11Z</time>
      </trkpt>
      <trkpt lat="44.52248" lon="2.27922">
        <ele>300.3</ele>
        <time>2011-02-27T08:26:12Z</time>
      </trkpt>
      <trkpt lat="44.52247" lon="2.27919">
        <ele>300.8</ele>
        <time>2011-02-27T08:26:13Z</time>
      </trkpt>
      <trkpt lat="44.52246" lon="2.27915">
        <ele>301.1</ele>
        <time>2011-02-27T08:26:14Z</time>
      </trkpt>
      <trkpt lat="44.52245" lon="2.27911">
        <ele>301.2</ele>
        <time>2011-02-27T08:26:15Z</time>
      </trkpt>
      <trkpt lat="44.52245" lon="2.27907">
        <ele>301.4</ele>
        <time>2011-02-27T08:26:16Z</time>
      </trkpt>
      <trkpt lat="44.52244" lon="2.27903">
        <ele>301.5</ele>
        <time>2011-02-27T08:26:17Z</time>
      </trkpt>
      <trkpt lat="44.52243" lon="2.27899">
        <ele>301.7</ele>
        <time>2011-02-27T08:26:18Z</time>
      </trkpt>
      <trkpt lat="44.52243" lon="2.27895">
        <ele>301.9</ele>
        <time>2011-02-27T08:26:19Z</time>
      </trkpt>
      <trkpt lat="44.52242" lon="2.27891">
        <ele>302</ele>
        <time>2011-02-27T08:26:20Z</time>
      </trkpt>
      <trkpt lat="44.52242" lon="2.27887">
        <ele>302.2</ele>
        <time>2011-02-27T08:26:21Z</time>
      </trkpt>
      <trkpt lat="44.52241" lon="2.27884">
        <ele>302.3</ele>
        <time>2011-02-27T08:26:22Z</time>
      </trkpt>
      <trkpt lat="44.52241" lon="2.2788">
        <ele>302.5</ele>
        <time>2011-02-27T08:26:23Z</time>
      </trkpt>
      <trkpt lat="44.52241" lon="2.27876">
        <ele>302.6</ele>
        <time>2011-02-27T08:26:24Z</time>
      </trkpt>
      <trkpt lat="44.5224" lon="2.27872">
        <ele>302.7</ele>
        <time>2011-02-27T08:26:25Z</time>
      </trkpt>
      <trkpt lat="44.5224" lon="2.27868">
        <ele>302.9</ele>
        <time>2011-02-27T08:26:26Z</time>
      </trkpt>
      <trkpt lat="44.52239" lon="2.27864">
        <ele>303</ele>
        <time>2011-02-27T08:26:27Z</time>
      </trkpt>
      <trkpt lat="44.52239" lon="2.2786">
        <ele>303.1</ele>
        <time>2011-02-27T08:26:28Z</time>
      </trkpt>
      <trkpt lat="44.52238" lon="2.27856">
        <ele>303.3</ele>
        <time>2011-02-27T08:26:29Z</time>
      </trkpt>
      <trkpt lat="44.52237" lon="2.27852">
        <ele>303.4</ele>
        <time>2011-02-27T08:26:30Z</time>
      </trkpt>
      <trkpt lat="44.52236" lon="2.27849">
        <ele>303.4</ele>
        <time>2011-02-27T08:26:31Z</time>
      </trkpt>
      <trkpt lat="44.52235" lon="2.27845">
        <ele>303.5</ele>
        <time>2011-02-27T08:26:32Z</time>
      </trkpt>
      <trkpt lat="44.52233" lon="2.27842">
        <ele>303.5</ele>
        <time>2011-02-27T08:26:33Z</time>
      </trkpt>
      <trkpt lat="44.52231" lon="2.2784">
        <ele>303.4</ele>
        <time>2011-02-27T08:26:34Z</time>
      </trkpt>
      <trkpt lat="44.52228" lon="2.27839">
        <ele>303.3</ele>
        <time>2011-02-27T08:26:35Z</time>
      </trkpt>
      <trkpt lat="44.52226" lon="2.27838">
        <ele>303.1</ele>
        <time>2011-02-27T08:26:36Z</time>
      </trkpt>
      <trkpt lat="44.52221" lon="2.27838">
        <ele>302.8</ele>
        <time>2011-02-27T08:26:38Z</time>
      </trkpt>
      <trkpt lat="44.52217" lon="2.27839">
        <ele>302.5</ele>
        <time>2011-02-27T08:26:40Z</time>
      </trkpt>
      <trkpt lat="44.52213" lon="2.27839">
        <ele>302.2</ele>
        <time>2011-02-27T08:26:42Z</time>
      </trkpt>
      <trkpt lat="44.52209" lon="2.27838">
        <ele>302</ele>
        <time>2011-02-27T08:26:44Z</time>
      </trkpt>
      <trkpt lat="44.52206" lon="2.27835">
        <ele>301.8</ele>
        <time>2011-02-27T08:26:46Z</time>
      </trkpt>
      <trkpt lat="44.52205" lon="2.27831">
        <ele>301.7</ele>
        <time>2011-02-27T08:26:48Z</time>
      </trkpt>
      <trkpt lat="44.52203" lon="2.27827">
        <ele>301.6</ele>
        <time>2011-02-27T08:26:50Z</time>
      </trkpt>
      <trkpt lat="44.52201" lon="2.27823">
        <ele>301.5</ele>
        <time>2011-02-27T08:26:52Z</time>
      </trkpt>
      <trkpt lat="44.522" lon="2.27818">
        <ele>301.4</ele>
        <time>2011-02-27T08:26:54Z</time>
      </trkpt>
      <trkpt lat="44.52199" lon="2.27814">
        <ele>301.3</ele>
        <time>2011-02-27T08:26:56Z</time>
      </trkpt>
      <trkpt lat="44.52198" lon="2.2781">
        <ele>301.2</ele>
        <time>2011-02-27T08:26:58Z</time>
      </trkpt>
      <trkpt lat="44.52196" lon="2.27805">
        <ele>301.1</ele>
        <time>2011-02-27T08:27:01Z</time>
      </trkpt>
      <trkpt lat="44.52195" lon="2.27801">
        <ele>301.1</ele>
        <time>2011-02-27T08:27:03Z</time>
      </trkpt>
      <trkpt lat="44.52194" lon="2.27795">
        <ele>301</ele>
        <time>2011-02-27T08:27:06Z</time>
      </trkpt>
      <trkpt lat="44.52194" lon="2.27789">
        <ele>300.9</ele>
        <time>2011-02-27T08:27:09Z</time>
      </trkpt>
      <trkpt lat="44.52193" lon="2.27784">
        <ele>300.9</ele>
        <time>2011-02-27T08:27:11Z</time>
      </trkpt>
      <trkpt lat="44.52193" lon="2.27778">
        <ele>300.9</ele>
        <time>2011-02-27T08:27:13Z</time>
      </trkpt>
      <trkpt lat="44.52193" lon="2.27772">
        <ele>300.9</ele>
        <time>2011-02-27T08:27:15Z</time>
      </trkpt>
      <trkpt lat="44.52192" lon="2.2777">
        <ele>300.9</ele>
        <time>2011-02-27T08:27:16Z</time>
      </trkpt>
      <trkpt lat="44.52192" lon="2.27762">
        <ele>300.8</ele>
        <time>2011-02-27T08:27:19Z</time>
      </trkpt>
      <trkpt lat="44.52192" lon="2.27759">
        <ele>300.8</ele>
        <time>2011-02-27T08:27:20Z</time>
      </trkpt>
      <trkpt lat="44.52191" lon="2.27755">
        <ele>300.8</ele>
        <time>2011-02-27T08:27:21Z</time>
      </trkpt>
      <trkpt lat="44.52191" lon="2.27752">
        <ele>300.8</ele>
        <time>2011-02-27T08:27:22Z</time>
      </trkpt>
      <trkpt lat="44.52191" lon="2.27749">
        <ele>300.8</ele>
        <time>2011-02-27T08:27:23Z</time>
      </trkpt>
      <trkpt lat="44.5219" lon="2.27745">
        <ele>300.8</ele>
        <time>2011-02-27T08:27:24Z</time>
      </trkpt>
      <trkpt lat="44.5219" lon="2.27742">
        <ele>300.8</ele>
        <time>2011-02-27T08:27:25Z</time>
      </trkpt>
      <trkpt lat="44.5219" lon="2.27739">
        <ele>301</ele>
        <time>2011-02-27T08:27:26Z</time>
      </trkpt>
      <trkpt lat="44.5219" lon="2.27735">
        <ele>301</ele>
        <time>2011-02-27T08:27:27Z</time>
      </trkpt>
      <trkpt lat="44.52189" lon="2.27732">
        <ele>301</ele>
        <time>2011-02-27T08:27:28Z</time>
      </trkpt>
      <trkpt lat="44.52188" lon="2.27727">
        <ele>301.1</ele>
        <time>2011-02-27T08:27:29Z</time>
      </trkpt>
      <trkpt lat="44.52187" lon="2.27723">
        <ele>301.1</ele>
        <time>2011-02-27T08:27:30Z</time>
      </trkpt>
      <trkpt lat="44.52187" lon="2.27718">
        <ele>301.2</ele>
        <time>2011-02-27T08:27:31Z</time>
      </trkpt>
      <trkpt lat="44.52186" lon="2.27714">
        <ele>301.3</ele>
        <time>2011-02-27T08:27:32Z</time>
      </trkpt>
      <trkpt lat="44.52185" lon="2.27709">
        <ele>301.4</ele>
        <time>2011-02-27T08:27:33Z</time>
      </trkpt>
      <trkpt lat="44.52184" lon="2.27705">
        <ele>301.4</ele>
        <time>2011-02-27T08:27:34Z</time>
      </trkpt>
      <trkpt lat="44.52183" lon="2.27701">
        <ele>301.5</ele>
        <time>2011-02-27T08:27:35Z</time>
      </trkpt>
      <trkpt lat="44.52182" lon="2.27696">
        <ele>301.6</ele>
        <time>2011-02-27T08:27:36Z</time>
      </trkpt>
      <trkpt lat="44.52181" lon="2.27692">
        <ele>301.7</ele>
        <time>2011-02-27T08:27:37Z</time>
      </trkpt>
      <trkpt lat="44.5218" lon="2.27687">
        <ele>301.8</ele>
        <time>2011-02-27T08:27:38Z</time>
      </trkpt>
      <trkpt lat="44.52179" lon="2.27683">
        <ele>301.9</ele>
        <time>2011-02-27T08:27:39Z</time>
      </trkpt>
      <trkpt lat="44.52178" lon="2.27678">
        <ele>302</ele>
        <time>2011-02-27T08:27:40Z</time>
      </trkpt>
      <trkpt lat="44.52177" lon="2.27674">
        <ele>302.1</ele>
        <time>2011-02-27T08:27:41Z</time>
      </trkpt>
      <trkpt lat="44.52176" lon="2.2767">
        <ele>302.1</ele>
        <time>2011-02-27T08:27:42Z</time>
      </trkpt>
      <trkpt lat="44.52175" lon="2.27665">
        <ele>302.1</ele>
        <time>2011-02-27T08:27:43Z</time>
      </trkpt>
      <trkpt lat="44.52173" lon="2.27661">
        <ele>301.6</ele>
        <time>2011-02-27T08:27:44Z</time>
      </trkpt>
      <trkpt lat="44.52172" lon="2.27657">
        <ele>301.2</ele>
        <time>2011-02-27T08:27:45Z</time>
      </trkpt>
      <trkpt lat="44.52171" lon="2.27653">
        <ele>300.8</ele>
        <time>2011-02-27T08:27:46Z</time>
      </trkpt>
      <trkpt lat="44.5217" lon="2.27648">
        <ele>300.3</ele>
        <time>2011-02-27T08:27:47Z</time>
      </trkpt>
      <trkpt lat="44.52169" lon="2.27643">
        <ele>299.8</ele>
        <time>2011-02-27T08:27:48Z</time>
      </trkpt>
      <trkpt lat="44.52167" lon="2.27639">
        <ele>299.3</ele>
        <time>2011-02-27T08:27:49Z</time>
      </trkpt>
      <trkpt lat="44.52166" lon="2.27634">
        <ele>298.9</ele>
        <time>2011-02-27T08:27:50Z</time>
      </trkpt>
      <trkpt lat="44.52165" lon="2.2763">
        <ele>298.7</ele>
        <time>2011-02-27T08:27:51Z</time>
      </trkpt>
      <trkpt lat="44.52163" lon="2.27626">
        <ele>298.3</ele>
        <time>2011-02-27T08:27:52Z</time>
      </trkpt>
      <trkpt lat="44.52162" lon="2.27621">
        <ele>298</ele>
        <time>2011-02-27T08:27:53Z</time>
      </trkpt>
      <trkpt lat="44.52161" lon="2.27616">
        <ele>297.6</ele>
        <time>2011-02-27T08:27:54Z</time>
      </trkpt>
      <trkpt lat="44.5216" lon="2.27611">
        <ele>297.2</ele>
        <time>2011-02-27T08:27:55Z</time>
      </trkpt>
      <trkpt lat="44.52159" lon="2.27607">
        <ele>296.8</ele>
        <time>2011-02-27T08:27:56Z</time>
      </trkpt>
      <trkpt lat="44.52158" lon="2.27602">
        <ele>296.5</ele>
        <time>2011-02-27T08:27:57Z</time>
      </trkpt>
      <trkpt lat="44.52157" lon="2.27598">
        <ele>296.2</ele>
        <time>2011-02-27T08:27:58Z</time>
      </trkpt>
      <trkpt lat="44.52155" lon="2.27593">
        <ele>295.8</ele>
        <time>2011-02-27T08:27:59Z</time>
      </trkpt>
      <trkpt lat="44.52155" lon="2.27588">
        <ele>295.4</ele>
        <time>2011-02-27T08:28:00Z</time>
      </trkpt>
      <trkpt lat="44.52154" lon="2.27584">
        <ele>295.1</ele>
        <time>2011-02-27T08:28:01Z</time>
      </trkpt>
      <trkpt lat="44.52153" lon="2.27579">
        <ele>294.9</ele>
        <time>2011-02-27T08:28:02Z</time>
      </trkpt>
      <trkpt lat="44.52152" lon="2.27574">
        <ele>294.7</ele>
        <time>2011-02-27T08:28:03Z</time>
      </trkpt>
      <trkpt lat="44.52152" lon="2.27568">
        <ele>294.5</ele>
        <time>2011-02-27T08:28:04Z</time>
      </trkpt>
      <trkpt lat="44.52151" lon="2.27563">
        <ele>294.3</ele>
        <time>2011-02-27T08:28:05Z</time>
      </trkpt>
      <trkpt lat="44.5215" lon="2.27558">
        <ele>294.1</ele>
        <time>2011-02-27T08:28:06Z</time>
      </trkpt>
      <trkpt lat="44.5215" lon="2.27553">
        <ele>293.9</ele>
        <time>2011-02-27T08:28:07Z</time>
      </trkpt>
      <trkpt lat="44.52149" lon="2.27548">
        <ele>293.8</ele>
        <time>2011-02-27T08:28:08Z</time>
      </trkpt>
      <trkpt lat="44.52148" lon="2.27544">
        <ele>293.6</ele>
        <time>2011-02-27T08:28:09Z</time>
      </trkpt>
      <trkpt lat="44.52148" lon="2.27539">
        <ele>293.5</ele>
        <time>2011-02-27T08:28:10Z</time>
      </trkpt>
      <trkpt lat="44.52148" lon="2.27534">
        <ele>293.3</ele>
        <time>2011-02-27T08:28:11Z</time>
      </trkpt>
      <trkpt lat="44.52147" lon="2.27529">
        <ele>293.1</ele>
        <time>2011-02-27T08:28:12Z</time>
      </trkpt>
      <trkpt lat="44.52147" lon="2.27524">
        <ele>292.9</ele>
        <time>2011-02-27T08:28:13Z</time>
      </trkpt>
      <trkpt lat="44.52146" lon="2.27519">
        <ele>292.8</ele>
        <time>2011-02-27T08:28:14Z</time>
      </trkpt>
      <trkpt lat="44.52146" lon="2.27514">
        <ele>292.6</ele>
        <time>2011-02-27T08:28:15Z</time>
      </trkpt>
      <trkpt lat="44.52145" lon="2.27508">
        <ele>292.4</ele>
        <time>2011-02-27T08:28:16Z</time>
      </trkpt>
      <trkpt lat="44.52144" lon="2.27503">
        <ele>292.3</ele>
        <time>2011-02-27T08:28:17Z</time>
      </trkpt>
      <trkpt lat="44.52144" lon="2.27497">
        <ele>292.3</ele>
        <time>2011-02-27T08:28:18Z</time>
      </trkpt>
      <trkpt lat="44.52143" lon="2.27492">
        <ele>292.4</ele>
        <time>2011-02-27T08:28:19Z</time>
      </trkpt>
      <trkpt lat="44.52142" lon="2.27488">
        <ele>292.6</ele>
        <time>2011-02-27T08:28:20Z</time>
      </trkpt>
      <trkpt lat="44.52141" lon="2.27483">
        <ele>292.7</ele>
        <time>2011-02-27T08:28:21Z</time>
      </trkpt>
      <trkpt lat="44.5214" lon="2.27479">
        <ele>292.9</ele>
        <time>2011-02-27T08:28:22Z</time>
      </trkpt>
      <trkpt lat="44.52139" lon="2.27475">
        <ele>293.1</ele>
        <time>2011-02-27T08:28:23Z</time>
      </trkpt>
      <trkpt lat="44.52138" lon="2.27471">
        <ele>293.3</ele>
        <time>2011-02-27T08:28:24Z</time>
      </trkpt>
      <trkpt lat="44.52136" lon="2.27467">
        <ele>293.5</ele>
        <time>2011-02-27T08:28:25Z</time>
      </trkpt>
      <trkpt lat="44.52135" lon="2.27463">
        <ele>293.7</ele>
        <time>2011-02-27T08:28:26Z</time>
      </trkpt>
      <trkpt lat="44.52133" lon="2.27459">
        <ele>293.9</ele>
        <time>2011-02-27T08:28:27Z</time>
      </trkpt>
      <trkpt lat="44.52131" lon="2.27456">
        <ele>294.1</ele>
        <time>2011-02-27T08:28:28Z</time>
      </trkpt>
      <trkpt lat="44.5213" lon="2.27452">
        <ele>294.4</ele>
        <time>2011-02-27T08:28:29Z</time>
      </trkpt>
      <trkpt lat="44.52128" lon="2.27448">
        <ele>294.6</ele>
        <time>2011-02-27T08:28:30Z</time>
      </trkpt>
      <trkpt lat="44.52126" lon="2.27445">
        <ele>294.8</ele>
        <time>2011-02-27T08:28:31Z</time>
      </trkpt>
      <trkpt lat="44.52124" lon="2.27441">
        <ele>295.1</ele>
        <time>2011-02-27T08:28:32Z</time>
      </trkpt>
      <trkpt lat="44.52123" lon="2.27438">
        <ele>295.3</ele>
        <time>2011-02-27T08:28:33Z</time>
      </trkpt>
      <trkpt lat="44.52121" lon="2.27435">
        <ele>295.6</ele>
        <time>2011-02-27T08:28:34Z</time>
      </trkpt>
      <trkpt lat="44.52118" lon="2.27431">
        <ele>295.8</ele>
        <time>2011-02-27T08:28:35Z</time>
      </trkpt>
      <trkpt lat="44.52116" lon="2.27428">
        <ele>296.1</ele>
        <time>2011-02-27T08:28:36Z</time>
      </trkpt>
      <trkpt lat="44.52114" lon="2.27425">
        <ele>296.3</ele>
        <time>2011-02-27T08:28:37Z</time>
      </trkpt>
      <trkpt lat="44.52112" lon="2.27422">
        <ele>296.5</ele>
        <time>2011-02-27T08:28:38Z</time>
      </trkpt>
      <trkpt lat="44.5211" lon="2.27419">
        <ele>296.8</ele>
        <time>2011-02-27T08:28:39Z</time>
      </trkpt>
      <trkpt lat="44.52108" lon="2.27416">
        <ele>297</ele>
        <time>2011-02-27T08:28:40Z</time>
      </trkpt>
      <trkpt lat="44.52106" lon="2.27414">
        <ele>297.1</ele>
        <time>2011-02-27T08:28:41Z</time>
      </trkpt>
      <trkpt lat="44.52104" lon="2.27411">
        <ele>297.3</ele>
        <time>2011-02-27T08:28:42Z</time>
      </trkpt>
      <trkpt lat="44.52102" lon="2.27409">
        <ele>297.5</ele>
        <time>2011-02-27T08:28:43Z</time>
      </trkpt>
      <trkpt lat="44.521" lon="2.27406">
        <ele>297.6</ele>
        <time>2011-02-27T08:28:44Z</time>
      </trkpt>
      <trkpt lat="44.52098" lon="2.27404">
        <ele>297.8</ele>
        <time>2011-02-27T08:28:45Z</time>
      </trkpt>
      <trkpt lat="44.52096" lon="2.27401">
        <ele>297.9</ele>
        <time>2011-02-27T08:28:46Z</time>
      </trkpt>
      <trkpt lat="44.52093" lon="2.27399">
        <ele>298.1</ele>
        <time>2011-02-27T08:28:47Z</time>
      </trkpt>
      <trkpt lat="44.52091" lon="2.27396">
        <ele>298.2</ele>
        <time>2011-02-27T08:28:48Z</time>
      </trkpt>
      <trkpt lat="44.52089" lon="2.27394">
        <ele>298.3</ele>
        <time>2011-02-27T08:28:49Z</time>
      </trkpt>
      <trkpt lat="44.52087" lon="2.27391">
        <ele>298.4</ele>
        <time>2011-02-27T08:28:50Z</time>
      </trkpt>
      <trkpt lat="44.52084" lon="2.27389">
        <ele>298.5</ele>
        <time>2011-02-27T08:28:51Z</time>
      </trkpt>
      <trkpt lat="44.52082" lon="2.27387">
        <ele>298.6</ele>
        <time>2011-02-27T08:28:52Z</time>
      </trkpt>
      <trkpt lat="44.5208" lon="2.27385">
        <ele>298.7</ele>
        <time>2011-02-27T08:28:53Z</time>
      </trkpt>
      <trkpt lat="44.52078" lon="2.27383">
        <ele>298.7</ele>
        <time>2011-02-27T08:28:54Z</time>
      </trkpt>
      <trkpt lat="44.52076" lon="2.27381">
        <ele>298.7</ele>
        <time>2011-02-27T08:28:55Z</time>
      </trkpt>
      <trkpt lat="44.52074" lon="2.27379">
        <ele>298.8</ele>
        <time>2011-02-27T08:28:56Z</time>
      </trkpt>
      <trkpt lat="44.52072" lon="2.27377">
        <ele>298.8</ele>
        <time>2011-02-27T08:28:57Z</time>
      </trkpt>
      <trkpt lat="44.5207" lon="2.27375">
        <ele>298.7</ele>
        <time>2011-02-27T08:28:58Z</time>
      </trkpt>
      <trkpt lat="44.52068" lon="2.27373">
        <ele>298.8</ele>
        <time>2011-02-27T08:28:59Z</time>
      </trkpt>
      <trkpt lat="44.52065" lon="2.27371">
        <ele>298.7</ele>
        <time>2011-02-27T08:29:00Z</time>
      </trkpt>
      <trkpt lat="44.52063" lon="2.27369">
        <ele>298.8</ele>
        <time>2011-02-27T08:29:01Z</time>
      </trkpt>
      <trkpt lat="44.52061" lon="2.27367">
        <ele>298.7</ele>
        <time>2011-02-27T08:29:02Z</time>
      </trkpt>
      <trkpt lat="44.52058" lon="2.27365">
        <ele>298.8</ele>
        <time>2011-02-27T08:29:03Z</time>
      </trkpt>
      <trkpt lat="44.52056" lon="2.27363">
        <ele>298.7</ele>
        <time>2011-02-27T08:29:04Z</time>
      </trkpt>
      <trkpt lat="44.52053" lon="2.27361">
        <ele>298.7</ele>
        <time>2011-02-27T08:29:05Z</time>
      </trkpt>
      <trkpt lat="44.52051" lon="2.27359">
        <ele>298.8</ele>
        <time>2011-02-27T08:29:06Z</time>
      </trkpt>
      <trkpt lat="44.52048" lon="2.27358">
        <ele>298.7</ele>
        <time>2011-02-27T08:29:07Z</time>
      </trkpt>
      <trkpt lat="44.52046" lon="2.27356">
        <ele>298.7</ele>
        <time>2011-02-27T08:29:08Z</time>
      </trkpt>
      <trkpt lat="44.52044" lon="2.27354">
        <ele>298.6</ele>
        <time>2011-02-27T08:29:09Z</time>
      </trkpt>
      <trkpt lat="44.52041" lon="2.27352">
        <ele>298.5</ele>
        <time>2011-02-27T08:29:10Z</time>
      </trkpt>
      <trkpt lat="44.52039" lon="2.2735">
        <ele>298.5</ele>
        <time>2011-02-27T08:29:11Z</time>
      </trkpt>
      <trkpt lat="44.52037" lon="2.27349">
        <ele>298.4</ele>
        <time>2011-02-27T08:29:12Z</time>
      </trkpt>
      <trkpt lat="44.52034" lon="2.27347">
        <ele>298.4</ele>
        <time>2011-02-27T08:29:13Z</time>
      </trkpt>
      <trkpt lat="44.52032" lon="2.27345">
        <ele>298.3</ele>
        <time>2011-02-27T08:29:14Z</time>
      </trkpt>
      <trkpt lat="44.5203" lon="2.27343">
        <ele>298.1</ele>
        <time>2011-02-27T08:29:15Z</time>
      </trkpt>
      <trkpt lat="44.52028" lon="2.27342">
        <ele>298.1</ele>
        <time>2011-02-27T08:29:16Z</time>
      </trkpt>
      <trkpt lat="44.52026" lon="2.27339">
        <ele>297.9</ele>
        <time>2011-02-27T08:29:17Z</time>
      </trkpt>
      <trkpt lat="44.52023" lon="2.27337">
        <ele>297.7</ele>
        <time>2011-02-27T08:29:18Z</time>
      </trkpt>
      <trkpt lat="44.52021" lon="2.27334">
        <ele>297.5</ele>
        <time>2011-02-27T08:29:19Z</time>
      </trkpt>
      <trkpt lat="44.52019" lon="2.2733">
        <ele>297.5</ele>
        <time>2011-02-27T08:29:20Z</time>
      </trkpt>
      <trkpt lat="44.52017" lon="2.27327">
        <ele>297.5</ele>
        <time>2011-02-27T08:29:21Z</time>
      </trkpt>
      <trkpt lat="44.52015" lon="2.27325">
        <ele>297.6</ele>
        <time>2011-02-27T08:29:22Z</time>
      </trkpt>
      <trkpt lat="44.52013" lon="2.27322">
        <ele>297.6</ele>
        <time>2011-02-27T08:29:23Z</time>
      </trkpt>
      <trkpt lat="44.5201" lon="2.27319">
        <ele>297.6</ele>
        <time>2011-02-27T08:29:24Z</time>
      </trkpt>
      <trkpt lat="44.52008" lon="2.27315">
        <ele>297.7</ele>
        <time>2011-02-27T08:29:25Z</time>
      </trkpt>
      <trkpt lat="44.52006" lon="2.27312">
        <ele>297.6</ele>
        <time>2011-02-27T08:29:26Z</time>
      </trkpt>
      <trkpt lat="44.52004" lon="2.27308">
        <ele>297.6</ele>
        <time>2011-02-27T08:29:27Z</time>
      </trkpt>
      <trkpt lat="44.52002" lon="2.27304">
        <ele>297.6</ele>
        <time>2011-02-27T08:29:28Z</time>
      </trkpt>
      <trkpt lat="44.52" lon="2.27299">
        <ele>297.6</ele>
        <time>2011-02-27T08:29:29Z</time>
      </trkpt>
      <trkpt lat="44.51998" lon="2.27294">
        <ele>297.6</ele>
        <time>2011-02-27T08:29:30Z</time>
      </trkpt>
      <trkpt lat="44.51996" lon="2.2729">
        <ele>297.7</ele>
        <time>2011-02-27T08:29:31Z</time>
      </trkpt>
      <trkpt lat="44.51994" lon="2.27285">
        <ele>297.8</ele>
        <time>2011-02-27T08:29:32Z</time>
      </trkpt>
      <trkpt lat="44.51992" lon="2.27281">
        <ele>297.9</ele>
        <time>2011-02-27T08:29:33Z</time>
      </trkpt>
      <trkpt lat="44.51989" lon="2.27278">
        <ele>298.1</ele>
        <time>2011-02-27T08:29:34Z</time>
      </trkpt>
      <trkpt lat="44.51985" lon="2.27275">
        <ele>298.3</ele>
        <time>2011-02-27T08:29:35Z</time>
      </trkpt>
      <trkpt lat="44.51981" lon="2.27274">
        <ele>298.5</ele>
        <time>2011-02-27T08:29:36Z</time>
      </trkpt>
      <trkpt lat="44.51977" lon="2.27274">
        <ele>298.7</ele>
        <time>2011-02-27T08:29:37Z</time>
      </trkpt>
      <trkpt lat="44.51974" lon="2.27274">
        <ele>298.9</ele>
        <time>2011-02-27T08:29:38Z</time>
      </trkpt>
      <trkpt lat="44.51971" lon="2.27274">
        <ele>299.1</ele>
        <time>2011-02-27T08:29:39Z</time>
      </trkpt>
      <trkpt lat="44.51969" lon="2.27275">
        <ele>299.3</ele>
        <time>2011-02-27T08:29:40Z</time>
      </trkpt>
      <trkpt lat="44.51966" lon="2.27275">
        <ele>299.4</ele>
        <time>2011-02-27T08:29:41Z</time>
      </trkpt>
      <trkpt lat="44.51964" lon="2.27276">
        <ele>299.6</ele>
        <time>2011-02-27T08:29:42Z</time>
      </trkpt>
      <trkpt lat="44.51961" lon="2.27276">
        <ele>299.8</ele>
        <time>2011-02-27T08:29:43Z</time>
      </trkpt>
      <trkpt lat="44.51958" lon="2.27275">
        <ele>299.9</ele>
        <time>2011-02-27T08:29:44Z</time>
      </trkpt>
      <trkpt lat="44.51956" lon="2.27274">
        <ele>300.1</ele>
        <time>2011-02-27T08:29:45Z</time>
      </trkpt>
      <trkpt lat="44.51953" lon="2.27272">
        <ele>300.2</ele>
        <time>2011-02-27T08:29:46Z</time>
      </trkpt>
      <trkpt lat="44.51951" lon="2.2727">
        <ele>300.3</ele>
        <time>2011-02-27T08:29:47Z</time>
      </trkpt>
      <trkpt lat="44.51949" lon="2.27267">
        <ele>300.4</ele>
        <time>2011-02-27T08:29:48Z</time>
      </trkpt>
      <trkpt lat="44.51947" lon="2.27264">
        <ele>300.4</ele>
        <time>2011-02-27T08:29:49Z</time>
      </trkpt>
      <trkpt lat="44.51945" lon="2.27261">
        <ele>300.5</ele>
        <time>2011-02-27T08:29:50Z</time>
      </trkpt>
      <trkpt lat="44.51944" lon="2.27258">
        <ele>300.5</ele>
        <time>2011-02-27T08:29:51Z</time>
      </trkpt>
      <trkpt lat="44.51942" lon="2.27255">
        <ele>300.5</ele>
        <time>2011-02-27T08:29:52Z</time>
      </trkpt>
      <trkpt lat="44.51941" lon="2.27252">
        <ele>300.6</ele>
        <time>2011-02-27T08:29:53Z</time>
      </trkpt>
      <trkpt lat="44.51939" lon="2.27249">
        <ele>300.7</ele>
        <time>2011-02-27T08:29:54Z</time>
      </trkpt>
      <trkpt lat="44.51937" lon="2.27246">
        <ele>301.1</ele>
        <time>2011-02-27T08:29:55Z</time>
      </trkpt>
      <trkpt lat="44.51936" lon="2.27243">
        <ele>301.4</ele>
        <time>2011-02-27T08:29:56Z</time>
      </trkpt>
      <trkpt lat="44.51934" lon="2.2724">
        <ele>301.7</ele>
        <time>2011-02-27T08:29:57Z</time>
      </trkpt>
      <trkpt lat="44.51932" lon="2.27237">
        <ele>302</ele>
        <time>2011-02-27T08:29:58Z</time>
      </trkpt>
      <trkpt lat="44.5193" lon="2.27234">
        <ele>302.3</ele>
        <time>2011-02-27T08:29:59Z</time>
      </trkpt>
      <trkpt lat="44.51929" lon="2.27231">
        <ele>302.5</ele>
        <time>2011-02-27T08:30:00Z</time>
      </trkpt>
      <trkpt lat="44.51928" lon="2.27228">
        <ele>302.8</ele>
        <time>2011-02-27T08:30:01Z</time>
      </trkpt>
      <trkpt lat="44.51925" lon="2.27224">
        <ele>303.2</ele>
        <time>2011-02-27T08:30:03Z</time>
      </trkpt>
      <trkpt lat="44.51923" lon="2.27219">
        <ele>303.6</ele>
        <time>2011-02-27T08:30:05Z</time>
      </trkpt>
      <trkpt lat="44.5192" lon="2.27216">
        <ele>303.9</ele>
        <time>2011-02-27T08:30:07Z</time>
      </trkpt>
      <trkpt lat="44.51917" lon="2.27214">
        <ele>304.2</ele>
        <time>2011-02-27T08:30:09Z</time>
      </trkpt>
      <trkpt lat="44.51914" lon="2.27215">
        <ele>304.2</ele>
        <time>2011-02-27T08:30:11Z</time>
      </trkpt>
      <trkpt lat="44.5191" lon="2.27216">
        <ele>304.3</ele>
        <time>2011-02-27T08:30:15Z</time>
      </trkpt>
      <trkpt lat="44.51906" lon="2.27219">
        <ele>304.3</ele>
        <time>2011-02-27T08:30:18Z</time>
      </trkpt>
      <trkpt lat="44.51905" lon="2.2722">
        <ele>304.3</ele>
        <time>2011-02-27T08:30:19Z</time>
      </trkpt>
      <trkpt lat="44.519" lon="2.27221">
        <ele>304.3</ele>
        <time>2011-02-27T08:30:22Z</time>
      </trkpt>
      <trkpt lat="44.51896" lon="2.27222">
        <ele>304.5</ele>
        <time>2011-02-27T08:30:25Z</time>
      </trkpt>
      <trkpt lat="44.51892" lon="2.27223">
        <ele>304.5</ele>
        <time>2011-02-27T08:30:28Z</time>
      </trkpt>
      <trkpt lat="44.51888" lon="2.27223">
        <ele>304.7</ele>
        <time>2011-02-27T08:30:30Z</time>
      </trkpt>
      <trkpt lat="44.51884" lon="2.27224">
        <ele>304.8</ele>
        <time>2011-02-27T08:30:32Z</time>
      </trkpt>
      <trkpt lat="44.5188" lon="2.27224">
        <ele>304.8</ele>
        <time>2011-02-27T08:30:34Z</time>
      </trkpt>
      <trkpt lat="44.51876" lon="2.27224">
        <ele>305</ele>
        <time>2011-02-27T08:30:36Z</time>
      </trkpt>
      <trkpt lat="44.51872" lon="2.27224">
        <ele>305.1</ele>
        <time>2011-02-27T08:30:38Z</time>
      </trkpt>
      <trkpt lat="44.51869" lon="2.27225">
        <ele>305.2</ele>
        <time>2011-02-27T08:30:40Z</time>
      </trkpt>
      <trkpt lat="44.51865" lon="2.27225">
        <ele>305.3</ele>
        <time>2011-02-27T08:30:42Z</time>
      </trkpt>
      <trkpt lat="44.51862" lon="2.27224">
        <ele>305.4</ele>
        <time>2011-02-27T08:30:44Z</time>
      </trkpt>
      <trkpt lat="44.51858" lon="2.27224">
        <ele>305.6</ele>
        <time>2011-02-27T08:30:46Z</time>
      </trkpt>
      <trkpt lat="44.51854" lon="2.27224">
        <ele>305.7</ele>
        <time>2011-02-27T08:30:48Z</time>
      </trkpt>
      <trkpt lat="44.51851" lon="2.27224">
        <ele>306</ele>
        <time>2011-02-27T08:30:50Z</time>
      </trkpt>
      <trkpt lat="44.51848" lon="2.27223">
        <ele>306.1</ele>
        <time>2011-02-27T08:30:52Z</time>
      </trkpt>
      <trkpt lat="44.51845" lon="2.27221">
        <ele>306.4</ele>
        <time>2011-02-27T08:30:54Z</time>
      </trkpt>
      <trkpt lat="44.51841" lon="2.2722">
        <ele>306.8</ele>
        <time>2011-02-27T08:30:57Z</time>
      </trkpt>
      <trkpt lat="44.51837" lon="2.27219">
        <ele>307.2</ele>
        <time>2011-02-27T08:31:00Z</time>
      </trkpt>
      <trkpt lat="44.51834" lon="2.27217">
        <ele>307.3</ele>
        <time>2011-02-27T08:31:02Z</time>
      </trkpt>
      <trkpt lat="44.51831" lon="2.27217">
        <ele>307.8</ele>
        <time>2011-02-27T08:31:04Z</time>
      </trkpt>
      <trkpt lat="44.51827" lon="2.27215">
        <ele>308.4</ele>
        <time>2011-02-27T08:31:07Z</time>
      </trkpt>
      <trkpt lat="44.51823" lon="2.27214">
        <ele>309</ele>
        <time>2011-02-27T08:31:10Z</time>
      </trkpt>
      <trkpt lat="44.51819" lon="2.27214">
        <ele>309.4</ele>
        <time>2011-02-27T08:31:13Z</time>
      </trkpt>
      <trkpt lat="44.51815" lon="2.27214">
        <ele>309.9</ele>
        <time>2011-02-27T08:31:16Z</time>
      </trkpt>
      <trkpt lat="44.51812" lon="2.27214">
        <ele>310.2</ele>
        <time>2011-02-27T08:31:18Z</time>
      </trkpt>
      <trkpt lat="44.51808" lon="2.27213">
        <ele>310.8</ele>
        <time>2011-02-27T08:31:20Z</time>
      </trkpt>
      <trkpt lat="44.51806" lon="2.27212">
        <ele>311</ele>
        <time>2011-02-27T08:31:21Z</time>
      </trkpt>
      <trkpt lat="44.51802" lon="2.2721">
        <ele>311.8</ele>
        <time>2011-02-27T08:31:23Z</time>
      </trkpt>
      <trkpt lat="44.51799" lon="2.27206">
        <ele>312.8</ele>
        <time>2011-02-27T08:31:25Z</time>
      </trkpt>
      <trkpt lat="44.51797" lon="2.27203">
        <ele>313.7</ele>
        <time>2011-02-27T08:31:27Z</time>
      </trkpt>
      <trkpt lat="44.51795" lon="2.27197">
        <ele>314.6</ele>
        <time>2011-02-27T08:31:32Z</time>
      </trkpt>
      <trkpt lat="44.51796" lon="2.27192">
        <ele>315.2</ele>
        <time>2011-02-27T08:31:37Z</time>
      </trkpt>
      <trkpt lat="44.51798" lon="2.27187">
        <ele>315.8</ele>
        <time>2011-02-27T08:31:41Z</time>
      </trkpt>
      <trkpt lat="44.51799" lon="2.27181">
        <ele>316.4</ele>
        <time>2011-02-27T08:31:44Z</time>
      </trkpt>
      <trkpt lat="44.51801" lon="2.27176">
        <ele>317.2</ele>
        <time>2011-02-27T08:31:47Z</time>
      </trkpt>
      <trkpt lat="44.51802" lon="2.27172">
        <ele>317.6</ele>
        <time>2011-02-27T08:31:49Z</time>
      </trkpt>
      <trkpt lat="44.51804" lon="2.27166">
        <ele>318.2</ele>
        <time>2011-02-27T08:31:52Z</time>
      </trkpt>
      <trkpt lat="44.51806" lon="2.27161">
        <ele>318.9</ele>
        <time>2011-02-27T08:31:55Z</time>
      </trkpt>
      <trkpt lat="44.51808" lon="2.27157">
        <ele>319.4</ele>
        <time>2011-02-27T08:31:59Z</time>
      </trkpt>
      <trkpt lat="44.51811" lon="2.27153">
        <ele>319.9</ele>
        <time>2011-02-27T08:32:04Z</time>
      </trkpt>
      <trkpt lat="44.51813" lon="2.27148">
        <ele>320.7</ele>
        <time>2011-02-27T08:32:09Z</time>
      </trkpt>
      <trkpt lat="44.51816" lon="2.27144">
        <ele>321.2</ele>
        <time>2011-02-27T08:32:12Z</time>
      </trkpt>
      <trkpt lat="44.51819" lon="2.27141">
        <ele>321.6</ele>
        <time>2011-02-27T08:32:14Z</time>
      </trkpt>
      <trkpt lat="44.51821" lon="2.27138">
        <ele>321.9</ele>
        <time>2011-02-27T08:32:16Z</time>
      </trkpt>
      <trkpt lat="44.51824" lon="2.27134">
        <ele>322.6</ele>
        <time>2011-02-27T08:32:18Z</time>
      </trkpt>
      <trkpt lat="44.51825" lon="2.27132">
        <ele>323.1</ele>
        <time>2011-02-27T08:32:19Z</time>
      </trkpt>
      <trkpt lat="44.51828" lon="2.27127">
        <ele>324</ele>
        <time>2011-02-27T08:32:21Z</time>
      </trkpt>
      <trkpt lat="44.5183" lon="2.27125">
        <ele>324.3</ele>
        <time>2011-02-27T08:32:22Z</time>
      </trkpt>
      <trkpt lat="44.51831" lon="2.27122">
        <ele>324.7</ele>
        <time>2011-02-27T08:32:23Z</time>
      </trkpt>
      <trkpt lat="44.51833" lon="2.2712">
        <ele>325.3</ele>
        <time>2011-02-27T08:32:24Z</time>
      </trkpt>
      <trkpt lat="44.51835" lon="2.27118">
        <ele>325.7</ele>
        <time>2011-02-27T08:32:25Z</time>
      </trkpt>
      <trkpt lat="44.51837" lon="2.27115">
        <ele>326.1</ele>
        <time>2011-02-27T08:32:26Z</time>
      </trkpt>
      <trkpt lat="44.5184" lon="2.27112">
        <ele>326.6</ele>
        <time>2011-02-27T08:32:28Z</time>
      </trkpt>
      <trkpt lat="44.51843" lon="2.27109">
        <ele>326.8</ele>
        <time>2011-02-27T08:32:30Z</time>
      </trkpt>
      <trkpt lat="44.51845" lon="2.27108">
        <ele>326.8</ele>
        <time>2011-02-27T08:32:31Z</time>
      </trkpt>
      <trkpt lat="44.51848" lon="2.27107">
        <ele>326.5</ele>
        <time>2011-02-27T08:32:32Z</time>
      </trkpt>
      <trkpt lat="44.5185" lon="2.27106">
        <ele>326.5</ele>
        <time>2011-02-27T08:32:33Z</time>
      </trkpt>
      <trkpt lat="44.51853" lon="2.27105">
        <ele>326.1</ele>
        <time>2011-02-27T08:32:34Z</time>
      </trkpt>
      <trkpt lat="44.51856" lon="2.27105">
        <ele>326.1</ele>
        <time>2011-02-27T08:32:35Z</time>
      </trkpt>
      <trkpt lat="44.5186" lon="2.27104">
        <ele>325.9</ele>
        <time>2011-02-27T08:32:37Z</time>
      </trkpt>
      <trkpt lat="44.51863" lon="2.27103">
        <ele>325.7</ele>
        <time>2011-02-27T08:32:39Z</time>
      </trkpt>
      <trkpt lat="44.51867" lon="2.27102">
        <ele>325.2</ele>
        <time>2011-02-27T08:32:41Z</time>
      </trkpt>
      <trkpt lat="44.5187" lon="2.27101">
        <ele>325.1</ele>
        <time>2011-02-27T08:32:43Z</time>
      </trkpt>
      <trkpt lat="44.51874" lon="2.271">
        <ele>324.6</ele>
        <time>2011-02-27T08:32:45Z</time>
      </trkpt>
      <trkpt lat="44.51878" lon="2.271">
        <ele>324.3</ele>
        <time>2011-02-27T08:32:47Z</time>
      </trkpt>
      <trkpt lat="44.51882" lon="2.27099">
        <ele>323.9</ele>
        <time>2011-02-27T08:32:49Z</time>
      </trkpt>
      <trkpt lat="44.51885" lon="2.27098">
        <ele>323.6</ele>
        <time>2011-02-27T08:32:51Z</time>
      </trkpt>
      <trkpt lat="44.51889" lon="2.27097">
        <ele>323.4</ele>
        <time>2011-02-27T08:32:53Z</time>
      </trkpt>
      <trkpt lat="44.51892" lon="2.27096">
        <ele>323.2</ele>
        <time>2011-02-27T08:32:55Z</time>
      </trkpt>
      <trkpt lat="44.51895" lon="2.27095">
        <ele>322.8</ele>
        <time>2011-02-27T08:32:56Z</time>
      </trkpt>
      <trkpt lat="44.51897" lon="2.27094">
        <ele>322.8</ele>
        <time>2011-02-27T08:32:57Z</time>
      </trkpt>
      <trkpt lat="44.51899" lon="2.27093">
        <ele>322.8</ele>
        <time>2011-02-27T08:32:58Z</time>
      </trkpt>
      <trkpt lat="44.51902" lon="2.27092">
        <ele>322.7</ele>
        <time>2011-02-27T08:32:59Z</time>
      </trkpt>
      <trkpt lat="44.51904" lon="2.27091">
        <ele>322.6</ele>
        <time>2011-02-27T08:33:00Z</time>
      </trkpt>
      <trkpt lat="44.51906" lon="2.27089">
        <ele>322.6</ele>
        <time>2011-02-27T08:33:01Z</time>
      </trkpt>
      <trkpt lat="44.51909" lon="2.27086">
        <ele>322.5</ele>
        <time>2011-02-27T08:33:03Z</time>
      </trkpt>
      <trkpt lat="44.51913" lon="2.27084">
        <ele>322.5</ele>
        <time>2011-02-27T08:33:05Z</time>
      </trkpt>
      <trkpt lat="44.51917" lon="2.27081">
        <ele>322.6</ele>
        <time>2011-02-27T08:33:07Z</time>
      </trkpt>
      <trkpt lat="44.51921" lon="2.27079">
        <ele>322.8</ele>
        <time>2011-02-27T08:33:09Z</time>
      </trkpt>
      <trkpt lat="44.51924" lon="2.27076">
        <ele>323</ele>
        <time>2011-02-27T08:33:11Z</time>
      </trkpt>
      <trkpt lat="44.51927" lon="2.27073">
        <ele>323.5</ele>
        <time>2011-02-27T08:33:13Z</time>
      </trkpt>
      <trkpt lat="44.5193" lon="2.2707">
        <ele>323.6</ele>
        <time>2011-02-27T08:33:15Z</time>
      </trkpt>
      <trkpt lat="44.51934" lon="2.27067">
        <ele>323.8</ele>
        <time>2011-02-27T08:33:17Z</time>
      </trkpt>
      <trkpt lat="44.51937" lon="2.27064">
        <ele>324.3</ele>
        <time>2011-02-27T08:33:19Z</time>
      </trkpt>
      <trkpt lat="44.5194" lon="2.27061">
        <ele>324.4</ele>
        <time>2011-02-27T08:33:21Z</time>
      </trkpt>
      <trkpt lat="44.51943" lon="2.27057">
        <ele>324.6</ele>
        <time>2011-02-27T08:33:23Z</time>
      </trkpt>
      <trkpt lat="44.51944" lon="2.27056">
        <ele>325</ele>
        <time>2011-02-27T08:33:24Z</time>
      </trkpt>
      <trkpt lat="44.51948" lon="2.2705">
        <ele>325.6</ele>
        <time>2011-02-27T08:33:27Z</time>
      </trkpt>
      <trkpt lat="44.5195" lon="2.27046">
        <ele>326</ele>
        <time>2011-02-27T08:33:29Z</time>
      </trkpt>
      <trkpt lat="44.51953" lon="2.27042">
        <ele>326.5</ele>
        <time>2011-02-27T08:33:31Z</time>
      </trkpt>
      <trkpt lat="44.51955" lon="2.27038">
        <ele>327</ele>
        <time>2011-02-27T08:33:33Z</time>
      </trkpt>
      <trkpt lat="44.51958" lon="2.27035">
        <ele>327.4</ele>
        <time>2011-02-27T08:33:35Z</time>
      </trkpt>
      <trkpt lat="44.5196" lon="2.27031">
        <ele>327.8</ele>
        <time>2011-02-27T08:33:37Z</time>
      </trkpt>
      <trkpt lat="44.51963" lon="2.27028">
        <ele>327.9</ele>
        <time>2011-02-27T08:33:39Z</time>
      </trkpt>
      <trkpt lat="44.51966" lon="2.27025">
        <ele>327.9</ele>
        <time>2011-02-27T08:33:41Z</time>
      </trkpt>
      <trkpt lat="44.51969" lon="2.27023">
        <ele>327.9</ele>
        <time>2011-02-27T08:33:43Z</time>
      </trkpt>
      <trkpt lat="44.51973" lon="2.27021">
        <ele>327.6</ele>
        <time>2011-02-27T08:33:45Z</time>
      </trkpt>
      <trkpt lat="44.51976" lon="2.27018">
        <ele>327.8</ele>
        <time>2011-02-27T08:33:47Z</time>
      </trkpt>
      <trkpt lat="44.5198" lon="2.27015">
        <ele>327.8</ele>
        <time>2011-02-27T08:33:49Z</time>
      </trkpt>
      <trkpt lat="44.51983" lon="2.27013">
        <ele>327.5</ele>
        <time>2011-02-27T08:33:51Z</time>
      </trkpt>
      <trkpt lat="44.51987" lon="2.27011">
        <ele>327.4</ele>
        <time>2011-02-27T08:33:53Z</time>
      </trkpt>
      <trkpt lat="44.51991" lon="2.27008">
        <ele>327.2</ele>
        <time>2011-02-27T08:33:55Z</time>
      </trkpt>
      <trkpt lat="44.51993" lon="2.27006">
        <ele>327.3</ele>
        <time>2011-02-27T08:33:56Z</time>
      </trkpt>
      <trkpt lat="44.51995" lon="2.27004">
        <ele>327.4</ele>
        <time>2011-02-27T08:33:57Z</time>
      </trkpt>
      <trkpt lat="44.51998" lon="2.27">
        <ele>327.3</ele>
        <time>2011-02-27T08:33:59Z</time>
      </trkpt>
      <trkpt lat="44.52002" lon="2.26997">
        <ele>327.5</ele>
        <time>2011-02-27T08:34:01Z</time>
      </trkpt>
      <trkpt lat="44.52004" lon="2.26994">
        <ele>327.6</ele>
        <time>2011-02-27T08:34:03Z</time>
      </trkpt>
      <trkpt lat="44.52007" lon="2.26989">
        <ele>328.2</ele>
        <time>2011-02-27T08:34:05Z</time>
      </trkpt>
      <trkpt lat="44.5201" lon="2.26985">
        <ele>328.6</ele>
        <time>2011-02-27T08:34:07Z</time>
      </trkpt>
      <trkpt lat="44.52013" lon="2.2698">
        <ele>328.9</ele>
        <time>2011-02-27T08:34:09Z</time>
      </trkpt>
      <trkpt lat="44.52016" lon="2.26976">
        <ele>329.5</ele>
        <time>2011-02-27T08:34:11Z</time>
      </trkpt>
      <trkpt lat="44.52018" lon="2.26973">
        <ele>329.7</ele>
        <time>2011-02-27T08:34:13Z</time>
      </trkpt>
      <trkpt lat="44.52021" lon="2.26969">
        <ele>330.2</ele>
        <time>2011-02-27T08:34:15Z</time>
      </trkpt>
      <trkpt lat="44.52023" lon="2.26965">
        <ele>330.7</ele>
        <time>2011-02-27T08:34:17Z</time>
      </trkpt>
      <trkpt lat="44.52025" lon="2.2696">
        <ele>331</ele>
        <time>2011-02-27T08:34:20Z</time>
      </trkpt>
      <trkpt lat="44.52028" lon="2.26956">
        <ele>331.4</ele>
        <time>2011-02-27T08:34:23Z</time>
      </trkpt>
      <trkpt lat="44.5203" lon="2.26953">
        <ele>331.8</ele>
        <time>2011-02-27T08:34:26Z</time>
      </trkpt>
      <trkpt lat="44.52031" lon="2.26951">
        <ele>331.9</ele>
        <time>2011-02-27T08:34:27Z</time>
      </trkpt>
      <trkpt lat="44.52034" lon="2.26944">
        <ele>332.8</ele>
        <time>2011-02-27T08:34:33Z</time>
      </trkpt>
      <trkpt lat="44.52036" lon="2.26938">
        <ele>333.4</ele>
        <time>2011-02-27T08:34:38Z</time>
      </trkpt>
      <trkpt lat="44.52039" lon="2.26934">
        <ele>333.7</ele>
        <time>2011-02-27T08:34:46Z</time>
      </trkpt>
      <trkpt lat="44.52043" lon="2.26932">
        <ele>333.7</ele>
        <time>2011-02-27T08:34:55Z</time>
      </trkpt>
      <trkpt lat="44.52041" lon="2.26927">
        <ele>334.7</ele>
        <time>2011-02-27T08:35:00Z</time>
      </trkpt>
      <trkpt lat="44.52039" lon="2.26922">
        <ele>335.6</ele>
        <time>2011-02-27T08:35:03Z</time>
      </trkpt>
      <trkpt lat="44.5204" lon="2.26917">
        <ele>336.2</ele>
        <time>2011-02-27T08:35:10Z</time>
      </trkpt>
      <trkpt lat="44.52041" lon="2.26911">
        <ele>336.9</ele>
        <time>2011-02-27T08:35:20Z</time>
      </trkpt>
      <trkpt lat="44.5204" lon="2.26905">
        <ele>337.7</ele>
        <time>2011-02-27T08:35:32Z</time>
      </trkpt>
      <trkpt lat="44.5204" lon="2.26904">
        <ele>337.9</ele>
        <time>2011-02-27T08:35:33Z</time>
      </trkpt>
      <trkpt lat="44.52035" lon="2.26897">
        <ele>339.5</ele>
        <time>2011-02-27T08:35:40Z</time>
      </trkpt>
      <trkpt lat="44.52032" lon="2.26893">
        <ele>340.3</ele>
        <time>2011-02-27T08:35:44Z</time>
      </trkpt>
      <trkpt lat="44.52029" lon="2.26888">
        <ele>341.2</ele>
        <time>2011-02-27T08:35:50Z</time>
      </trkpt>
      <trkpt lat="44.52027" lon="2.26884">
        <ele>342.2</ele>
        <time>2011-02-27T08:36:00Z</time>
      </trkpt>
      <trkpt lat="44.52026" lon="2.26878">
        <ele>343</ele>
        <time>2011-02-27T08:36:07Z</time>
      </trkpt>
      <trkpt lat="44.52024" lon="2.26872">
        <ele>344.1</ele>
        <time>2011-02-27T08:36:19Z</time>
      </trkpt>
      <trkpt lat="44.52022" lon="2.26868">
        <ele>345</ele>
        <time>2011-02-27T08:36:25Z</time>
      </trkpt>
      <trkpt lat="44.52019" lon="2.26864">
        <ele>345.9</ele>
        <time>2011-02-27T08:36:31Z</time>
      </trkpt>
      <trkpt lat="44.52017" lon="2.2686">
        <ele>346.8</ele>
        <time>2011-02-27T08:36:37Z</time>
      </trkpt>
      <trkpt lat="44.52017" lon="2.26859">
        <ele>347</ele>
        <time>2011-02-27T08:36:38Z</time>
      </trkpt>
      <trkpt lat="44.52013" lon="2.26849">
        <ele>349</ele>
        <time>2011-02-27T08:36:56Z</time>
      </trkpt>
      <trkpt lat="44.5201" lon="2.26844">
        <ele>350.2</ele>
        <time>2011-02-27T08:37:05Z</time>
      </trkpt>
      <trkpt lat="44.52007" lon="2.26839">
        <ele>351.2</ele>
        <time>2011-02-27T08:37:13Z</time>
      </trkpt>
      <trkpt lat="44.52003" lon="2.26838">
        <ele>352</ele>
        <time>2011-02-27T08:37:22Z</time>
      </trkpt>
      <trkpt lat="44.51999" lon="2.26837">
        <ele>352.7</ele>
        <time>2011-02-27T08:37:27Z</time>
      </trkpt>
      <trkpt lat="44.51995" lon="2.26838">
        <ele>353.3</ele>
        <time>2011-02-27T08:37:33Z</time>
      </trkpt>
      <trkpt lat="44.51991" lon="2.26839">
        <ele>353.8</ele>
        <time>2011-02-27T08:37:40Z</time>
      </trkpt>
      <trkpt lat="44.5199" lon="2.26839">
        <ele>353.9</ele>
        <time>2011-02-27T08:37:41Z</time>
      </trkpt>
      <trkpt lat="44.51983" lon="2.26838">
        <ele>355.4</ele>
        <time>2011-02-27T08:37:49Z</time>
      </trkpt>
      <trkpt lat="44.51979" lon="2.26836">
        <ele>356.5</ele>
        <time>2011-02-27T08:38:02Z</time>
      </trkpt>
      <trkpt lat="44.51979" lon="2.2683">
        <ele>357.3</ele>
        <time>2011-02-27T08:38:12Z</time>
      </trkpt>
      <trkpt lat="44.51975" lon="2.26827">
        <ele>358.3</ele>
        <time>2011-02-27T08:38:22Z</time>
      </trkpt>
      <trkpt lat="44.51973" lon="2.26822">
        <ele>359.3</ele>
        <time>2011-02-27T08:38:32Z</time>
      </trkpt>
      <trkpt lat="44.51972" lon="2.26816">
        <ele>360.2</ele>
        <time>2011-02-27T08:38:40Z</time>
      </trkpt>
      <trkpt lat="44.51972" lon="2.2681">
        <ele>360.9</ele>
        <time>2011-02-27T08:39:04Z</time>
      </trkpt>
      <trkpt lat="44.51972" lon="2.2681">
        <ele>360.9</ele>
        <time>2011-02-27T08:39:05Z</time>
      </trkpt>
      <trkpt lat="44.51965" lon="2.26803">
        <ele>363.3</ele>
        <time>2011-02-27T08:40:04Z</time>
      </trkpt>
      <trkpt lat="44.51961" lon="2.26802">
        <ele>364.2</ele>
        <time>2011-02-27T08:40:46Z</time>
      </trkpt>
      <trkpt lat="44.5196" lon="2.26802">
        <ele>364.4</ele>
        <time>2011-02-27T08:40:47Z</time>
      </trkpt>
      <trkpt lat="44.51954" lon="2.26802">
        <ele>365.3</ele>
        <time>2011-02-27T08:40:52Z</time>
      </trkpt>
      <trkpt lat="44.51949" lon="2.26804">
        <ele>365.9</ele>
        <time>2011-02-27T08:40:56Z</time>
      </trkpt>
      <trkpt lat="44.51946" lon="2.26806">
        <ele>366.4</ele>
        <time>2011-02-27T08:41:00Z</time>
      </trkpt>
      <trkpt lat="44.51941" lon="2.26805">
        <ele>367.2</ele>
        <time>2011-02-27T08:41:04Z</time>
      </trkpt>
      <trkpt lat="44.51938" lon="2.26806">
        <ele>367.7</ele>
        <time>2011-02-27T08:41:07Z</time>
      </trkpt>
      <trkpt lat="44.51934" lon="2.26808">
        <ele>368.3</ele>
        <time>2011-02-27T08:41:11Z</time>
      </trkpt>
      <trkpt lat="44.5193" lon="2.26812">
        <ele>368.4</ele>
        <time>2011-02-27T08:41:15Z</time>
      </trkpt>
      <trkpt lat="44.51927" lon="2.26815">
        <ele>368.7</ele>
        <time>2011-02-27T08:41:18Z</time>
      </trkpt>
      <trkpt lat="44.51924" lon="2.26817">
        <ele>368.8</ele>
        <time>2011-02-27T08:41:20Z</time>
      </trkpt>
      <trkpt lat="44.51921" lon="2.2682">
        <ele>368.9</ele>
        <time>2011-02-27T08:41:22Z</time>
      </trkpt>
      <trkpt lat="44.51918" lon="2.26824">
        <ele>369.1</ele>
        <time>2011-02-27T08:41:24Z</time>
      </trkpt>
      <trkpt lat="44.51914" lon="2.26827">
        <ele>369.4</ele>
        <time>2011-02-27T08:41:26Z</time>
      </trkpt>
      <trkpt lat="44.51911" lon="2.26828">
        <ele>369.7</ele>
        <time>2011-02-27T08:41:28Z</time>
      </trkpt>
      <trkpt lat="44.51907" lon="2.2683">
        <ele>370.2</ele>
        <time>2011-02-27T08:41:30Z</time>
      </trkpt>
      <trkpt lat="44.51903" lon="2.26831">
        <ele>370.8</ele>
        <time>2011-02-27T08:41:32Z</time>
      </trkpt>
      <trkpt lat="44.51899" lon="2.26832">
        <ele>371.3</ele>
        <time>2011-02-27T08:41:35Z</time>
      </trkpt>
      <trkpt lat="44.51895" lon="2.26834">
        <ele>371.6</ele>
        <time>2011-02-27T08:41:38Z</time>
      </trkpt>
      <trkpt lat="44.51892" lon="2.26836">
        <ele>371.7</ele>
        <time>2011-02-27T08:41:41Z</time>
      </trkpt>
      <trkpt lat="44.51889" lon="2.26839">
        <ele>371.9</ele>
        <time>2011-02-27T08:41:44Z</time>
      </trkpt>
      <trkpt lat="44.51885" lon="2.26842">
        <ele>372.1</ele>
        <time>2011-02-27T08:41:47Z</time>
      </trkpt>
      <trkpt lat="44.51884" lon="2.26842">
        <ele>372.2</ele>
        <time>2011-02-27T08:41:48Z</time>
      </trkpt>
      <trkpt lat="44.51878" lon="2.26847">
        <ele>372.6</ele>
        <time>2011-02-27T08:41:53Z</time>
      </trkpt>
      <trkpt lat="44.51875" lon="2.26849">
        <ele>372.8</ele>
        <time>2011-02-27T08:41:56Z</time>
      </trkpt>
      <trkpt lat="44.51871" lon="2.26852">
        <ele>373</ele>
        <time>2011-02-27T08:41:59Z</time>
      </trkpt>
      <trkpt lat="44.51868" lon="2.26855">
        <ele>373.2</ele>
        <time>2011-02-27T08:42:02Z</time>
      </trkpt>
      <trkpt lat="44.51865" lon="2.26858">
        <ele>373.3</ele>
        <time>2011-02-27T08:42:05Z</time>
      </trkpt>
      <trkpt lat="44.51862" lon="2.26862">
        <ele>373.3</ele>
        <time>2011-02-27T08:42:08Z</time>
      </trkpt>
      <trkpt lat="44.51858" lon="2.26865">
        <ele>373.6</ele>
        <time>2011-02-27T08:42:11Z</time>
      </trkpt>
      <trkpt lat="44.51855" lon="2.26868">
        <ele>373.9</ele>
        <time>2011-02-27T08:42:14Z</time>
      </trkpt>
      <trkpt lat="44.51852" lon="2.26871">
        <ele>374.2</ele>
        <time>2011-02-27T08:42:17Z</time>
      </trkpt>
      <trkpt lat="44.51848" lon="2.26874">
        <ele>374.3</ele>
        <time>2011-02-27T08:42:20Z</time>
      </trkpt>
      <trkpt lat="44.51844" lon="2.26876">
        <ele>374.9</ele>
        <time>2011-02-27T08:42:23Z</time>
      </trkpt>
      <trkpt lat="44.51841" lon="2.26879">
        <ele>375</ele>
        <time>2011-02-27T08:42:26Z</time>
      </trkpt>
      <trkpt lat="44.51838" lon="2.26881">
        <ele>375.3</ele>
        <time>2011-02-27T08:42:29Z</time>
      </trkpt>
      <trkpt lat="44.51834" lon="2.26882">
        <ele>376.1</ele>
        <time>2011-02-27T08:42:32Z</time>
      </trkpt>
      <trkpt lat="44.51831" lon="2.26882">
        <ele>376.7</ele>
        <time>2011-02-27T08:42:34Z</time>
      </trkpt>
      <trkpt lat="44.51828" lon="2.26883">
        <ele>377.4</ele>
        <time>2011-02-27T08:42:36Z</time>
      </trkpt>
      <trkpt lat="44.51824" lon="2.26883">
        <ele>378</ele>
        <time>2011-02-27T08:42:39Z</time>
      </trkpt>
      <trkpt lat="44.5182" lon="2.26884">
        <ele>378.8</ele>
        <time>2011-02-27T08:42:43Z</time>
      </trkpt>
      <trkpt lat="44.51815" lon="2.26885">
        <ele>379.6</ele>
        <time>2011-02-27T08:42:47Z</time>
      </trkpt>
      <trkpt lat="44.51812" lon="2.26886">
        <ele>380.3</ele>
        <time>2011-02-27T08:42:51Z</time>
      </trkpt>
      <trkpt lat="44.51811" lon="2.26887">
        <ele>380.5</ele>
        <time>2011-02-27T08:42:52Z</time>
      </trkpt>
      <trkpt lat="44.51805" lon="2.26889">
        <ele>381</ele>
        <time>2011-02-27T08:42:57Z</time>
      </trkpt>
      <trkpt lat="44.51801" lon="2.2689">
        <ele>381.8</ele>
        <time>2011-02-27T08:43:00Z</time>
      </trkpt>
      <trkpt lat="44.51798" lon="2.26893">
        <ele>382</ele>
        <time>2011-02-27T08:43:04Z</time>
      </trkpt>
      <trkpt lat="44.51793" lon="2.26895">
        <ele>382.6</ele>
        <time>2011-02-27T08:43:08Z</time>
      </trkpt>
      <trkpt lat="44.51789" lon="2.26897">
        <ele>383</ele>
        <time>2011-02-27T08:43:12Z</time>
      </trkpt>
      <trkpt lat="44.51786" lon="2.26899">
        <ele>383.6</ele>
        <time>2011-02-27T08:43:15Z</time>
      </trkpt>
      <trkpt lat="44.51782" lon="2.26899">
        <ele>384.3</ele>
        <time>2011-02-27T08:43:18Z</time>
      </trkpt>
      <trkpt lat="44.51778" lon="2.26899">
        <ele>385</ele>
        <time>2011-02-27T08:43:21Z</time>
      </trkpt>
      <trkpt lat="44.51774" lon="2.26899">
        <ele>385.7</ele>
        <time>2011-02-27T08:43:24Z</time>
      </trkpt>
      <trkpt lat="44.5177" lon="2.269">
        <ele>386.3</ele>
        <time>2011-02-27T08:43:27Z</time>
      </trkpt>
      <trkpt lat="44.51767" lon="2.269">
        <ele>387</ele>
        <time>2011-02-27T08:43:30Z</time>
      </trkpt>
      <trkpt lat="44.51763" lon="2.26899">
        <ele>388</ele>
        <time>2011-02-27T08:43:33Z</time>
      </trkpt>
      <trkpt lat="44.5176" lon="2.26898">
        <ele>388.7</ele>
        <time>2011-02-27T08:43:36Z</time>
      </trkpt>
      <trkpt lat="44.51756" lon="2.26898">
        <ele>389.5</ele>
        <time>2011-02-27T08:43:39Z</time>
      </trkpt>
      <trkpt lat="44.51752" lon="2.26898">
        <ele>390.3</ele>
        <time>2011-02-27T08:43:42Z</time>
      </trkpt>
      <trkpt lat="44.51749" lon="2.26897">
        <ele>391</ele>
        <time>2011-02-27T08:43:45Z</time>
      </trkpt>
      <trkpt lat="44.51744" lon="2.26897">
        <ele>392</ele>
        <time>2011-02-27T08:43:48Z</time>
      </trkpt>
      <trkpt lat="44.51741" lon="2.26895">
        <ele>392.9</ele>
        <time>2011-02-27T08:43:51Z</time>
      </trkpt>
      <trkpt lat="44.51737" lon="2.26895">
        <ele>393.7</ele>
        <time>2011-02-27T08:43:54Z</time>
      </trkpt>
      <trkpt lat="44.51736" lon="2.26895">
        <ele>393.9</ele>
        <time>2011-02-27T08:43:55Z</time>
      </trkpt>
      <trkpt lat="44.51729" lon="2.26892">
        <ele>395.7</ele>
        <time>2011-02-27T08:44:00Z</time>
      </trkpt>
      <trkpt lat="44.51725" lon="2.26891">
        <ele>396.8</ele>
        <time>2011-02-27T08:44:03Z</time>
      </trkpt>
      <trkpt lat="44.51722" lon="2.2689">
        <ele>397.8</ele>
        <time>2011-02-27T08:44:06Z</time>
      </trkpt>
      <trkpt lat="44.51718" lon="2.26888">
        <ele>399.2</ele>
        <time>2011-02-27T08:44:09Z</time>
      </trkpt>
      <trkpt lat="44.51715" lon="2.26886">
        <ele>400.2</ele>
        <time>2011-02-27T08:44:12Z</time>
      </trkpt>
      <trkpt lat="44.51711" lon="2.26885">
        <ele>401.2</ele>
        <time>2011-02-27T08:44:14Z</time>
      </trkpt>
      <trkpt lat="44.51707" lon="2.26883">
        <ele>402.3</ele>
        <time>2011-02-27T08:44:17Z</time>
      </trkpt>
      <trkpt lat="44.51704" lon="2.26882">
        <ele>403.4</ele>
        <time>2011-02-27T08:44:20Z</time>
      </trkpt>
      <trkpt lat="44.517" lon="2.26881">
        <ele>404.7</ele>
        <time>2011-02-27T08:44:23Z</time>
      </trkpt>
      <trkpt lat="44.51696" lon="2.26879">
        <ele>405.8</ele>
        <time>2011-02-27T08:44:26Z</time>
      </trkpt>
      <trkpt lat="44.51692" lon="2.26879">
        <ele>407</ele>
        <time>2011-02-27T08:44:29Z</time>
      </trkpt>
      <trkpt lat="44.51688" lon="2.26878">
        <ele>407.9</ele>
        <time>2011-02-27T08:44:33Z</time>
      </trkpt>
      <trkpt lat="44.51684" lon="2.26879">
        <ele>408.7</ele>
        <time>2011-02-27T08:44:36Z</time>
      </trkpt>
      <trkpt lat="44.51681" lon="2.26879">
        <ele>409.6</ele>
        <time>2011-02-27T08:44:39Z</time>
      </trkpt>
      <trkpt lat="44.51677" lon="2.2688">
        <ele>409.9</ele>
        <time>2011-02-27T08:44:42Z</time>
      </trkpt>
      <trkpt lat="44.51673" lon="2.26881">
        <ele>410.4</ele>
        <time>2011-02-27T08:44:45Z</time>
      </trkpt>
      <trkpt lat="44.51669" lon="2.26882">
        <ele>410.7</ele>
        <time>2011-02-27T08:44:48Z</time>
      </trkpt>
      <trkpt lat="44.51666" lon="2.26882">
        <ele>411.3</ele>
        <time>2011-02-27T08:44:51Z</time>
      </trkpt>
      <trkpt lat="44.51662" lon="2.26883">
        <ele>411.3</ele>
        <time>2011-02-27T08:44:54Z</time>
      </trkpt>
      <trkpt lat="44.51658" lon="2.26884">
        <ele>411.2</ele>
        <time>2011-02-27T08:44:57Z</time>
      </trkpt>
      <trkpt lat="44.51657" lon="2.26885">
        <ele>411.4</ele>
        <time>2011-02-27T08:44:58Z</time>
      </trkpt>
      <trkpt lat="44.51652" lon="2.26885">
        <ele>411.9</ele>
        <time>2011-02-27T08:45:01Z</time>
      </trkpt>
      <trkpt lat="44.51648" lon="2.26885">
        <ele>412.3</ele>
        <time>2011-02-27T08:45:03Z</time>
      </trkpt>
      <trkpt lat="44.51644" lon="2.26884">
        <ele>413.1</ele>
        <time>2011-02-27T08:45:05Z</time>
      </trkpt>
      <trkpt lat="44.5164" lon="2.26883">
        <ele>413.5</ele>
        <time>2011-02-27T08:45:07Z</time>
      </trkpt>
      <trkpt lat="44.51637" lon="2.26882">
        <ele>414.2</ele>
        <time>2011-02-27T08:45:09Z</time>
      </trkpt>
      <trkpt lat="44.51633" lon="2.26881">
        <ele>415</ele>
        <time>2011-02-27T08:45:12Z</time>
      </trkpt>
      <trkpt lat="44.51629" lon="2.2688">
        <ele>415.4</ele>
        <time>2011-02-27T08:45:15Z</time>
      </trkpt>
      <trkpt lat="44.51625" lon="2.26879">
        <ele>416.2</ele>
        <time>2011-02-27T08:45:18Z</time>
      </trkpt>
      <trkpt lat="44.51622" lon="2.26878">
        <ele>416.8</ele>
        <time>2011-02-27T08:45:20Z</time>
      </trkpt>
      <trkpt lat="44.51618" lon="2.26877">
        <ele>417.5</ele>
        <time>2011-02-27T08:45:22Z</time>
      </trkpt>
      <trkpt lat="44.51614" lon="2.26875">
        <ele>418.2</ele>
        <time>2011-02-27T08:45:25Z</time>
      </trkpt>
      <trkpt lat="44.5161" lon="2.26872">
        <ele>419.2</ele>
        <time>2011-02-27T08:45:29Z</time>
      </trkpt>
      <trkpt lat="44.51606" lon="2.26873">
        <ele>419.6</ele>
        <time>2011-02-27T08:45:34Z</time>
      </trkpt>
      <trkpt lat="44.51602" lon="2.26873">
        <ele>420</ele>
        <time>2011-02-27T08:45:40Z</time>
      </trkpt>
      <trkpt lat="44.51598" lon="2.26873">
        <ele>420.3</ele>
        <time>2011-02-27T08:45:46Z</time>
      </trkpt>
      <trkpt lat="44.51594" lon="2.26874">
        <ele>420.3</ele>
        <time>2011-02-27T08:45:53Z</time>
      </trkpt>
      <trkpt lat="44.5159" lon="2.26875">
        <ele>420.4</ele>
        <time>2011-02-27T08:46:02Z</time>
      </trkpt>
      <trkpt lat="44.51589" lon="2.26875">
        <ele>420.4</ele>
        <time>2011-02-27T08:46:03Z</time>
      </trkpt>
      <trkpt lat="44.51581" lon="2.26876">
        <ele>420.7</ele>
        <time>2011-02-27T08:46:30Z</time>
      </trkpt>
      <trkpt lat="44.51581" lon="2.26871">
        <ele>422</ele>
        <time>2011-02-27T08:47:53Z</time>
      </trkpt>
      <trkpt lat="44.51581" lon="2.26869">
        <ele>422.3</ele>
        <time>2011-02-27T08:47:54Z</time>
      </trkpt>
      <trkpt lat="44.51577" lon="2.26861">
        <ele>423.8</ele>
        <time>2011-02-27T08:48:00Z</time>
      </trkpt>
      <trkpt lat="44.51575" lon="2.26856">
        <ele>424.8</ele>
        <time>2011-02-27T08:48:08Z</time>
      </trkpt>
      <trkpt lat="44.51572" lon="2.26851">
        <ele>425.7</ele>
        <time>2011-02-27T08:48:22Z</time>
      </trkpt>
      <trkpt lat="44.51569" lon="2.26847">
        <ele>426.3</ele>
        <time>2011-02-27T08:48:32Z</time>
      </trkpt>
      <trkpt lat="44.51567" lon="2.26844">
        <ele>427</ele>
        <time>2011-02-27T08:48:36Z</time>
      </trkpt>
      <trkpt lat="44.51564" lon="2.2684">
        <ele>427.6</ele>
        <time>2011-02-27T08:48:40Z</time>
      </trkpt>
      <trkpt lat="44.51562" lon="2.26834">
        <ele>428.5</ele>
        <time>2011-02-27T08:48:44Z</time>
      </trkpt>
      <trkpt lat="44.5156" lon="2.2683">
        <ele>428.8</ele>
        <time>2011-02-27T08:48:46Z</time>
      </trkpt>
      <trkpt lat="44.51558" lon="2.26824">
        <ele>429.4</ele>
        <time>2011-02-27T08:48:48Z</time>
      </trkpt>
      <trkpt lat="44.51556" lon="2.26819">
        <ele>429.9</ele>
        <time>2011-02-27T08:48:50Z</time>
      </trkpt>
      <trkpt lat="44.51554" lon="2.26816">
        <ele>430.3</ele>
        <time>2011-02-27T08:48:52Z</time>
      </trkpt>
      <trkpt lat="44.51552" lon="2.26812">
        <ele>430.6</ele>
        <time>2011-02-27T08:48:54Z</time>
      </trkpt>
      <trkpt lat="44.51552" lon="2.2681">
        <ele>430.8</ele>
        <time>2011-02-27T08:48:55Z</time>
      </trkpt>
      <trkpt lat="44.51548" lon="2.26803">
        <ele>431.5</ele>
        <time>2011-02-27T08:48:59Z</time>
      </trkpt>
      <trkpt lat="44.51546" lon="2.26799">
        <ele>431.8</ele>
        <time>2011-02-27T08:49:01Z</time>
      </trkpt>
      <trkpt lat="44.51544" lon="2.26796">
        <ele>431.9</ele>
        <time>2011-02-27T08:49:03Z</time>
      </trkpt>
      <trkpt lat="44.51541" lon="2.26792">
        <ele>432.2</ele>
        <time>2011-02-27T08:49:05Z</time>
      </trkpt>
      <trkpt lat="44.51539" lon="2.26789">
        <ele>432.3</ele>
        <time>2011-02-27T08:49:07Z</time>
      </trkpt>
      <trkpt lat="44.51535" lon="2.26785">
        <ele>432.5</ele>
        <time>2011-02-27T08:49:09Z</time>
      </trkpt>
      <trkpt lat="44.51532" lon="2.26781">
        <ele>432.7</ele>
        <time>2011-02-27T08:49:11Z</time>
      </trkpt>
      <trkpt lat="44.51529" lon="2.26778">
        <ele>432.8</ele>
        <time>2011-02-27T08:49:13Z</time>
      </trkpt>
      <trkpt lat="44.51525" lon="2.26774">
        <ele>433</ele>
        <time>2011-02-27T08:49:15Z</time>
      </trkpt>
      <trkpt lat="44.51522" lon="2.26771">
        <ele>433</ele>
        <time>2011-02-27T08:49:17Z</time>
      </trkpt>
      <trkpt lat="44.51519" lon="2.26767">
        <ele>433.1</ele>
        <time>2011-02-27T08:49:20Z</time>
      </trkpt>
      <trkpt lat="44.51517" lon="2.26763">
        <ele>433.3</ele>
        <time>2011-02-27T08:49:23Z</time>
      </trkpt>
      <trkpt lat="44.51514" lon="2.2676">
        <ele>433.5</ele>
        <time>2011-02-27T08:49:26Z</time>
      </trkpt>
      <trkpt lat="44.51512" lon="2.26756">
        <ele>433.7</ele>
        <time>2011-02-27T08:49:28Z</time>
      </trkpt>
      <trkpt lat="44.51511" lon="2.26751">
        <ele>434.2</ele>
        <time>2011-02-27T08:49:30Z</time>
      </trkpt>
      <trkpt lat="44.51509" lon="2.26747">
        <ele>434.6</ele>
        <time>2011-02-27T08:49:32Z</time>
      </trkpt>
      <trkpt lat="44.51507" lon="2.26742">
        <ele>435</ele>
        <time>2011-02-27T08:49:35Z</time>
      </trkpt>
      <trkpt lat="44.51505" lon="2.26738">
        <ele>435.4</ele>
        <time>2011-02-27T08:49:37Z</time>
      </trkpt>
      <trkpt lat="44.51504" lon="2.26734">
        <ele>436.2</ele>
        <time>2011-02-27T08:49:39Z</time>
      </trkpt>
      <trkpt lat="44.51503" lon="2.26728">
        <ele>437</ele>
        <time>2011-02-27T08:49:42Z</time>
      </trkpt>
      <trkpt lat="44.51506" lon="2.26723">
        <ele>438.1</ele>
        <time>2011-02-27T08:49:46Z</time>
      </trkpt>
      <trkpt lat="44.51509" lon="2.26722">
        <ele>438.7</ele>
        <time>2011-02-27T08:49:52Z</time>
      </trkpt>
      <trkpt lat="44.51514" lon="2.26721">
        <ele>439.3</ele>
        <time>2011-02-27T08:49:58Z</time>
      </trkpt>
      <trkpt lat="44.51514" lon="2.2672">
        <ele>439.3</ele>
        <time>2011-02-27T08:49:59Z</time>
      </trkpt>
      <trkpt lat="44.51522" lon="2.26719">
        <ele>440.2</ele>
        <time>2011-02-27T08:50:10Z</time>
      </trkpt>
      <trkpt lat="44.51525" lon="2.26719">
        <ele>440.5</ele>
        <time>2011-02-27T08:50:14Z</time>
      </trkpt>
      <trkpt lat="44.51529" lon="2.26718">
        <ele>441.1</ele>
        <time>2011-02-27T08:50:18Z</time>
      </trkpt>
      <trkpt lat="44.51533" lon="2.26719">
        <ele>441.3</ele>
        <time>2011-02-27T08:50:22Z</time>
      </trkpt>
      <trkpt lat="44.51537" lon="2.26719">
        <ele>441.8</ele>
        <time>2011-02-27T08:50:26Z</time>
      </trkpt>
      <trkpt lat="44.51541" lon="2.26719">
        <ele>441.9</ele>
        <time>2011-02-27T08:50:30Z</time>
      </trkpt>
      <trkpt lat="44.51545" lon="2.26719">
        <ele>442.4</ele>
        <time>2011-02-27T08:50:33Z</time>
      </trkpt>
      <trkpt lat="44.51549" lon="2.26718">
        <ele>442.8</ele>
        <time>2011-02-27T08:50:37Z</time>
      </trkpt>
      <trkpt lat="44.51553" lon="2.26717">
        <ele>443.4</ele>
        <time>2011-02-27T08:50:40Z</time>
      </trkpt>
      <trkpt lat="44.51557" lon="2.26715">
        <ele>444.1</ele>
        <time>2011-02-27T08:50:43Z</time>
      </trkpt>
      <trkpt lat="44.5156" lon="2.26713">
        <ele>444.5</ele>
        <time>2011-02-27T08:50:45Z</time>
      </trkpt>
      <trkpt lat="44.51563" lon="2.26711">
        <ele>445</ele>
        <time>2011-02-27T08:50:47Z</time>
      </trkpt>
      <trkpt lat="44.51566" lon="2.26709">
        <ele>445.6</ele>
        <time>2011-02-27T08:50:49Z</time>
      </trkpt>
      <trkpt lat="44.51569" lon="2.26707">
        <ele>446</ele>
        <time>2011-02-27T08:50:51Z</time>
      </trkpt>
      <trkpt lat="44.51573" lon="2.26705">
        <ele>446.6</ele>
        <time>2011-02-27T08:50:53Z</time>
      </trkpt>
      <trkpt lat="44.51576" lon="2.26702">
        <ele>447.2</ele>
        <time>2011-02-27T08:50:55Z</time>
      </trkpt>
      <trkpt lat="44.51579" lon="2.267">
        <ele>447.8</ele>
        <time>2011-02-27T08:50:57Z</time>
      </trkpt>
      <trkpt lat="44.51583" lon="2.26698">
        <ele>448.4</ele>
        <time>2011-02-27T08:50:59Z</time>
      </trkpt>
      <trkpt lat="44.51584" lon="2.26697">
        <ele>448.3</ele>
        <time>2011-02-27T08:51:00Z</time>
      </trkpt>
      <trkpt lat="44.5159" lon="2.26694">
        <ele>448.5</ele>
        <time>2011-02-27T08:51:03Z</time>
      </trkpt>
      <trkpt lat="44.51593" lon="2.26692">
        <ele>448.4</ele>
        <time>2011-02-27T08:51:05Z</time>
      </trkpt>
      <trkpt lat="44.51597" lon="2.2669">
        <ele>448.4</ele>
        <time>2011-02-27T08:51:07Z</time>
      </trkpt>
      <trkpt lat="44.516" lon="2.26688">
        <ele>448.3</ele>
        <time>2011-02-27T08:51:09Z</time>
      </trkpt>
      <trkpt lat="44.51604" lon="2.26686">
        <ele>448.1</ele>
        <time>2011-02-27T08:51:11Z</time>
      </trkpt>
      <trkpt lat="44.51607" lon="2.26684">
        <ele>448.1</ele>
        <time>2011-02-27T08:51:13Z</time>
      </trkpt>
      <trkpt lat="44.5161" lon="2.26682">
        <ele>448</ele>
        <time>2011-02-27T08:51:15Z</time>
      </trkpt>
      <trkpt lat="44.51613" lon="2.2668">
        <ele>448</ele>
        <time>2011-02-27T08:51:17Z</time>
      </trkpt>
      <trkpt lat="44.51617" lon="2.26678">
        <ele>447.9</ele>
        <time>2011-02-27T08:51:20Z</time>
      </trkpt>
      <trkpt lat="44.51621" lon="2.26676">
        <ele>447.7</ele>
        <time>2011-02-27T08:51:23Z</time>
      </trkpt>
      <trkpt lat="44.51625" lon="2.26674">
        <ele>447.5</ele>
        <time>2011-02-27T08:51:26Z</time>
      </trkpt>
      <trkpt lat="44.51629" lon="2.26671">
        <ele>447.3</ele>
        <time>2011-02-27T08:51:29Z</time>
      </trkpt>
      <trkpt lat="44.51633" lon="2.26669">
        <ele>447.2</ele>
        <time>2011-02-27T08:51:32Z</time>
      </trkpt>
      <trkpt lat="44.51637" lon="2.26666">
        <ele>446.9</ele>
        <time>2011-02-27T08:51:36Z</time>
      </trkpt>
      <trkpt lat="44.5164" lon="2.26664">
        <ele>446.5</ele>
        <time>2011-02-27T08:51:39Z</time>
      </trkpt>
      <trkpt lat="44.51644" lon="2.26661">
        <ele>446.1</ele>
        <time>2011-02-27T08:51:42Z</time>
      </trkpt>
      <trkpt lat="44.51647" lon="2.26659">
        <ele>445.7</ele>
        <time>2011-02-27T08:51:45Z</time>
      </trkpt>
      <trkpt lat="44.51651" lon="2.26656">
        <ele>445.3</ele>
        <time>2011-02-27T08:51:48Z</time>
      </trkpt>
      <trkpt lat="44.51655" lon="2.26654">
        <ele>444.9</ele>
        <time>2011-02-27T08:51:51Z</time>
      </trkpt>
      <trkpt lat="44.51659" lon="2.26651">
        <ele>444.5</ele>
        <time>2011-02-27T08:51:54Z</time>
      </trkpt>
      <trkpt lat="44.51662" lon="2.26649">
        <ele>444.1</ele>
        <time>2011-02-27T08:51:57Z</time>
      </trkpt>
      <trkpt lat="44.51665" lon="2.26646">
        <ele>443.6</ele>
        <time>2011-02-27T08:52:02Z</time>
      </trkpt>
      <trkpt lat="44.51666" lon="2.26645">
        <ele>443.5</ele>
        <time>2011-02-27T08:52:03Z</time>
      </trkpt>
      <trkpt lat="44.51672" lon="2.26639">
        <ele>441.7</ele>
        <time>2011-02-27T08:52:09Z</time>
      </trkpt>
      <trkpt lat="44.51675" lon="2.26636">
        <ele>440.7</ele>
        <time>2011-02-27T08:52:13Z</time>
      </trkpt>
      <trkpt lat="44.51679" lon="2.26633">
        <ele>439.4</ele>
        <time>2011-02-27T08:52:20Z</time>
      </trkpt>
      <trkpt lat="44.51683" lon="2.2663">
        <ele>438.2</ele>
        <time>2011-02-27T08:52:35Z</time>
      </trkpt>
      <trkpt lat="44.51687" lon="2.26627">
        <ele>437.1</ele>
        <time>2011-02-27T08:52:59Z</time>
      </trkpt>
      <trkpt lat="44.51688" lon="2.26623">
        <ele>436.8</ele>
        <time>2011-02-27T08:53:04Z</time>
      </trkpt>
      <trkpt lat="44.51689" lon="2.2662">
        <ele>436.5</ele>
        <time>2011-02-27T08:53:05Z</time>
      </trkpt>
      <trkpt lat="44.51692" lon="2.26614">
        <ele>435.5</ele>
        <time>2011-02-27T08:53:07Z</time>
      </trkpt>
      <trkpt lat="44.51694" lon="2.2661">
        <ele>434.9</ele>
        <time>2011-02-27T08:53:08Z</time>
      </trkpt>
      <trkpt lat="44.51696" lon="2.26605">
        <ele>434.4</ele>
        <time>2011-02-27T08:53:09Z</time>
      </trkpt>
      <trkpt lat="44.51699" lon="2.266">
        <ele>433.7</ele>
        <time>2011-02-27T08:53:10Z</time>
      </trkpt>
      <trkpt lat="44.51701" lon="2.26596">
        <ele>433.2</ele>
        <time>2011-02-27T08:53:11Z</time>
      </trkpt>
      <trkpt lat="44.51704" lon="2.26591">
        <ele>432.6</ele>
        <time>2011-02-27T08:53:12Z</time>
      </trkpt>
      <trkpt lat="44.51706" lon="2.26587">
        <ele>432</ele>
        <time>2011-02-27T08:53:13Z</time>
      </trkpt>
      <trkpt lat="44.51709" lon="2.26582">
        <ele>431.4</ele>
        <time>2011-02-27T08:53:14Z</time>
      </trkpt>
      <trkpt lat="44.51711" lon="2.26578">
        <ele>430.8</ele>
        <time>2011-02-27T08:53:15Z</time>
      </trkpt>
      <trkpt lat="44.51714" lon="2.26574">
        <ele>430.1</ele>
        <time>2011-02-27T08:53:16Z</time>
      </trkpt>
      <trkpt lat="44.51716" lon="2.26571">
        <ele>429.5</ele>
        <time>2011-02-27T08:53:17Z</time>
      </trkpt>
      <trkpt lat="44.51718" lon="2.26568">
        <ele>429</ele>
        <time>2011-02-27T08:53:18Z</time>
      </trkpt>
      <trkpt lat="44.5172" lon="2.26565">
        <ele>428.4</ele>
        <time>2011-02-27T08:53:19Z</time>
      </trkpt>
      <trkpt lat="44.51722" lon="2.26562">
        <ele>428</ele>
        <time>2011-02-27T08:53:20Z</time>
      </trkpt>
      <trkpt lat="44.51724" lon="2.26559">
        <ele>427.6</ele>
        <time>2011-02-27T08:53:21Z</time>
      </trkpt>
      <trkpt lat="44.51727" lon="2.26555">
        <ele>426.9</ele>
        <time>2011-02-27T08:53:23Z</time>
      </trkpt>
      <trkpt lat="44.5173" lon="2.26551">
        <ele>426.2</ele>
        <time>2011-02-27T08:53:25Z</time>
      </trkpt>
      <trkpt lat="44.51732" lon="2.26549">
        <ele>425.8</ele>
        <time>2011-02-27T08:53:26Z</time>
      </trkpt>
      <trkpt lat="44.51734" lon="2.26547">
        <ele>425.4</ele>
        <time>2011-02-27T08:53:27Z</time>
      </trkpt>
      <trkpt lat="44.51737" lon="2.26544">
        <ele>424.7</ele>
        <time>2011-02-27T08:53:29Z</time>
      </trkpt>
      <trkpt lat="44.51741" lon="2.2654">
        <ele>424</ele>
        <time>2011-02-27T08:53:31Z</time>
      </trkpt>
      <trkpt lat="44.51743" lon="2.26538">
        <ele>423.6</ele>
        <time>2011-02-27T08:53:32Z</time>
      </trkpt>
      <trkpt lat="44.51746" lon="2.26534">
        <ele>423</ele>
        <time>2011-02-27T08:53:34Z</time>
      </trkpt>
      <trkpt lat="44.5175" lon="2.26531">
        <ele>422.3</ele>
        <time>2011-02-27T08:53:36Z</time>
      </trkpt>
      <trkpt lat="44.51751" lon="2.26529">
        <ele>422.1</ele>
        <time>2011-02-27T08:53:37Z</time>
      </trkpt>
      <trkpt lat="44.51755" lon="2.26525">
        <ele>421.5</ele>
        <time>2011-02-27T08:53:39Z</time>
      </trkpt>
      <trkpt lat="44.51757" lon="2.2652">
        <ele>421.1</ele>
        <time>2011-02-27T08:53:41Z</time>
      </trkpt>
      <trkpt lat="44.51759" lon="2.26516">
        <ele>420.8</ele>
        <time>2011-02-27T08:53:43Z</time>
      </trkpt>
      <trkpt lat="44.51761" lon="2.26512">
        <ele>420.5</ele>
        <time>2011-02-27T08:53:45Z</time>
      </trkpt>
      <trkpt lat="44.51763" lon="2.26508">
        <ele>420.3</ele>
        <time>2011-02-27T08:53:47Z</time>
      </trkpt>
      <trkpt lat="44.51765" lon="2.26504">
        <ele>420.1</ele>
        <time>2011-02-27T08:53:49Z</time>
      </trkpt>
      <trkpt lat="44.51765" lon="2.26502">
        <ele>420</ele>
        <time>2011-02-27T08:53:50Z</time>
      </trkpt>
      <trkpt lat="44.51767" lon="2.26498">
        <ele>419.9</ele>
        <time>2011-02-27T08:53:51Z</time>
      </trkpt>
      <trkpt lat="44.51768" lon="2.26493">
        <ele>419.9</ele>
        <time>2011-02-27T08:53:53Z</time>
      </trkpt>
      <trkpt lat="44.51769" lon="2.26488">
        <ele>419.9</ele>
        <time>2011-02-27T08:53:55Z</time>
      </trkpt>
      <trkpt lat="44.5177" lon="2.26482">
        <ele>420.1</ele>
        <time>2011-02-27T08:53:57Z</time>
      </trkpt>
      <trkpt lat="44.51771" lon="2.26479">
        <ele>420.2</ele>
        <time>2011-02-27T08:53:58Z</time>
      </trkpt>
      <trkpt lat="44.51771" lon="2.26475">
        <ele>420.3</ele>
        <time>2011-02-27T08:53:59Z</time>
      </trkpt>
      <trkpt lat="44.51772" lon="2.26469">
        <ele>420.5</ele>
        <time>2011-02-27T08:54:01Z</time>
      </trkpt>
      <trkpt lat="44.51772" lon="2.26463">
        <ele>420.8</ele>
        <time>2011-02-27T08:54:03Z</time>
      </trkpt>
      <trkpt lat="44.51772" lon="2.26459">
        <ele>421</ele>
        <time>2011-02-27T08:54:04Z</time>
      </trkpt>
      <trkpt lat="44.51772" lon="2.26455">
        <ele>421.2</ele>
        <time>2011-02-27T08:54:05Z</time>
      </trkpt>
      <trkpt lat="44.51772" lon="2.26451">
        <ele>421.4</ele>
        <time>2011-02-27T08:54:06Z</time>
      </trkpt>
      <trkpt lat="44.51773" lon="2.26447">
        <ele>421.5</ele>
        <time>2011-02-27T08:54:07Z</time>
      </trkpt>
      <trkpt lat="44.51775" lon="2.26442">
        <ele>421.4</ele>
        <time>2011-02-27T08:54:09Z</time>
      </trkpt>
      <trkpt lat="44.51776" lon="2.26436">
        <ele>421.5</ele>
        <time>2011-02-27T08:54:13Z</time>
      </trkpt>
      <trkpt lat="44.51776" lon="2.26432">
        <ele>421.8</ele>
        <time>2011-02-27T08:54:16Z</time>
      </trkpt>
      <trkpt lat="44.51776" lon="2.26429">
        <ele>421.9</ele>
        <time>2011-02-27T08:54:17Z</time>
      </trkpt>
      <trkpt lat="44.51776" lon="2.26425">
        <ele>422.2</ele>
        <time>2011-02-27T08:54:18Z</time>
      </trkpt>
      <trkpt lat="44.51776" lon="2.2642">
        <ele>422.5</ele>
        <time>2011-02-27T08:54:19Z</time>
      </trkpt>
      <trkpt lat="44.51776" lon="2.26414">
        <ele>422</ele>
        <time>2011-02-27T08:54:20Z</time>
      </trkpt>
      <trkpt lat="44.51777" lon="2.26407">
        <ele>420.9</ele>
        <time>2011-02-27T08:54:21Z</time>
      </trkpt>
      <trkpt lat="44.51778" lon="2.26399">
        <ele>419.7</ele>
        <time>2011-02-27T08:54:22Z</time>
      </trkpt>
      <trkpt lat="44.5178" lon="2.26393">
        <ele>418.5</ele>
        <time>2011-02-27T08:54:23Z</time>
      </trkpt>
      <trkpt lat="44.51781" lon="2.26387">
        <ele>417.6</ele>
        <time>2011-02-27T08:54:24Z</time>
      </trkpt>
      <trkpt lat="44.51781" lon="2.26382">
        <ele>416.8</ele>
        <time>2011-02-27T08:54:25Z</time>
      </trkpt>
      <trkpt lat="44.51782" lon="2.26377">
        <ele>415.9</ele>
        <time>2011-02-27T08:54:26Z</time>
      </trkpt>
      <trkpt lat="44.51783" lon="2.26371">
        <ele>414.9</ele>
        <time>2011-02-27T08:54:27Z</time>
      </trkpt>
      <trkpt lat="44.51784" lon="2.26365">
        <ele>414.1</ele>
        <time>2011-02-27T08:54:28Z</time>
      </trkpt>
      <trkpt lat="44.51785" lon="2.26359">
        <ele>413.1</ele>
        <time>2011-02-27T08:54:29Z</time>
      </trkpt>
      <trkpt lat="44.51786" lon="2.26354">
        <ele>412.3</ele>
        <time>2011-02-27T08:54:30Z</time>
      </trkpt>
      <trkpt lat="44.51787" lon="2.26348">
        <ele>411.5</ele>
        <time>2011-02-27T08:54:31Z</time>
      </trkpt>
      <trkpt lat="44.51787" lon="2.26342">
        <ele>410.5</ele>
        <time>2011-02-27T08:54:32Z</time>
      </trkpt>
      <trkpt lat="44.51787" lon="2.26335">
        <ele>409.6</ele>
        <time>2011-02-27T08:54:33Z</time>
      </trkpt>
      <trkpt lat="44.51787" lon="2.26329">
        <ele>408.5</ele>
        <time>2011-02-27T08:54:34Z</time>
      </trkpt>
      <trkpt lat="44.51788" lon="2.26324">
        <ele>406.8</ele>
        <time>2011-02-27T08:54:35Z</time>
      </trkpt>
      <trkpt lat="44.51789" lon="2.26318">
        <ele>405.5</ele>
        <time>2011-02-27T08:54:36Z</time>
      </trkpt>
      <trkpt lat="44.51789" lon="2.26311">
        <ele>403.5</ele>
        <time>2011-02-27T08:54:37Z</time>
      </trkpt>
      <trkpt lat="44.51789" lon="2.26304">
        <ele>402</ele>
        <time>2011-02-27T08:54:38Z</time>
      </trkpt>
      <trkpt lat="44.51789" lon="2.26297">
        <ele>400.1</ele>
        <time>2011-02-27T08:54:39Z</time>
      </trkpt>
      <trkpt lat="44.51789" lon="2.2629">
        <ele>398.5</ele>
        <time>2011-02-27T08:54:40Z</time>
      </trkpt>
      <trkpt lat="44.5179" lon="2.26282">
        <ele>396.5</ele>
        <time>2011-02-27T08:54:41Z</time>
      </trkpt>
      <trkpt lat="44.51791" lon="2.26273">
        <ele>394.1</ele>
        <time>2011-02-27T08:54:42Z</time>
      </trkpt>
      <trkpt lat="44.51791" lon="2.26264">
        <ele>392.1</ele>
        <time>2011-02-27T08:54:43Z</time>
      </trkpt>
      <trkpt lat="44.51792" lon="2.26256">
        <ele>389.7</ele>
        <time>2011-02-27T08:54:44Z</time>
      </trkpt>
      <trkpt lat="44.51794" lon="2.26247">
        <ele>387.6</ele>
        <time>2011-02-27T08:54:45Z</time>
      </trkpt>
      <trkpt lat="44.51795" lon="2.26239">
        <ele>386.3</ele>
        <time>2011-02-27T08:54:46Z</time>
      </trkpt>
      <trkpt lat="44.51796" lon="2.2623">
        <ele>384.8</ele>
        <time>2011-02-27T08:54:47Z</time>
      </trkpt>
      <trkpt lat="44.51797" lon="2.26222">
        <ele>383.3</ele>
        <time>2011-02-27T08:54:48Z</time>
      </trkpt>
      <trkpt lat="44.51799" lon="2.26215">
        <ele>382</ele>
        <time>2011-02-27T08:54:49Z</time>
      </trkpt>
      <trkpt lat="44.518" lon="2.2621">
        <ele>381</ele>
        <time>2011-02-27T08:54:50Z</time>
      </trkpt>
      <trkpt lat="44.518" lon="2.26204">
        <ele>379.8</ele>
        <time>2011-02-27T08:54:51Z</time>
      </trkpt>
      <trkpt lat="44.51801" lon="2.26198">
        <ele>378.9</ele>
        <time>2011-02-27T08:54:52Z</time>
      </trkpt>
      <trkpt lat="44.51802" lon="2.26191">
        <ele>377.5</ele>
        <time>2011-02-27T08:54:53Z</time>
      </trkpt>
      <trkpt lat="44.51803" lon="2.26184">
        <ele>376.2</ele>
        <time>2011-02-27T08:54:54Z</time>
      </trkpt>
      <trkpt lat="44.51804" lon="2.26178">
        <ele>374.9</ele>
        <time>2011-02-27T08:54:55Z</time>
      </trkpt>
      <trkpt lat="44.51804" lon="2.26173">
        <ele>374.1</ele>
        <time>2011-02-27T08:54:56Z</time>
      </trkpt>
      <trkpt lat="44.51805" lon="2.26169">
        <ele>373.4</ele>
        <time>2011-02-27T08:54:57Z</time>
      </trkpt>
      <trkpt lat="44.51805" lon="2.26166">
        <ele>372.7</ele>
        <time>2011-02-27T08:54:58Z</time>
      </trkpt>
      <trkpt lat="44.51806" lon="2.26161">
        <ele>372.2</ele>
        <time>2011-02-27T08:54:59Z</time>
      </trkpt>
      <trkpt lat="44.51807" lon="2.26156">
        <ele>371.7</ele>
        <time>2011-02-27T08:55:00Z</time>
      </trkpt>
      <trkpt lat="44.51808" lon="2.26149">
        <ele>371</ele>
        <time>2011-02-27T08:55:01Z</time>
      </trkpt>
      <trkpt lat="44.5181" lon="2.26141">
        <ele>369.9</ele>
        <time>2011-02-27T08:55:02Z</time>
      </trkpt>
      <trkpt lat="44.51812" lon="2.26133">
        <ele>369</ele>
        <time>2011-02-27T08:55:03Z</time>
      </trkpt>
      <trkpt lat="44.51814" lon="2.26123">
        <ele>368</ele>
        <time>2011-02-27T08:55:04Z</time>
      </trkpt>
      <trkpt lat="44.51815" lon="2.26114">
        <ele>367.1</ele>
        <time>2011-02-27T08:55:05Z</time>
      </trkpt>
      <trkpt lat="44.51816" lon="2.26107">
        <ele>366.5</ele>
        <time>2011-02-27T08:55:06Z</time>
      </trkpt>
      <trkpt lat="44.51817" lon="2.26101">
        <ele>366</ele>
        <time>2011-02-27T08:55:07Z</time>
      </trkpt>
      <trkpt lat="44.51819" lon="2.26095">
        <ele>365.4</ele>
        <time>2011-02-27T08:55:08Z</time>
      </trkpt>
      <trkpt lat="44.5182" lon="2.26089">
        <ele>364.7</ele>
        <time>2011-02-27T08:55:09Z</time>
      </trkpt>
      <trkpt lat="44.51822" lon="2.26081">
        <ele>363.8</ele>
        <time>2011-02-27T08:55:10Z</time>
      </trkpt>
      <trkpt lat="44.51824" lon="2.26074">
        <ele>362.8</ele>
        <time>2011-02-27T08:55:11Z</time>
      </trkpt>
      <trkpt lat="44.51825" lon="2.26066">
        <ele>361.9</ele>
        <time>2011-02-27T08:55:12Z</time>
      </trkpt>
      <trkpt lat="44.51826" lon="2.26058">
        <ele>361.1</ele>
        <time>2011-02-27T08:55:13Z</time>
      </trkpt>
      <trkpt lat="44.51827" lon="2.26053">
        <ele>360.5</ele>
        <time>2011-02-27T08:55:14Z</time>
      </trkpt>
      <trkpt lat="44.51827" lon="2.26047">
        <ele>359.9</ele>
        <time>2011-02-27T08:55:15Z</time>
      </trkpt>
      <trkpt lat="44.51828" lon="2.26042">
        <ele>359.3</ele>
        <time>2011-02-27T08:55:16Z</time>
      </trkpt>
      <trkpt lat="44.51829" lon="2.26036">
        <ele>358.6</ele>
        <time>2011-02-27T08:55:17Z</time>
      </trkpt>
      <trkpt lat="44.5183" lon="2.26031">
        <ele>358</ele>
        <time>2011-02-27T08:55:18Z</time>
      </trkpt>
      <trkpt lat="44.51831" lon="2.26027">
        <ele>357.5</ele>
        <time>2011-02-27T08:55:19Z</time>
      </trkpt>
      <trkpt lat="44.51832" lon="2.26021">
        <ele>356.7</ele>
        <time>2011-02-27T08:55:21Z</time>
      </trkpt>
      <trkpt lat="44.51833" lon="2.26015">
        <ele>356.2</ele>
        <time>2011-02-27T08:55:24Z</time>
      </trkpt>
      <trkpt lat="44.51831" lon="2.2601">
        <ele>356.3</ele>
        <time>2011-02-27T08:55:29Z</time>
      </trkpt>
      <trkpt lat="44.51828" lon="2.26007">
        <ele>356.8</ele>
        <time>2011-02-27T08:55:34Z</time>
      </trkpt>
      <trkpt lat="44.51824" lon="2.26008">
        <ele>357.9</ele>
        <time>2011-02-27T08:55:41Z</time>
      </trkpt>
      <trkpt lat="44.5182" lon="2.26011">
        <ele>359</ele>
        <time>2011-02-27T08:55:45Z</time>
      </trkpt>
      <trkpt lat="44.51817" lon="2.26013">
        <ele>359.9</ele>
        <time>2011-02-27T08:55:46Z</time>
      </trkpt>
      <trkpt lat="44.51814" lon="2.26014">
        <ele>360.9</ele>
        <time>2011-02-27T08:55:48Z</time>
      </trkpt>
      <trkpt lat="44.5181" lon="2.26017">
        <ele>361.8</ele>
        <time>2011-02-27T08:55:50Z</time>
      </trkpt>
      <trkpt lat="44.51808" lon="2.26019">
        <ele>362.6</ele>
        <time>2011-02-27T08:55:51Z</time>
      </trkpt>
      <trkpt lat="44.51804" lon="2.26022">
        <ele>363.6</ele>
        <time>2011-02-27T08:55:52Z</time>
      </trkpt>
      <trkpt lat="44.51801" lon="2.26024">
        <ele>364.8</ele>
        <time>2011-02-27T08:55:53Z</time>
      </trkpt>
      <trkpt lat="44.51796" lon="2.26027">
        <ele>366.1</ele>
        <time>2011-02-27T08:55:54Z</time>
      </trkpt>
      <trkpt lat="44.51791" lon="2.26029">
        <ele>367.6</ele>
        <time>2011-02-27T08:55:55Z</time>
      </trkpt>
      <trkpt lat="44.51785" lon="2.26031">
        <ele>369.3</ele>
        <time>2011-02-27T08:55:56Z</time>
      </trkpt>
      <trkpt lat="44.51779" lon="2.26033">
        <ele>370.9</ele>
        <time>2011-02-27T08:55:57Z</time>
      </trkpt>
      <trkpt lat="44.51773" lon="2.26034">
        <ele>372.5</ele>
        <time>2011-02-27T08:55:58Z</time>
      </trkpt>
      <trkpt lat="44.51767" lon="2.26035">
        <ele>374</ele>
        <time>2011-02-27T08:55:59Z</time>
      </trkpt>
      <trkpt lat="44.51761" lon="2.26037">
        <ele>375.8</ele>
        <time>2011-02-27T08:56:00Z</time>
      </trkpt>
      <trkpt lat="44.51755" lon="2.26038">
        <ele>377.3</ele>
        <time>2011-02-27T08:56:01Z</time>
      </trkpt>
      <trkpt lat="44.51751" lon="2.2604">
        <ele>378.5</ele>
        <time>2011-02-27T08:56:02Z</time>
      </trkpt>
      <trkpt lat="44.51748" lon="2.26042">
        <ele>378.8</ele>
        <time>2011-02-27T08:56:03Z</time>
      </trkpt>
      <trkpt lat="44.51744" lon="2.26044">
        <ele>378.6</ele>
        <time>2011-02-27T08:56:04Z</time>
      </trkpt>
      <trkpt lat="44.51741" lon="2.26046">
        <ele>378.6</ele>
        <time>2011-02-27T08:56:05Z</time>
      </trkpt>
      <trkpt lat="44.51738" lon="2.26048">
        <ele>378.5</ele>
        <time>2011-02-27T08:56:06Z</time>
      </trkpt>
      <trkpt lat="44.51734" lon="2.26051">
        <ele>378.4</ele>
        <time>2011-02-27T08:56:07Z</time>
      </trkpt>
      <trkpt lat="44.5173" lon="2.26055">
        <ele>378.5</ele>
        <time>2011-02-27T08:56:08Z</time>
      </trkpt>
      <trkpt lat="44.51725" lon="2.26058">
        <ele>378.3</ele>
        <time>2011-02-27T08:56:09Z</time>
      </trkpt>
      <trkpt lat="44.51722" lon="2.26063">
        <ele>378.6</ele>
        <time>2011-02-27T08:56:10Z</time>
      </trkpt>
      <trkpt lat="44.51718" lon="2.26069">
        <ele>379.1</ele>
        <time>2011-02-27T08:56:11Z</time>
      </trkpt>
      <trkpt lat="44.51716" lon="2.26074">
        <ele>379.5</ele>
        <time>2011-02-27T08:56:12Z</time>
      </trkpt>
      <trkpt lat="44.51715" lon="2.26077">
        <ele>379.7</ele>
        <time>2011-02-27T08:56:13Z</time>
      </trkpt>
      <trkpt lat="44.51713" lon="2.26082">
        <ele>380.2</ele>
        <time>2011-02-27T08:56:15Z</time>
      </trkpt>
      <trkpt lat="44.51711" lon="2.26085">
        <ele>380.4</ele>
        <time>2011-02-27T08:56:16Z</time>
      </trkpt>
      <trkpt lat="44.5171" lon="2.26088">
        <ele>380.6</ele>
        <time>2011-02-27T08:56:17Z</time>
      </trkpt>
      <trkpt lat="44.51709" lon="2.26091">
        <ele>380.9</ele>
        <time>2011-02-27T08:56:18Z</time>
      </trkpt>
      <trkpt lat="44.51708" lon="2.26096">
        <ele>381.3</ele>
        <time>2011-02-27T08:56:19Z</time>
      </trkpt>
      <trkpt lat="44.51706" lon="2.26101">
        <ele>381.8</ele>
        <time>2011-02-27T08:56:20Z</time>
      </trkpt>
      <trkpt lat="44.51704" lon="2.26107">
        <ele>382.4</ele>
        <time>2011-02-27T08:56:21Z</time>
      </trkpt>
      <trkpt lat="44.51702" lon="2.26114">
        <ele>383.1</ele>
        <time>2011-02-27T08:56:22Z</time>
      </trkpt>
      <trkpt lat="44.517" lon="2.26121">
        <ele>383.8</ele>
        <time>2011-02-27T08:56:23Z</time>
      </trkpt>
      <trkpt lat="44.51697" lon="2.26128">
        <ele>384.6</ele>
        <time>2011-02-27T08:56:24Z</time>
      </trkpt>
      <trkpt lat="44.51693" lon="2.26136">
        <ele>385.4</ele>
        <time>2011-02-27T08:56:25Z</time>
      </trkpt>
      <trkpt lat="44.51689" lon="2.26143">
        <ele>386.3</ele>
        <time>2011-02-27T08:56:26Z</time>
      </trkpt>
      <trkpt lat="44.51685" lon="2.26151">
        <ele>387</ele>
        <time>2011-02-27T08:56:27Z</time>
      </trkpt>
      <trkpt lat="44.51681" lon="2.26156">
        <ele>387.8</ele>
        <time>2011-02-27T08:56:28Z</time>
      </trkpt>
      <trkpt lat="44.51676" lon="2.2616">
        <ele>388</ele>
        <time>2011-02-27T08:56:29Z</time>
      </trkpt>
      <trkpt lat="44.51673" lon="2.2616">
        <ele>388.2</ele>
        <time>2011-02-27T08:56:30Z</time>
      </trkpt>
      <trkpt lat="44.51671" lon="2.26158">
        <ele>387.8</ele>
        <time>2011-02-27T08:56:31Z</time>
      </trkpt>
      <trkpt lat="44.51668" lon="2.26155">
        <ele>387.2</ele>
        <time>2011-02-27T08:56:32Z</time>
      </trkpt>
      <trkpt lat="44.51666" lon="2.26151">
        <ele>386.6</ele>
        <time>2011-02-27T08:56:33Z</time>
      </trkpt>
      <trkpt lat="44.51664" lon="2.26147">
        <ele>385.4</ele>
        <time>2011-02-27T08:56:34Z</time>
      </trkpt>
      <trkpt lat="44.51662" lon="2.26144">
        <ele>384.2</ele>
        <time>2011-02-27T08:56:35Z</time>
      </trkpt>
      <trkpt lat="44.5166" lon="2.2614">
        <ele>383</ele>
        <time>2011-02-27T08:56:36Z</time>
      </trkpt>
      <trkpt lat="44.51657" lon="2.26136">
        <ele>381.6</ele>
        <time>2011-02-27T08:56:37Z</time>
      </trkpt>
      <trkpt lat="44.51653" lon="2.26133">
        <ele>380.2</ele>
        <time>2011-02-27T08:56:38Z</time>
      </trkpt>
      <trkpt lat="44.51649" lon="2.26132">
        <ele>378.8</ele>
        <time>2011-02-27T08:56:39Z</time>
      </trkpt>
      <trkpt lat="44.51644" lon="2.26133">
        <ele>377.6</ele>
        <time>2011-02-27T08:56:40Z</time>
      </trkpt>
      <trkpt lat="44.51639" lon="2.26134">
        <ele>376.1</ele>
        <time>2011-02-27T08:56:41Z</time>
      </trkpt>
      <trkpt lat="44.51636" lon="2.26134">
        <ele>375.1</ele>
        <time>2011-02-27T08:56:42Z</time>
      </trkpt>
      <trkpt lat="44.51632" lon="2.26134">
        <ele>374.2</ele>
        <time>2011-02-27T08:56:43Z</time>
      </trkpt>
      <trkpt lat="44.51629" lon="2.26136">
        <ele>373.4</ele>
        <time>2011-02-27T08:56:44Z</time>
      </trkpt>
      <trkpt lat="44.51626" lon="2.26136">
        <ele>372.4</ele>
        <time>2011-02-27T08:56:45Z</time>
      </trkpt>
      <trkpt lat="44.51622" lon="2.26136">
        <ele>371.4</ele>
        <time>2011-02-27T08:56:46Z</time>
      </trkpt>
      <trkpt lat="44.51618" lon="2.26136">
        <ele>370.1</ele>
        <time>2011-02-27T08:56:47Z</time>
      </trkpt>
      <trkpt lat="44.51613" lon="2.26136">
        <ele>368.8</ele>
        <time>2011-02-27T08:56:48Z</time>
      </trkpt>
      <trkpt lat="44.51608" lon="2.26136">
        <ele>367.4</ele>
        <time>2011-02-27T08:56:49Z</time>
      </trkpt>
      <trkpt lat="44.51603" lon="2.26135">
        <ele>365.7</ele>
        <time>2011-02-27T08:56:50Z</time>
      </trkpt>
      <trkpt lat="44.51598" lon="2.26134">
        <ele>364</ele>
        <time>2011-02-27T08:56:51Z</time>
      </trkpt>
      <trkpt lat="44.51593" lon="2.26133">
        <ele>362.6</ele>
        <time>2011-02-27T08:56:52Z</time>
      </trkpt>
      <trkpt lat="44.51589" lon="2.26132">
        <ele>361.1</ele>
        <time>2011-02-27T08:56:53Z</time>
      </trkpt>
      <trkpt lat="44.51584" lon="2.2613">
        <ele>359.7</ele>
        <time>2011-02-27T08:56:54Z</time>
      </trkpt>
      <trkpt lat="44.5158" lon="2.26129">
        <ele>359.2</ele>
        <time>2011-02-27T08:56:55Z</time>
      </trkpt>
      <trkpt lat="44.51577" lon="2.26128">
        <ele>358.9</ele>
        <time>2011-02-27T08:56:56Z</time>
      </trkpt>
      <trkpt lat="44.51574" lon="2.26127">
        <ele>358.7</ele>
        <time>2011-02-27T08:56:57Z</time>
      </trkpt>
      <trkpt lat="44.51572" lon="2.26126">
        <ele>358.4</ele>
        <time>2011-02-27T08:56:58Z</time>
      </trkpt>
      <trkpt lat="44.5157" lon="2.26125">
        <ele>358.2</ele>
        <time>2011-02-27T08:56:59Z</time>
      </trkpt>
      <trkpt lat="44.51565" lon="2.26123">
        <ele>357.9</ele>
        <time>2011-02-27T08:57:01Z</time>
      </trkpt>
      <trkpt lat="44.51562" lon="2.26122">
        <ele>357.8</ele>
        <time>2011-02-27T08:57:03Z</time>
      </trkpt>
      <trkpt lat="44.51558" lon="2.26122">
        <ele>357.5</ele>
        <time>2011-02-27T08:57:06Z</time>
      </trkpt>
      <trkpt lat="44.51555" lon="2.26121">
        <ele>357.2</ele>
        <time>2011-02-27T08:57:09Z</time>
      </trkpt>
      <trkpt lat="44.51554" lon="2.26121">
        <ele>357.1</ele>
        <time>2011-02-27T08:57:10Z</time>
      </trkpt>
      <trkpt lat="44.51546" lon="2.26118">
        <ele>356.6</ele>
        <time>2011-02-27T08:57:39Z</time>
      </trkpt>
      <trkpt lat="44.51543" lon="2.26121">
        <ele>356.7</ele>
        <time>2011-02-27T08:57:48Z</time>
      </trkpt>
      <trkpt lat="44.5154" lon="2.26125">
        <ele>356.9</ele>
        <time>2011-02-27T08:57:52Z</time>
      </trkpt>
      <trkpt lat="44.51537" lon="2.26127">
        <ele>356.9</ele>
        <time>2011-02-27T08:57:56Z</time>
      </trkpt>
      <trkpt lat="44.51533" lon="2.26127">
        <ele>356.7</ele>
        <time>2011-02-27T08:58:00Z</time>
      </trkpt>
      <trkpt lat="44.51529" lon="2.26127">
        <ele>356.5</ele>
        <time>2011-02-27T08:58:05Z</time>
      </trkpt>
      <trkpt lat="44.51525" lon="2.26127">
        <ele>356.3</ele>
        <time>2011-02-27T08:58:11Z</time>
      </trkpt>
      <trkpt lat="44.51524" lon="2.26127">
        <ele>356.3</ele>
        <time>2011-02-27T08:58:12Z</time>
      </trkpt>
      <trkpt lat="44.51516" lon="2.26124">
        <ele>355.7</ele>
        <time>2011-02-27T08:58:26Z</time>
      </trkpt>
      <trkpt lat="44.51512" lon="2.26122">
        <ele>355.4</ele>
        <time>2011-02-27T08:58:36Z</time>
      </trkpt>
      <trkpt lat="44.51508" lon="2.26122">
        <ele>355.1</ele>
        <time>2011-02-27T08:59:01Z</time>
      </trkpt>
      <trkpt lat="44.51511" lon="2.26126">
        <ele>355.5</ele>
        <time>2011-02-27T08:59:41Z</time>
      </trkpt>
      <trkpt lat="44.51511" lon="2.26126">
        <ele>355.5</ele>
        <time>2011-02-27T08:59:42Z</time>
      </trkpt>
      <trkpt lat="44.5151" lon="2.26126">
        <ele>355.5</ele>
        <time>2011-02-27T09:01:13Z</time>
      </trkpt>
      <trkpt lat="44.51511" lon="2.26126">
        <ele>355.6</ele>
        <time>2011-02-27T09:01:14Z</time>
      </trkpt>
      <trkpt lat="44.51518" lon="2.26129">
        <ele>356.1</ele>
        <time>2011-02-27T09:01:32Z</time>
      </trkpt>
      <trkpt lat="44.51521" lon="2.26128">
        <ele>356.2</ele>
        <time>2011-02-27T09:01:34Z</time>
      </trkpt>
      <trkpt lat="44.51526" lon="2.26128">
        <ele>356.4</ele>
        <time>2011-02-27T09:01:39Z</time>
      </trkpt>
      <trkpt lat="44.51528" lon="2.26122">
        <ele>356.1</ele>
        <time>2011-02-27T09:01:55Z</time>
      </trkpt>
      <trkpt lat="44.51529" lon="2.26117">
        <ele>355.8</ele>
        <time>2011-02-27T09:02:05Z</time>
      </trkpt>
      <trkpt lat="44.51531" lon="2.26113">
        <ele>355.4</ele>
        <time>2011-02-27T09:02:09Z</time>
      </trkpt>
      <trkpt lat="44.51534" lon="2.26109">
        <ele>355.3</ele>
        <time>2011-02-27T09:02:13Z</time>
      </trkpt>
      <trkpt lat="44.51537" lon="2.26105">
        <ele>355.1</ele>
        <time>2011-02-27T09:02:17Z</time>
      </trkpt>
      <trkpt lat="44.51538" lon="2.26104">
        <ele>355</ele>
        <time>2011-02-27T09:02:18Z</time>
      </trkpt>
      <trkpt lat="44.51541" lon="2.26095">
        <ele>354.3</ele>
        <time>2011-02-27T09:02:25Z</time>
      </trkpt>
      <trkpt lat="44.51542" lon="2.2609">
        <ele>354.1</ele>
        <time>2011-02-27T09:02:28Z</time>
      </trkpt>
      <trkpt lat="44.51544" lon="2.26084">
        <ele>353.6</ele>
        <time>2011-02-27T09:02:31Z</time>
      </trkpt>
      <trkpt lat="44.51545" lon="2.2608">
        <ele>353.4</ele>
        <time>2011-02-27T09:02:33Z</time>
      </trkpt>
      <trkpt lat="44.51546" lon="2.26076">
        <ele>353.3</ele>
        <time>2011-02-27T09:02:35Z</time>
      </trkpt>
      <trkpt lat="44.51547" lon="2.26071">
        <ele>353</ele>
        <time>2011-02-27T09:02:37Z</time>
      </trkpt>
      <trkpt lat="44.51547" lon="2.26065">
        <ele>352.8</ele>
        <time>2011-02-27T09:02:40Z</time>
      </trkpt>
      <trkpt lat="44.51548" lon="2.26061">
        <ele>352.6</ele>
        <time>2011-02-27T09:02:42Z</time>
      </trkpt>
      <trkpt lat="44.51548" lon="2.26056">
        <ele>352.4</ele>
        <time>2011-02-27T09:02:44Z</time>
      </trkpt>
      <trkpt lat="44.51549" lon="2.26052">
        <ele>352.2</ele>
        <time>2011-02-27T09:02:46Z</time>
      </trkpt>
      <trkpt lat="44.51549" lon="2.26046">
        <ele>351.8</ele>
        <time>2011-02-27T09:02:49Z</time>
      </trkpt>
      <trkpt lat="44.51549" lon="2.2604">
        <ele>351.5</ele>
        <time>2011-02-27T09:02:52Z</time>
      </trkpt>
      <trkpt lat="44.51548" lon="2.26034">
        <ele>351.2</ele>
        <time>2011-02-27T09:02:55Z</time>
      </trkpt>
      <trkpt lat="44.51548" lon="2.26028">
        <ele>350.9</ele>
        <time>2011-02-27T09:02:58Z</time>
      </trkpt>
      <trkpt lat="44.51547" lon="2.26024">
        <ele>350.7</ele>
        <time>2011-02-27T09:03:00Z</time>
      </trkpt>
      <trkpt lat="44.51547" lon="2.26018">
        <ele>350.4</ele>
        <time>2011-02-27T09:03:03Z</time>
      </trkpt>
      <trkpt lat="44.51547" lon="2.26013">
        <ele>350.3</ele>
        <time>2011-02-27T09:03:05Z</time>
      </trkpt>
      <trkpt lat="44.51546" lon="2.26008">
        <ele>350</ele>
        <time>2011-02-27T09:03:07Z</time>
      </trkpt>
      <trkpt lat="44.51546" lon="2.26003">
        <ele>349.8</ele>
        <time>2011-02-27T09:03:09Z</time>
      </trkpt>
      <trkpt lat="44.51546" lon="2.25998">
        <ele>349.6</ele>
        <time>2011-02-27T09:03:11Z</time>
      </trkpt>
      <trkpt lat="44.51547" lon="2.25993">
        <ele>349.5</ele>
        <time>2011-02-27T09:03:13Z</time>
      </trkpt>
      <trkpt lat="44.51547" lon="2.25989">
        <ele>349.3</ele>
        <time>2011-02-27T09:03:15Z</time>
      </trkpt>
      <trkpt lat="44.51548" lon="2.25984">
        <ele>349.1</ele>
        <time>2011-02-27T09:03:17Z</time>
      </trkpt>
      <trkpt lat="44.51548" lon="2.2598">
        <ele>349</ele>
        <time>2011-02-27T09:03:18Z</time>
      </trkpt>
      <trkpt lat="44.51548" lon="2.25977">
        <ele>348.9</ele>
        <time>2011-02-27T09:03:19Z</time>
      </trkpt>
      <trkpt lat="44.51549" lon="2.25974">
        <ele>348.7</ele>
        <time>2011-02-27T09:03:20Z</time>
      </trkpt>
      <trkpt lat="44.51549" lon="2.25968">
        <ele>348.6</ele>
        <time>2011-02-27T09:03:22Z</time>
      </trkpt>
      <trkpt lat="44.51548" lon="2.25963">
        <ele>348.5</ele>
        <time>2011-02-27T09:03:24Z</time>
      </trkpt>
      <trkpt lat="44.51548" lon="2.25958">
        <ele>348.5</ele>
        <time>2011-02-27T09:03:27Z</time>
      </trkpt>
      <trkpt lat="44.51546" lon="2.25953">
        <ele>348.5</ele>
        <time>2011-02-27T09:03:29Z</time>
      </trkpt>
      <trkpt lat="44.51545" lon="2.25948">
        <ele>348.6</ele>
        <time>2011-02-27T09:03:31Z</time>
      </trkpt>
      <trkpt lat="44.51544" lon="2.25943">
        <ele>348.6</ele>
        <time>2011-02-27T09:03:33Z</time>
      </trkpt>
      <trkpt lat="44.51543" lon="2.25937">
        <ele>348.7</ele>
        <time>2011-02-27T09:03:35Z</time>
      </trkpt>
      <trkpt lat="44.51542" lon="2.25934">
        <ele>348.8</ele>
        <time>2011-02-27T09:03:36Z</time>
      </trkpt>
      <trkpt lat="44.51541" lon="2.25928">
        <ele>348.7</ele>
        <time>2011-02-27T09:03:38Z</time>
      </trkpt>
      <trkpt lat="44.51541" lon="2.25923">
        <ele>348.7</ele>
        <time>2011-02-27T09:03:40Z</time>
      </trkpt>
      <trkpt lat="44.51541" lon="2.25918">
        <ele>348.6</ele>
        <time>2011-02-27T09:03:42Z</time>
      </trkpt>
      <trkpt lat="44.51541" lon="2.25912">
        <ele>348.1</ele>
        <time>2011-02-27T09:03:44Z</time>
      </trkpt>
      <trkpt lat="44.51542" lon="2.25907">
        <ele>347.6</ele>
        <time>2011-02-27T09:03:46Z</time>
      </trkpt>
      <trkpt lat="44.51542" lon="2.25903">
        <ele>347.2</ele>
        <time>2011-02-27T09:03:48Z</time>
      </trkpt>
      <trkpt lat="44.51542" lon="2.25898">
        <ele>346.9</ele>
        <time>2011-02-27T09:03:50Z</time>
      </trkpt>
      <trkpt lat="44.51543" lon="2.25893">
        <ele>346.3</ele>
        <time>2011-02-27T09:03:52Z</time>
      </trkpt>
      <trkpt lat="44.51543" lon="2.2589">
        <ele>346</ele>
        <time>2011-02-27T09:03:53Z</time>
      </trkpt>
      <trkpt lat="44.51543" lon="2.25887">
        <ele>345.8</ele>
        <time>2011-02-27T09:03:54Z</time>
      </trkpt>
      <trkpt lat="44.51543" lon="2.25881">
        <ele>345.2</ele>
        <time>2011-02-27T09:03:56Z</time>
      </trkpt>
      <trkpt lat="44.51544" lon="2.25876">
        <ele>344.6</ele>
        <time>2011-02-27T09:03:58Z</time>
      </trkpt>
      <trkpt lat="44.51544" lon="2.25871">
        <ele>344.2</ele>
        <time>2011-02-27T09:04:00Z</time>
      </trkpt>
      <trkpt lat="44.51545" lon="2.25866">
        <ele>343.6</ele>
        <time>2011-02-27T09:04:02Z</time>
      </trkpt>
      <trkpt lat="44.51546" lon="2.2586">
        <ele>343</ele>
        <time>2011-02-27T09:04:04Z</time>
      </trkpt>
      <trkpt lat="44.51546" lon="2.25855">
        <ele>342.6</ele>
        <time>2011-02-27T09:04:06Z</time>
      </trkpt>
      <trkpt lat="44.51546" lon="2.2585">
        <ele>342</ele>
        <time>2011-02-27T09:04:08Z</time>
      </trkpt>
      <trkpt lat="44.51546" lon="2.25845">
        <ele>341.8</ele>
        <time>2011-02-27T09:04:10Z</time>
      </trkpt>
      <trkpt lat="44.51546" lon="2.25839">
        <ele>341.3</ele>
        <time>2011-02-27T09:04:12Z</time>
      </trkpt>
      <trkpt lat="44.51545" lon="2.25835">
        <ele>341</ele>
        <time>2011-02-27T09:04:13Z</time>
      </trkpt>
      <trkpt lat="44.51545" lon="2.2583">
        <ele>340.8</ele>
        <time>2011-02-27T09:04:14Z</time>
      </trkpt>
      <trkpt lat="44.51545" lon="2.25826">
        <ele>340.5</ele>
        <time>2011-02-27T09:04:15Z</time>
      </trkpt>
      <trkpt lat="44.51544" lon="2.25822">
        <ele>340.4</ele>
        <time>2011-02-27T09:04:16Z</time>
      </trkpt>
      <trkpt lat="44.51544" lon="2.25818">
        <ele>340.2</ele>
        <time>2011-02-27T09:04:17Z</time>
      </trkpt>
      <trkpt lat="44.51544" lon="2.25813">
        <ele>339.9</ele>
        <time>2011-02-27T09:04:18Z</time>
      </trkpt>
      <trkpt lat="44.51544" lon="2.25807">
        <ele>339.6</ele>
        <time>2011-02-27T09:04:19Z</time>
      </trkpt>
      <trkpt lat="44.51546" lon="2.25801">
        <ele>339</ele>
        <time>2011-02-27T09:04:20Z</time>
      </trkpt>
      <trkpt lat="44.51548" lon="2.25794">
        <ele>338.3</ele>
        <time>2011-02-27T09:04:21Z</time>
      </trkpt>
      <trkpt lat="44.5155" lon="2.25788">
        <ele>337.7</ele>
        <time>2011-02-27T09:04:22Z</time>
      </trkpt>
      <trkpt lat="44.51552" lon="2.25782">
        <ele>337</ele>
        <time>2011-02-27T09:04:23Z</time>
      </trkpt>
      <trkpt lat="44.51555" lon="2.25776">
        <ele>336.4</ele>
        <time>2011-02-27T09:04:24Z</time>
      </trkpt>
      <trkpt lat="44.51558" lon="2.2577">
        <ele>335.7</ele>
        <time>2011-02-27T09:04:25Z</time>
      </trkpt>
      <trkpt lat="44.51561" lon="2.25764">
        <ele>335.1</ele>
        <time>2011-02-27T09:04:26Z</time>
      </trkpt>
      <trkpt lat="44.51563" lon="2.25757">
        <ele>334.5</ele>
        <time>2011-02-27T09:04:27Z</time>
      </trkpt>
      <trkpt lat="44.51565" lon="2.25751">
        <ele>334</ele>
        <time>2011-02-27T09:04:28Z</time>
      </trkpt>
      <trkpt lat="44.51567" lon="2.25744">
        <ele>333.2</ele>
        <time>2011-02-27T09:04:29Z</time>
      </trkpt>
      <trkpt lat="44.51569" lon="2.25737">
        <ele>332.4</ele>
        <time>2011-02-27T09:04:30Z</time>
      </trkpt>
      <trkpt lat="44.51571" lon="2.25729">
        <ele>331.7</ele>
        <time>2011-02-27T09:04:31Z</time>
      </trkpt>
      <trkpt lat="44.51573" lon="2.25722">
        <ele>330.8</ele>
        <time>2011-02-27T09:04:32Z</time>
      </trkpt>
      <trkpt lat="44.51575" lon="2.25715">
        <ele>330</ele>
        <time>2011-02-27T09:04:33Z</time>
      </trkpt>
      <trkpt lat="44.51577" lon="2.25708">
        <ele>329.3</ele>
        <time>2011-02-27T09:04:34Z</time>
      </trkpt>
      <trkpt lat="44.51579" lon="2.25702">
        <ele>328.4</ele>
        <time>2011-02-27T09:04:35Z</time>
      </trkpt>
      <trkpt lat="44.51581" lon="2.25695">
        <ele>327.6</ele>
        <time>2011-02-27T09:04:36Z</time>
      </trkpt>
      <trkpt lat="44.51582" lon="2.25687">
        <ele>326.9</ele>
        <time>2011-02-27T09:04:37Z</time>
      </trkpt>
      <trkpt lat="44.51583" lon="2.25682">
        <ele>326.2</ele>
        <time>2011-02-27T09:04:38Z</time>
      </trkpt>
      <trkpt lat="44.51583" lon="2.25676">
        <ele>325.8</ele>
        <time>2011-02-27T09:04:39Z</time>
      </trkpt>
      <trkpt lat="44.51583" lon="2.25671">
        <ele>325.4</ele>
        <time>2011-02-27T09:04:40Z</time>
      </trkpt>
      <trkpt lat="44.51582" lon="2.25666">
        <ele>325.1</ele>
        <time>2011-02-27T09:04:41Z</time>
      </trkpt>
      <trkpt lat="44.51581" lon="2.2566">
        <ele>325.2</ele>
        <time>2011-02-27T09:04:42Z</time>
      </trkpt>
      <trkpt lat="44.5158" lon="2.25655">
        <ele>325.2</ele>
        <time>2011-02-27T09:04:43Z</time>
      </trkpt>
      <trkpt lat="44.5158" lon="2.2565">
        <ele>325.1</ele>
        <time>2011-02-27T09:04:44Z</time>
      </trkpt>
      <trkpt lat="44.51579" lon="2.25646">
        <ele>325.1</ele>
        <time>2011-02-27T09:04:45Z</time>
      </trkpt>
      <trkpt lat="44.51579" lon="2.25641">
        <ele>325.1</ele>
        <time>2011-02-27T09:04:46Z</time>
      </trkpt>
      <trkpt lat="44.51578" lon="2.25637">
        <ele>325.1</ele>
        <time>2011-02-27T09:04:47Z</time>
      </trkpt>
      <trkpt lat="44.51578" lon="2.25633">
        <ele>325</ele>
        <time>2011-02-27T09:04:48Z</time>
      </trkpt>
      <trkpt lat="44.51577" lon="2.25629">
        <ele>325</ele>
        <time>2011-02-27T09:04:49Z</time>
      </trkpt>
      <trkpt lat="44.51577" lon="2.25625">
        <ele>324.9</ele>
        <time>2011-02-27T09:04:50Z</time>
      </trkpt>
      <trkpt lat="44.51577" lon="2.25622">
        <ele>324.8</ele>
        <time>2011-02-27T09:04:51Z</time>
      </trkpt>
      <trkpt lat="44.51576" lon="2.25619">
        <ele>324.8</ele>
        <time>2011-02-27T09:04:52Z</time>
      </trkpt>
      <trkpt lat="44.51576" lon="2.25615">
        <ele>324.8</ele>
        <time>2011-02-27T09:04:53Z</time>
      </trkpt>
      <trkpt lat="44.51575" lon="2.25612">
        <ele>324.8</ele>
        <time>2011-02-27T09:04:54Z</time>
      </trkpt>
      <trkpt lat="44.51573" lon="2.25609">
        <ele>324.7</ele>
        <time>2011-02-27T09:04:55Z</time>
      </trkpt>
      <trkpt lat="44.51572" lon="2.25605">
        <ele>324.7</ele>
        <time>2011-02-27T09:04:56Z</time>
      </trkpt>
      <trkpt lat="44.5157" lon="2.25602">
        <ele>324.7</ele>
        <time>2011-02-27T09:04:57Z</time>
      </trkpt>
      <trkpt lat="44.51568" lon="2.25599">
        <ele>324.7</ele>
        <time>2011-02-27T09:04:58Z</time>
      </trkpt>
      <trkpt lat="44.51566" lon="2.25596">
        <ele>324.7</ele>
        <time>2011-02-27T09:04:59Z</time>
      </trkpt>
      <trkpt lat="44.51564" lon="2.25593">
        <ele>324.6</ele>
        <time>2011-02-27T09:05:00Z</time>
      </trkpt>
      <trkpt lat="44.51561" lon="2.25589">
        <ele>324.5</ele>
        <time>2011-02-27T09:05:01Z</time>
      </trkpt>
      <trkpt lat="44.51557" lon="2.25585">
        <ele>324.4</ele>
        <time>2011-02-27T09:05:02Z</time>
      </trkpt>
      <trkpt lat="44.51555" lon="2.25582">
        <ele>324.2</ele>
        <time>2011-02-27T09:05:03Z</time>
      </trkpt>
      <trkpt lat="44.51553" lon="2.25578">
        <ele>324</ele>
        <time>2011-02-27T09:05:04Z</time>
      </trkpt>
      <trkpt lat="44.51551" lon="2.25574">
        <ele>323.7</ele>
        <time>2011-02-27T09:05:06Z</time>
      </trkpt>
      <trkpt lat="44.51549" lon="2.2557">
        <ele>323.4</ele>
        <time>2011-02-27T09:05:08Z</time>
      </trkpt>
      <trkpt lat="44.51547" lon="2.25567">
        <ele>323.2</ele>
        <time>2011-02-27T09:05:09Z</time>
      </trkpt>
      <trkpt lat="44.51546" lon="2.25564">
        <ele>323</ele>
        <time>2011-02-27T09:05:10Z</time>
      </trkpt>
      <trkpt lat="44.51545" lon="2.25561">
        <ele>322.7</ele>
        <time>2011-02-27T09:05:11Z</time>
      </trkpt>
      <trkpt lat="44.51543" lon="2.25559">
        <ele>322.5</ele>
        <time>2011-02-27T09:05:12Z</time>
      </trkpt>
      <trkpt lat="44.51541" lon="2.25556">
        <ele>322.2</ele>
        <time>2011-02-27T09:05:13Z</time>
      </trkpt>
      <trkpt lat="44.51539" lon="2.25553">
        <ele>321.9</ele>
        <time>2011-02-27T09:05:14Z</time>
      </trkpt>
      <trkpt lat="44.51537" lon="2.2555">
        <ele>321.4</ele>
        <time>2011-02-27T09:05:15Z</time>
      </trkpt>
      <trkpt lat="44.51535" lon="2.25548">
        <ele>321.1</ele>
        <time>2011-02-27T09:05:16Z</time>
      </trkpt>
      <trkpt lat="44.51533" lon="2.25545">
        <ele>320.8</ele>
        <time>2011-02-27T09:05:17Z</time>
      </trkpt>
      <trkpt lat="44.51532" lon="2.25542">
        <ele>320.4</ele>
        <time>2011-02-27T09:05:18Z</time>
      </trkpt>
      <trkpt lat="44.5153" lon="2.25539">
        <ele>320</ele>
        <time>2011-02-27T09:05:19Z</time>
      </trkpt>
      <trkpt lat="44.51529" lon="2.25537">
        <ele>319.7</ele>
        <time>2011-02-27T09:05:20Z</time>
      </trkpt>
      <trkpt lat="44.51527" lon="2.25534">
        <ele>319.2</ele>
        <time>2011-02-27T09:05:21Z</time>
      </trkpt>
      <trkpt lat="44.51525" lon="2.25532">
        <ele>318.9</ele>
        <time>2011-02-27T09:05:22Z</time>
      </trkpt>
      <trkpt lat="44.51523" lon="2.25529">
        <ele>318.4</ele>
        <time>2011-02-27T09:05:23Z</time>
      </trkpt>
      <trkpt lat="44.51521" lon="2.25525">
        <ele>317.7</ele>
        <time>2011-02-27T09:05:25Z</time>
      </trkpt>
      <trkpt lat="44.51518" lon="2.2552">
        <ele>316.8</ele>
        <time>2011-02-27T09:05:27Z</time>
      </trkpt>
      <trkpt lat="44.51516" lon="2.25516">
        <ele>316.1</ele>
        <time>2011-02-27T09:05:29Z</time>
      </trkpt>
      <trkpt lat="44.51513" lon="2.25512">
        <ele>315.1</ele>
        <time>2011-02-27T09:05:31Z</time>
      </trkpt>
      <trkpt lat="44.51511" lon="2.25509">
        <ele>314.5</ele>
        <time>2011-02-27T09:05:32Z</time>
      </trkpt>
      <trkpt lat="44.51509" lon="2.25506">
        <ele>313.9</ele>
        <time>2011-02-27T09:05:33Z</time>
      </trkpt>
      <trkpt lat="44.51507" lon="2.25504">
        <ele>313.3</ele>
        <time>2011-02-27T09:05:34Z</time>
      </trkpt>
      <trkpt lat="44.51505" lon="2.25502">
        <ele>312.9</ele>
        <time>2011-02-27T09:05:35Z</time>
      </trkpt>
      <trkpt lat="44.51503" lon="2.255">
        <ele>312.3</ele>
        <time>2011-02-27T09:05:36Z</time>
      </trkpt>
      <trkpt lat="44.515" lon="2.25498">
        <ele>312</ele>
        <time>2011-02-27T09:05:37Z</time>
      </trkpt>
      <trkpt lat="44.51498" lon="2.25497">
        <ele>312.2</ele>
        <time>2011-02-27T09:05:38Z</time>
      </trkpt>
      <trkpt lat="44.51496" lon="2.25496">
        <ele>312.5</ele>
        <time>2011-02-27T09:05:39Z</time>
      </trkpt>
      <trkpt lat="44.51492" lon="2.25493">
        <ele>313.1</ele>
        <time>2011-02-27T09:05:41Z</time>
      </trkpt>
      <trkpt lat="44.51488" lon="2.25491">
        <ele>313.7</ele>
        <time>2011-02-27T09:05:43Z</time>
      </trkpt>
      <trkpt lat="44.51485" lon="2.25489">
        <ele>314.2</ele>
        <time>2011-02-27T09:05:45Z</time>
      </trkpt>
      <trkpt lat="44.51482" lon="2.25487">
        <ele>314.7</ele>
        <time>2011-02-27T09:05:47Z</time>
      </trkpt>
      <trkpt lat="44.51479" lon="2.25487">
        <ele>315.2</ele>
        <time>2011-02-27T09:05:49Z</time>
      </trkpt>
      <trkpt lat="44.51476" lon="2.25486">
        <ele>315.7</ele>
        <time>2011-02-27T09:05:51Z</time>
      </trkpt>
      <trkpt lat="44.51472" lon="2.25486">
        <ele>316.3</ele>
        <time>2011-02-27T09:05:53Z</time>
      </trkpt>
      <trkpt lat="44.51469" lon="2.25486">
        <ele>316.8</ele>
        <time>2011-02-27T09:05:55Z</time>
      </trkpt>
      <trkpt lat="44.51465" lon="2.25485">
        <ele>317.5</ele>
        <time>2011-02-27T09:05:58Z</time>
      </trkpt>
      <trkpt lat="44.51461" lon="2.25484">
        <ele>318</ele>
        <time>2011-02-27T09:06:00Z</time>
      </trkpt>
      <trkpt lat="44.51458" lon="2.25483">
        <ele>318.6</ele>
        <time>2011-02-27T09:06:02Z</time>
      </trkpt>
      <trkpt lat="44.51454" lon="2.2548">
        <ele>319</ele>
        <time>2011-02-27T09:06:04Z</time>
      </trkpt>
      <trkpt lat="44.51452" lon="2.25477">
        <ele>319.4</ele>
        <time>2011-02-27T09:06:06Z</time>
      </trkpt>
      <trkpt lat="44.51449" lon="2.25474">
        <ele>319.8</ele>
        <time>2011-02-27T09:06:09Z</time>
      </trkpt>
      <trkpt lat="44.51447" lon="2.25469">
        <ele>320</ele>
        <time>2011-02-27T09:06:12Z</time>
      </trkpt>
      <trkpt lat="44.51449" lon="2.25464">
        <ele>319.5</ele>
        <time>2011-02-27T09:06:17Z</time>
      </trkpt>
      <trkpt lat="44.5145" lon="2.2546">
        <ele>319.1</ele>
        <time>2011-02-27T09:06:21Z</time>
      </trkpt>
      <trkpt lat="44.51452" lon="2.25455">
        <ele>318.7</ele>
        <time>2011-02-27T09:06:24Z</time>
      </trkpt>
      <trkpt lat="44.51452" lon="2.25454">
        <ele>318.6</ele>
        <time>2011-02-27T09:06:25Z</time>
      </trkpt>
      <trkpt lat="44.51452" lon="2.25443">
        <ele>318.2</ele>
        <time>2011-02-27T09:06:33Z</time>
      </trkpt>
      <trkpt lat="44.51453" lon="2.25437">
        <ele>318</ele>
        <time>2011-02-27T09:06:40Z</time>
      </trkpt>
      <trkpt lat="44.51453" lon="2.25431">
        <ele>317.8</ele>
        <time>2011-02-27T09:06:48Z</time>
      </trkpt>
      <trkpt lat="44.51451" lon="2.25426">
        <ele>318</ele>
        <time>2011-02-27T09:07:16Z</time>
      </trkpt>
      <trkpt lat="44.51448" lon="2.25421">
        <ele>318.2</ele>
        <time>2011-02-27T09:07:32Z</time>
      </trkpt>
      <trkpt lat="44.51446" lon="2.25422">
        <ele>318.5</ele>
        <time>2011-02-27T09:07:33Z</time>
      </trkpt>
      <trkpt lat="44.51441" lon="2.25422">
        <ele>319.3</ele>
        <time>2011-02-27T09:07:36Z</time>
      </trkpt>
      <trkpt lat="44.51438" lon="2.25422">
        <ele>319.8</ele>
        <time>2011-02-27T09:07:38Z</time>
      </trkpt>
      <trkpt lat="44.51435" lon="2.25423">
        <ele>320.3</ele>
        <time>2011-02-27T09:07:40Z</time>
      </trkpt>
      <trkpt lat="44.51431" lon="2.25425">
        <ele>321</ele>
        <time>2011-02-27T09:07:43Z</time>
      </trkpt>
      <trkpt lat="44.51428" lon="2.25425">
        <ele>321.5</ele>
        <time>2011-02-27T09:07:46Z</time>
      </trkpt>
      <trkpt lat="44.51425" lon="2.25427">
        <ele>322</ele>
        <time>2011-02-27T09:07:48Z</time>
      </trkpt>
      <trkpt lat="44.51422" lon="2.25428">
        <ele>322.6</ele>
        <time>2011-02-27T09:07:50Z</time>
      </trkpt>
      <trkpt lat="44.51418" lon="2.2543">
        <ele>323.2</ele>
        <time>2011-02-27T09:07:52Z</time>
      </trkpt>
      <trkpt lat="44.51415" lon="2.25432">
        <ele>323.8</ele>
        <time>2011-02-27T09:07:54Z</time>
      </trkpt>
      <trkpt lat="44.51413" lon="2.25435">
        <ele>324.2</ele>
        <time>2011-02-27T09:07:56Z</time>
      </trkpt>
      <trkpt lat="44.51409" lon="2.25438">
        <ele>324.9</ele>
        <time>2011-02-27T09:07:59Z</time>
      </trkpt>
      <trkpt lat="44.51406" lon="2.25442">
        <ele>325.5</ele>
        <time>2011-02-27T09:08:02Z</time>
      </trkpt>
      <trkpt lat="44.51402" lon="2.25443">
        <ele>326.1</ele>
        <time>2011-02-27T09:08:05Z</time>
      </trkpt>
      <trkpt lat="44.51399" lon="2.25444">
        <ele>326.6</ele>
        <time>2011-02-27T09:08:07Z</time>
      </trkpt>
      <trkpt lat="44.51395" lon="2.25446">
        <ele>327.3</ele>
        <time>2011-02-27T09:08:10Z</time>
      </trkpt>
      <trkpt lat="44.51392" lon="2.25449">
        <ele>328</ele>
        <time>2011-02-27T09:08:13Z</time>
      </trkpt>
      <trkpt lat="44.51388" lon="2.2545">
        <ele>328.6</ele>
        <time>2011-02-27T09:08:16Z</time>
      </trkpt>
      <trkpt lat="44.51383" lon="2.25451">
        <ele>329.3</ele>
        <time>2011-02-27T09:08:19Z</time>
      </trkpt>
      <trkpt lat="44.5138" lon="2.2545">
        <ele>329.8</ele>
        <time>2011-02-27T09:08:21Z</time>
      </trkpt>
      <trkpt lat="44.51376" lon="2.2545">
        <ele>330.4</ele>
        <time>2011-02-27T09:08:24Z</time>
      </trkpt>
      <trkpt lat="44.51373" lon="2.25451">
        <ele>330.9</ele>
        <time>2011-02-27T09:08:26Z</time>
      </trkpt>
      <trkpt lat="44.5137" lon="2.25451">
        <ele>331.4</ele>
        <time>2011-02-27T09:08:28Z</time>
      </trkpt>
      <trkpt lat="44.51366" lon="2.25452">
        <ele>332.1</ele>
        <time>2011-02-27T09:08:31Z</time>
      </trkpt>
      <trkpt lat="44.51362" lon="2.25453">
        <ele>332.7</ele>
        <time>2011-02-27T09:08:34Z</time>
      </trkpt>
      <trkpt lat="44.51361" lon="2.25453">
        <ele>332.9</ele>
        <time>2011-02-27T09:08:35Z</time>
      </trkpt>
      <trkpt lat="44.51355" lon="2.25454">
        <ele>333.9</ele>
        <time>2011-02-27T09:08:40Z</time>
      </trkpt>
      <trkpt lat="44.51351" lon="2.25454">
        <ele>334.6</ele>
        <time>2011-02-27T09:08:44Z</time>
      </trkpt>
      <trkpt lat="44.51347" lon="2.25454">
        <ele>335.1</ele>
        <time>2011-02-27T09:08:48Z</time>
      </trkpt>
      <trkpt lat="44.51343" lon="2.25453">
        <ele>335.7</ele>
        <time>2011-02-27T09:08:52Z</time>
      </trkpt>
      <trkpt lat="44.51339" lon="2.25455">
        <ele>336.5</ele>
        <time>2011-02-27T09:08:56Z</time>
      </trkpt>
      <trkpt lat="44.51335" lon="2.25457">
        <ele>337.1</ele>
        <time>2011-02-27T09:08:59Z</time>
      </trkpt>
      <trkpt lat="44.51331" lon="2.25458">
        <ele>337.6</ele>
        <time>2011-02-27T09:09:02Z</time>
      </trkpt>
      <trkpt lat="44.51327" lon="2.25459">
        <ele>338</ele>
        <time>2011-02-27T09:09:05Z</time>
      </trkpt>
      <trkpt lat="44.51324" lon="2.2546">
        <ele>338.3</ele>
        <time>2011-02-27T09:09:08Z</time>
      </trkpt>
      <trkpt lat="44.5132" lon="2.25461">
        <ele>338.7</ele>
        <time>2011-02-27T09:09:11Z</time>
      </trkpt>
      <trkpt lat="44.51316" lon="2.25463">
        <ele>339.1</ele>
        <time>2011-02-27T09:09:14Z</time>
      </trkpt>
      <trkpt lat="44.51313" lon="2.25465">
        <ele>339.5</ele>
        <time>2011-02-27T09:09:16Z</time>
      </trkpt>
      <trkpt lat="44.5131" lon="2.25466">
        <ele>339.9</ele>
        <time>2011-02-27T09:09:18Z</time>
      </trkpt>
      <trkpt lat="44.51307" lon="2.25468">
        <ele>340.3</ele>
        <time>2011-02-27T09:09:20Z</time>
      </trkpt>
      <trkpt lat="44.51303" lon="2.25469">
        <ele>340.7</ele>
        <time>2011-02-27T09:09:22Z</time>
      </trkpt>
      <trkpt lat="44.513" lon="2.2547">
        <ele>341.1</ele>
        <time>2011-02-27T09:09:24Z</time>
      </trkpt>
      <trkpt lat="44.51297" lon="2.25471">
        <ele>341.4</ele>
        <time>2011-02-27T09:09:26Z</time>
      </trkpt>
      <trkpt lat="44.51294" lon="2.25471">
        <ele>341.6</ele>
        <time>2011-02-27T09:09:28Z</time>
      </trkpt>
      <trkpt lat="44.5129" lon="2.25471">
        <ele>341.9</ele>
        <time>2011-02-27T09:09:30Z</time>
      </trkpt>
      <trkpt lat="44.51287" lon="2.25471">
        <ele>342.2</ele>
        <time>2011-02-27T09:09:32Z</time>
      </trkpt>
      <trkpt lat="44.51283" lon="2.25471">
        <ele>342.7</ele>
        <time>2011-02-27T09:09:34Z</time>
      </trkpt>
      <trkpt lat="44.5128" lon="2.25472">
        <ele>342.9</ele>
        <time>2011-02-27T09:09:36Z</time>
      </trkpt>
      <trkpt lat="44.51279" lon="2.25473">
        <ele>343.2</ele>
        <time>2011-02-27T09:09:37Z</time>
      </trkpt>
      <trkpt lat="44.51272" lon="2.25474">
        <ele>343.8</ele>
        <time>2011-02-27T09:09:42Z</time>
      </trkpt>
      <trkpt lat="44.51269" lon="2.25473">
        <ele>344.1</ele>
        <time>2011-02-27T09:09:44Z</time>
      </trkpt>
      <trkpt lat="44.51265" lon="2.25473">
        <ele>344.4</ele>
        <time>2011-02-27T09:09:46Z</time>
      </trkpt>
      <trkpt lat="44.51262" lon="2.25472">
        <ele>344.5</ele>
        <time>2011-02-27T09:09:48Z</time>
      </trkpt>
      <trkpt lat="44.51259" lon="2.25473">
        <ele>344.9</ele>
        <time>2011-02-27T09:09:50Z</time>
      </trkpt>
      <trkpt lat="44.51255" lon="2.25473">
        <ele>345.3</ele>
        <time>2011-02-27T09:09:53Z</time>
      </trkpt>
      <trkpt lat="44.51251" lon="2.25471">
        <ele>345.3</ele>
        <time>2011-02-27T09:09:57Z</time>
      </trkpt>
      <trkpt lat="44.51249" lon="2.25466">
        <ele>345</ele>
        <time>2011-02-27T09:10:03Z</time>
      </trkpt>
      <trkpt lat="44.51245" lon="2.25462">
        <ele>345.2</ele>
        <time>2011-02-27T09:10:07Z</time>
      </trkpt>
      <trkpt lat="44.51242" lon="2.25459">
        <ele>345.3</ele>
        <time>2011-02-27T09:10:12Z</time>
      </trkpt>
      <trkpt lat="44.51238" lon="2.25456">
        <ele>345.5</ele>
        <time>2011-02-27T09:10:16Z</time>
      </trkpt>
      <trkpt lat="44.51236" lon="2.25452">
        <ele>345.4</ele>
        <time>2011-02-27T09:10:20Z</time>
      </trkpt>
      <trkpt lat="44.51233" lon="2.25448">
        <ele>345.3</ele>
        <time>2011-02-27T09:10:23Z</time>
      </trkpt>
      <trkpt lat="44.5123" lon="2.25444">
        <ele>345.1</ele>
        <time>2011-02-27T09:10:26Z</time>
      </trkpt>
      <trkpt lat="44.51227" lon="2.25439">
        <ele>345</ele>
        <time>2011-02-27T09:10:29Z</time>
      </trkpt>
      <trkpt lat="44.51225" lon="2.25435">
        <ele>344.9</ele>
        <time>2011-02-27T09:10:31Z</time>
      </trkpt>
      <trkpt lat="44.51224" lon="2.25432">
        <ele>344.6</ele>
        <time>2011-02-27T09:10:33Z</time>
      </trkpt>
      <trkpt lat="44.51222" lon="2.25428">
        <ele>344.4</ele>
        <time>2011-02-27T09:10:35Z</time>
      </trkpt>
      <trkpt lat="44.5122" lon="2.25425">
        <ele>344.4</ele>
        <time>2011-02-27T09:10:37Z</time>
      </trkpt>
      <trkpt lat="44.51219" lon="2.25423">
        <ele>344.2</ele>
        <time>2011-02-27T09:10:38Z</time>
      </trkpt>
      <trkpt lat="44.51216" lon="2.25417">
        <ele>343.9</ele>
        <time>2011-02-27T09:10:41Z</time>
      </trkpt>
      <trkpt lat="44.51213" lon="2.25412">
        <ele>343.9</ele>
        <time>2011-02-27T09:10:44Z</time>
      </trkpt>
      <trkpt lat="44.51211" lon="2.25407">
        <ele>343.9</ele>
        <time>2011-02-27T09:10:47Z</time>
      </trkpt>
      <trkpt lat="44.51209" lon="2.25402">
        <ele>344</ele>
        <time>2011-02-27T09:10:50Z</time>
      </trkpt>
      <trkpt lat="44.51207" lon="2.25398">
        <ele>343.9</ele>
        <time>2011-02-27T09:10:53Z</time>
      </trkpt>
      <trkpt lat="44.51206" lon="2.25393">
        <ele>343.8</ele>
        <time>2011-02-27T09:10:57Z</time>
      </trkpt>
      <trkpt lat="44.51205" lon="2.25387">
        <ele>343.5</ele>
        <time>2011-02-27T09:11:01Z</time>
      </trkpt>
      <trkpt lat="44.51205" lon="2.25381">
        <ele>343.2</ele>
        <time>2011-02-27T09:11:05Z</time>
      </trkpt>
      <trkpt lat="44.51205" lon="2.25375">
        <ele>342.7</ele>
        <time>2011-02-27T09:11:08Z</time>
      </trkpt>
      <trkpt lat="44.51205" lon="2.2537">
        <ele>342.5</ele>
        <time>2011-02-27T09:11:10Z</time>
      </trkpt>
      <trkpt lat="44.51205" lon="2.25365">
        <ele>342.2</ele>
        <time>2011-02-27T09:11:12Z</time>
      </trkpt>
      <trkpt lat="44.51205" lon="2.25361">
        <ele>342</ele>
        <time>2011-02-27T09:11:14Z</time>
      </trkpt>
      <trkpt lat="44.51205" lon="2.25356">
        <ele>341.6</ele>
        <time>2011-02-27T09:11:16Z</time>
      </trkpt>
      <trkpt lat="44.51205" lon="2.25352">
        <ele>341.3</ele>
        <time>2011-02-27T09:11:18Z</time>
      </trkpt>
      <trkpt lat="44.51206" lon="2.25347">
        <ele>340.9</ele>
        <time>2011-02-27T09:11:20Z</time>
      </trkpt>
      <trkpt lat="44.51206" lon="2.25342">
        <ele>340.5</ele>
        <time>2011-02-27T09:11:22Z</time>
      </trkpt>
      <trkpt lat="44.51206" lon="2.25338">
        <ele>340.2</ele>
        <time>2011-02-27T09:11:24Z</time>
      </trkpt>
      <trkpt lat="44.51207" lon="2.25333">
        <ele>339.9</ele>
        <time>2011-02-27T09:11:26Z</time>
      </trkpt>
      <trkpt lat="44.51207" lon="2.25329">
        <ele>339.7</ele>
        <time>2011-02-27T09:11:28Z</time>
      </trkpt>
      <trkpt lat="44.51207" lon="2.25324">
        <ele>339.7</ele>
        <time>2011-02-27T09:11:30Z</time>
      </trkpt>
      <trkpt lat="44.51207" lon="2.2532">
        <ele>339.6</ele>
        <time>2011-02-27T09:11:32Z</time>
      </trkpt>
      <trkpt lat="44.51208" lon="2.25315">
        <ele>339.4</ele>
        <time>2011-02-27T09:11:34Z</time>
      </trkpt>
      <trkpt lat="44.51208" lon="2.25309">
        <ele>339.2</ele>
        <time>2011-02-27T09:11:37Z</time>
      </trkpt>
      <trkpt lat="44.51209" lon="2.25303">
        <ele>338.9</ele>
        <time>2011-02-27T09:11:40Z</time>
      </trkpt>
      <trkpt lat="44.51209" lon="2.25302">
        <ele>338.9</ele>
        <time>2011-02-27T09:11:41Z</time>
      </trkpt>
      <trkpt lat="44.51211" lon="2.25293">
        <ele>338.5</ele>
        <time>2011-02-27T09:11:46Z</time>
      </trkpt>
      <trkpt lat="44.51212" lon="2.25287">
        <ele>338.2</ele>
        <time>2011-02-27T09:11:49Z</time>
      </trkpt>
      <trkpt lat="44.51212" lon="2.25281">
        <ele>337.9</ele>
        <time>2011-02-27T09:11:52Z</time>
      </trkpt>
      <trkpt lat="44.51212" lon="2.25276">
        <ele>337.8</ele>
        <time>2011-02-27T09:11:54Z</time>
      </trkpt>
      <trkpt lat="44.51213" lon="2.2527">
        <ele>337.7</ele>
        <time>2011-02-27T09:11:56Z</time>
      </trkpt>
      <trkpt lat="44.51213" lon="2.25265">
        <ele>337.5</ele>
        <time>2011-02-27T09:11:58Z</time>
      </trkpt>
      <trkpt lat="44.51212" lon="2.25259">
        <ele>337.5</ele>
        <time>2011-02-27T09:12:00Z</time>
      </trkpt>
      <trkpt lat="44.51212" lon="2.25253">
        <ele>337.5</ele>
        <time>2011-02-27T09:12:02Z</time>
      </trkpt>
      <trkpt lat="44.51212" lon="2.25249">
        <ele>337.6</ele>
        <time>2011-02-27T09:12:04Z</time>
      </trkpt>
      <trkpt lat="44.51211" lon="2.25243">
        <ele>338.4</ele>
        <time>2011-02-27T09:12:08Z</time>
      </trkpt>
      <trkpt lat="44.51209" lon="2.25238">
        <ele>339.1</ele>
        <time>2011-02-27T09:12:19Z</time>
      </trkpt>
      <trkpt lat="44.51207" lon="2.25232">
        <ele>339.9</ele>
        <time>2011-02-27T09:12:44Z</time>
      </trkpt>
      <trkpt lat="44.51207" lon="2.25232">
        <ele>339.9</ele>
        <time>2011-02-27T09:12:45Z</time>
      </trkpt>
      <trkpt lat="44.51203" lon="2.25228">
        <ele>341.2</ele>
        <time>2011-02-27T09:13:47Z</time>
      </trkpt>
      <trkpt lat="44.51205" lon="2.25219">
        <ele>341.3</ele>
        <time>2011-02-27T09:14:14Z</time>
      </trkpt>
      <trkpt lat="44.51206" lon="2.25214">
        <ele>341.4</ele>
        <time>2011-02-27T09:14:16Z</time>
      </trkpt>
      <trkpt lat="44.51206" lon="2.25211">
        <ele>341.5</ele>
        <time>2011-02-27T09:14:17Z</time>
      </trkpt>
      <trkpt lat="44.51206" lon="2.25207">
        <ele>341.8</ele>
        <time>2011-02-27T09:14:18Z</time>
      </trkpt>
      <trkpt lat="44.51206" lon="2.25204">
        <ele>342</ele>
        <time>2011-02-27T09:14:19Z</time>
      </trkpt>
      <trkpt lat="44.51206" lon="2.25198">
        <ele>342.6</ele>
        <time>2011-02-27T09:14:21Z</time>
      </trkpt>
      <trkpt lat="44.51205" lon="2.25193">
        <ele>343.1</ele>
        <time>2011-02-27T09:14:23Z</time>
      </trkpt>
      <trkpt lat="44.51203" lon="2.25188">
        <ele>343.9</ele>
        <time>2011-02-27T09:14:25Z</time>
      </trkpt>
      <trkpt lat="44.51201" lon="2.25186">
        <ele>344.5</ele>
        <time>2011-02-27T09:14:26Z</time>
      </trkpt>
      <trkpt lat="44.51198" lon="2.25183">
        <ele>345.1</ele>
        <time>2011-02-27T09:14:27Z</time>
      </trkpt>
      <trkpt lat="44.51196" lon="2.25182">
        <ele>345.8</ele>
        <time>2011-02-27T09:14:28Z</time>
      </trkpt>
      <trkpt lat="44.51194" lon="2.2518">
        <ele>346.4</ele>
        <time>2011-02-27T09:14:29Z</time>
      </trkpt>
      <trkpt lat="44.51192" lon="2.25179">
        <ele>346.9</ele>
        <time>2011-02-27T09:14:30Z</time>
      </trkpt>
      <trkpt lat="44.51189" lon="2.25177">
        <ele>347.6</ele>
        <time>2011-02-27T09:14:31Z</time>
      </trkpt>
      <trkpt lat="44.51187" lon="2.25175">
        <ele>348.1</ele>
        <time>2011-02-27T09:14:32Z</time>
      </trkpt>
      <trkpt lat="44.51185" lon="2.25173">
        <ele>348.6</ele>
        <time>2011-02-27T09:14:33Z</time>
      </trkpt>
      <trkpt lat="44.51183" lon="2.25172">
        <ele>349.3</ele>
        <time>2011-02-27T09:14:34Z</time>
      </trkpt>
      <trkpt lat="44.51181" lon="2.2517">
        <ele>349.8</ele>
        <time>2011-02-27T09:14:35Z</time>
      </trkpt>
      <trkpt lat="44.51178" lon="2.25169">
        <ele>350.4</ele>
        <time>2011-02-27T09:14:36Z</time>
      </trkpt>
      <trkpt lat="44.51176" lon="2.25167">
        <ele>351</ele>
        <time>2011-02-27T09:14:37Z</time>
      </trkpt>
      <trkpt lat="44.51174" lon="2.25165">
        <ele>351.1</ele>
        <time>2011-02-27T09:14:38Z</time>
      </trkpt>
      <trkpt lat="44.5117" lon="2.25162">
        <ele>351.6</ele>
        <time>2011-02-27T09:14:40Z</time>
      </trkpt>
      <trkpt lat="44.51167" lon="2.25158">
        <ele>351.8</ele>
        <time>2011-02-27T09:14:42Z</time>
      </trkpt>
      <trkpt lat="44.51164" lon="2.25154">
        <ele>352</ele>
        <time>2011-02-27T09:14:44Z</time>
      </trkpt>
      <trkpt lat="44.51163" lon="2.25152">
        <ele>352.1</ele>
        <time>2011-02-27T09:14:45Z</time>
      </trkpt>
      <trkpt lat="44.5116" lon="2.25147">
        <ele>352.3</ele>
        <time>2011-02-27T09:14:47Z</time>
      </trkpt>
      <trkpt lat="44.51159" lon="2.25145">
        <ele>352.3</ele>
        <time>2011-02-27T09:14:48Z</time>
      </trkpt>
      <trkpt lat="44.51157" lon="2.2514">
        <ele>352</ele>
        <time>2011-02-27T09:14:50Z</time>
      </trkpt>
      <trkpt lat="44.51157" lon="2.25136">
        <ele>351.6</ele>
        <time>2011-02-27T09:14:51Z</time>
      </trkpt>
      <trkpt lat="44.51157" lon="2.25133">
        <ele>351.2</ele>
        <time>2011-02-27T09:14:52Z</time>
      </trkpt>
      <trkpt lat="44.51157" lon="2.25127">
        <ele>350.4</ele>
        <time>2011-02-27T09:14:54Z</time>
      </trkpt>
      <trkpt lat="44.51157" lon="2.25122">
        <ele>349.8</ele>
        <time>2011-02-27T09:14:56Z</time>
      </trkpt>
      <trkpt lat="44.51156" lon="2.25117">
        <ele>349.3</ele>
        <time>2011-02-27T09:14:58Z</time>
      </trkpt>
      <trkpt lat="44.51156" lon="2.25111">
        <ele>348.7</ele>
        <time>2011-02-27T09:15:00Z</time>
      </trkpt>
      <trkpt lat="44.51155" lon="2.25106">
        <ele>348.1</ele>
        <time>2011-02-27T09:15:02Z</time>
      </trkpt>
      <trkpt lat="44.51155" lon="2.25101">
        <ele>347.4</ele>
        <time>2011-02-27T09:15:04Z</time>
      </trkpt>
      <trkpt lat="44.51155" lon="2.25095">
        <ele>346.8</ele>
        <time>2011-02-27T09:15:06Z</time>
      </trkpt>
      <trkpt lat="44.51156" lon="2.25089">
        <ele>345.8</ele>
        <time>2011-02-27T09:15:08Z</time>
      </trkpt>
      <trkpt lat="44.51155" lon="2.25084">
        <ele>345.2</ele>
        <time>2011-02-27T09:15:10Z</time>
      </trkpt>
      <trkpt lat="44.51154" lon="2.25078">
        <ele>345</ele>
        <time>2011-02-27T09:15:12Z</time>
      </trkpt>
      <trkpt lat="44.51153" lon="2.25072">
        <ele>344.7</ele>
        <time>2011-02-27T09:15:14Z</time>
      </trkpt>
      <trkpt lat="44.51152" lon="2.25066">
        <ele>344.5</ele>
        <time>2011-02-27T09:15:16Z</time>
      </trkpt>
      <trkpt lat="44.51151" lon="2.25063">
        <ele>344.3</ele>
        <time>2011-02-27T09:15:17Z</time>
      </trkpt>
      <trkpt lat="44.51151" lon="2.25059">
        <ele>344.1</ele>
        <time>2011-02-27T09:15:18Z</time>
      </trkpt>
      <trkpt lat="44.5115" lon="2.25056">
        <ele>343.9</ele>
        <time>2011-02-27T09:15:19Z</time>
      </trkpt>
      <trkpt lat="44.5115" lon="2.25052">
        <ele>343.7</ele>
        <time>2011-02-27T09:15:20Z</time>
      </trkpt>
      <trkpt lat="44.51149" lon="2.25047">
        <ele>343.6</ele>
        <time>2011-02-27T09:15:21Z</time>
      </trkpt>
      <trkpt lat="44.51148" lon="2.25044">
        <ele>343.5</ele>
        <time>2011-02-27T09:15:22Z</time>
      </trkpt>
      <trkpt lat="44.51146" lon="2.2504">
        <ele>343.6</ele>
        <time>2011-02-27T09:15:23Z</time>
      </trkpt>
      <trkpt lat="44.51145" lon="2.25037">
        <ele>343.5</ele>
        <time>2011-02-27T09:15:24Z</time>
      </trkpt>
      <trkpt lat="44.51143" lon="2.25032">
        <ele>343.5</ele>
        <time>2011-02-27T09:15:26Z</time>
      </trkpt>
      <trkpt lat="44.51142" lon="2.25027">
        <ele>343.3</ele>
        <time>2011-02-27T09:15:28Z</time>
      </trkpt>
      <trkpt lat="44.51142" lon="2.25021">
        <ele>343</ele>
        <time>2011-02-27T09:15:31Z</time>
      </trkpt>
      <trkpt lat="44.51141" lon="2.25016">
        <ele>342.7</ele>
        <time>2011-02-27T09:15:33Z</time>
      </trkpt>
      <trkpt lat="44.51141" lon="2.25012">
        <ele>342.3</ele>
        <time>2011-02-27T09:15:35Z</time>
      </trkpt>
      <trkpt lat="44.51141" lon="2.25008">
        <ele>342</ele>
        <time>2011-02-27T09:15:37Z</time>
      </trkpt>
      <trkpt lat="44.51141" lon="2.25005">
        <ele>341.9</ele>
        <time>2011-02-27T09:15:38Z</time>
      </trkpt>
      <trkpt lat="44.51141" lon="2.25001">
        <ele>341.7</ele>
        <time>2011-02-27T09:15:39Z</time>
      </trkpt>
      <trkpt lat="44.51141" lon="2.24998">
        <ele>341.6</ele>
        <time>2011-02-27T09:15:40Z</time>
      </trkpt>
      <trkpt lat="44.51141" lon="2.24994">
        <ele>341.7</ele>
        <time>2011-02-27T09:15:41Z</time>
      </trkpt>
      <trkpt lat="44.51141" lon="2.24989">
        <ele>341.8</ele>
        <time>2011-02-27T09:15:43Z</time>
      </trkpt>
      <trkpt lat="44.5114" lon="2.24985">
        <ele>342</ele>
        <time>2011-02-27T09:15:45Z</time>
      </trkpt>
      <trkpt lat="44.51139" lon="2.2498">
        <ele>342.2</ele>
        <time>2011-02-27T09:15:47Z</time>
      </trkpt>
      <trkpt lat="44.51139" lon="2.24974">
        <ele>342.4</ele>
        <time>2011-02-27T09:15:49Z</time>
      </trkpt>
      <trkpt lat="44.51139" lon="2.24971">
        <ele>342.5</ele>
        <time>2011-02-27T09:15:50Z</time>
      </trkpt>
      <trkpt lat="44.51139" lon="2.24968">
        <ele>342.6</ele>
        <time>2011-02-27T09:15:51Z</time>
      </trkpt>
      <trkpt lat="44.51138" lon="2.24965">
        <ele>342.8</ele>
        <time>2011-02-27T09:15:52Z</time>
      </trkpt>
      <trkpt lat="44.51137" lon="2.24962">
        <ele>343</ele>
        <time>2011-02-27T09:15:53Z</time>
      </trkpt>
      <trkpt lat="44.51137" lon="2.24958">
        <ele>343</ele>
        <time>2011-02-27T09:15:54Z</time>
      </trkpt>
      <trkpt lat="44.51137" lon="2.24955">
        <ele>343.1</ele>
        <time>2011-02-27T09:15:55Z</time>
      </trkpt>
      <trkpt lat="44.51137" lon="2.2495">
        <ele>343.3</ele>
        <time>2011-02-27T09:15:56Z</time>
      </trkpt>
      <trkpt lat="44.51136" lon="2.24946">
        <ele>343.6</ele>
        <time>2011-02-27T09:15:57Z</time>
      </trkpt>
      <trkpt lat="44.51136" lon="2.24941">
        <ele>343.7</ele>
        <time>2011-02-27T09:15:58Z</time>
      </trkpt>
      <trkpt lat="44.51135" lon="2.24936">
        <ele>344</ele>
        <time>2011-02-27T09:15:59Z</time>
      </trkpt>
      <trkpt lat="44.51134" lon="2.24932">
        <ele>344.2</ele>
        <time>2011-02-27T09:16:00Z</time>
      </trkpt>
      <trkpt lat="44.51134" lon="2.24928">
        <ele>344.4</ele>
        <time>2011-02-27T09:16:01Z</time>
      </trkpt>
      <trkpt lat="44.51134" lon="2.24924">
        <ele>344.6</ele>
        <time>2011-02-27T09:16:02Z</time>
      </trkpt>
      <trkpt lat="44.51133" lon="2.24919">
        <ele>344.8</ele>
        <time>2011-02-27T09:16:03Z</time>
      </trkpt>
      <trkpt lat="44.51133" lon="2.24916">
        <ele>344.9</ele>
        <time>2011-02-27T09:16:04Z</time>
      </trkpt>
      <trkpt lat="44.51132" lon="2.24912">
        <ele>344.7</ele>
        <time>2011-02-27T09:16:05Z</time>
      </trkpt>
      <trkpt lat="44.51132" lon="2.24908">
        <ele>344.4</ele>
        <time>2011-02-27T09:16:06Z</time>
      </trkpt>
      <trkpt lat="44.51131" lon="2.24904">
        <ele>344.2</ele>
        <time>2011-02-27T09:16:07Z</time>
      </trkpt>
      <trkpt lat="44.5113" lon="2.24899">
        <ele>344</ele>
        <time>2011-02-27T09:16:09Z</time>
      </trkpt>
      <trkpt lat="44.51129" lon="2.24894">
        <ele>343.7</ele>
        <time>2011-02-27T09:16:11Z</time>
      </trkpt>
      <trkpt lat="44.51128" lon="2.2489">
        <ele>343.6</ele>
        <time>2011-02-27T09:16:13Z</time>
      </trkpt>
      <trkpt lat="44.51126" lon="2.24885">
        <ele>343.5</ele>
        <time>2011-02-27T09:16:15Z</time>
      </trkpt>
      <trkpt lat="44.51122" lon="2.24887">
        <ele>344.8</ele>
        <time>2011-02-27T09:16:23Z</time>
      </trkpt>
      <trkpt lat="44.5112" lon="2.24892">
        <ele>346</ele>
        <time>2011-02-27T09:16:31Z</time>
      </trkpt>
      <trkpt lat="44.51119" lon="2.24898">
        <ele>346.7</ele>
        <time>2011-02-27T09:16:37Z</time>
      </trkpt>
      <trkpt lat="44.51119" lon="2.24903">
        <ele>347.2</ele>
        <time>2011-02-27T09:16:41Z</time>
      </trkpt>
      <trkpt lat="44.5112" lon="2.24907">
        <ele>347.5</ele>
        <time>2011-02-27T09:16:44Z</time>
      </trkpt>
      <trkpt lat="44.51119" lon="2.24913">
        <ele>348.2</ele>
        <time>2011-02-27T09:16:47Z</time>
      </trkpt>
      <trkpt lat="44.51119" lon="2.24919">
        <ele>348.6</ele>
        <time>2011-02-27T09:16:50Z</time>
      </trkpt>
      <trkpt lat="44.51118" lon="2.24921">
        <ele>348.7</ele>
        <time>2011-02-27T09:16:51Z</time>
      </trkpt>
      <trkpt lat="44.51117" lon="2.24928">
        <ele>348.9</ele>
        <time>2011-02-27T09:16:54Z</time>
      </trkpt>
      <trkpt lat="44.51115" lon="2.24932">
        <ele>349.1</ele>
        <time>2011-02-27T09:16:56Z</time>
      </trkpt>
      <trkpt lat="44.51114" lon="2.24936">
        <ele>349.3</ele>
        <time>2011-02-27T09:16:58Z</time>
      </trkpt>
      <trkpt lat="44.51112" lon="2.24941">
        <ele>349.8</ele>
        <time>2011-02-27T09:17:01Z</time>
      </trkpt>
      <trkpt lat="44.51109" lon="2.24946">
        <ele>350.3</ele>
        <time>2011-02-27T09:17:04Z</time>
      </trkpt>
      <trkpt lat="44.51106" lon="2.2495">
        <ele>350.8</ele>
        <time>2011-02-27T09:17:07Z</time>
      </trkpt>
      <trkpt lat="44.51104" lon="2.24955">
        <ele>351.1</ele>
        <time>2011-02-27T09:17:10Z</time>
      </trkpt>
      <trkpt lat="44.51102" lon="2.2496">
        <ele>351.5</ele>
        <time>2011-02-27T09:17:14Z</time>
      </trkpt>
      <trkpt lat="44.511" lon="2.24965">
        <ele>351.8</ele>
        <time>2011-02-27T09:17:17Z</time>
      </trkpt>
      <trkpt lat="44.51098" lon="2.24968">
        <ele>352.2</ele>
        <time>2011-02-27T09:17:19Z</time>
      </trkpt>
      <trkpt lat="44.51096" lon="2.24973">
        <ele>352.4</ele>
        <time>2011-02-27T09:17:21Z</time>
      </trkpt>
      <trkpt lat="44.51095" lon="2.24979">
        <ele>352.4</ele>
        <time>2011-02-27T09:17:23Z</time>
      </trkpt>
      <trkpt lat="44.51094" lon="2.24982">
        <ele>352.4</ele>
        <time>2011-02-27T09:17:24Z</time>
      </trkpt>
      <trkpt lat="44.51094" lon="2.24985">
        <ele>352.3</ele>
        <time>2011-02-27T09:17:25Z</time>
      </trkpt>
      <trkpt lat="44.51095" lon="2.24992">
        <ele>351.9</ele>
        <time>2011-02-27T09:17:27Z</time>
      </trkpt>
      <trkpt lat="44.51095" lon="2.24997">
        <ele>351.6</ele>
        <time>2011-02-27T09:17:29Z</time>
      </trkpt>
      <trkpt lat="44.51096" lon="2.25002">
        <ele>351.3</ele>
        <time>2011-02-27T09:17:31Z</time>
      </trkpt>
      <trkpt lat="44.51098" lon="2.25006">
        <ele>351.2</ele>
        <time>2011-02-27T09:17:33Z</time>
      </trkpt>
      <trkpt lat="44.51099" lon="2.25011">
        <ele>351.2</ele>
        <time>2011-02-27T09:17:35Z</time>
      </trkpt>
      <trkpt lat="44.51101" lon="2.25016">
        <ele>351.2</ele>
        <time>2011-02-27T09:17:37Z</time>
      </trkpt>
      <trkpt lat="44.51103" lon="2.25022">
        <ele>351.2</ele>
        <time>2011-02-27T09:17:39Z</time>
      </trkpt>
      <trkpt lat="44.51104" lon="2.25026">
        <ele>351.2</ele>
        <time>2011-02-27T09:17:41Z</time>
      </trkpt>
      <trkpt lat="44.51106" lon="2.25032">
        <ele>351.3</ele>
        <time>2011-02-27T09:17:43Z</time>
      </trkpt>
      <trkpt lat="44.51106" lon="2.25037">
        <ele>351.4</ele>
        <time>2011-02-27T09:17:45Z</time>
      </trkpt>
      <trkpt lat="44.51107" lon="2.25042">
        <ele>351.7</ele>
        <time>2011-02-27T09:17:47Z</time>
      </trkpt>
      <trkpt lat="44.51108" lon="2.25048">
        <ele>352</ele>
        <time>2011-02-27T09:17:49Z</time>
      </trkpt>
      <trkpt lat="44.51107" lon="2.25052">
        <ele>352.2</ele>
        <time>2011-02-27T09:17:50Z</time>
      </trkpt>
      <trkpt lat="44.51108" lon="2.25055">
        <ele>352.4</ele>
        <time>2011-02-27T09:17:51Z</time>
      </trkpt>
      <trkpt lat="44.51108" lon="2.25058">
        <ele>352.5</ele>
        <time>2011-02-27T09:17:52Z</time>
      </trkpt>
      <trkpt lat="44.51108" lon="2.25061">
        <ele>352.8</ele>
        <time>2011-02-27T09:17:53Z</time>
      </trkpt>
      <trkpt lat="44.51108" lon="2.25065">
        <ele>353.1</ele>
        <time>2011-02-27T09:17:54Z</time>
      </trkpt>
      <trkpt lat="44.51107" lon="2.25071">
        <ele>353.6</ele>
        <time>2011-02-27T09:17:56Z</time>
      </trkpt>
      <trkpt lat="44.51106" lon="2.25076">
        <ele>354.1</ele>
        <time>2011-02-27T09:17:58Z</time>
      </trkpt>
      <trkpt lat="44.51106" lon="2.25082">
        <ele>354.6</ele>
        <time>2011-02-27T09:18:00Z</time>
      </trkpt>
      <trkpt lat="44.51106" lon="2.25088">
        <ele>355.4</ele>
        <time>2011-02-27T09:18:02Z</time>
      </trkpt>
      <trkpt lat="44.51105" lon="2.25094">
        <ele>356.6</ele>
        <time>2011-02-27T09:18:04Z</time>
      </trkpt>
      <trkpt lat="44.51105" lon="2.25098">
        <ele>357.4</ele>
        <time>2011-02-27T09:18:06Z</time>
      </trkpt>
      <trkpt lat="44.51104" lon="2.25103">
        <ele>358.3</ele>
        <time>2011-02-27T09:18:08Z</time>
      </trkpt>
      <trkpt lat="44.51104" lon="2.25109">
        <ele>359.4</ele>
        <time>2011-02-27T09:18:10Z</time>
      </trkpt>
      <trkpt lat="44.51104" lon="2.25114">
        <ele>360.3</ele>
        <time>2011-02-27T09:18:12Z</time>
      </trkpt>
      <trkpt lat="44.51104" lon="2.2512">
        <ele>361.4</ele>
        <time>2011-02-27T09:18:14Z</time>
      </trkpt>
      <trkpt lat="44.51104" lon="2.25126">
        <ele>362.4</ele>
        <time>2011-02-27T09:18:16Z</time>
      </trkpt>
      <trkpt lat="44.51104" lon="2.2513">
        <ele>363</ele>
        <time>2011-02-27T09:18:18Z</time>
      </trkpt>
      <trkpt lat="44.51104" lon="2.25135">
        <ele>363.8</ele>
        <time>2011-02-27T09:18:20Z</time>
      </trkpt>
      <trkpt lat="44.51105" lon="2.2514">
        <ele>364.6</ele>
        <time>2011-02-27T09:18:22Z</time>
      </trkpt>
      <trkpt lat="44.51105" lon="2.25144">
        <ele>365.3</ele>
        <time>2011-02-27T09:18:24Z</time>
      </trkpt>
      <trkpt lat="44.51106" lon="2.25149">
        <ele>365.8</ele>
        <time>2011-02-27T09:18:26Z</time>
      </trkpt>
      <trkpt lat="44.51107" lon="2.25155">
        <ele>366.8</ele>
        <time>2011-02-27T09:18:28Z</time>
      </trkpt>
      <trkpt lat="44.51107" lon="2.2516">
        <ele>367.5</ele>
        <time>2011-02-27T09:18:30Z</time>
      </trkpt>
      <trkpt lat="44.51108" lon="2.25166">
        <ele>368.2</ele>
        <time>2011-02-27T09:18:32Z</time>
      </trkpt>
      <trkpt lat="44.5111" lon="2.25171">
        <ele>368.2</ele>
        <time>2011-02-27T09:18:34Z</time>
      </trkpt>
      <trkpt lat="44.51111" lon="2.25176">
        <ele>367.9</ele>
        <time>2011-02-27T09:18:36Z</time>
      </trkpt>
      <trkpt lat="44.51113" lon="2.25181">
        <ele>367.7</ele>
        <time>2011-02-27T09:18:38Z</time>
      </trkpt>
      <trkpt lat="44.51114" lon="2.25186">
        <ele>367.4</ele>
        <time>2011-02-27T09:18:40Z</time>
      </trkpt>
      <trkpt lat="44.51116" lon="2.25191">
        <ele>367</ele>
        <time>2011-02-27T09:18:42Z</time>
      </trkpt>
      <trkpt lat="44.51118" lon="2.25196">
        <ele>366.5</ele>
        <time>2011-02-27T09:18:44Z</time>
      </trkpt>
      <trkpt lat="44.5112" lon="2.25201">
        <ele>366.1</ele>
        <time>2011-02-27T09:18:46Z</time>
      </trkpt>
      <trkpt lat="44.51121" lon="2.25204">
        <ele>365.9</ele>
        <time>2011-02-27T09:18:47Z</time>
      </trkpt>
      <trkpt lat="44.51122" lon="2.2521">
        <ele>365.5</ele>
        <time>2011-02-27T09:18:49Z</time>
      </trkpt>
      <trkpt lat="44.51124" lon="2.25215">
        <ele>365</ele>
        <time>2011-02-27T09:18:51Z</time>
      </trkpt>
      <trkpt lat="44.51124" lon="2.25219">
        <ele>364.8</ele>
        <time>2011-02-27T09:18:53Z</time>
      </trkpt>
      <trkpt lat="44.51124" lon="2.25222">
        <ele>365</ele>
        <time>2011-02-27T09:18:54Z</time>
      </trkpt>
      <trkpt lat="44.51124" lon="2.2523">
        <ele>365.1</ele>
        <time>2011-02-27T09:18:57Z</time>
      </trkpt>
      <trkpt lat="44.51124" lon="2.25236">
        <ele>365.3</ele>
        <time>2011-02-27T09:18:59Z</time>
      </trkpt>
      <trkpt lat="44.51122" lon="2.25241">
        <ele>365.9</ele>
        <time>2011-02-27T09:19:01Z</time>
      </trkpt>
      <trkpt lat="44.51121" lon="2.25246">
        <ele>366.4</ele>
        <time>2011-02-27T09:19:03Z</time>
      </trkpt>
      <trkpt lat="44.5112" lon="2.25252">
        <ele>366.9</ele>
        <time>2011-02-27T09:19:06Z</time>
      </trkpt>
      <trkpt lat="44.51118" lon="2.25257">
        <ele>367.2</ele>
        <time>2011-02-27T09:19:09Z</time>
      </trkpt>
      <trkpt lat="44.51117" lon="2.25262">
        <ele>367.4</ele>
        <time>2011-02-27T09:19:12Z</time>
      </trkpt>
      <trkpt lat="44.51116" lon="2.25267">
        <ele>367.6</ele>
        <time>2011-02-27T09:19:15Z</time>
      </trkpt>
      <trkpt lat="44.51114" lon="2.25273">
        <ele>368</ele>
        <time>2011-02-27T09:19:19Z</time>
      </trkpt>
      <trkpt lat="44.51113" lon="2.25277">
        <ele>368.1</ele>
        <time>2011-02-27T09:19:21Z</time>
      </trkpt>
      <trkpt lat="44.51112" lon="2.25281">
        <ele>368.4</ele>
        <time>2011-02-27T09:19:23Z</time>
      </trkpt>
      <trkpt lat="44.5111" lon="2.25287">
        <ele>368.7</ele>
        <time>2011-02-27T09:19:25Z</time>
      </trkpt>
      <trkpt lat="44.51108" lon="2.25291">
        <ele>369</ele>
        <time>2011-02-27T09:19:27Z</time>
      </trkpt>
      <trkpt lat="44.51107" lon="2.25296">
        <ele>369</ele>
        <time>2011-02-27T09:19:29Z</time>
      </trkpt>
      <trkpt lat="44.51106" lon="2.25301">
        <ele>369.2</ele>
        <time>2011-02-27T09:19:31Z</time>
      </trkpt>
      <trkpt lat="44.51105" lon="2.25305">
        <ele>369.2</ele>
        <time>2011-02-27T09:19:33Z</time>
      </trkpt>
      <trkpt lat="44.51104" lon="2.2531">
        <ele>369.2</ele>
        <time>2011-02-27T09:19:35Z</time>
      </trkpt>
      <trkpt lat="44.51103" lon="2.25315">
        <ele>369.2</ele>
        <time>2011-02-27T09:19:37Z</time>
      </trkpt>
      <trkpt lat="44.51102" lon="2.2532">
        <ele>369.2</ele>
        <time>2011-02-27T09:19:39Z</time>
      </trkpt>
      <trkpt lat="44.51101" lon="2.25325">
        <ele>369.3</ele>
        <time>2011-02-27T09:19:41Z</time>
      </trkpt>
      <trkpt lat="44.511" lon="2.25331">
        <ele>369.2</ele>
        <time>2011-02-27T09:19:43Z</time>
      </trkpt>
      <trkpt lat="44.51099" lon="2.25336">
        <ele>369.3</ele>
        <time>2011-02-27T09:19:45Z</time>
      </trkpt>
      <trkpt lat="44.51098" lon="2.25341">
        <ele>369.7</ele>
        <time>2011-02-27T09:19:47Z</time>
      </trkpt>
      <trkpt lat="44.51097" lon="2.25347">
        <ele>369.7</ele>
        <time>2011-02-27T09:19:49Z</time>
      </trkpt>
      <trkpt lat="44.51097" lon="2.25352">
        <ele>369.8</ele>
        <time>2011-02-27T09:19:51Z</time>
      </trkpt>
      <trkpt lat="44.51097" lon="2.25357">
        <ele>369.8</ele>
        <time>2011-02-27T09:19:53Z</time>
      </trkpt>
      <trkpt lat="44.51096" lon="2.25361">
        <ele>370.1</ele>
        <time>2011-02-27T09:19:55Z</time>
      </trkpt>
      <trkpt lat="44.51095" lon="2.25364">
        <ele>370.3</ele>
        <time>2011-02-27T09:19:56Z</time>
      </trkpt>
      <trkpt lat="44.51093" lon="2.25372">
        <ele>370.8</ele>
        <time>2011-02-27T09:19:59Z</time>
      </trkpt>
      <trkpt lat="44.51092" lon="2.25378">
        <ele>371</ele>
        <time>2011-02-27T09:20:01Z</time>
      </trkpt>
      <trkpt lat="44.51091" lon="2.25383">
        <ele>371.2</ele>
        <time>2011-02-27T09:20:03Z</time>
      </trkpt>
      <trkpt lat="44.5109" lon="2.25389">
        <ele>371.5</ele>
        <time>2011-02-27T09:20:05Z</time>
      </trkpt>
      <trkpt lat="44.51089" lon="2.25394">
        <ele>371.8</ele>
        <time>2011-02-27T09:20:07Z</time>
      </trkpt>
      <trkpt lat="44.51087" lon="2.254">
        <ele>372.1</ele>
        <time>2011-02-27T09:20:09Z</time>
      </trkpt>
      <trkpt lat="44.51086" lon="2.25406">
        <ele>372.4</ele>
        <time>2011-02-27T09:20:11Z</time>
      </trkpt>
      <trkpt lat="44.51085" lon="2.25411">
        <ele>372.5</ele>
        <time>2011-02-27T09:20:13Z</time>
      </trkpt>
      <trkpt lat="44.51084" lon="2.25417">
        <ele>372.8</ele>
        <time>2011-02-27T09:20:15Z</time>
      </trkpt>
      <trkpt lat="44.51083" lon="2.25422">
        <ele>373.2</ele>
        <time>2011-02-27T09:20:17Z</time>
      </trkpt>
      <trkpt lat="44.51082" lon="2.25427">
        <ele>373.6</ele>
        <time>2011-02-27T09:20:19Z</time>
      </trkpt>
      <trkpt lat="44.5108" lon="2.25432">
        <ele>374.2</ele>
        <time>2011-02-27T09:20:21Z</time>
      </trkpt>
      <trkpt lat="44.51079" lon="2.25436">
        <ele>374.7</ele>
        <time>2011-02-27T09:20:23Z</time>
      </trkpt>
      <trkpt lat="44.51077" lon="2.25441">
        <ele>375.4</ele>
        <time>2011-02-27T09:20:25Z</time>
      </trkpt>
      <trkpt lat="44.51075" lon="2.25446">
        <ele>376.1</ele>
        <time>2011-02-27T09:20:27Z</time>
      </trkpt>
      <trkpt lat="44.51073" lon="2.25451">
        <ele>377</ele>
        <time>2011-02-27T09:20:29Z</time>
      </trkpt>
      <trkpt lat="44.51071" lon="2.25455">
        <ele>377.8</ele>
        <time>2011-02-27T09:20:31Z</time>
      </trkpt>
      <trkpt lat="44.51069" lon="2.25459">
        <ele>378.6</ele>
        <time>2011-02-27T09:20:33Z</time>
      </trkpt>
      <trkpt lat="44.51067" lon="2.25463">
        <ele>379.3</ele>
        <time>2011-02-27T09:20:35Z</time>
      </trkpt>
      <trkpt lat="44.51065" lon="2.25467">
        <ele>380</ele>
        <time>2011-02-27T09:20:37Z</time>
      </trkpt>
      <trkpt lat="44.51063" lon="2.25472">
        <ele>380.8</ele>
        <time>2011-02-27T09:20:40Z</time>
      </trkpt>
      <trkpt lat="44.5106" lon="2.25476">
        <ele>381.8</ele>
        <time>2011-02-27T09:20:43Z</time>
      </trkpt>
      <trkpt lat="44.51058" lon="2.2548">
        <ele>382.8</ele>
        <time>2011-02-27T09:20:46Z</time>
      </trkpt>
      <trkpt lat="44.51055" lon="2.25484">
        <ele>383.8</ele>
        <time>2011-02-27T09:20:49Z</time>
      </trkpt>
      <trkpt lat="44.51052" lon="2.25487">
        <ele>385</ele>
        <time>2011-02-27T09:20:52Z</time>
      </trkpt>
      <trkpt lat="44.51048" lon="2.25491">
        <ele>386.2</ele>
        <time>2011-02-27T09:20:55Z</time>
      </trkpt>
      <trkpt lat="44.51045" lon="2.25494">
        <ele>387.4</ele>
        <time>2011-02-27T09:20:59Z</time>
      </trkpt>
      <trkpt lat="44.51044" lon="2.25495">
        <ele>387.7</ele>
        <time>2011-02-27T09:21:00Z</time>
      </trkpt>
      <trkpt lat="44.51039" lon="2.25501">
        <ele>389.4</ele>
        <time>2011-02-27T09:21:05Z</time>
      </trkpt>
      <trkpt lat="44.51036" lon="2.25503">
        <ele>390.4</ele>
        <time>2011-02-27T09:21:07Z</time>
      </trkpt>
      <trkpt lat="44.51033" lon="2.25506">
        <ele>391.5</ele>
        <time>2011-02-27T09:21:09Z</time>
      </trkpt>
      <trkpt lat="44.51029" lon="2.2551">
        <ele>392.7</ele>
        <time>2011-02-27T09:21:11Z</time>
      </trkpt>
      <trkpt lat="44.51026" lon="2.25513">
        <ele>393.7</ele>
        <time>2011-02-27T09:21:13Z</time>
      </trkpt>
      <trkpt lat="44.51023" lon="2.25516">
        <ele>394.8</ele>
        <time>2011-02-27T09:21:15Z</time>
      </trkpt>
      <trkpt lat="44.51019" lon="2.25519">
        <ele>395.7</ele>
        <time>2011-02-27T09:21:17Z</time>
      </trkpt>
      <trkpt lat="44.51016" lon="2.25522">
        <ele>396.6</ele>
        <time>2011-02-27T09:21:19Z</time>
      </trkpt>
      <trkpt lat="44.51013" lon="2.25525">
        <ele>397.5</ele>
        <time>2011-02-27T09:21:21Z</time>
      </trkpt>
      <trkpt lat="44.5101" lon="2.25529">
        <ele>398.3</ele>
        <time>2011-02-27T09:21:23Z</time>
      </trkpt>
      <trkpt lat="44.51007" lon="2.25533">
        <ele>399</ele>
        <time>2011-02-27T09:21:25Z</time>
      </trkpt>
      <trkpt lat="44.51004" lon="2.25538">
        <ele>399.5</ele>
        <time>2011-02-27T09:21:27Z</time>
      </trkpt>
      <trkpt lat="44.51001" lon="2.25542">
        <ele>400.1</ele>
        <time>2011-02-27T09:21:29Z</time>
      </trkpt>
      <trkpt lat="44.50999" lon="2.25547">
        <ele>400.4</ele>
        <time>2011-02-27T09:21:31Z</time>
      </trkpt>
      <trkpt lat="44.50997" lon="2.2555">
        <ele>400.4</ele>
        <time>2011-02-27T09:21:33Z</time>
      </trkpt>
      <trkpt lat="44.50994" lon="2.25553">
        <ele>400.9</ele>
        <time>2011-02-27T09:21:37Z</time>
      </trkpt>
      <trkpt lat="44.5099" lon="2.25557">
        <ele>401.1</ele>
        <time>2011-02-27T09:21:48Z</time>
      </trkpt>
      <trkpt lat="44.50988" lon="2.25562">
        <ele>401.3</ele>
        <time>2011-02-27T09:21:55Z</time>
      </trkpt>
      <trkpt lat="44.50986" lon="2.25567">
        <ele>401.4</ele>
        <time>2011-02-27T09:22:07Z</time>
      </trkpt>
      <trkpt lat="44.50985" lon="2.25567">
        <ele>401.5</ele>
        <time>2011-02-27T09:22:08Z</time>
      </trkpt>
      <trkpt lat="44.50987" lon="2.25578">
        <ele>400.7</ele>
        <time>2011-02-27T09:23:59Z</time>
      </trkpt>
      <trkpt lat="44.50986" lon="2.2558">
        <ele>400.7</ele>
        <time>2011-02-27T09:24:00Z</time>
      </trkpt>
      <trkpt lat="44.50986" lon="2.25588">
        <ele>400.8</ele>
        <time>2011-02-27T09:24:04Z</time>
      </trkpt>
      <trkpt lat="44.50986" lon="2.25592">
        <ele>401.1</ele>
        <time>2011-02-27T09:24:06Z</time>
      </trkpt>
      <trkpt lat="44.50986" lon="2.25597">
        <ele>401.4</ele>
        <time>2011-02-27T09:24:08Z</time>
      </trkpt>
      <trkpt lat="44.50985" lon="2.25601">
        <ele>401.8</ele>
        <time>2011-02-27T09:24:10Z</time>
      </trkpt>
      <trkpt lat="44.50985" lon="2.25606">
        <ele>402.2</ele>
        <time>2011-02-27T09:24:12Z</time>
      </trkpt>
      <trkpt lat="44.50985" lon="2.2561">
        <ele>402.4</ele>
        <time>2011-02-27T09:24:14Z</time>
      </trkpt>
      <trkpt lat="44.50985" lon="2.25615">
        <ele>402.8</ele>
        <time>2011-02-27T09:24:16Z</time>
      </trkpt>
      <trkpt lat="44.50984" lon="2.2562">
        <ele>403.2</ele>
        <time>2011-02-27T09:24:18Z</time>
      </trkpt>
      <trkpt lat="44.50984" lon="2.25625">
        <ele>403.5</ele>
        <time>2011-02-27T09:24:20Z</time>
      </trkpt>
      <trkpt lat="44.50984" lon="2.25629">
        <ele>403.9</ele>
        <time>2011-02-27T09:24:22Z</time>
      </trkpt>
      <trkpt lat="44.50983" lon="2.25634">
        <ele>404.3</ele>
        <time>2011-02-27T09:24:24Z</time>
      </trkpt>
      <trkpt lat="44.50983" lon="2.25638">
        <ele>404.7</ele>
        <time>2011-02-27T09:24:26Z</time>
      </trkpt>
      <trkpt lat="44.50981" lon="2.25643">
        <ele>405.2</ele>
        <time>2011-02-27T09:24:28Z</time>
      </trkpt>
      <trkpt lat="44.5098" lon="2.25648">
        <ele>405.8</ele>
        <time>2011-02-27T09:24:30Z</time>
      </trkpt>
      <trkpt lat="44.50979" lon="2.25652">
        <ele>406.3</ele>
        <time>2011-02-27T09:24:32Z</time>
      </trkpt>
      <trkpt lat="44.50977" lon="2.25656">
        <ele>406.9</ele>
        <time>2011-02-27T09:24:34Z</time>
      </trkpt>
      <trkpt lat="44.50974" lon="2.25658">
        <ele>407.6</ele>
        <time>2011-02-27T09:24:36Z</time>
      </trkpt>
      <trkpt lat="44.50971" lon="2.25663">
        <ele>408.6</ele>
        <time>2011-02-27T09:24:39Z</time>
      </trkpt>
      <trkpt lat="44.50969" lon="2.25668">
        <ele>409.4</ele>
        <time>2011-02-27T09:24:44Z</time>
      </trkpt>
      <trkpt lat="44.50966" lon="2.25672">
        <ele>410.4</ele>
        <time>2011-02-27T09:24:47Z</time>
      </trkpt>
      <trkpt lat="44.50962" lon="2.25674">
        <ele>411.4</ele>
        <time>2011-02-27T09:24:50Z</time>
      </trkpt>
      <trkpt lat="44.50958" lon="2.25678">
        <ele>412.5</ele>
        <time>2011-02-27T09:24:53Z</time>
      </trkpt>
      <trkpt lat="44.50955" lon="2.25681">
        <ele>413.5</ele>
        <time>2011-02-27T09:24:56Z</time>
      </trkpt>
      <trkpt lat="44.50952" lon="2.25684">
        <ele>414.2</ele>
        <time>2011-02-27T09:24:58Z</time>
      </trkpt>
      <trkpt lat="44.5095" lon="2.25687">
        <ele>414.9</ele>
        <time>2011-02-27T09:25:00Z</time>
      </trkpt>
      <trkpt lat="44.50948" lon="2.2569">
        <ele>415.5</ele>
        <time>2011-02-27T09:25:02Z</time>
      </trkpt>
      <trkpt lat="44.50947" lon="2.25691">
        <ele>415.8</ele>
        <time>2011-02-27T09:25:03Z</time>
      </trkpt>
      <trkpt lat="44.50942" lon="2.25695">
        <ele>417</ele>
        <time>2011-02-27T09:25:06Z</time>
      </trkpt>
      <trkpt lat="44.50939" lon="2.25698">
        <ele>417.7</ele>
        <time>2011-02-27T09:25:08Z</time>
      </trkpt>
      <trkpt lat="44.50936" lon="2.25701">
        <ele>418.3</ele>
        <time>2011-02-27T09:25:10Z</time>
      </trkpt>
      <trkpt lat="44.50933" lon="2.25703">
        <ele>419.1</ele>
        <time>2011-02-27T09:25:12Z</time>
      </trkpt>
      <trkpt lat="44.50931" lon="2.25706">
        <ele>419.6</ele>
        <time>2011-02-27T09:25:14Z</time>
      </trkpt>
      <trkpt lat="44.50927" lon="2.25709">
        <ele>420.4</ele>
        <time>2011-02-27T09:25:16Z</time>
      </trkpt>
      <trkpt lat="44.50925" lon="2.25711">
        <ele>420.8</ele>
        <time>2011-02-27T09:25:17Z</time>
      </trkpt>
      <trkpt lat="44.50922" lon="2.25713">
        <ele>421.4</ele>
        <time>2011-02-27T09:25:19Z</time>
      </trkpt>
      <trkpt lat="44.50918" lon="2.25716">
        <ele>422.1</ele>
        <time>2011-02-27T09:25:21Z</time>
      </trkpt>
      <trkpt lat="44.50915" lon="2.25719">
        <ele>422.6</ele>
        <time>2011-02-27T09:25:23Z</time>
      </trkpt>
      <trkpt lat="44.50913" lon="2.25721">
        <ele>422.7</ele>
        <time>2011-02-27T09:25:24Z</time>
      </trkpt>
      <trkpt lat="44.50911" lon="2.25723">
        <ele>422.9</ele>
        <time>2011-02-27T09:25:25Z</time>
      </trkpt>
      <trkpt lat="44.50909" lon="2.25725">
        <ele>423.1</ele>
        <time>2011-02-27T09:25:26Z</time>
      </trkpt>
      <trkpt lat="44.50907" lon="2.25727">
        <ele>423.3</ele>
        <time>2011-02-27T09:25:27Z</time>
      </trkpt>
      <trkpt lat="44.50905" lon="2.25729">
        <ele>423.5</ele>
        <time>2011-02-27T09:25:28Z</time>
      </trkpt>
      <trkpt lat="44.50902" lon="2.25732">
        <ele>423.9</ele>
        <time>2011-02-27T09:25:30Z</time>
      </trkpt>
      <trkpt lat="44.50898" lon="2.25735">
        <ele>424.2</ele>
        <time>2011-02-27T09:25:32Z</time>
      </trkpt>
      <trkpt lat="44.50896" lon="2.25737">
        <ele>424.5</ele>
        <time>2011-02-27T09:25:33Z</time>
      </trkpt>
      <trkpt lat="44.50893" lon="2.25741">
        <ele>424.8</ele>
        <time>2011-02-27T09:25:35Z</time>
      </trkpt>
      <trkpt lat="44.5089" lon="2.25742">
        <ele>425.1</ele>
        <time>2011-02-27T09:25:36Z</time>
      </trkpt>
      <trkpt lat="44.50888" lon="2.25744">
        <ele>425.3</ele>
        <time>2011-02-27T09:25:37Z</time>
      </trkpt>
      <trkpt lat="44.50886" lon="2.25746">
        <ele>425.5</ele>
        <time>2011-02-27T09:25:38Z</time>
      </trkpt>
      <trkpt lat="44.50885" lon="2.25747">
        <ele>425.8</ele>
        <time>2011-02-27T09:25:39Z</time>
      </trkpt>
      <trkpt lat="44.50882" lon="2.25749">
        <ele>426</ele>
        <time>2011-02-27T09:25:40Z</time>
      </trkpt>
      <trkpt lat="44.5088" lon="2.25751">
        <ele>426.2</ele>
        <time>2011-02-27T09:25:41Z</time>
      </trkpt>
      <trkpt lat="44.50878" lon="2.25752">
        <ele>426.5</ele>
        <time>2011-02-27T09:25:42Z</time>
      </trkpt>
      <trkpt lat="44.50876" lon="2.25754">
        <ele>426.9</ele>
        <time>2011-02-27T09:25:43Z</time>
      </trkpt>
      <trkpt lat="44.50873" lon="2.25756">
        <ele>427.2</ele>
        <time>2011-02-27T09:25:44Z</time>
      </trkpt>
      <trkpt lat="44.50871" lon="2.25758">
        <ele>427.6</ele>
        <time>2011-02-27T09:25:45Z</time>
      </trkpt>
      <trkpt lat="44.50869" lon="2.2576">
        <ele>427.9</ele>
        <time>2011-02-27T09:25:46Z</time>
      </trkpt>
      <trkpt lat="44.50866" lon="2.25762">
        <ele>428.3</ele>
        <time>2011-02-27T09:25:47Z</time>
      </trkpt>
      <trkpt lat="44.50864" lon="2.25763">
        <ele>428.6</ele>
        <time>2011-02-27T09:25:48Z</time>
      </trkpt>
      <trkpt lat="44.50862" lon="2.25765">
        <ele>428.9</ele>
        <time>2011-02-27T09:25:49Z</time>
      </trkpt>
      <trkpt lat="44.5086" lon="2.25767">
        <ele>429.3</ele>
        <time>2011-02-27T09:25:50Z</time>
      </trkpt>
      <trkpt lat="44.50858" lon="2.25769">
        <ele>429.6</ele>
        <time>2011-02-27T09:25:51Z</time>
      </trkpt>
      <trkpt lat="44.50856" lon="2.25771">
        <ele>430</ele>
        <time>2011-02-27T09:25:52Z</time>
      </trkpt>
      <trkpt lat="44.50854" lon="2.25773">
        <ele>430.3</ele>
        <time>2011-02-27T09:25:53Z</time>
      </trkpt>
      <trkpt lat="44.50851" lon="2.25775">
        <ele>430.7</ele>
        <time>2011-02-27T09:25:54Z</time>
      </trkpt>
      <trkpt lat="44.50849" lon="2.25777">
        <ele>431</ele>
        <time>2011-02-27T09:25:55Z</time>
      </trkpt>
      <trkpt lat="44.50847" lon="2.25779">
        <ele>431.5</ele>
        <time>2011-02-27T09:25:56Z</time>
      </trkpt>
      <trkpt lat="44.50845" lon="2.25781">
        <ele>432</ele>
        <time>2011-02-27T09:25:57Z</time>
      </trkpt>
      <trkpt lat="44.50842" lon="2.25783">
        <ele>432.3</ele>
        <time>2011-02-27T09:25:58Z</time>
      </trkpt>
      <trkpt lat="44.5084" lon="2.25786">
        <ele>432.7</ele>
        <time>2011-02-27T09:25:59Z</time>
      </trkpt>
      <trkpt lat="44.50838" lon="2.25787">
        <ele>433</ele>
        <time>2011-02-27T09:26:00Z</time>
      </trkpt>
      <trkpt lat="44.50836" lon="2.25789">
        <ele>433.5</ele>
        <time>2011-02-27T09:26:01Z</time>
      </trkpt>
      <trkpt lat="44.50834" lon="2.25791">
        <ele>433.8</ele>
        <time>2011-02-27T09:26:02Z</time>
      </trkpt>
      <trkpt lat="44.50832" lon="2.25793">
        <ele>434</ele>
        <time>2011-02-27T09:26:03Z</time>
      </trkpt>
      <trkpt lat="44.5083" lon="2.25795">
        <ele>433.9</ele>
        <time>2011-02-27T09:26:04Z</time>
      </trkpt>
      <trkpt lat="44.50828" lon="2.25797">
        <ele>433.9</ele>
        <time>2011-02-27T09:26:05Z</time>
      </trkpt>
      <trkpt lat="44.50825" lon="2.25799">
        <ele>433.9</ele>
        <time>2011-02-27T09:26:06Z</time>
      </trkpt>
      <trkpt lat="44.50823" lon="2.25802">
        <ele>433.9</ele>
        <time>2011-02-27T09:26:07Z</time>
      </trkpt>
      <trkpt lat="44.50821" lon="2.25804">
        <ele>433.9</ele>
        <time>2011-02-27T09:26:08Z</time>
      </trkpt>
      <trkpt lat="44.50819" lon="2.25806">
        <ele>433.9</ele>
        <time>2011-02-27T09:26:09Z</time>
      </trkpt>
      <trkpt lat="44.50817" lon="2.25808">
        <ele>433.8</ele>
        <time>2011-02-27T09:26:10Z</time>
      </trkpt>
      <trkpt lat="44.50814" lon="2.2581">
        <ele>433.8</ele>
        <time>2011-02-27T09:26:11Z</time>
      </trkpt>
      <trkpt lat="44.50812" lon="2.25812">
        <ele>433.7</ele>
        <time>2011-02-27T09:26:12Z</time>
      </trkpt>
      <trkpt lat="44.5081" lon="2.25814">
        <ele>433.7</ele>
        <time>2011-02-27T09:26:13Z</time>
      </trkpt>
      <trkpt lat="44.50808" lon="2.25816">
        <ele>433.5</ele>
        <time>2011-02-27T09:26:14Z</time>
      </trkpt>
      <trkpt lat="44.50806" lon="2.25818">
        <ele>433.5</ele>
        <time>2011-02-27T09:26:15Z</time>
      </trkpt>
      <trkpt lat="44.50804" lon="2.2582">
        <ele>433.5</ele>
        <time>2011-02-27T09:26:16Z</time>
      </trkpt>
      <trkpt lat="44.50802" lon="2.25822">
        <ele>433.4</ele>
        <time>2011-02-27T09:26:17Z</time>
      </trkpt>
      <trkpt lat="44.508" lon="2.25824">
        <ele>433.2</ele>
        <time>2011-02-27T09:26:18Z</time>
      </trkpt>
      <trkpt lat="44.50798" lon="2.25826">
        <ele>433.2</ele>
        <time>2011-02-27T09:26:19Z</time>
      </trkpt>
      <trkpt lat="44.50795" lon="2.25828">
        <ele>432.9</ele>
        <time>2011-02-27T09:26:20Z</time>
      </trkpt>
      <trkpt lat="44.50793" lon="2.25829">
        <ele>432.8</ele>
        <time>2011-02-27T09:26:21Z</time>
      </trkpt>
      <trkpt lat="44.5079" lon="2.25832">
        <ele>432.5</ele>
        <time>2011-02-27T09:26:22Z</time>
      </trkpt>
      <trkpt lat="44.50787" lon="2.25834">
        <ele>432.3</ele>
        <time>2011-02-27T09:26:23Z</time>
      </trkpt>
      <trkpt lat="44.50784" lon="2.25837">
        <ele>432.3</ele>
        <time>2011-02-27T09:26:24Z</time>
      </trkpt>
      <trkpt lat="44.50781" lon="2.2584">
        <ele>432.4</ele>
        <time>2011-02-27T09:26:25Z</time>
      </trkpt>
      <trkpt lat="44.50779" lon="2.25843">
        <ele>432.3</ele>
        <time>2011-02-27T09:26:26Z</time>
      </trkpt>
      <trkpt lat="44.50776" lon="2.25845">
        <ele>432.2</ele>
        <time>2011-02-27T09:26:27Z</time>
      </trkpt>
      <trkpt lat="44.50773" lon="2.25848">
        <ele>432.1</ele>
        <time>2011-02-27T09:26:28Z</time>
      </trkpt>
      <trkpt lat="44.5077" lon="2.25851">
        <ele>432</ele>
        <time>2011-02-27T09:26:29Z</time>
      </trkpt>
      <trkpt lat="44.50768" lon="2.25854">
        <ele>432.2</ele>
        <time>2011-02-27T09:26:30Z</time>
      </trkpt>
      <trkpt lat="44.50766" lon="2.25858">
        <ele>432.2</ele>
        <time>2011-02-27T09:26:31Z</time>
      </trkpt>
      <trkpt lat="44.50763" lon="2.25861">
        <ele>432.4</ele>
        <time>2011-02-27T09:26:32Z</time>
      </trkpt>
      <trkpt lat="44.50761" lon="2.25865">
        <ele>432.5</ele>
        <time>2011-02-27T09:26:33Z</time>
      </trkpt>
      <trkpt lat="44.5076" lon="2.25869">
        <ele>432.7</ele>
        <time>2011-02-27T09:26:34Z</time>
      </trkpt>
      <trkpt lat="44.50758" lon="2.25873">
        <ele>432.9</ele>
        <time>2011-02-27T09:26:35Z</time>
      </trkpt>
      <trkpt lat="44.50757" lon="2.25876">
        <ele>433.1</ele>
        <time>2011-02-27T09:26:36Z</time>
      </trkpt>
      <trkpt lat="44.50755" lon="2.25879">
        <ele>433.4</ele>
        <time>2011-02-27T09:26:37Z</time>
      </trkpt>
      <trkpt lat="44.50754" lon="2.25883">
        <ele>433.5</ele>
        <time>2011-02-27T09:26:38Z</time>
      </trkpt>
      <trkpt lat="44.50754" lon="2.25886">
        <ele>433.8</ele>
        <time>2011-02-27T09:26:39Z</time>
      </trkpt>
      <trkpt lat="44.50753" lon="2.2589">
        <ele>434.2</ele>
        <time>2011-02-27T09:26:40Z</time>
      </trkpt>
      <trkpt lat="44.50752" lon="2.25894">
        <ele>434.5</ele>
        <time>2011-02-27T09:26:41Z</time>
      </trkpt>
      <trkpt lat="44.50751" lon="2.25899">
        <ele>435</ele>
        <time>2011-02-27T09:26:42Z</time>
      </trkpt>
      <trkpt lat="44.50751" lon="2.25904">
        <ele>435.6</ele>
        <time>2011-02-27T09:26:43Z</time>
      </trkpt>
      <trkpt lat="44.5075" lon="2.25908">
        <ele>436</ele>
        <time>2011-02-27T09:26:44Z</time>
      </trkpt>
      <trkpt lat="44.5075" lon="2.25913">
        <ele>436.6</ele>
        <time>2011-02-27T09:26:45Z</time>
      </trkpt>
      <trkpt lat="44.5075" lon="2.25918">
        <ele>437</ele>
        <time>2011-02-27T09:26:46Z</time>
      </trkpt>
      <trkpt lat="44.5075" lon="2.25922">
        <ele>437.6</ele>
        <time>2011-02-27T09:26:47Z</time>
      </trkpt>
      <trkpt lat="44.5075" lon="2.25926">
        <ele>438.1</ele>
        <time>2011-02-27T09:26:48Z</time>
      </trkpt>
      <trkpt lat="44.5075" lon="2.25931">
        <ele>438.6</ele>
        <time>2011-02-27T09:26:49Z</time>
      </trkpt>
      <trkpt lat="44.5075" lon="2.25935">
        <ele>439.2</ele>
        <time>2011-02-27T09:26:50Z</time>
      </trkpt>
      <trkpt lat="44.5075" lon="2.25939">
        <ele>439.7</ele>
        <time>2011-02-27T09:26:51Z</time>
      </trkpt>
      <trkpt lat="44.5075" lon="2.25944">
        <ele>440.1</ele>
        <time>2011-02-27T09:26:52Z</time>
      </trkpt>
      <trkpt lat="44.5075" lon="2.25947">
        <ele>440.5</ele>
        <time>2011-02-27T09:26:53Z</time>
      </trkpt>
      <trkpt lat="44.5075" lon="2.25951">
        <ele>441</ele>
        <time>2011-02-27T09:26:54Z</time>
      </trkpt>
      <trkpt lat="44.50749" lon="2.25955">
        <ele>441.4</ele>
        <time>2011-02-27T09:26:55Z</time>
      </trkpt>
      <trkpt lat="44.50749" lon="2.25959">
        <ele>441.9</ele>
        <time>2011-02-27T09:26:56Z</time>
      </trkpt>
      <trkpt lat="44.50749" lon="2.25963">
        <ele>442.3</ele>
        <time>2011-02-27T09:26:57Z</time>
      </trkpt>
      <trkpt lat="44.50749" lon="2.25966">
        <ele>442.8</ele>
        <time>2011-02-27T09:26:58Z</time>
      </trkpt>
      <trkpt lat="44.50749" lon="2.2597">
        <ele>443</ele>
        <time>2011-02-27T09:26:59Z</time>
      </trkpt>
      <trkpt lat="44.50749" lon="2.25973">
        <ele>443.4</ele>
        <time>2011-02-27T09:27:00Z</time>
      </trkpt>
      <trkpt lat="44.50748" lon="2.25979">
        <ele>444.1</ele>
        <time>2011-02-27T09:27:02Z</time>
      </trkpt>
      <trkpt lat="44.50748" lon="2.25983">
        <ele>444.3</ele>
        <time>2011-02-27T09:27:03Z</time>
      </trkpt>
      <trkpt lat="44.50747" lon="2.25986">
        <ele>444.7</ele>
        <time>2011-02-27T09:27:04Z</time>
      </trkpt>
      <trkpt lat="44.50747" lon="2.25992">
        <ele>445.3</ele>
        <time>2011-02-27T09:27:06Z</time>
      </trkpt>
      <trkpt lat="44.50746" lon="2.25995">
        <ele>445.5</ele>
        <time>2011-02-27T09:27:07Z</time>
      </trkpt>
      <trkpt lat="44.50746" lon="2.25999">
        <ele>446</ele>
        <time>2011-02-27T09:27:08Z</time>
      </trkpt>
      <trkpt lat="44.50746" lon="2.26002">
        <ele>446.1</ele>
        <time>2011-02-27T09:27:09Z</time>
      </trkpt>
      <trkpt lat="44.50745" lon="2.26006">
        <ele>446.3</ele>
        <time>2011-02-27T09:27:10Z</time>
      </trkpt>
      <trkpt lat="44.50745" lon="2.2601">
        <ele>446.5</ele>
        <time>2011-02-27T09:27:11Z</time>
      </trkpt>
      <trkpt lat="44.50745" lon="2.26015">
        <ele>446.9</ele>
        <time>2011-02-27T09:27:12Z</time>
      </trkpt>
      <trkpt lat="44.50744" lon="2.26019">
        <ele>447.2</ele>
        <time>2011-02-27T09:27:13Z</time>
      </trkpt>
      <trkpt lat="44.50744" lon="2.26024">
        <ele>447.5</ele>
        <time>2011-02-27T09:27:14Z</time>
      </trkpt>
      <trkpt lat="44.50744" lon="2.2603">
        <ele>447.9</ele>
        <time>2011-02-27T09:27:15Z</time>
      </trkpt>
      <trkpt lat="44.50744" lon="2.26035">
        <ele>448.4</ele>
        <time>2011-02-27T09:27:16Z</time>
      </trkpt>
      <trkpt lat="44.50745" lon="2.2604">
        <ele>448.9</ele>
        <time>2011-02-27T09:27:17Z</time>
      </trkpt>
      <trkpt lat="44.50745" lon="2.26046">
        <ele>449.6</ele>
        <time>2011-02-27T09:27:18Z</time>
      </trkpt>
      <trkpt lat="44.50746" lon="2.26051">
        <ele>450.2</ele>
        <time>2011-02-27T09:27:19Z</time>
      </trkpt>
      <trkpt lat="44.50746" lon="2.26057">
        <ele>450.8</ele>
        <time>2011-02-27T09:27:20Z</time>
      </trkpt>
      <trkpt lat="44.50745" lon="2.26062">
        <ele>450.9</ele>
        <time>2011-02-27T09:27:21Z</time>
      </trkpt>
      <trkpt lat="44.50744" lon="2.26067">
        <ele>451.1</ele>
        <time>2011-02-27T09:27:22Z</time>
      </trkpt>
      <trkpt lat="44.50743" lon="2.26071">
        <ele>450.8</ele>
        <time>2011-02-27T09:27:23Z</time>
      </trkpt>
      <trkpt lat="44.5074" lon="2.26076">
        <ele>450.6</ele>
        <time>2011-02-27T09:27:24Z</time>
      </trkpt>
      <trkpt lat="44.50738" lon="2.26081">
        <ele>450.2</ele>
        <time>2011-02-27T09:27:25Z</time>
      </trkpt>
      <trkpt lat="44.50735" lon="2.26084">
        <ele>449.8</ele>
        <time>2011-02-27T09:27:26Z</time>
      </trkpt>
      <trkpt lat="44.50733" lon="2.26087">
        <ele>449.1</ele>
        <time>2011-02-27T09:27:27Z</time>
      </trkpt>
      <trkpt lat="44.5073" lon="2.2609">
        <ele>448.2</ele>
        <time>2011-02-27T09:27:28Z</time>
      </trkpt>
      <trkpt lat="44.50728" lon="2.26092">
        <ele>447.5</ele>
        <time>2011-02-27T09:27:29Z</time>
      </trkpt>
      <trkpt lat="44.50726" lon="2.26094">
        <ele>447</ele>
        <time>2011-02-27T09:27:30Z</time>
      </trkpt>
      <trkpt lat="44.50725" lon="2.26097">
        <ele>446.4</ele>
        <time>2011-02-27T09:27:31Z</time>
      </trkpt>
      <trkpt lat="44.50723" lon="2.261">
        <ele>445.9</ele>
        <time>2011-02-27T09:27:32Z</time>
      </trkpt>
      <trkpt lat="44.50722" lon="2.26104">
        <ele>445.4</ele>
        <time>2011-02-27T09:27:33Z</time>
      </trkpt>
      <trkpt lat="44.50721" lon="2.26108">
        <ele>445.2</ele>
        <time>2011-02-27T09:27:34Z</time>
      </trkpt>
      <trkpt lat="44.50721" lon="2.26112">
        <ele>444.9</ele>
        <time>2011-02-27T09:27:35Z</time>
      </trkpt>
      <trkpt lat="44.50721" lon="2.26116">
        <ele>445</ele>
        <time>2011-02-27T09:27:36Z</time>
      </trkpt>
      <trkpt lat="44.50722" lon="2.2612">
        <ele>445.2</ele>
        <time>2011-02-27T09:27:37Z</time>
      </trkpt>
      <trkpt lat="44.50724" lon="2.26123">
        <ele>445.6</ele>
        <time>2011-02-27T09:27:38Z</time>
      </trkpt>
      <trkpt lat="44.50726" lon="2.26126">
        <ele>446.1</ele>
        <time>2011-02-27T09:27:39Z</time>
      </trkpt>
      <trkpt lat="44.50728" lon="2.26128">
        <ele>446.6</ele>
        <time>2011-02-27T09:27:40Z</time>
      </trkpt>
      <trkpt lat="44.5073" lon="2.2613">
        <ele>447.2</ele>
        <time>2011-02-27T09:27:41Z</time>
      </trkpt>
      <trkpt lat="44.50732" lon="2.26132">
        <ele>447.8</ele>
        <time>2011-02-27T09:27:42Z</time>
      </trkpt>
      <trkpt lat="44.50735" lon="2.26133">
        <ele>448.5</ele>
        <time>2011-02-27T09:27:43Z</time>
      </trkpt>
      <trkpt lat="44.50737" lon="2.26134">
        <ele>449.1</ele>
        <time>2011-02-27T09:27:44Z</time>
      </trkpt>
      <trkpt lat="44.5074" lon="2.26136">
        <ele>449.8</ele>
        <time>2011-02-27T09:27:45Z</time>
      </trkpt>
      <trkpt lat="44.50742" lon="2.26136">
        <ele>450.5</ele>
        <time>2011-02-27T09:27:46Z</time>
      </trkpt>
      <trkpt lat="44.50745" lon="2.26137">
        <ele>451.2</ele>
        <time>2011-02-27T09:27:47Z</time>
      </trkpt>
      <trkpt lat="44.50747" lon="2.26137">
        <ele>452</ele>
        <time>2011-02-27T09:27:48Z</time>
      </trkpt>
      <trkpt lat="44.5075" lon="2.26138">
        <ele>452.7</ele>
        <time>2011-02-27T09:27:49Z</time>
      </trkpt>
      <trkpt lat="44.50753" lon="2.26138">
        <ele>453.2</ele>
        <time>2011-02-27T09:27:50Z</time>
      </trkpt>
      <trkpt lat="44.50755" lon="2.26139">
        <ele>453.8</ele>
        <time>2011-02-27T09:27:51Z</time>
      </trkpt>
      <trkpt lat="44.50758" lon="2.2614">
        <ele>454.3</ele>
        <time>2011-02-27T09:27:52Z</time>
      </trkpt>
      <trkpt lat="44.5076" lon="2.26142">
        <ele>454.7</ele>
        <time>2011-02-27T09:27:53Z</time>
      </trkpt>
      <trkpt lat="44.50762" lon="2.26144">
        <ele>455.2</ele>
        <time>2011-02-27T09:27:54Z</time>
      </trkpt>
      <trkpt lat="44.50766" lon="2.26147">
        <ele>456</ele>
        <time>2011-02-27T09:27:56Z</time>
      </trkpt>
      <trkpt lat="44.50769" lon="2.2615">
        <ele>456.7</ele>
        <time>2011-02-27T09:27:58Z</time>
      </trkpt>
      <trkpt lat="44.50771" lon="2.26154">
        <ele>457.4</ele>
        <time>2011-02-27T09:28:00Z</time>
      </trkpt>
      <trkpt lat="44.50773" lon="2.26155">
        <ele>457.8</ele>
        <time>2011-02-27T09:28:01Z</time>
      </trkpt>
      <trkpt lat="44.50775" lon="2.26158">
        <ele>458.2</ele>
        <time>2011-02-27T09:28:02Z</time>
      </trkpt>
      <trkpt lat="44.50777" lon="2.2616">
        <ele>458.7</ele>
        <time>2011-02-27T09:28:03Z</time>
      </trkpt>
      <trkpt lat="44.50779" lon="2.26161">
        <ele>459.2</ele>
        <time>2011-02-27T09:28:04Z</time>
      </trkpt>
      <trkpt lat="44.50781" lon="2.26163">
        <ele>459.8</ele>
        <time>2011-02-27T09:28:05Z</time>
      </trkpt>
      <trkpt lat="44.50783" lon="2.26165">
        <ele>460.3</ele>
        <time>2011-02-27T09:28:06Z</time>
      </trkpt>
      <trkpt lat="44.50785" lon="2.26167">
        <ele>460.8</ele>
        <time>2011-02-27T09:28:07Z</time>
      </trkpt>
      <trkpt lat="44.50787" lon="2.26169">
        <ele>461.1</ele>
        <time>2011-02-27T09:28:08Z</time>
      </trkpt>
      <trkpt lat="44.50788" lon="2.26172">
        <ele>461.4</ele>
        <time>2011-02-27T09:28:09Z</time>
      </trkpt>
      <trkpt lat="44.50789" lon="2.26175">
        <ele>461.6</ele>
        <time>2011-02-27T09:28:10Z</time>
      </trkpt>
      <trkpt lat="44.50791" lon="2.26178">
        <ele>461.8</ele>
        <time>2011-02-27T09:28:11Z</time>
      </trkpt>
      <trkpt lat="44.50792" lon="2.26182">
        <ele>461.8</ele>
        <time>2011-02-27T09:28:12Z</time>
      </trkpt>
      <trkpt lat="44.50792" lon="2.26185">
        <ele>461.8</ele>
        <time>2011-02-27T09:28:13Z</time>
      </trkpt>
      <trkpt lat="44.50793" lon="2.26189">
        <ele>461.8</ele>
        <time>2011-02-27T09:28:14Z</time>
      </trkpt>
      <trkpt lat="44.50793" lon="2.26193">
        <ele>461.6</ele>
        <time>2011-02-27T09:28:15Z</time>
      </trkpt>
      <trkpt lat="44.50793" lon="2.26196">
        <ele>461.5</ele>
        <time>2011-02-27T09:28:16Z</time>
      </trkpt>
      <trkpt lat="44.50793" lon="2.262">
        <ele>461.3</ele>
        <time>2011-02-27T09:28:17Z</time>
      </trkpt>
      <trkpt lat="44.50792" lon="2.26203">
        <ele>460.9</ele>
        <time>2011-02-27T09:28:18Z</time>
      </trkpt>
      <trkpt lat="44.50791" lon="2.26207">
        <ele>460.5</ele>
        <time>2011-02-27T09:28:19Z</time>
      </trkpt>
      <trkpt lat="44.50791" lon="2.2621">
        <ele>460.2</ele>
        <time>2011-02-27T09:28:20Z</time>
      </trkpt>
      <trkpt lat="44.5079" lon="2.26214">
        <ele>459.8</ele>
        <time>2011-02-27T09:28:21Z</time>
      </trkpt>
      <trkpt lat="44.50789" lon="2.26217">
        <ele>459.6</ele>
        <time>2011-02-27T09:28:22Z</time>
      </trkpt>
      <trkpt lat="44.50789" lon="2.26221">
        <ele>459.2</ele>
        <time>2011-02-27T09:28:23Z</time>
      </trkpt>
      <trkpt lat="44.50788" lon="2.26224">
        <ele>458.9</ele>
        <time>2011-02-27T09:28:24Z</time>
      </trkpt>
      <trkpt lat="44.50787" lon="2.2623">
        <ele>458.3</ele>
        <time>2011-02-27T09:28:26Z</time>
      </trkpt>
      <trkpt lat="44.50786" lon="2.26233">
        <ele>458</ele>
        <time>2011-02-27T09:28:27Z</time>
      </trkpt>
      <trkpt lat="44.50785" lon="2.26239">
        <ele>457.5</ele>
        <time>2011-02-27T09:28:29Z</time>
      </trkpt>
      <trkpt lat="44.50785" lon="2.26242">
        <ele>457.2</ele>
        <time>2011-02-27T09:28:30Z</time>
      </trkpt>
      <trkpt lat="44.50784" lon="2.26245">
        <ele>456.9</ele>
        <time>2011-02-27T09:28:31Z</time>
      </trkpt>
      <trkpt lat="44.50784" lon="2.26251">
        <ele>456.5</ele>
        <time>2011-02-27T09:28:33Z</time>
      </trkpt>
      <trkpt lat="44.50783" lon="2.26257">
        <ele>456.4</ele>
        <time>2011-02-27T09:28:35Z</time>
      </trkpt>
      <trkpt lat="44.50783" lon="2.26263">
        <ele>456.3</ele>
        <time>2011-02-27T09:28:37Z</time>
      </trkpt>
      <trkpt lat="44.50783" lon="2.26268">
        <ele>456.1</ele>
        <time>2011-02-27T09:28:39Z</time>
      </trkpt>
      <trkpt lat="44.50782" lon="2.26274">
        <ele>456</ele>
        <time>2011-02-27T09:28:41Z</time>
      </trkpt>
      <trkpt lat="44.50782" lon="2.26278">
        <ele>455.9</ele>
        <time>2011-02-27T09:28:42Z</time>
      </trkpt>
      <trkpt lat="44.50781" lon="2.26281">
        <ele>455.8</ele>
        <time>2011-02-27T09:28:43Z</time>
      </trkpt>
      <trkpt lat="44.50781" lon="2.26284">
        <ele>455.6</ele>
        <time>2011-02-27T09:28:44Z</time>
      </trkpt>
      <trkpt lat="44.5078" lon="2.26288">
        <ele>455.6</ele>
        <time>2011-02-27T09:28:45Z</time>
      </trkpt>
      <trkpt lat="44.5078" lon="2.26291">
        <ele>455.5</ele>
        <time>2011-02-27T09:28:46Z</time>
      </trkpt>
      <trkpt lat="44.5078" lon="2.26294">
        <ele>455.4</ele>
        <time>2011-02-27T09:28:47Z</time>
      </trkpt>
      <trkpt lat="44.50779" lon="2.26297">
        <ele>455.3</ele>
        <time>2011-02-27T09:28:48Z</time>
      </trkpt>
      <trkpt lat="44.50779" lon="2.26301">
        <ele>455.3</ele>
        <time>2011-02-27T09:28:49Z</time>
      </trkpt>
      <trkpt lat="44.50779" lon="2.26305">
        <ele>455.2</ele>
        <time>2011-02-27T09:28:50Z</time>
      </trkpt>
      <trkpt lat="44.50779" lon="2.26308">
        <ele>455.2</ele>
        <time>2011-02-27T09:28:51Z</time>
      </trkpt>
      <trkpt lat="44.50778" lon="2.26314">
        <ele>455</ele>
        <time>2011-02-27T09:28:53Z</time>
      </trkpt>
      <trkpt lat="44.50778" lon="2.26317">
        <ele>455</ele>
        <time>2011-02-27T09:28:54Z</time>
      </trkpt>
      <trkpt lat="44.50777" lon="2.2632">
        <ele>454.9</ele>
        <time>2011-02-27T09:28:55Z</time>
      </trkpt>
      <trkpt lat="44.50777" lon="2.26324">
        <ele>454.9</ele>
        <time>2011-02-27T09:28:56Z</time>
      </trkpt>
      <trkpt lat="44.50777" lon="2.26327">
        <ele>454.9</ele>
        <time>2011-02-27T09:28:57Z</time>
      </trkpt>
      <trkpt lat="44.50777" lon="2.2633">
        <ele>454.8</ele>
        <time>2011-02-27T09:28:58Z</time>
      </trkpt>
      <trkpt lat="44.50777" lon="2.26334">
        <ele>454.8</ele>
        <time>2011-02-27T09:28:59Z</time>
      </trkpt>
      <trkpt lat="44.50776" lon="2.26337">
        <ele>454.8</ele>
        <time>2011-02-27T09:29:00Z</time>
      </trkpt>
      <trkpt lat="44.50776" lon="2.2634">
        <ele>454.9</ele>
        <time>2011-02-27T09:29:01Z</time>
      </trkpt>
      <trkpt lat="44.50776" lon="2.26344">
        <ele>455</ele>
        <time>2011-02-27T09:29:02Z</time>
      </trkpt>
      <trkpt lat="44.50776" lon="2.26348">
        <ele>455.1</ele>
        <time>2011-02-27T09:29:03Z</time>
      </trkpt>
      <trkpt lat="44.50776" lon="2.26351">
        <ele>455.1</ele>
        <time>2011-02-27T09:29:04Z</time>
      </trkpt>
      <trkpt lat="44.50775" lon="2.26355">
        <ele>455.2</ele>
        <time>2011-02-27T09:29:05Z</time>
      </trkpt>
      <trkpt lat="44.50775" lon="2.26358">
        <ele>455.2</ele>
        <time>2011-02-27T09:29:06Z</time>
      </trkpt>
      <trkpt lat="44.50775" lon="2.26362">
        <ele>455.2</ele>
        <time>2011-02-27T09:29:07Z</time>
      </trkpt>
      <trkpt lat="44.50775" lon="2.26365">
        <ele>455.4</ele>
        <time>2011-02-27T09:29:08Z</time>
      </trkpt>
      <trkpt lat="44.50774" lon="2.26368">
        <ele>455.3</ele>
        <time>2011-02-27T09:29:09Z</time>
      </trkpt>
      <trkpt lat="44.50774" lon="2.26372">
        <ele>455.3</ele>
        <time>2011-02-27T09:29:10Z</time>
      </trkpt>
      <trkpt lat="44.50773" lon="2.26376">
        <ele>455.4</ele>
        <time>2011-02-27T09:29:11Z</time>
      </trkpt>
      <trkpt lat="44.50773" lon="2.26379">
        <ele>455.4</ele>
        <time>2011-02-27T09:29:12Z</time>
      </trkpt>
      <trkpt lat="44.50772" lon="2.26383">
        <ele>455.4</ele>
        <time>2011-02-27T09:29:13Z</time>
      </trkpt>
      <trkpt lat="44.50771" lon="2.26387">
        <ele>455.4</ele>
        <time>2011-02-27T09:29:14Z</time>
      </trkpt>
      <trkpt lat="44.5077" lon="2.2639">
        <ele>455.3</ele>
        <time>2011-02-27T09:29:15Z</time>
      </trkpt>
      <trkpt lat="44.50769" lon="2.26394">
        <ele>455.2</ele>
        <time>2011-02-27T09:29:16Z</time>
      </trkpt>
      <trkpt lat="44.50768" lon="2.26398">
        <ele>455.1</ele>
        <time>2011-02-27T09:29:17Z</time>
      </trkpt>
      <trkpt lat="44.50766" lon="2.26401">
        <ele>455</ele>
        <time>2011-02-27T09:29:18Z</time>
      </trkpt>
      <trkpt lat="44.50765" lon="2.26405">
        <ele>455</ele>
        <time>2011-02-27T09:29:19Z</time>
      </trkpt>
      <trkpt lat="44.50764" lon="2.26408">
        <ele>454.9</ele>
        <time>2011-02-27T09:29:20Z</time>
      </trkpt>
      <trkpt lat="44.50763" lon="2.26411">
        <ele>454.8</ele>
        <time>2011-02-27T09:29:21Z</time>
      </trkpt>
      <trkpt lat="44.50762" lon="2.26414">
        <ele>454.8</ele>
        <time>2011-02-27T09:29:22Z</time>
      </trkpt>
      <trkpt lat="44.5076" lon="2.2642">
        <ele>454.6</ele>
        <time>2011-02-27T09:29:24Z</time>
      </trkpt>
      <trkpt lat="44.50759" lon="2.26425">
        <ele>454.3</ele>
        <time>2011-02-27T09:29:26Z</time>
      </trkpt>
      <trkpt lat="44.50758" lon="2.26429">
        <ele>454.2</ele>
        <time>2011-02-27T09:29:27Z</time>
      </trkpt>
      <trkpt lat="44.50757" lon="2.26432">
        <ele>454</ele>
        <time>2011-02-27T09:29:28Z</time>
      </trkpt>
      <trkpt lat="44.50756" lon="2.26436">
        <ele>453.8</ele>
        <time>2011-02-27T09:29:29Z</time>
      </trkpt>
      <trkpt lat="44.50755" lon="2.26439">
        <ele>453.7</ele>
        <time>2011-02-27T09:29:30Z</time>
      </trkpt>
      <trkpt lat="44.50754" lon="2.26443">
        <ele>453.6</ele>
        <time>2011-02-27T09:29:31Z</time>
      </trkpt>
      <trkpt lat="44.50753" lon="2.26446">
        <ele>453.5</ele>
        <time>2011-02-27T09:29:32Z</time>
      </trkpt>
      <trkpt lat="44.50753" lon="2.26449">
        <ele>453.4</ele>
        <time>2011-02-27T09:29:33Z</time>
      </trkpt>
      <trkpt lat="44.50752" lon="2.26453">
        <ele>453.3</ele>
        <time>2011-02-27T09:29:34Z</time>
      </trkpt>
      <trkpt lat="44.50751" lon="2.26456">
        <ele>453.2</ele>
        <time>2011-02-27T09:29:35Z</time>
      </trkpt>
      <trkpt lat="44.5075" lon="2.26459">
        <ele>453</ele>
        <time>2011-02-27T09:29:36Z</time>
      </trkpt>
      <trkpt lat="44.5075" lon="2.26463">
        <ele>452.9</ele>
        <time>2011-02-27T09:29:37Z</time>
      </trkpt>
      <trkpt lat="44.50747" lon="2.26468">
        <ele>452.5</ele>
        <time>2011-02-27T09:29:39Z</time>
      </trkpt>
      <trkpt lat="44.50746" lon="2.26471">
        <ele>452.4</ele>
        <time>2011-02-27T09:29:40Z</time>
      </trkpt>
      <trkpt lat="44.50746" lon="2.26475">
        <ele>452.2</ele>
        <time>2011-02-27T09:29:41Z</time>
      </trkpt>
      <trkpt lat="44.50745" lon="2.26478">
        <ele>452.1</ele>
        <time>2011-02-27T09:29:42Z</time>
      </trkpt>
      <trkpt lat="44.50744" lon="2.26481">
        <ele>452</ele>
        <time>2011-02-27T09:29:43Z</time>
      </trkpt>
      <trkpt lat="44.50743" lon="2.26485">
        <ele>452</ele>
        <time>2011-02-27T09:29:44Z</time>
      </trkpt>
      <trkpt lat="44.50742" lon="2.26488">
        <ele>451.8</ele>
        <time>2011-02-27T09:29:45Z</time>
      </trkpt>
      <trkpt lat="44.50742" lon="2.26492">
        <ele>451.8</ele>
        <time>2011-02-27T09:29:46Z</time>
      </trkpt>
      <trkpt lat="44.50742" lon="2.26495">
        <ele>451.8</ele>
        <time>2011-02-27T09:29:47Z</time>
      </trkpt>
      <trkpt lat="44.50742" lon="2.26499">
        <ele>452</ele>
        <time>2011-02-27T09:29:48Z</time>
      </trkpt>
      <trkpt lat="44.50743" lon="2.26504">
        <ele>451.4</ele>
        <time>2011-02-27T09:29:49Z</time>
      </trkpt>
      <trkpt lat="44.50745" lon="2.26508">
        <ele>451</ele>
        <time>2011-02-27T09:29:50Z</time>
      </trkpt>
      <trkpt lat="44.50747" lon="2.26512">
        <ele>450.6</ele>
        <time>2011-02-27T09:29:51Z</time>
      </trkpt>
      <trkpt lat="44.5075" lon="2.26516">
        <ele>450.3</ele>
        <time>2011-02-27T09:29:52Z</time>
      </trkpt>
      <trkpt lat="44.50753" lon="2.26519">
        <ele>450.3</ele>
        <time>2011-02-27T09:29:53Z</time>
      </trkpt>
      <trkpt lat="44.50756" lon="2.26521">
        <ele>450.3</ele>
        <time>2011-02-27T09:29:54Z</time>
      </trkpt>
      <trkpt lat="44.5076" lon="2.26524">
        <ele>450.3</ele>
        <time>2011-02-27T09:29:55Z</time>
      </trkpt>
      <trkpt lat="44.50763" lon="2.26526">
        <ele>450.7</ele>
        <time>2011-02-27T09:29:56Z</time>
      </trkpt>
      <trkpt lat="44.50767" lon="2.26528">
        <ele>450.7</ele>
        <time>2011-02-27T09:29:57Z</time>
      </trkpt>
      <trkpt lat="44.5077" lon="2.2653">
        <ele>450.8</ele>
        <time>2011-02-27T09:29:58Z</time>
      </trkpt>
      <trkpt lat="44.50773" lon="2.26532">
        <ele>451</ele>
        <time>2011-02-27T09:29:59Z</time>
      </trkpt>
      <trkpt lat="44.50776" lon="2.26535">
        <ele>451.1</ele>
        <time>2011-02-27T09:30:00Z</time>
      </trkpt>
      <trkpt lat="44.50778" lon="2.26537">
        <ele>451.1</ele>
        <time>2011-02-27T09:30:01Z</time>
      </trkpt>
      <trkpt lat="44.50782" lon="2.26541">
        <ele>451.1</ele>
        <time>2011-02-27T09:30:02Z</time>
      </trkpt>
      <trkpt lat="44.50785" lon="2.26544">
        <ele>451.2</ele>
        <time>2011-02-27T09:30:03Z</time>
      </trkpt>
      <trkpt lat="44.50788" lon="2.26547">
        <ele>451.2</ele>
        <time>2011-02-27T09:30:04Z</time>
      </trkpt>
      <trkpt lat="44.50791" lon="2.2655">
        <ele>451.4</ele>
        <time>2011-02-27T09:30:05Z</time>
      </trkpt>
      <trkpt lat="44.50793" lon="2.26554">
        <ele>451.4</ele>
        <time>2011-02-27T09:30:06Z</time>
      </trkpt>
      <trkpt lat="44.50796" lon="2.26557">
        <ele>451.5</ele>
        <time>2011-02-27T09:30:07Z</time>
      </trkpt>
      <trkpt lat="44.50799" lon="2.26561">
        <ele>451.4</ele>
        <time>2011-02-27T09:30:08Z</time>
      </trkpt>
      <trkpt lat="44.50801" lon="2.26566">
        <ele>451.4</ele>
        <time>2011-02-27T09:30:09Z</time>
      </trkpt>
      <trkpt lat="44.50804" lon="2.26571">
        <ele>451.5</ele>
        <time>2011-02-27T09:30:10Z</time>
      </trkpt>
      <trkpt lat="44.50807" lon="2.26576">
        <ele>451.5</ele>
        <time>2011-02-27T09:30:11Z</time>
      </trkpt>
      <trkpt lat="44.5081" lon="2.26582">
        <ele>451.5</ele>
        <time>2011-02-27T09:30:12Z</time>
      </trkpt>
      <trkpt lat="44.50812" lon="2.26588">
        <ele>451.6</ele>
        <time>2011-02-27T09:30:13Z</time>
      </trkpt>
      <trkpt lat="44.50814" lon="2.26595">
        <ele>451.9</ele>
        <time>2011-02-27T09:30:14Z</time>
      </trkpt>
      <trkpt lat="44.50816" lon="2.26602">
        <ele>452.1</ele>
        <time>2011-02-27T09:30:15Z</time>
      </trkpt>
      <trkpt lat="44.50817" lon="2.26609">
        <ele>452.3</ele>
        <time>2011-02-27T09:30:16Z</time>
      </trkpt>
      <trkpt lat="44.50817" lon="2.26617">
        <ele>452.1</ele>
        <time>2011-02-27T09:30:17Z</time>
      </trkpt>
      <trkpt lat="44.50817" lon="2.26624">
        <ele>452</ele>
        <time>2011-02-27T09:30:18Z</time>
      </trkpt>
      <trkpt lat="44.50816" lon="2.26633">
        <ele>451.7</ele>
        <time>2011-02-27T09:30:19Z</time>
      </trkpt>
      <trkpt lat="44.50815" lon="2.26641">
        <ele>451.4</ele>
        <time>2011-02-27T09:30:20Z</time>
      </trkpt>
      <trkpt lat="44.50814" lon="2.2665">
        <ele>451</ele>
        <time>2011-02-27T09:30:21Z</time>
      </trkpt>
      <trkpt lat="44.50813" lon="2.26659">
        <ele>450.8</ele>
        <time>2011-02-27T09:30:22Z</time>
      </trkpt>
      <trkpt lat="44.50812" lon="2.26668">
        <ele>450.4</ele>
        <time>2011-02-27T09:30:23Z</time>
      </trkpt>
      <trkpt lat="44.5081" lon="2.26677">
        <ele>450.7</ele>
        <time>2011-02-27T09:30:24Z</time>
      </trkpt>
      <trkpt lat="44.50809" lon="2.26686">
        <ele>451.1</ele>
        <time>2011-02-27T09:30:25Z</time>
      </trkpt>
      <trkpt lat="44.50808" lon="2.26695">
        <ele>451.3</ele>
        <time>2011-02-27T09:30:26Z</time>
      </trkpt>
      <trkpt lat="44.50806" lon="2.26705">
        <ele>451.5</ele>
        <time>2011-02-27T09:30:27Z</time>
      </trkpt>
      <trkpt lat="44.50805" lon="2.26714">
        <ele>451.8</ele>
        <time>2011-02-27T09:30:28Z</time>
      </trkpt>
      <trkpt lat="44.50803" lon="2.26724">
        <ele>452.1</ele>
        <time>2011-02-27T09:30:29Z</time>
      </trkpt>
      <trkpt lat="44.50802" lon="2.26733">
        <ele>452.3</ele>
        <time>2011-02-27T09:30:30Z</time>
      </trkpt>
      <trkpt lat="44.508" lon="2.26743">
        <ele>452.5</ele>
        <time>2011-02-27T09:30:31Z</time>
      </trkpt>
      <trkpt lat="44.50798" lon="2.26752">
        <ele>452.6</ele>
        <time>2011-02-27T09:30:32Z</time>
      </trkpt>
      <trkpt lat="44.50795" lon="2.26762">
        <ele>452.7</ele>
        <time>2011-02-27T09:30:33Z</time>
      </trkpt>
      <trkpt lat="44.50793" lon="2.26771">
        <ele>452.8</ele>
        <time>2011-02-27T09:30:34Z</time>
      </trkpt>
      <trkpt lat="44.50789" lon="2.2678">
        <ele>452.7</ele>
        <time>2011-02-27T09:30:35Z</time>
      </trkpt>
      <trkpt lat="44.50785" lon="2.26788">
        <ele>452.6</ele>
        <time>2011-02-27T09:30:36Z</time>
      </trkpt>
      <trkpt lat="44.50781" lon="2.26796">
        <ele>452.3</ele>
        <time>2011-02-27T09:30:37Z</time>
      </trkpt>
      <trkpt lat="44.50776" lon="2.26804">
        <ele>451.9</ele>
        <time>2011-02-27T09:30:38Z</time>
      </trkpt>
      <trkpt lat="44.50771" lon="2.2681">
        <ele>451.6</ele>
        <time>2011-02-27T09:30:39Z</time>
      </trkpt>
      <trkpt lat="44.50765" lon="2.26817">
        <ele>451</ele>
        <time>2011-02-27T09:30:40Z</time>
      </trkpt>
      <trkpt lat="44.50759" lon="2.26822">
        <ele>450.5</ele>
        <time>2011-02-27T09:30:41Z</time>
      </trkpt>
      <trkpt lat="44.50754" lon="2.26827">
        <ele>450</ele>
        <time>2011-02-27T09:30:42Z</time>
      </trkpt>
      <trkpt lat="44.50749" lon="2.26831">
        <ele>449.5</ele>
        <time>2011-02-27T09:30:43Z</time>
      </trkpt>
      <trkpt lat="44.50745" lon="2.26835">
        <ele>448.9</ele>
        <time>2011-02-27T09:30:44Z</time>
      </trkpt>
      <trkpt lat="44.50741" lon="2.26839">
        <ele>448.5</ele>
        <time>2011-02-27T09:30:45Z</time>
      </trkpt>
      <trkpt lat="44.50738" lon="2.26842">
        <ele>448.1</ele>
        <time>2011-02-27T09:30:46Z</time>
      </trkpt>
      <trkpt lat="44.50736" lon="2.26846">
        <ele>448.2</ele>
        <time>2011-02-27T09:30:47Z</time>
      </trkpt>
      <trkpt lat="44.50733" lon="2.2685">
        <ele>448.1</ele>
        <time>2011-02-27T09:30:48Z</time>
      </trkpt>
      <trkpt lat="44.5073" lon="2.26853">
        <ele>447.8</ele>
        <time>2011-02-27T09:30:49Z</time>
      </trkpt>
      <trkpt lat="44.50728" lon="2.26855">
        <ele>447.6</ele>
        <time>2011-02-27T09:30:50Z</time>
      </trkpt>
      <trkpt lat="44.50726" lon="2.26857">
        <ele>447.1</ele>
        <time>2011-02-27T09:30:51Z</time>
      </trkpt>
      <trkpt lat="44.50723" lon="2.26857">
        <ele>446.6</ele>
        <time>2011-02-27T09:30:52Z</time>
      </trkpt>
      <trkpt lat="44.5072" lon="2.26857">
        <ele>445.8</ele>
        <time>2011-02-27T09:30:53Z</time>
      </trkpt>
      <trkpt lat="44.50716" lon="2.26856">
        <ele>444.7</ele>
        <time>2011-02-27T09:30:54Z</time>
      </trkpt>
      <trkpt lat="44.50712" lon="2.26854">
        <ele>443.4</ele>
        <time>2011-02-27T09:30:55Z</time>
      </trkpt>
      <trkpt lat="44.50708" lon="2.26851">
        <ele>442</ele>
        <time>2011-02-27T09:30:56Z</time>
      </trkpt>
      <trkpt lat="44.50706" lon="2.26849">
        <ele>441.2</ele>
        <time>2011-02-27T09:30:57Z</time>
      </trkpt>
      <trkpt lat="44.50703" lon="2.26847">
        <ele>440.2</ele>
        <time>2011-02-27T09:30:58Z</time>
      </trkpt>
      <trkpt lat="44.50701" lon="2.26845">
        <ele>439.3</ele>
        <time>2011-02-27T09:30:59Z</time>
      </trkpt>
      <trkpt lat="44.50698" lon="2.26843">
        <ele>438.4</ele>
        <time>2011-02-27T09:31:00Z</time>
      </trkpt>
      <trkpt lat="44.50695" lon="2.2684">
        <ele>437.2</ele>
        <time>2011-02-27T09:31:01Z</time>
      </trkpt>
      <trkpt lat="44.50692" lon="2.26837">
        <ele>435.9</ele>
        <time>2011-02-27T09:31:02Z</time>
      </trkpt>
      <trkpt lat="44.5069" lon="2.26834">
        <ele>434.8</ele>
        <time>2011-02-27T09:31:03Z</time>
      </trkpt>
      <trkpt lat="44.50687" lon="2.26832">
        <ele>433.7</ele>
        <time>2011-02-27T09:31:04Z</time>
      </trkpt>
      <trkpt lat="44.50683" lon="2.2683">
        <ele>432.6</ele>
        <time>2011-02-27T09:31:05Z</time>
      </trkpt>
      <trkpt lat="44.5068" lon="2.26828">
        <ele>431.7</ele>
        <time>2011-02-27T09:31:06Z</time>
      </trkpt>
      <trkpt lat="44.50677" lon="2.26827">
        <ele>430.7</ele>
        <time>2011-02-27T09:31:07Z</time>
      </trkpt>
      <trkpt lat="44.50674" lon="2.26826">
        <ele>429.8</ele>
        <time>2011-02-27T09:31:08Z</time>
      </trkpt>
      <trkpt lat="44.50671" lon="2.26825">
        <ele>429</ele>
        <time>2011-02-27T09:31:09Z</time>
      </trkpt>
      <trkpt lat="44.50669" lon="2.26825">
        <ele>428.1</ele>
        <time>2011-02-27T09:31:10Z</time>
      </trkpt>
      <trkpt lat="44.50666" lon="2.26826">
        <ele>427.7</ele>
        <time>2011-02-27T09:31:11Z</time>
      </trkpt>
      <trkpt lat="44.50663" lon="2.26826">
        <ele>427.5</ele>
        <time>2011-02-27T09:31:12Z</time>
      </trkpt>
      <trkpt lat="44.5066" lon="2.26828">
        <ele>427.8</ele>
        <time>2011-02-27T09:31:13Z</time>
      </trkpt>
      <trkpt lat="44.50657" lon="2.2683">
        <ele>427.9</ele>
        <time>2011-02-27T09:31:14Z</time>
      </trkpt>
      <trkpt lat="44.50655" lon="2.26833">
        <ele>428.2</ele>
        <time>2011-02-27T09:31:15Z</time>
      </trkpt>
      <trkpt lat="44.50652" lon="2.26836">
        <ele>428.7</ele>
        <time>2011-02-27T09:31:16Z</time>
      </trkpt>
      <trkpt lat="44.50649" lon="2.26839">
        <ele>429</ele>
        <time>2011-02-27T09:31:17Z</time>
      </trkpt>
      <trkpt lat="44.50646" lon="2.26842">
        <ele>429.5</ele>
        <time>2011-02-27T09:31:18Z</time>
      </trkpt>
      <trkpt lat="44.50644" lon="2.26846">
        <ele>429.8</ele>
        <time>2011-02-27T09:31:19Z</time>
      </trkpt>
      <trkpt lat="44.50642" lon="2.26849">
        <ele>430.3</ele>
        <time>2011-02-27T09:31:20Z</time>
      </trkpt>
      <trkpt lat="44.50639" lon="2.26853">
        <ele>430.6</ele>
        <time>2011-02-27T09:31:21Z</time>
      </trkpt>
      <trkpt lat="44.50637" lon="2.26856">
        <ele>431.1</ele>
        <time>2011-02-27T09:31:22Z</time>
      </trkpt>
      <trkpt lat="44.50634" lon="2.2686">
        <ele>431.6</ele>
        <time>2011-02-27T09:31:23Z</time>
      </trkpt>
      <trkpt lat="44.50632" lon="2.26864">
        <ele>432.1</ele>
        <time>2011-02-27T09:31:24Z</time>
      </trkpt>
      <trkpt lat="44.5063" lon="2.26868">
        <ele>432.6</ele>
        <time>2011-02-27T09:31:25Z</time>
      </trkpt>
      <trkpt lat="44.50627" lon="2.26872">
        <ele>433</ele>
        <time>2011-02-27T09:31:26Z</time>
      </trkpt>
      <trkpt lat="44.50625" lon="2.26876">
        <ele>433.5</ele>
        <time>2011-02-27T09:31:27Z</time>
      </trkpt>
      <trkpt lat="44.50623" lon="2.2688">
        <ele>434</ele>
        <time>2011-02-27T09:31:28Z</time>
      </trkpt>
      <trkpt lat="44.50622" lon="2.26884">
        <ele>434.7</ele>
        <time>2011-02-27T09:31:29Z</time>
      </trkpt>
      <trkpt lat="44.5062" lon="2.26888">
        <ele>435.2</ele>
        <time>2011-02-27T09:31:30Z</time>
      </trkpt>
      <trkpt lat="44.50619" lon="2.26892">
        <ele>435.8</ele>
        <time>2011-02-27T09:31:31Z</time>
      </trkpt>
      <trkpt lat="44.50618" lon="2.26896">
        <ele>436.3</ele>
        <time>2011-02-27T09:31:32Z</time>
      </trkpt>
      <trkpt lat="44.50617" lon="2.269">
        <ele>436.8</ele>
        <time>2011-02-27T09:31:33Z</time>
      </trkpt>
      <trkpt lat="44.50616" lon="2.26905">
        <ele>437.3</ele>
        <time>2011-02-27T09:31:34Z</time>
      </trkpt>
      <trkpt lat="44.50615" lon="2.26909">
        <ele>438.1</ele>
        <time>2011-02-27T09:31:35Z</time>
      </trkpt>
      <trkpt lat="44.50614" lon="2.26913">
        <ele>438.6</ele>
        <time>2011-02-27T09:31:36Z</time>
      </trkpt>
      <trkpt lat="44.50613" lon="2.26917">
        <ele>439.1</ele>
        <time>2011-02-27T09:31:37Z</time>
      </trkpt>
      <trkpt lat="44.50612" lon="2.26921">
        <ele>439.5</ele>
        <time>2011-02-27T09:31:38Z</time>
      </trkpt>
      <trkpt lat="44.50611" lon="2.26925">
        <ele>439.9</ele>
        <time>2011-02-27T09:31:39Z</time>
      </trkpt>
      <trkpt lat="44.5061" lon="2.26929">
        <ele>440.3</ele>
        <time>2011-02-27T09:31:40Z</time>
      </trkpt>
      <trkpt lat="44.5061" lon="2.26933">
        <ele>440.6</ele>
        <time>2011-02-27T09:31:41Z</time>
      </trkpt>
      <trkpt lat="44.50609" lon="2.26936">
        <ele>441</ele>
        <time>2011-02-27T09:31:42Z</time>
      </trkpt>
      <trkpt lat="44.50608" lon="2.2694">
        <ele>441.4</ele>
        <time>2011-02-27T09:31:43Z</time>
      </trkpt>
      <trkpt lat="44.50607" lon="2.26943">
        <ele>441.6</ele>
        <time>2011-02-27T09:31:44Z</time>
      </trkpt>
      <trkpt lat="44.50606" lon="2.26946">
        <ele>441.7</ele>
        <time>2011-02-27T09:31:45Z</time>
      </trkpt>
      <trkpt lat="44.50605" lon="2.26949">
        <ele>442.1</ele>
        <time>2011-02-27T09:31:46Z</time>
      </trkpt>
      <trkpt lat="44.50604" lon="2.26953">
        <ele>442.3</ele>
        <time>2011-02-27T09:31:47Z</time>
      </trkpt>
      <trkpt lat="44.50603" lon="2.26957">
        <ele>442.6</ele>
        <time>2011-02-27T09:31:48Z</time>
      </trkpt>
      <trkpt lat="44.50602" lon="2.26961">
        <ele>443</ele>
        <time>2011-02-27T09:31:49Z</time>
      </trkpt>
      <trkpt lat="44.50601" lon="2.26965">
        <ele>443.4</ele>
        <time>2011-02-27T09:31:50Z</time>
      </trkpt>
      <trkpt lat="44.506" lon="2.26969">
        <ele>443.6</ele>
        <time>2011-02-27T09:31:51Z</time>
      </trkpt>
      <trkpt lat="44.50599" lon="2.26972">
        <ele>443.9</ele>
        <time>2011-02-27T09:31:52Z</time>
      </trkpt>
      <trkpt lat="44.50598" lon="2.26977">
        <ele>444.3</ele>
        <time>2011-02-27T09:31:53Z</time>
      </trkpt>
      <trkpt lat="44.50597" lon="2.26981">
        <ele>444.6</ele>
        <time>2011-02-27T09:31:54Z</time>
      </trkpt>
      <trkpt lat="44.50595" lon="2.26986">
        <ele>445</ele>
        <time>2011-02-27T09:31:55Z</time>
      </trkpt>
      <trkpt lat="44.50594" lon="2.26991">
        <ele>445.2</ele>
        <time>2011-02-27T09:31:56Z</time>
      </trkpt>
      <trkpt lat="44.50592" lon="2.26996">
        <ele>445.7</ele>
        <time>2011-02-27T09:31:57Z</time>
      </trkpt>
      <trkpt lat="44.50591" lon="2.27001">
        <ele>446</ele>
        <time>2011-02-27T09:31:58Z</time>
      </trkpt>
      <trkpt lat="44.5059" lon="2.27006">
        <ele>446</ele>
        <time>2011-02-27T09:31:59Z</time>
      </trkpt>
      <trkpt lat="44.50588" lon="2.27012">
        <ele>446.1</ele>
        <time>2011-02-27T09:32:00Z</time>
      </trkpt>
      <trkpt lat="44.50587" lon="2.27018">
        <ele>446.1</ele>
        <time>2011-02-27T09:32:01Z</time>
      </trkpt>
      <trkpt lat="44.50586" lon="2.27025">
        <ele>446.2</ele>
        <time>2011-02-27T09:32:02Z</time>
      </trkpt>
      <trkpt lat="44.50584" lon="2.27032">
        <ele>446.3</ele>
        <time>2011-02-27T09:32:03Z</time>
      </trkpt>
      <trkpt lat="44.50583" lon="2.27039">
        <ele>446.4</ele>
        <time>2011-02-27T09:32:04Z</time>
      </trkpt>
      <trkpt lat="44.50583" lon="2.27046">
        <ele>446.5</ele>
        <time>2011-02-27T09:32:05Z</time>
      </trkpt>
      <trkpt lat="44.50582" lon="2.27054">
        <ele>446.7</ele>
        <time>2011-02-27T09:32:06Z</time>
      </trkpt>
      <trkpt lat="44.50582" lon="2.27061">
        <ele>447</ele>
        <time>2011-02-27T09:32:07Z</time>
      </trkpt>
      <trkpt lat="44.50582" lon="2.27068">
        <ele>447.1</ele>
        <time>2011-02-27T09:32:08Z</time>
      </trkpt>
      <trkpt lat="44.50582" lon="2.27075">
        <ele>447.4</ele>
        <time>2011-02-27T09:32:09Z</time>
      </trkpt>
      <trkpt lat="44.50583" lon="2.27082">
        <ele>447.8</ele>
        <time>2011-02-27T09:32:10Z</time>
      </trkpt>
      <trkpt lat="44.50583" lon="2.27088">
        <ele>448</ele>
        <time>2011-02-27T09:32:11Z</time>
      </trkpt>
      <trkpt lat="44.50584" lon="2.27094">
        <ele>448.1</ele>
        <time>2011-02-27T09:32:12Z</time>
      </trkpt>
      <trkpt lat="44.50585" lon="2.271">
        <ele>448.2</ele>
        <time>2011-02-27T09:32:13Z</time>
      </trkpt>
      <trkpt lat="44.50587" lon="2.27106">
        <ele>448.4</ele>
        <time>2011-02-27T09:32:14Z</time>
      </trkpt>
      <trkpt lat="44.50588" lon="2.27112">
        <ele>448.7</ele>
        <time>2011-02-27T09:32:15Z</time>
      </trkpt>
      <trkpt lat="44.50589" lon="2.27117">
        <ele>449</ele>
        <time>2011-02-27T09:32:16Z</time>
      </trkpt>
      <trkpt lat="44.50591" lon="2.27123">
        <ele>449.4</ele>
        <time>2011-02-27T09:32:17Z</time>
      </trkpt>
      <trkpt lat="44.50594" lon="2.27128">
        <ele>450</ele>
        <time>2011-02-27T09:32:18Z</time>
      </trkpt>
      <trkpt lat="44.50596" lon="2.27133">
        <ele>450.6</ele>
        <time>2011-02-27T09:32:19Z</time>
      </trkpt>
      <trkpt lat="44.50599" lon="2.27138">
        <ele>451.3</ele>
        <time>2011-02-27T09:32:20Z</time>
      </trkpt>
      <trkpt lat="44.50601" lon="2.27142">
        <ele>452</ele>
        <time>2011-02-27T09:32:21Z</time>
      </trkpt>
      <trkpt lat="44.50604" lon="2.27146">
        <ele>452.7</ele>
        <time>2011-02-27T09:32:22Z</time>
      </trkpt>
      <trkpt lat="44.50607" lon="2.27149">
        <ele>453.4</ele>
        <time>2011-02-27T09:32:23Z</time>
      </trkpt>
      <trkpt lat="44.50609" lon="2.27152">
        <ele>454.1</ele>
        <time>2011-02-27T09:32:24Z</time>
      </trkpt>
      <trkpt lat="44.50612" lon="2.27155">
        <ele>455</ele>
        <time>2011-02-27T09:32:25Z</time>
      </trkpt>
      <trkpt lat="44.50615" lon="2.27159">
        <ele>456.1</ele>
        <time>2011-02-27T09:32:26Z</time>
      </trkpt>
      <trkpt lat="44.50618" lon="2.27163">
        <ele>457</ele>
        <time>2011-02-27T09:32:27Z</time>
      </trkpt>
      <trkpt lat="44.50621" lon="2.27166">
        <ele>457.8</ele>
        <time>2011-02-27T09:32:28Z</time>
      </trkpt>
      <trkpt lat="44.50624" lon="2.27171">
        <ele>458.8</ele>
        <time>2011-02-27T09:32:29Z</time>
      </trkpt>
      <trkpt lat="44.50627" lon="2.27175">
        <ele>459.5</ele>
        <time>2011-02-27T09:32:30Z</time>
      </trkpt>
      <trkpt lat="44.50629" lon="2.27179">
        <ele>460.2</ele>
        <time>2011-02-27T09:32:31Z</time>
      </trkpt>
      <trkpt lat="44.50632" lon="2.27183">
        <ele>461</ele>
        <time>2011-02-27T09:32:32Z</time>
      </trkpt>
      <trkpt lat="44.50635" lon="2.27188">
        <ele>461.6</ele>
        <time>2011-02-27T09:32:33Z</time>
      </trkpt>
      <trkpt lat="44.50637" lon="2.27193">
        <ele>462.3</ele>
        <time>2011-02-27T09:32:34Z</time>
      </trkpt>
      <trkpt lat="44.50638" lon="2.27199">
        <ele>462.7</ele>
        <time>2011-02-27T09:32:35Z</time>
      </trkpt>
      <trkpt lat="44.5064" lon="2.27205">
        <ele>463.2</ele>
        <time>2011-02-27T09:32:36Z</time>
      </trkpt>
      <trkpt lat="44.50641" lon="2.27211">
        <ele>463.3</ele>
        <time>2011-02-27T09:32:37Z</time>
      </trkpt>
      <trkpt lat="44.50641" lon="2.27217">
        <ele>463.3</ele>
        <time>2011-02-27T09:32:38Z</time>
      </trkpt>
      <trkpt lat="44.5064" lon="2.27223">
        <ele>463.2</ele>
        <time>2011-02-27T09:32:39Z</time>
      </trkpt>
      <trkpt lat="44.50639" lon="2.27228">
        <ele>462.9</ele>
        <time>2011-02-27T09:32:40Z</time>
      </trkpt>
      <trkpt lat="44.50638" lon="2.27232">
        <ele>462.5</ele>
        <time>2011-02-27T09:32:41Z</time>
      </trkpt>
      <trkpt lat="44.50637" lon="2.27235">
        <ele>462.1</ele>
        <time>2011-02-27T09:32:42Z</time>
      </trkpt>
      <trkpt lat="44.50635" lon="2.27237">
        <ele>461.4</ele>
        <time>2011-02-27T09:32:43Z</time>
      </trkpt>
      <trkpt lat="44.50632" lon="2.27238">
        <ele>460.8</ele>
        <time>2011-02-27T09:32:44Z</time>
      </trkpt>
      <trkpt lat="44.5063" lon="2.27238">
        <ele>460</ele>
        <time>2011-02-27T09:32:45Z</time>
      </trkpt>
      <trkpt lat="44.50627" lon="2.27238">
        <ele>459.2</ele>
        <time>2011-02-27T09:32:46Z</time>
      </trkpt>
      <trkpt lat="44.50624" lon="2.27237">
        <ele>458.3</ele>
        <time>2011-02-27T09:32:47Z</time>
      </trkpt>
      <trkpt lat="44.5062" lon="2.27236">
        <ele>457.1</ele>
        <time>2011-02-27T09:32:48Z</time>
      </trkpt>
      <trkpt lat="44.50616" lon="2.27234">
        <ele>456.1</ele>
        <time>2011-02-27T09:32:49Z</time>
      </trkpt>
      <trkpt lat="44.50613" lon="2.27233">
        <ele>454.9</ele>
        <time>2011-02-27T09:32:50Z</time>
      </trkpt>
      <trkpt lat="44.50609" lon="2.27232">
        <ele>453.9</ele>
        <time>2011-02-27T09:32:51Z</time>
      </trkpt>
      <trkpt lat="44.50605" lon="2.27231">
        <ele>452.7</ele>
        <time>2011-02-27T09:32:52Z</time>
      </trkpt>
      <trkpt lat="44.50601" lon="2.27231">
        <ele>451.7</ele>
        <time>2011-02-27T09:32:53Z</time>
      </trkpt>
      <trkpt lat="44.50598" lon="2.2723">
        <ele>450.6</ele>
        <time>2011-02-27T09:32:54Z</time>
      </trkpt>
      <trkpt lat="44.50595" lon="2.27231">
        <ele>449.6</ele>
        <time>2011-02-27T09:32:55Z</time>
      </trkpt>
      <trkpt lat="44.50591" lon="2.27232">
        <ele>448.5</ele>
        <time>2011-02-27T09:32:56Z</time>
      </trkpt>
      <trkpt lat="44.50588" lon="2.27234">
        <ele>447.6</ele>
        <time>2011-02-27T09:32:57Z</time>
      </trkpt>
      <trkpt lat="44.50584" lon="2.27237">
        <ele>446.5</ele>
        <time>2011-02-27T09:32:58Z</time>
      </trkpt>
      <trkpt lat="44.50581" lon="2.2724">
        <ele>445.6</ele>
        <time>2011-02-27T09:32:59Z</time>
      </trkpt>
      <trkpt lat="44.50577" lon="2.27245">
        <ele>444.9</ele>
        <time>2011-02-27T09:33:00Z</time>
      </trkpt>
      <trkpt lat="44.50574" lon="2.27249">
        <ele>444.1</ele>
        <time>2011-02-27T09:33:01Z</time>
      </trkpt>
      <trkpt lat="44.5057" lon="2.27254">
        <ele>444.1</ele>
        <time>2011-02-27T09:33:02Z</time>
      </trkpt>
      <trkpt lat="44.50567" lon="2.27259">
        <ele>444.1</ele>
        <time>2011-02-27T09:33:03Z</time>
      </trkpt>
      <trkpt lat="44.50564" lon="2.27264">
        <ele>444.4</ele>
        <time>2011-02-27T09:33:04Z</time>
      </trkpt>
      <trkpt lat="44.5056" lon="2.27269">
        <ele>444.7</ele>
        <time>2011-02-27T09:33:05Z</time>
      </trkpt>
      <trkpt lat="44.50557" lon="2.27274">
        <ele>444.9</ele>
        <time>2011-02-27T09:33:06Z</time>
      </trkpt>
      <trkpt lat="44.50554" lon="2.27278">
        <ele>444.9</ele>
        <time>2011-02-27T09:33:07Z</time>
      </trkpt>
      <trkpt lat="44.5055" lon="2.27283">
        <ele>445</ele>
        <time>2011-02-27T09:33:08Z</time>
      </trkpt>
      <trkpt lat="44.50546" lon="2.27288">
        <ele>445.2</ele>
        <time>2011-02-27T09:33:09Z</time>
      </trkpt>
      <trkpt lat="44.50542" lon="2.27292">
        <ele>445.1</ele>
        <time>2011-02-27T09:33:10Z</time>
      </trkpt>
      <trkpt lat="44.50538" lon="2.27294">
        <ele>444.6</ele>
        <time>2011-02-27T09:33:11Z</time>
      </trkpt>
      <trkpt lat="44.50533" lon="2.27295">
        <ele>443.8</ele>
        <time>2011-02-27T09:33:12Z</time>
      </trkpt>
      <trkpt lat="44.50528" lon="2.27294">
        <ele>442.7</ele>
        <time>2011-02-27T09:33:13Z</time>
      </trkpt>
      <trkpt lat="44.50524" lon="2.27292">
        <ele>441.6</ele>
        <time>2011-02-27T09:33:14Z</time>
      </trkpt>
      <trkpt lat="44.50521" lon="2.2729">
        <ele>440.5</ele>
        <time>2011-02-27T09:33:15Z</time>
      </trkpt>
      <trkpt lat="44.50517" lon="2.27287">
        <ele>439.4</ele>
        <time>2011-02-27T09:33:16Z</time>
      </trkpt>
      <trkpt lat="44.50514" lon="2.27284">
        <ele>438.4</ele>
        <time>2011-02-27T09:33:17Z</time>
      </trkpt>
      <trkpt lat="44.50511" lon="2.27282">
        <ele>437.4</ele>
        <time>2011-02-27T09:33:18Z</time>
      </trkpt>
      <trkpt lat="44.50507" lon="2.27279">
        <ele>436.2</ele>
        <time>2011-02-27T09:33:19Z</time>
      </trkpt>
      <trkpt lat="44.50504" lon="2.27277">
        <ele>435.1</ele>
        <time>2011-02-27T09:33:20Z</time>
      </trkpt>
      <trkpt lat="44.505" lon="2.27276">
        <ele>434.2</ele>
        <time>2011-02-27T09:33:21Z</time>
      </trkpt>
      <trkpt lat="44.50496" lon="2.27275">
        <ele>433.8</ele>
        <time>2011-02-27T09:33:22Z</time>
      </trkpt>
      <trkpt lat="44.50492" lon="2.27276">
        <ele>433.5</ele>
        <time>2011-02-27T09:33:23Z</time>
      </trkpt>
      <trkpt lat="44.50488" lon="2.27276">
        <ele>433.4</ele>
        <time>2011-02-27T09:33:24Z</time>
      </trkpt>
      <trkpt lat="44.50484" lon="2.27277">
        <ele>433.3</ele>
        <time>2011-02-27T09:33:25Z</time>
      </trkpt>
      <trkpt lat="44.5048" lon="2.27279">
        <ele>433.3</ele>
        <time>2011-02-27T09:33:26Z</time>
      </trkpt>
      <trkpt lat="44.50477" lon="2.2728">
        <ele>433.2</ele>
        <time>2011-02-27T09:33:27Z</time>
      </trkpt>
      <trkpt lat="44.50473" lon="2.27281">
        <ele>433.1</ele>
        <time>2011-02-27T09:33:28Z</time>
      </trkpt>
      <trkpt lat="44.50469" lon="2.27283">
        <ele>433</ele>
        <time>2011-02-27T09:33:29Z</time>
      </trkpt>
      <trkpt lat="44.50466" lon="2.27283">
        <ele>432.8</ele>
        <time>2011-02-27T09:33:30Z</time>
      </trkpt>
      <trkpt lat="44.50462" lon="2.27284">
        <ele>432.7</ele>
        <time>2011-02-27T09:33:31Z</time>
      </trkpt>
      <trkpt lat="44.50459" lon="2.27285">
        <ele>432.7</ele>
        <time>2011-02-27T09:33:32Z</time>
      </trkpt>
      <trkpt lat="44.50455" lon="2.27286">
        <ele>432.4</ele>
        <time>2011-02-27T09:33:33Z</time>
      </trkpt>
      <trkpt lat="44.50452" lon="2.27286">
        <ele>432.1</ele>
        <time>2011-02-27T09:33:34Z</time>
      </trkpt>
      <trkpt lat="44.50449" lon="2.27286">
        <ele>431.8</ele>
        <time>2011-02-27T09:33:35Z</time>
      </trkpt>
      <trkpt lat="44.50445" lon="2.27286">
        <ele>431.6</ele>
        <time>2011-02-27T09:33:36Z</time>
      </trkpt>
      <trkpt lat="44.50442" lon="2.27286">
        <ele>431.3</ele>
        <time>2011-02-27T09:33:37Z</time>
      </trkpt>
      <trkpt lat="44.50439" lon="2.27285">
        <ele>431.1</ele>
        <time>2011-02-27T09:33:38Z</time>
      </trkpt>
      <trkpt lat="44.50436" lon="2.27285">
        <ele>430.6</ele>
        <time>2011-02-27T09:33:39Z</time>
      </trkpt>
      <trkpt lat="44.50433" lon="2.27283">
        <ele>430.1</ele>
        <time>2011-02-27T09:33:40Z</time>
      </trkpt>
      <trkpt lat="44.5043" lon="2.27282">
        <ele>429.7</ele>
        <time>2011-02-27T09:33:41Z</time>
      </trkpt>
      <trkpt lat="44.50427" lon="2.27279">
        <ele>429</ele>
        <time>2011-02-27T09:33:42Z</time>
      </trkpt>
      <trkpt lat="44.50425" lon="2.27276">
        <ele>428.3</ele>
        <time>2011-02-27T09:33:43Z</time>
      </trkpt>
      <trkpt lat="44.50423" lon="2.27273">
        <ele>427.7</ele>
        <time>2011-02-27T09:33:44Z</time>
      </trkpt>
      <trkpt lat="44.50421" lon="2.27271">
        <ele>427.1</ele>
        <time>2011-02-27T09:33:45Z</time>
      </trkpt>
      <trkpt lat="44.5042" lon="2.27268">
        <ele>426.3</ele>
        <time>2011-02-27T09:33:46Z</time>
      </trkpt>
      <trkpt lat="44.50419" lon="2.27262">
        <ele>425.3</ele>
        <time>2011-02-27T09:33:48Z</time>
      </trkpt>
      <trkpt lat="44.50419" lon="2.27256">
        <ele>424.1</ele>
        <time>2011-02-27T09:33:50Z</time>
      </trkpt>
      <trkpt lat="44.50419" lon="2.27252">
        <ele>423.4</ele>
        <time>2011-02-27T09:33:51Z</time>
      </trkpt>
      <trkpt lat="44.50419" lon="2.27249">
        <ele>423.1</ele>
        <time>2011-02-27T09:33:52Z</time>
      </trkpt>
      <trkpt lat="44.5042" lon="2.27245">
        <ele>422.6</ele>
        <time>2011-02-27T09:33:53Z</time>
      </trkpt>
      <trkpt lat="44.5042" lon="2.27241">
        <ele>422.1</ele>
        <time>2011-02-27T09:33:54Z</time>
      </trkpt>
      <trkpt lat="44.5042" lon="2.27238">
        <ele>421.6</ele>
        <time>2011-02-27T09:33:55Z</time>
      </trkpt>
      <trkpt lat="44.5042" lon="2.27234">
        <ele>421.1</ele>
        <time>2011-02-27T09:33:56Z</time>
      </trkpt>
      <trkpt lat="44.50421" lon="2.27228">
        <ele>420.5</ele>
        <time>2011-02-27T09:33:58Z</time>
      </trkpt>
      <trkpt lat="44.50422" lon="2.27223">
        <ele>420</ele>
        <time>2011-02-27T09:34:00Z</time>
      </trkpt>
      <trkpt lat="44.50423" lon="2.27217">
        <ele>419.4</ele>
        <time>2011-02-27T09:34:02Z</time>
      </trkpt>
      <trkpt lat="44.50423" lon="2.27214">
        <ele>419</ele>
        <time>2011-02-27T09:34:04Z</time>
      </trkpt>
      <trkpt lat="44.50424" lon="2.27209">
        <ele>418.4</ele>
        <time>2011-02-27T09:34:06Z</time>
      </trkpt>
      <trkpt lat="44.50424" lon="2.27203">
        <ele>417.6</ele>
        <time>2011-02-27T09:34:08Z</time>
      </trkpt>
      <trkpt lat="44.50425" lon="2.27199">
        <ele>417.4</ele>
        <time>2011-02-27T09:34:09Z</time>
      </trkpt>
      <trkpt lat="44.50425" lon="2.27196">
        <ele>416.9</ele>
        <time>2011-02-27T09:34:10Z</time>
      </trkpt>
      <trkpt lat="44.50425" lon="2.27193">
        <ele>416.5</ele>
        <time>2011-02-27T09:34:11Z</time>
      </trkpt>
      <trkpt lat="44.50425" lon="2.2719">
        <ele>416.2</ele>
        <time>2011-02-27T09:34:12Z</time>
      </trkpt>
      <trkpt lat="44.50426" lon="2.27186">
        <ele>415.7</ele>
        <time>2011-02-27T09:34:13Z</time>
      </trkpt>
      <trkpt lat="44.50425" lon="2.27182">
        <ele>415.4</ele>
        <time>2011-02-27T09:34:14Z</time>
      </trkpt>
      <trkpt lat="44.50425" lon="2.27179">
        <ele>414.8</ele>
        <time>2011-02-27T09:34:15Z</time>
      </trkpt>
      <trkpt lat="44.50425" lon="2.27175">
        <ele>414.3</ele>
        <time>2011-02-27T09:34:16Z</time>
      </trkpt>
      <trkpt lat="44.50424" lon="2.27171">
        <ele>413.7</ele>
        <time>2011-02-27T09:34:17Z</time>
      </trkpt>
      <trkpt lat="44.50424" lon="2.27168">
        <ele>413.1</ele>
        <time>2011-02-27T09:34:18Z</time>
      </trkpt>
      <trkpt lat="44.50423" lon="2.27164">
        <ele>413.1</ele>
        <time>2011-02-27T09:34:19Z</time>
      </trkpt>
      <trkpt lat="44.50423" lon="2.27159">
        <ele>413</ele>
        <time>2011-02-27T09:34:20Z</time>
      </trkpt>
      <trkpt lat="44.50423" lon="2.27155">
        <ele>412.9</ele>
        <time>2011-02-27T09:34:21Z</time>
      </trkpt>
      <trkpt lat="44.50422" lon="2.2715">
        <ele>412.8</ele>
        <time>2011-02-27T09:34:22Z</time>
      </trkpt>
      <trkpt lat="44.50422" lon="2.27145">
        <ele>412.8</ele>
        <time>2011-02-27T09:34:23Z</time>
      </trkpt>
      <trkpt lat="44.50421" lon="2.27141">
        <ele>412.6</ele>
        <time>2011-02-27T09:34:24Z</time>
      </trkpt>
      <trkpt lat="44.50421" lon="2.27137">
        <ele>412.5</ele>
        <time>2011-02-27T09:34:25Z</time>
      </trkpt>
      <trkpt lat="44.5042" lon="2.27132">
        <ele>412.2</ele>
        <time>2011-02-27T09:34:26Z</time>
      </trkpt>
      <trkpt lat="44.50419" lon="2.27128">
        <ele>412</ele>
        <time>2011-02-27T09:34:27Z</time>
      </trkpt>
      <trkpt lat="44.50418" lon="2.27123">
        <ele>411.8</ele>
        <time>2011-02-27T09:34:28Z</time>
      </trkpt>
      <trkpt lat="44.50417" lon="2.27118">
        <ele>411.5</ele>
        <time>2011-02-27T09:34:29Z</time>
      </trkpt>
      <trkpt lat="44.50416" lon="2.27114">
        <ele>411.5</ele>
        <time>2011-02-27T09:34:30Z</time>
      </trkpt>
      <trkpt lat="44.50415" lon="2.27109">
        <ele>411.8</ele>
        <time>2011-02-27T09:34:31Z</time>
      </trkpt>
      <trkpt lat="44.50414" lon="2.27105">
        <ele>412</ele>
        <time>2011-02-27T09:34:32Z</time>
      </trkpt>
      <trkpt lat="44.50412" lon="2.271">
        <ele>412.2</ele>
        <time>2011-02-27T09:34:33Z</time>
      </trkpt>
      <trkpt lat="44.50411" lon="2.27096">
        <ele>412.6</ele>
        <time>2011-02-27T09:34:34Z</time>
      </trkpt>
      <trkpt lat="44.50408" lon="2.27092">
        <ele>413.1</ele>
        <time>2011-02-27T09:34:35Z</time>
      </trkpt>
      <trkpt lat="44.50406" lon="2.27088">
        <ele>413.6</ele>
        <time>2011-02-27T09:34:36Z</time>
      </trkpt>
      <trkpt lat="44.50402" lon="2.27085">
        <ele>414.4</ele>
        <time>2011-02-27T09:34:38Z</time>
      </trkpt>
      <trkpt lat="44.50399" lon="2.27082">
        <ele>415</ele>
        <time>2011-02-27T09:34:41Z</time>
      </trkpt>
      <trkpt lat="44.50397" lon="2.27077">
        <ele>415.3</ele>
        <time>2011-02-27T09:34:44Z</time>
      </trkpt>
      <trkpt lat="44.50398" lon="2.27083">
        <ele>415.2</ele>
        <time>2011-02-27T09:35:09Z</time>
      </trkpt>
      <trkpt lat="44.504" lon="2.27089">
        <ele>415</ele>
        <time>2011-02-27T09:35:13Z</time>
      </trkpt>
      <trkpt lat="44.504" lon="2.27094">
        <ele>415.1</ele>
        <time>2011-02-27T09:35:16Z</time>
      </trkpt>
      <trkpt lat="44.50401" lon="2.27099">
        <ele>414.9</ele>
        <time>2011-02-27T09:35:19Z</time>
      </trkpt>
      <trkpt lat="44.50401" lon="2.27104">
        <ele>415</ele>
        <time>2011-02-27T09:35:21Z</time>
      </trkpt>
      <trkpt lat="44.50401" lon="2.27107">
        <ele>415</ele>
        <time>2011-02-27T09:35:22Z</time>
      </trkpt>
      <trkpt lat="44.50401" lon="2.27115">
        <ele>415.4</ele>
        <time>2011-02-27T09:35:25Z</time>
      </trkpt>
      <trkpt lat="44.50399" lon="2.2712">
        <ele>415.8</ele>
        <time>2011-02-27T09:35:27Z</time>
      </trkpt>
      <trkpt lat="44.50399" lon="2.27126">
        <ele>416.1</ele>
        <time>2011-02-27T09:35:29Z</time>
      </trkpt>
      <trkpt lat="44.50398" lon="2.27132">
        <ele>416.4</ele>
        <time>2011-02-27T09:35:31Z</time>
      </trkpt>
      <trkpt lat="44.50397" lon="2.27138">
        <ele>416.9</ele>
        <time>2011-02-27T09:35:33Z</time>
      </trkpt>
      <trkpt lat="44.50397" lon="2.27141">
        <ele>417.1</ele>
        <time>2011-02-27T09:35:34Z</time>
      </trkpt>
      <trkpt lat="44.50396" lon="2.27144">
        <ele>417.4</ele>
        <time>2011-02-27T09:35:35Z</time>
      </trkpt>
      <trkpt lat="44.50395" lon="2.27147">
        <ele>417.7</ele>
        <time>2011-02-27T09:35:36Z</time>
      </trkpt>
      <trkpt lat="44.50394" lon="2.2715">
        <ele>418</ele>
        <time>2011-02-27T09:35:37Z</time>
      </trkpt>
      <trkpt lat="44.50393" lon="2.27153">
        <ele>418.4</ele>
        <time>2011-02-27T09:35:38Z</time>
      </trkpt>
      <trkpt lat="44.50391" lon="2.27156">
        <ele>419</ele>
        <time>2011-02-27T09:35:39Z</time>
      </trkpt>
      <trkpt lat="44.5039" lon="2.27159">
        <ele>419.4</ele>
        <time>2011-02-27T09:35:40Z</time>
      </trkpt>
      <trkpt lat="44.50389" lon="2.27162">
        <ele>419.9</ele>
        <time>2011-02-27T09:35:41Z</time>
      </trkpt>
      <trkpt lat="44.50387" lon="2.27164">
        <ele>420.4</ele>
        <time>2011-02-27T09:35:42Z</time>
      </trkpt>
      <trkpt lat="44.50386" lon="2.27167">
        <ele>420.9</ele>
        <time>2011-02-27T09:35:43Z</time>
      </trkpt>
      <trkpt lat="44.50384" lon="2.27172">
        <ele>422</ele>
        <time>2011-02-27T09:35:45Z</time>
      </trkpt>
      <trkpt lat="44.50381" lon="2.27177">
        <ele>423</ele>
        <time>2011-02-27T09:35:47Z</time>
      </trkpt>
      <trkpt lat="44.50379" lon="2.27181">
        <ele>423.9</ele>
        <time>2011-02-27T09:35:49Z</time>
      </trkpt>
      <trkpt lat="44.50376" lon="2.27184">
        <ele>424.9</ele>
        <time>2011-02-27T09:35:51Z</time>
      </trkpt>
      <trkpt lat="44.50374" lon="2.27189">
        <ele>425.7</ele>
        <time>2011-02-27T09:35:53Z</time>
      </trkpt>
      <trkpt lat="44.50372" lon="2.27194">
        <ele>426.5</ele>
        <time>2011-02-27T09:35:55Z</time>
      </trkpt>
      <trkpt lat="44.50371" lon="2.27199">
        <ele>427.4</ele>
        <time>2011-02-27T09:35:57Z</time>
      </trkpt>
      <trkpt lat="44.50369" lon="2.27204">
        <ele>428.1</ele>
        <time>2011-02-27T09:35:59Z</time>
      </trkpt>
      <trkpt lat="44.50368" lon="2.27208">
        <ele>428.7</ele>
        <time>2011-02-27T09:36:01Z</time>
      </trkpt>
      <trkpt lat="44.50366" lon="2.27213">
        <ele>429.2</ele>
        <time>2011-02-27T09:36:04Z</time>
      </trkpt>
      <trkpt lat="44.50366" lon="2.27217">
        <ele>429.6</ele>
        <time>2011-02-27T09:36:06Z</time>
      </trkpt>
      <trkpt lat="44.50364" lon="2.27222">
        <ele>430.3</ele>
        <time>2011-02-27T09:36:08Z</time>
      </trkpt>
      <trkpt lat="44.50363" lon="2.27226">
        <ele>430.7</ele>
        <time>2011-02-27T09:36:10Z</time>
      </trkpt>
      <trkpt lat="44.50361" lon="2.27232">
        <ele>431.4</ele>
        <time>2011-02-27T09:36:12Z</time>
      </trkpt>
      <trkpt lat="44.50358" lon="2.27234">
        <ele>432</ele>
        <time>2011-02-27T09:36:14Z</time>
      </trkpt>
      <trkpt lat="44.50355" lon="2.27236">
        <ele>432.7</ele>
        <time>2011-02-27T09:36:16Z</time>
      </trkpt>
      <trkpt lat="44.50352" lon="2.2724">
        <ele>433.4</ele>
        <time>2011-02-27T09:36:18Z</time>
      </trkpt>
      <trkpt lat="44.50349" lon="2.27243">
        <ele>434.1</ele>
        <time>2011-02-27T09:36:20Z</time>
      </trkpt>
      <trkpt lat="44.50346" lon="2.27247">
        <ele>434.7</ele>
        <time>2011-02-27T09:36:23Z</time>
      </trkpt>
      <trkpt lat="44.50345" lon="2.27249">
        <ele>435</ele>
        <time>2011-02-27T09:36:24Z</time>
      </trkpt>
      <trkpt lat="44.50341" lon="2.27255">
        <ele>436</ele>
        <time>2011-02-27T09:36:28Z</time>
      </trkpt>
      <trkpt lat="44.50338" lon="2.27258">
        <ele>436.8</ele>
        <time>2011-02-27T09:36:31Z</time>
      </trkpt>
      <trkpt lat="44.50336" lon="2.27262">
        <ele>437.5</ele>
        <time>2011-02-27T09:36:33Z</time>
      </trkpt>
      <trkpt lat="44.50333" lon="2.27266">
        <ele>438.3</ele>
        <time>2011-02-27T09:36:36Z</time>
      </trkpt>
      <trkpt lat="44.5033" lon="2.27269">
        <ele>439</ele>
        <time>2011-02-27T09:36:38Z</time>
      </trkpt>
      <trkpt lat="44.50328" lon="2.27271">
        <ele>439.7</ele>
        <time>2011-02-27T09:36:40Z</time>
      </trkpt>
      <trkpt lat="44.50325" lon="2.27275">
        <ele>440.4</ele>
        <time>2011-02-27T09:36:42Z</time>
      </trkpt>
      <trkpt lat="44.50323" lon="2.27279">
        <ele>441</ele>
        <time>2011-02-27T09:36:44Z</time>
      </trkpt>
      <trkpt lat="44.50321" lon="2.27283">
        <ele>441.5</ele>
        <time>2011-02-27T09:36:46Z</time>
      </trkpt>
      <trkpt lat="44.50319" lon="2.27289">
        <ele>442.1</ele>
        <time>2011-02-27T09:36:49Z</time>
      </trkpt>
      <trkpt lat="44.50317" lon="2.27292">
        <ele>442.5</ele>
        <time>2011-02-27T09:36:51Z</time>
      </trkpt>
      <trkpt lat="44.50315" lon="2.27297">
        <ele>443.2</ele>
        <time>2011-02-27T09:36:56Z</time>
      </trkpt>
      <trkpt lat="44.50313" lon="2.27303">
        <ele>443.6</ele>
        <time>2011-02-27T09:37:12Z</time>
      </trkpt>
      <trkpt lat="44.50313" lon="2.27309">
        <ele>443.9</ele>
        <time>2011-02-27T09:37:31Z</time>
      </trkpt>
      <trkpt lat="44.50314" lon="2.27309">
        <ele>443.9</ele>
        <time>2011-02-27T09:37:32Z</time>
      </trkpt>
      <trkpt lat="44.50317" lon="2.27319">
        <ele>444</ele>
        <time>2011-02-27T09:39:06Z</time>
      </trkpt>
      <trkpt lat="44.5032" lon="2.27319">
        <ele>443.9</ele>
        <time>2011-02-27T09:39:07Z</time>
      </trkpt>
      <trkpt lat="44.50323" lon="2.2732">
        <ele>443.7</ele>
        <time>2011-02-27T09:39:08Z</time>
      </trkpt>
      <trkpt lat="44.50325" lon="2.27321">
        <ele>443.6</ele>
        <time>2011-02-27T09:39:09Z</time>
      </trkpt>
      <trkpt lat="44.50327" lon="2.27322">
        <ele>443.5</ele>
        <time>2011-02-27T09:39:10Z</time>
      </trkpt>
      <trkpt lat="44.5033" lon="2.27325">
        <ele>443.5</ele>
        <time>2011-02-27T09:39:11Z</time>
      </trkpt>
      <trkpt lat="44.50332" lon="2.27328">
        <ele>443.5</ele>
        <time>2011-02-27T09:39:12Z</time>
      </trkpt>
      <trkpt lat="44.50334" lon="2.27331">
        <ele>443.7</ele>
        <time>2011-02-27T09:39:13Z</time>
      </trkpt>
      <trkpt lat="44.50336" lon="2.27333">
        <ele>443.8</ele>
        <time>2011-02-27T09:39:14Z</time>
      </trkpt>
      <trkpt lat="44.50338" lon="2.27336">
        <ele>443.9</ele>
        <time>2011-02-27T09:39:15Z</time>
      </trkpt>
      <trkpt lat="44.50341" lon="2.27339">
        <ele>443.9</ele>
        <time>2011-02-27T09:39:16Z</time>
      </trkpt>
      <trkpt lat="44.50344" lon="2.27343">
        <ele>444.1</ele>
        <time>2011-02-27T09:39:17Z</time>
      </trkpt>
      <trkpt lat="44.50347" lon="2.27346">
        <ele>444.2</ele>
        <time>2011-02-27T09:39:18Z</time>
      </trkpt>
      <trkpt lat="44.5035" lon="2.2735">
        <ele>444.4</ele>
        <time>2011-02-27T09:39:19Z</time>
      </trkpt>
      <trkpt lat="44.50353" lon="2.27353">
        <ele>444.5</ele>
        <time>2011-02-27T09:39:20Z</time>
      </trkpt>
      <trkpt lat="44.50355" lon="2.27356">
        <ele>444.8</ele>
        <time>2011-02-27T09:39:21Z</time>
      </trkpt>
      <trkpt lat="44.50357" lon="2.27359">
        <ele>444.9</ele>
        <time>2011-02-27T09:39:22Z</time>
      </trkpt>
      <trkpt lat="44.50359" lon="2.27361">
        <ele>445.1</ele>
        <time>2011-02-27T09:39:23Z</time>
      </trkpt>
      <trkpt lat="44.50361" lon="2.27364">
        <ele>445.3</ele>
        <time>2011-02-27T09:39:24Z</time>
      </trkpt>
      <trkpt lat="44.50363" lon="2.27366">
        <ele>445.6</ele>
        <time>2011-02-27T09:39:25Z</time>
      </trkpt>
      <trkpt lat="44.50365" lon="2.27369">
        <ele>445.8</ele>
        <time>2011-02-27T09:39:26Z</time>
      </trkpt>
      <trkpt lat="44.50367" lon="2.27372">
        <ele>446</ele>
        <time>2011-02-27T09:39:27Z</time>
      </trkpt>
      <trkpt lat="44.50369" lon="2.27374">
        <ele>446.3</ele>
        <time>2011-02-27T09:39:28Z</time>
      </trkpt>
      <trkpt lat="44.5037" lon="2.27376">
        <ele>446.6</ele>
        <time>2011-02-27T09:39:29Z</time>
      </trkpt>
      <trkpt lat="44.50372" lon="2.27379">
        <ele>446.8</ele>
        <time>2011-02-27T09:39:30Z</time>
      </trkpt>
      <trkpt lat="44.50374" lon="2.27382">
        <ele>447.1</ele>
        <time>2011-02-27T09:39:31Z</time>
      </trkpt>
      <trkpt lat="44.50376" lon="2.27386">
        <ele>447.5</ele>
        <time>2011-02-27T09:39:32Z</time>
      </trkpt>
      <trkpt lat="44.50378" lon="2.27389">
        <ele>447.8</ele>
        <time>2011-02-27T09:39:33Z</time>
      </trkpt>
      <trkpt lat="44.50379" lon="2.27392">
        <ele>448.3</ele>
        <time>2011-02-27T09:39:34Z</time>
      </trkpt>
      <trkpt lat="44.50381" lon="2.27396">
        <ele>448.7</ele>
        <time>2011-02-27T09:39:35Z</time>
      </trkpt>
      <trkpt lat="44.50383" lon="2.27399">
        <ele>449.2</ele>
        <time>2011-02-27T09:39:36Z</time>
      </trkpt>
      <trkpt lat="44.50384" lon="2.27402">
        <ele>449.5</ele>
        <time>2011-02-27T09:39:37Z</time>
      </trkpt>
      <trkpt lat="44.50386" lon="2.27405">
        <ele>450</ele>
        <time>2011-02-27T09:39:38Z</time>
      </trkpt>
      <trkpt lat="44.50387" lon="2.27408">
        <ele>450.4</ele>
        <time>2011-02-27T09:39:39Z</time>
      </trkpt>
      <trkpt lat="44.50389" lon="2.27411">
        <ele>450.8</ele>
        <time>2011-02-27T09:39:40Z</time>
      </trkpt>
      <trkpt lat="44.5039" lon="2.27414">
        <ele>451.3</ele>
        <time>2011-02-27T09:39:41Z</time>
      </trkpt>
      <trkpt lat="44.50392" lon="2.27417">
        <ele>451.7</ele>
        <time>2011-02-27T09:39:42Z</time>
      </trkpt>
      <trkpt lat="44.50394" lon="2.27421">
        <ele>451.9</ele>
        <time>2011-02-27T09:39:44Z</time>
      </trkpt>
      <trkpt lat="44.50396" lon="2.27423">
        <ele>452.1</ele>
        <time>2011-02-27T09:39:45Z</time>
      </trkpt>
      <trkpt lat="44.50398" lon="2.27426">
        <ele>452.2</ele>
        <time>2011-02-27T09:39:46Z</time>
      </trkpt>
      <trkpt lat="44.50401" lon="2.2743">
        <ele>452.6</ele>
        <time>2011-02-27T09:39:49Z</time>
      </trkpt>
      <trkpt lat="44.50405" lon="2.27432">
        <ele>452.9</ele>
        <time>2011-02-27T09:39:52Z</time>
      </trkpt>
      <trkpt lat="44.50408" lon="2.27434">
        <ele>453.1</ele>
        <time>2011-02-27T09:39:54Z</time>
      </trkpt>
      <trkpt lat="44.50412" lon="2.27434">
        <ele>453.2</ele>
        <time>2011-02-27T09:39:56Z</time>
      </trkpt>
      <trkpt lat="44.50416" lon="2.27436">
        <ele>453.5</ele>
        <time>2011-02-27T09:39:58Z</time>
      </trkpt>
      <trkpt lat="44.50418" lon="2.27437">
        <ele>453.7</ele>
        <time>2011-02-27T09:39:59Z</time>
      </trkpt>
      <trkpt lat="44.50422" lon="2.27437">
        <ele>454.2</ele>
        <time>2011-02-27T09:40:01Z</time>
      </trkpt>
      <trkpt lat="44.50427" lon="2.27438">
        <ele>454.5</ele>
        <time>2011-02-27T09:40:03Z</time>
      </trkpt>
      <trkpt lat="44.50431" lon="2.27439">
        <ele>454.9</ele>
        <time>2011-02-27T09:40:05Z</time>
      </trkpt>
      <trkpt lat="44.50435" lon="2.2744">
        <ele>455.3</ele>
        <time>2011-02-27T09:40:07Z</time>
      </trkpt>
      <trkpt lat="44.50437" lon="2.2744">
        <ele>455.5</ele>
        <time>2011-02-27T09:40:08Z</time>
      </trkpt>
      <trkpt lat="44.50443" lon="2.27442">
        <ele>456.1</ele>
        <time>2011-02-27T09:40:11Z</time>
      </trkpt>
      <trkpt lat="44.50447" lon="2.27442">
        <ele>456.3</ele>
        <time>2011-02-27T09:40:13Z</time>
      </trkpt>
      <trkpt lat="44.5045" lon="2.27443">
        <ele>456.7</ele>
        <time>2011-02-27T09:40:15Z</time>
      </trkpt>
      <trkpt lat="44.50454" lon="2.27444">
        <ele>457</ele>
        <time>2011-02-27T09:40:17Z</time>
      </trkpt>
      <trkpt lat="44.50457" lon="2.27444">
        <ele>457.4</ele>
        <time>2011-02-27T09:40:19Z</time>
      </trkpt>
      <trkpt lat="44.50461" lon="2.27445">
        <ele>457.6</ele>
        <time>2011-02-27T09:40:21Z</time>
      </trkpt>
      <trkpt lat="44.50464" lon="2.27445">
        <ele>458</ele>
        <time>2011-02-27T09:40:23Z</time>
      </trkpt>
      <trkpt lat="44.50468" lon="2.27446">
        <ele>458.3</ele>
        <time>2011-02-27T09:40:25Z</time>
      </trkpt>
      <trkpt lat="44.50471" lon="2.27446">
        <ele>458.5</ele>
        <time>2011-02-27T09:40:27Z</time>
      </trkpt>
      <trkpt lat="44.50475" lon="2.27447">
        <ele>459</ele>
        <time>2011-02-27T09:40:30Z</time>
      </trkpt>
      <trkpt lat="44.50479" lon="2.27447">
        <ele>459.3</ele>
        <time>2011-02-27T09:40:32Z</time>
      </trkpt>
      <trkpt lat="44.50483" lon="2.27448">
        <ele>459.7</ele>
        <time>2011-02-27T09:40:34Z</time>
      </trkpt>
      <trkpt lat="44.50486" lon="2.27448">
        <ele>459.9</ele>
        <time>2011-02-27T09:40:36Z</time>
      </trkpt>
      <trkpt lat="44.50489" lon="2.27449">
        <ele>460.3</ele>
        <time>2011-02-27T09:40:38Z</time>
      </trkpt>
      <trkpt lat="44.50493" lon="2.2745">
        <ele>460.6</ele>
        <time>2011-02-27T09:40:41Z</time>
      </trkpt>
      <trkpt lat="44.50497" lon="2.27451">
        <ele>461</ele>
        <time>2011-02-27T09:40:44Z</time>
      </trkpt>
      <trkpt lat="44.505" lon="2.27451">
        <ele>461.2</ele>
        <time>2011-02-27T09:40:46Z</time>
      </trkpt>
      <trkpt lat="44.50504" lon="2.27451">
        <ele>461.3</ele>
        <time>2011-02-27T09:40:49Z</time>
      </trkpt>
      <trkpt lat="44.50507" lon="2.27452">
        <ele>461.5</ele>
        <time>2011-02-27T09:40:51Z</time>
      </trkpt>
      <trkpt lat="44.5051" lon="2.27453">
        <ele>461.6</ele>
        <time>2011-02-27T09:40:53Z</time>
      </trkpt>
      <trkpt lat="44.50513" lon="2.27454">
        <ele>461.7</ele>
        <time>2011-02-27T09:40:55Z</time>
      </trkpt>
      <trkpt lat="44.50516" lon="2.27455">
        <ele>461.8</ele>
        <time>2011-02-27T09:40:57Z</time>
      </trkpt>
      <trkpt lat="44.5052" lon="2.27456">
        <ele>461.9</ele>
        <time>2011-02-27T09:40:59Z</time>
      </trkpt>
      <trkpt lat="44.50524" lon="2.27457">
        <ele>462</ele>
        <time>2011-02-27T09:41:02Z</time>
      </trkpt>
      <trkpt lat="44.50527" lon="2.27458">
        <ele>462</ele>
        <time>2011-02-27T09:41:04Z</time>
      </trkpt>
      <trkpt lat="44.5053" lon="2.27458">
        <ele>462</ele>
        <time>2011-02-27T09:41:06Z</time>
      </trkpt>
      <trkpt lat="44.50533" lon="2.27458">
        <ele>462</ele>
        <time>2011-02-27T09:41:08Z</time>
      </trkpt>
      <trkpt lat="44.50534" lon="2.27458">
        <ele>462</ele>
        <time>2011-02-27T09:41:09Z</time>
      </trkpt>
      <trkpt lat="44.5054" lon="2.27459">
        <ele>462</ele>
        <time>2011-02-27T09:41:13Z</time>
      </trkpt>
      <trkpt lat="44.50543" lon="2.27459">
        <ele>462</ele>
        <time>2011-02-27T09:41:15Z</time>
      </trkpt>
      <trkpt lat="44.50546" lon="2.27458">
        <ele>462</ele>
        <time>2011-02-27T09:41:17Z</time>
      </trkpt>
      <trkpt lat="44.50549" lon="2.27458">
        <ele>462</ele>
        <time>2011-02-27T09:41:19Z</time>
      </trkpt>
      <trkpt lat="44.50554" lon="2.27457">
        <ele>462.1</ele>
        <time>2011-02-27T09:41:22Z</time>
      </trkpt>
      <trkpt lat="44.50557" lon="2.27456">
        <ele>462.1</ele>
        <time>2011-02-27T09:41:24Z</time>
      </trkpt>
      <trkpt lat="44.5056" lon="2.27455">
        <ele>462.2</ele>
        <time>2011-02-27T09:41:26Z</time>
      </trkpt>
      <trkpt lat="44.50564" lon="2.27455">
        <ele>462.3</ele>
        <time>2011-02-27T09:41:28Z</time>
      </trkpt>
      <trkpt lat="44.50568" lon="2.27455">
        <ele>462.3</ele>
        <time>2011-02-27T09:41:30Z</time>
      </trkpt>
      <trkpt lat="44.50571" lon="2.27455">
        <ele>462.3</ele>
        <time>2011-02-27T09:41:32Z</time>
      </trkpt>
      <trkpt lat="44.50575" lon="2.27455">
        <ele>462.4</ele>
        <time>2011-02-27T09:41:34Z</time>
      </trkpt>
      <trkpt lat="44.50579" lon="2.27455">
        <ele>462.4</ele>
        <time>2011-02-27T09:41:36Z</time>
      </trkpt>
      <trkpt lat="44.50583" lon="2.27454">
        <ele>462.6</ele>
        <time>2011-02-27T09:41:38Z</time>
      </trkpt>
      <trkpt lat="44.50586" lon="2.27453">
        <ele>462.6</ele>
        <time>2011-02-27T09:41:40Z</time>
      </trkpt>
      <trkpt lat="44.5059" lon="2.27452">
        <ele>462.5</ele>
        <time>2011-02-27T09:41:42Z</time>
      </trkpt>
      <trkpt lat="44.50593" lon="2.27451">
        <ele>462.5</ele>
        <time>2011-02-27T09:41:44Z</time>
      </trkpt>
      <trkpt lat="44.50596" lon="2.2745">
        <ele>462.3</ele>
        <time>2011-02-27T09:41:46Z</time>
      </trkpt>
      <trkpt lat="44.50599" lon="2.2745">
        <ele>462.4</ele>
        <time>2011-02-27T09:41:48Z</time>
      </trkpt>
      <trkpt lat="44.50602" lon="2.27449">
        <ele>462.5</ele>
        <time>2011-02-27T09:41:50Z</time>
      </trkpt>
      <trkpt lat="44.50605" lon="2.27449">
        <ele>462.3</ele>
        <time>2011-02-27T09:41:52Z</time>
      </trkpt>
      <trkpt lat="44.50608" lon="2.27448">
        <ele>462.2</ele>
        <time>2011-02-27T09:41:54Z</time>
      </trkpt>
      <trkpt lat="44.50612" lon="2.27448">
        <ele>462</ele>
        <time>2011-02-27T09:41:57Z</time>
      </trkpt>
      <trkpt lat="44.50615" lon="2.27451">
        <ele>461.5</ele>
        <time>2011-02-27T09:42:02Z</time>
      </trkpt>
      <trkpt lat="44.5062" lon="2.27452">
        <ele>461</ele>
        <time>2011-02-27T09:42:34Z</time>
      </trkpt>
      <trkpt lat="44.5062" lon="2.27452">
        <ele>461</ele>
        <time>2011-02-27T09:42:35Z</time>
      </trkpt>
      <trkpt lat="44.50627" lon="2.27454">
        <ele>460.4</ele>
        <time>2011-02-27T09:43:41Z</time>
      </trkpt>
      <trkpt lat="44.50628" lon="2.27453">
        <ele>460.4</ele>
        <time>2011-02-27T09:43:42Z</time>
      </trkpt>
      <trkpt lat="44.50633" lon="2.27451">
        <ele>460.6</ele>
        <time>2011-02-27T09:43:45Z</time>
      </trkpt>
      <trkpt lat="44.50637" lon="2.2745">
        <ele>460.7</ele>
        <time>2011-02-27T09:43:49Z</time>
      </trkpt>
      <trkpt lat="44.50639" lon="2.27455">
        <ele>459.5</ele>
        <time>2011-02-27T09:43:54Z</time>
      </trkpt>
      <trkpt lat="44.5064" lon="2.27461">
        <ele>458.1</ele>
        <time>2011-02-27T09:44:02Z</time>
      </trkpt>
      <trkpt lat="44.50638" lon="2.27466">
        <ele>457.3</ele>
        <time>2011-02-27T09:44:07Z</time>
      </trkpt>
      <trkpt lat="44.50637" lon="2.2747">
        <ele>456.6</ele>
        <time>2011-02-27T09:44:09Z</time>
      </trkpt>
      <trkpt lat="44.50635" lon="2.27475">
        <ele>455.6</ele>
        <time>2011-02-27T09:44:11Z</time>
      </trkpt>
      <trkpt lat="44.50634" lon="2.27478">
        <ele>455</ele>
        <time>2011-02-27T09:44:13Z</time>
      </trkpt>
      <trkpt lat="44.50632" lon="2.27483">
        <ele>454</ele>
        <time>2011-02-27T09:44:15Z</time>
      </trkpt>
      <trkpt lat="44.50631" lon="2.27488">
        <ele>453.4</ele>
        <time>2011-02-27T09:44:17Z</time>
      </trkpt>
      <trkpt lat="44.50629" lon="2.27493">
        <ele>452.5</ele>
        <time>2011-02-27T09:44:19Z</time>
      </trkpt>
      <trkpt lat="44.50627" lon="2.27498">
        <ele>451.8</ele>
        <time>2011-02-27T09:44:23Z</time>
      </trkpt>
      <trkpt lat="44.50625" lon="2.27503">
        <ele>450.6</ele>
        <time>2011-02-27T09:44:30Z</time>
      </trkpt>
      <trkpt lat="44.50623" lon="2.27508">
        <ele>449.7</ele>
        <time>2011-02-27T09:44:36Z</time>
      </trkpt>
      <trkpt lat="44.50622" lon="2.27512">
        <ele>448.2</ele>
        <time>2011-02-27T09:44:39Z</time>
      </trkpt>
      <trkpt lat="44.50621" lon="2.27518">
        <ele>446.8</ele>
        <time>2011-02-27T09:44:42Z</time>
      </trkpt>
      <trkpt lat="44.5062" lon="2.2752">
        <ele>446.1</ele>
        <time>2011-02-27T09:44:43Z</time>
      </trkpt>
      <trkpt lat="44.50619" lon="2.27526">
        <ele>444.3</ele>
        <time>2011-02-27T09:44:45Z</time>
      </trkpt>
      <trkpt lat="44.50617" lon="2.27529">
        <ele>443.6</ele>
        <time>2011-02-27T09:44:46Z</time>
      </trkpt>
      <trkpt lat="44.50616" lon="2.27535">
        <ele>441.8</ele>
        <time>2011-02-27T09:44:48Z</time>
      </trkpt>
      <trkpt lat="44.50619" lon="2.27538">
        <ele>440.6</ele>
        <time>2011-02-27T09:44:51Z</time>
      </trkpt>
      <trkpt lat="44.50624" lon="2.27538">
        <ele>439.9</ele>
        <time>2011-02-27T09:44:58Z</time>
      </trkpt>
      <trkpt lat="44.50628" lon="2.2754">
        <ele>438.5</ele>
        <time>2011-02-27T09:45:06Z</time>
      </trkpt>
      <trkpt lat="44.5063" lon="2.27546">
        <ele>436.6</ele>
        <time>2011-02-27T09:45:13Z</time>
      </trkpt>
      <trkpt lat="44.50631" lon="2.27552">
        <ele>434.7</ele>
        <time>2011-02-27T09:45:16Z</time>
      </trkpt>
      <trkpt lat="44.50633" lon="2.27556">
        <ele>432.8</ele>
        <time>2011-02-27T09:45:19Z</time>
      </trkpt>
      <trkpt lat="44.50634" lon="2.2756">
        <ele>431.5</ele>
        <time>2011-02-27T09:45:20Z</time>
      </trkpt>
      <trkpt lat="44.50633" lon="2.27565">
        <ele>430</ele>
        <time>2011-02-27T09:45:22Z</time>
      </trkpt>
      <trkpt lat="44.50632" lon="2.27571">
        <ele>428.5</ele>
        <time>2011-02-27T09:45:24Z</time>
      </trkpt>
      <trkpt lat="44.50632" lon="2.27575">
        <ele>427.3</ele>
        <time>2011-02-27T09:45:25Z</time>
      </trkpt>
      <trkpt lat="44.50631" lon="2.27579">
        <ele>426.1</ele>
        <time>2011-02-27T09:45:26Z</time>
      </trkpt>
      <trkpt lat="44.5063" lon="2.27582">
        <ele>425.6</ele>
        <time>2011-02-27T09:45:27Z</time>
      </trkpt>
      <trkpt lat="44.50628" lon="2.27587">
        <ele>424.1</ele>
        <time>2011-02-27T09:45:29Z</time>
      </trkpt>
      <trkpt lat="44.50629" lon="2.2759">
        <ele>423.3</ele>
        <time>2011-02-27T09:45:30Z</time>
      </trkpt>
      <trkpt lat="44.50631" lon="2.27593">
        <ele>422.5</ele>
        <time>2011-02-27T09:45:31Z</time>
      </trkpt>
      <trkpt lat="44.50633" lon="2.27596">
        <ele>421.6</ele>
        <time>2011-02-27T09:45:32Z</time>
      </trkpt>
      <trkpt lat="44.50636" lon="2.276">
        <ele>420.3</ele>
        <time>2011-02-27T09:45:34Z</time>
      </trkpt>
      <trkpt lat="44.50636" lon="2.27604">
        <ele>419.1</ele>
        <time>2011-02-27T09:45:35Z</time>
      </trkpt>
      <trkpt lat="44.50635" lon="2.27609">
        <ele>418.4</ele>
        <time>2011-02-27T09:45:36Z</time>
      </trkpt>
      <trkpt lat="44.50635" lon="2.27612">
        <ele>417.5</ele>
        <time>2011-02-27T09:45:37Z</time>
      </trkpt>
      <trkpt lat="44.50636" lon="2.27616">
        <ele>416.5</ele>
        <time>2011-02-27T09:45:38Z</time>
      </trkpt>
      <trkpt lat="44.50638" lon="2.27619">
        <ele>415.5</ele>
        <time>2011-02-27T09:45:40Z</time>
      </trkpt>
      <trkpt lat="44.50643" lon="2.2762">
        <ele>414.5</ele>
        <time>2011-02-27T09:45:42Z</time>
      </trkpt>
      <trkpt lat="44.50645" lon="2.27621">
        <ele>414.2</ele>
        <time>2011-02-27T09:45:43Z</time>
      </trkpt>
      <trkpt lat="44.50647" lon="2.2762">
        <ele>413.8</ele>
        <time>2011-02-27T09:45:44Z</time>
      </trkpt>
      <trkpt lat="44.50651" lon="2.27617">
        <ele>413.8</ele>
        <time>2011-02-27T09:45:46Z</time>
      </trkpt>
      <trkpt lat="44.50655" lon="2.27615">
        <ele>413.8</ele>
        <time>2011-02-27T09:45:48Z</time>
      </trkpt>
      <trkpt lat="44.50656" lon="2.27618">
        <ele>412.6</ele>
        <time>2011-02-27T09:45:50Z</time>
      </trkpt>
      <trkpt lat="44.50658" lon="2.27623">
        <ele>411.4</ele>
        <time>2011-02-27T09:45:53Z</time>
      </trkpt>
      <trkpt lat="44.50662" lon="2.27626">
        <ele>410.3</ele>
        <time>2011-02-27T09:45:58Z</time>
      </trkpt>
      <trkpt lat="44.50666" lon="2.27628">
        <ele>409</ele>
        <time>2011-02-27T09:46:06Z</time>
      </trkpt>
      <trkpt lat="44.5067" lon="2.27628">
        <ele>408.9</ele>
        <time>2011-02-27T09:46:16Z</time>
      </trkpt>
      <trkpt lat="44.50673" lon="2.27632">
        <ele>408.1</ele>
        <time>2011-02-27T09:46:24Z</time>
      </trkpt>
      <trkpt lat="44.50672" lon="2.27636">
        <ele>407.2</ele>
        <time>2011-02-27T09:46:26Z</time>
      </trkpt>
      <trkpt lat="44.50671" lon="2.27641">
        <ele>406</ele>
        <time>2011-02-27T09:46:28Z</time>
      </trkpt>
      <trkpt lat="44.5067" lon="2.27647">
        <ele>404.5</ele>
        <time>2011-02-27T09:46:31Z</time>
      </trkpt>
      <trkpt lat="44.50669" lon="2.27652">
        <ele>403.6</ele>
        <time>2011-02-27T09:46:34Z</time>
      </trkpt>
      <trkpt lat="44.50666" lon="2.27657">
        <ele>402.4</ele>
        <time>2011-02-27T09:46:37Z</time>
      </trkpt>
      <trkpt lat="44.50663" lon="2.27661">
        <ele>402</ele>
        <time>2011-02-27T09:46:43Z</time>
      </trkpt>
      <trkpt lat="44.50661" lon="2.27665">
        <ele>401.5</ele>
        <time>2011-02-27T09:46:46Z</time>
      </trkpt>
      <trkpt lat="44.50661" lon="2.27668">
        <ele>401</ele>
        <time>2011-02-27T09:46:47Z</time>
      </trkpt>
      <trkpt lat="44.50657" lon="2.27675">
        <ele>399.9</ele>
        <time>2011-02-27T09:46:51Z</time>
      </trkpt>
      <trkpt lat="44.50655" lon="2.27678">
        <ele>399.6</ele>
        <time>2011-02-27T09:46:52Z</time>
      </trkpt>
      <trkpt lat="44.50652" lon="2.2768">
        <ele>399.7</ele>
        <time>2011-02-27T09:46:54Z</time>
      </trkpt>
      <trkpt lat="44.50649" lon="2.27681">
        <ele>400.1</ele>
        <time>2011-02-27T09:46:56Z</time>
      </trkpt>
      <trkpt lat="44.50648" lon="2.27683">
        <ele>399.8</ele>
        <time>2011-02-27T09:46:57Z</time>
      </trkpt>
      <trkpt lat="44.50646" lon="2.27686">
        <ele>399.2</ele>
        <time>2011-02-27T09:46:58Z</time>
      </trkpt>
      <trkpt lat="44.50645" lon="2.2769">
        <ele>398.5</ele>
        <time>2011-02-27T09:46:59Z</time>
      </trkpt>
      <trkpt lat="44.50644" lon="2.27693">
        <ele>398.1</ele>
        <time>2011-02-27T09:47:00Z</time>
      </trkpt>
      <trkpt lat="44.50641" lon="2.27697">
        <ele>397.8</ele>
        <time>2011-02-27T09:47:02Z</time>
      </trkpt>
      <trkpt lat="44.50638" lon="2.27698">
        <ele>397.9</ele>
        <time>2011-02-27T09:47:03Z</time>
      </trkpt>
      <trkpt lat="44.50634" lon="2.277">
        <ele>398.3</ele>
        <time>2011-02-27T09:47:05Z</time>
      </trkpt>
      <trkpt lat="44.50631" lon="2.27701">
        <ele>398.5</ele>
        <time>2011-02-27T09:47:07Z</time>
      </trkpt>
      <trkpt lat="44.50628" lon="2.27705">
        <ele>398.1</ele>
        <time>2011-02-27T09:47:09Z</time>
      </trkpt>
      <trkpt lat="44.50627" lon="2.2771">
        <ele>397.2</ele>
        <time>2011-02-27T09:47:12Z</time>
      </trkpt>
      <trkpt lat="44.50625" lon="2.27714">
        <ele>396.5</ele>
        <time>2011-02-27T09:47:14Z</time>
      </trkpt>
      <trkpt lat="44.50625" lon="2.27717">
        <ele>395.8</ele>
        <time>2011-02-27T09:47:15Z</time>
      </trkpt>
      <trkpt lat="44.50624" lon="2.27721">
        <ele>395.3</ele>
        <time>2011-02-27T09:47:16Z</time>
      </trkpt>
      <trkpt lat="44.50624" lon="2.27725">
        <ele>394.4</ele>
        <time>2011-02-27T09:47:17Z</time>
      </trkpt>
      <trkpt lat="44.50624" lon="2.27728">
        <ele>393.5</ele>
        <time>2011-02-27T09:47:18Z</time>
      </trkpt>
      <trkpt lat="44.50626" lon="2.27732">
        <ele>392.4</ele>
        <time>2011-02-27T09:47:19Z</time>
      </trkpt>
      <trkpt lat="44.50628" lon="2.27736">
        <ele>391.2</ele>
        <time>2011-02-27T09:47:21Z</time>
      </trkpt>
      <trkpt lat="44.50631" lon="2.2774">
        <ele>389.9</ele>
        <time>2011-02-27T09:47:23Z</time>
      </trkpt>
      <trkpt lat="44.50633" lon="2.27745">
        <ele>388.7</ele>
        <time>2011-02-27T09:47:26Z</time>
      </trkpt>
      <trkpt lat="44.50636" lon="2.27747">
        <ele>387.6</ele>
        <time>2011-02-27T09:47:28Z</time>
      </trkpt>
      <trkpt lat="44.5064" lon="2.27747">
        <ele>387.1</ele>
        <time>2011-02-27T09:47:30Z</time>
      </trkpt>
      <trkpt lat="44.50642" lon="2.27748">
        <ele>386.4</ele>
        <time>2011-02-27T09:47:31Z</time>
      </trkpt>
      <trkpt lat="44.50645" lon="2.27752">
        <ele>385.2</ele>
        <time>2011-02-27T09:47:33Z</time>
      </trkpt>
      <trkpt lat="44.50648" lon="2.27755">
        <ele>384.2</ele>
        <time>2011-02-27T09:47:37Z</time>
      </trkpt>
      <trkpt lat="44.50651" lon="2.27759">
        <ele>383.2</ele>
        <time>2011-02-27T09:47:45Z</time>
      </trkpt>
      <trkpt lat="44.50654" lon="2.27762">
        <ele>382.6</ele>
        <time>2011-02-27T09:47:48Z</time>
      </trkpt>
      <trkpt lat="44.50656" lon="2.27762">
        <ele>382.2</ele>
        <time>2011-02-27T09:47:49Z</time>
      </trkpt>
      <trkpt lat="44.50661" lon="2.27763">
        <ele>381.4</ele>
        <time>2011-02-27T09:47:52Z</time>
      </trkpt>
      <trkpt lat="44.50664" lon="2.27763">
        <ele>381</ele>
        <time>2011-02-27T09:47:54Z</time>
      </trkpt>
      <trkpt lat="44.50666" lon="2.27762">
        <ele>380.8</ele>
        <time>2011-02-27T09:47:55Z</time>
      </trkpt>
      <trkpt lat="44.50669" lon="2.2776">
        <ele>380.8</ele>
        <time>2011-02-27T09:47:56Z</time>
      </trkpt>
      <trkpt lat="44.50671" lon="2.27759">
        <ele>381.1</ele>
        <time>2011-02-27T09:47:57Z</time>
      </trkpt>
      <trkpt lat="44.50674" lon="2.27755">
        <ele>381.3</ele>
        <time>2011-02-27T09:47:59Z</time>
      </trkpt>
      <trkpt lat="44.50677" lon="2.27754">
        <ele>381.4</ele>
        <time>2011-02-27T09:48:01Z</time>
      </trkpt>
      <trkpt lat="44.50681" lon="2.27752">
        <ele>381.7</ele>
        <time>2011-02-27T09:48:03Z</time>
      </trkpt>
      <trkpt lat="44.50685" lon="2.27749">
        <ele>382.1</ele>
        <time>2011-02-27T09:48:06Z</time>
      </trkpt>
      <trkpt lat="44.50688" lon="2.27748">
        <ele>382.3</ele>
        <time>2011-02-27T09:48:09Z</time>
      </trkpt>
      <trkpt lat="44.50693" lon="2.27749">
        <ele>382</ele>
        <time>2011-02-27T09:48:12Z</time>
      </trkpt>
      <trkpt lat="44.50694" lon="2.27753">
        <ele>381.3</ele>
        <time>2011-02-27T09:48:17Z</time>
      </trkpt>
      <trkpt lat="44.50693" lon="2.27757">
        <ele>380.9</ele>
        <time>2011-02-27T09:48:19Z</time>
      </trkpt>
      <trkpt lat="44.50692" lon="2.27761">
        <ele>380.4</ele>
        <time>2011-02-27T09:48:20Z</time>
      </trkpt>
      <trkpt lat="44.50691" lon="2.27766">
        <ele>379.7</ele>
        <time>2011-02-27T09:48:22Z</time>
      </trkpt>
      <trkpt lat="44.50695" lon="2.27769">
        <ele>379.3</ele>
        <time>2011-02-27T09:48:25Z</time>
      </trkpt>
      <trkpt lat="44.50699" lon="2.27772">
        <ele>378.9</ele>
        <time>2011-02-27T09:48:28Z</time>
      </trkpt>
      <trkpt lat="44.50703" lon="2.27775">
        <ele>378.3</ele>
        <time>2011-02-27T09:48:31Z</time>
      </trkpt>
      <trkpt lat="44.50706" lon="2.27776">
        <ele>378.2</ele>
        <time>2011-02-27T09:48:33Z</time>
      </trkpt>
      <trkpt lat="44.50708" lon="2.27776">
        <ele>377.9</ele>
        <time>2011-02-27T09:48:34Z</time>
      </trkpt>
      <trkpt lat="44.5071" lon="2.27776">
        <ele>377.8</ele>
        <time>2011-02-27T09:48:35Z</time>
      </trkpt>
      <trkpt lat="44.50714" lon="2.27775">
        <ele>377.9</ele>
        <time>2011-02-27T09:48:37Z</time>
      </trkpt>
      <trkpt lat="44.50717" lon="2.27774">
        <ele>378</ele>
        <time>2011-02-27T09:48:39Z</time>
      </trkpt>
      <trkpt lat="44.50721" lon="2.27775">
        <ele>377.7</ele>
        <time>2011-02-27T09:48:42Z</time>
      </trkpt>
      <trkpt lat="44.50724" lon="2.27778">
        <ele>377.2</ele>
        <time>2011-02-27T09:48:44Z</time>
      </trkpt>
      <trkpt lat="44.50726" lon="2.27781">
        <ele>376.8</ele>
        <time>2011-02-27T09:48:46Z</time>
      </trkpt>
      <trkpt lat="44.50728" lon="2.27784">
        <ele>376.1</ele>
        <time>2011-02-27T09:48:48Z</time>
      </trkpt>
      <trkpt lat="44.50731" lon="2.27788">
        <ele>375.4</ele>
        <time>2011-02-27T09:48:50Z</time>
      </trkpt>
      <trkpt lat="44.50732" lon="2.2779">
        <ele>375.2</ele>
        <time>2011-02-27T09:48:51Z</time>
      </trkpt>
      <trkpt lat="44.50735" lon="2.27796">
        <ele>374</ele>
        <time>2011-02-27T09:48:56Z</time>
      </trkpt>
      <trkpt lat="44.50739" lon="2.27799">
        <ele>373.4</ele>
        <time>2011-02-27T09:49:03Z</time>
      </trkpt>
      <trkpt lat="44.50743" lon="2.27802">
        <ele>372.6</ele>
        <time>2011-02-27T09:49:12Z</time>
      </trkpt>
      <trkpt lat="44.50745" lon="2.27807">
        <ele>371.8</ele>
        <time>2011-02-27T09:49:20Z</time>
      </trkpt>
      <trkpt lat="44.50749" lon="2.2781">
        <ele>371.2</ele>
        <time>2011-02-27T09:49:36Z</time>
      </trkpt>
      <trkpt lat="44.50749" lon="2.27816">
        <ele>370.1</ele>
        <time>2011-02-27T09:50:15Z</time>
      </trkpt>
      <trkpt lat="44.50749" lon="2.27816">
        <ele>370.1</ele>
        <time>2011-02-27T09:50:16Z</time>
      </trkpt>
      <trkpt lat="44.50756" lon="2.27822">
        <ele>368.1</ele>
        <time>2011-02-27T09:50:31Z</time>
      </trkpt>
      <trkpt lat="44.50758" lon="2.27823">
        <ele>367.8</ele>
        <time>2011-02-27T09:50:32Z</time>
      </trkpt>
      <trkpt lat="44.50761" lon="2.27824">
        <ele>367.1</ele>
        <time>2011-02-27T09:50:33Z</time>
      </trkpt>
      <trkpt lat="44.50763" lon="2.27826">
        <ele>366.5</ele>
        <time>2011-02-27T09:50:34Z</time>
      </trkpt>
      <trkpt lat="44.50766" lon="2.27827">
        <ele>366.1</ele>
        <time>2011-02-27T09:50:35Z</time>
      </trkpt>
      <trkpt lat="44.50769" lon="2.27827">
        <ele>365.5</ele>
        <time>2011-02-27T09:50:36Z</time>
      </trkpt>
      <trkpt lat="44.50772" lon="2.27829">
        <ele>364.9</ele>
        <time>2011-02-27T09:50:37Z</time>
      </trkpt>
      <trkpt lat="44.50775" lon="2.2783">
        <ele>364.2</ele>
        <time>2011-02-27T09:50:38Z</time>
      </trkpt>
      <trkpt lat="44.50778" lon="2.27831">
        <ele>363.7</ele>
        <time>2011-02-27T09:50:39Z</time>
      </trkpt>
      <trkpt lat="44.50782" lon="2.27832">
        <ele>363</ele>
        <time>2011-02-27T09:50:41Z</time>
      </trkpt>
      <trkpt lat="44.50786" lon="2.27833">
        <ele>362.3</ele>
        <time>2011-02-27T09:50:44Z</time>
      </trkpt>
      <trkpt lat="44.50789" lon="2.27836">
        <ele>361.7</ele>
        <time>2011-02-27T09:50:48Z</time>
      </trkpt>
      <trkpt lat="44.50793" lon="2.27837">
        <ele>361</ele>
        <time>2011-02-27T09:50:52Z</time>
      </trkpt>
      <trkpt lat="44.50797" lon="2.27836">
        <ele>360.6</ele>
        <time>2011-02-27T09:51:01Z</time>
      </trkpt>
      <trkpt lat="44.50802" lon="2.27835">
        <ele>360.1</ele>
        <time>2011-02-27T09:51:11Z</time>
      </trkpt>
      <trkpt lat="44.50806" lon="2.27834">
        <ele>359.7</ele>
        <time>2011-02-27T09:51:25Z</time>
      </trkpt>
      <trkpt lat="44.50806" lon="2.27834">
        <ele>359.6</ele>
        <time>2011-02-27T09:51:26Z</time>
      </trkpt>
      <trkpt lat="44.50808" lon="2.27841">
        <ele>358.6</ele>
        <time>2011-02-27T09:51:38Z</time>
      </trkpt>
      <trkpt lat="44.50808" lon="2.27845">
        <ele>358.4</ele>
        <time>2011-02-27T09:51:39Z</time>
      </trkpt>
      <trkpt lat="44.50807" lon="2.2785">
        <ele>357.9</ele>
        <time>2011-02-27T09:51:40Z</time>
      </trkpt>
      <trkpt lat="44.50807" lon="2.27854">
        <ele>357.6</ele>
        <time>2011-02-27T09:51:41Z</time>
      </trkpt>
      <trkpt lat="44.50806" lon="2.27859">
        <ele>357.2</ele>
        <time>2011-02-27T09:51:42Z</time>
      </trkpt>
      <trkpt lat="44.50805" lon="2.27862">
        <ele>357</ele>
        <time>2011-02-27T09:51:43Z</time>
      </trkpt>
      <trkpt lat="44.50803" lon="2.27865">
        <ele>357</ele>
        <time>2011-02-27T09:51:44Z</time>
      </trkpt>
      <trkpt lat="44.50802" lon="2.27869">
        <ele>356.8</ele>
        <time>2011-02-27T09:51:45Z</time>
      </trkpt>
      <trkpt lat="44.508" lon="2.27873">
        <ele>356.7</ele>
        <time>2011-02-27T09:51:46Z</time>
      </trkpt>
      <trkpt lat="44.50798" lon="2.27877">
        <ele>356.6</ele>
        <time>2011-02-27T09:51:47Z</time>
      </trkpt>
      <trkpt lat="44.50796" lon="2.27881">
        <ele>356.4</ele>
        <time>2011-02-27T09:51:48Z</time>
      </trkpt>
      <trkpt lat="44.50794" lon="2.27884">
        <ele>356.4</ele>
        <time>2011-02-27T09:51:49Z</time>
      </trkpt>
      <trkpt lat="44.50793" lon="2.27887">
        <ele>356.2</ele>
        <time>2011-02-27T09:51:50Z</time>
      </trkpt>
      <trkpt lat="44.50792" lon="2.2789">
        <ele>356.1</ele>
        <time>2011-02-27T09:51:51Z</time>
      </trkpt>
      <trkpt lat="44.5079" lon="2.27894">
        <ele>355.9</ele>
        <time>2011-02-27T09:51:52Z</time>
      </trkpt>
      <trkpt lat="44.50789" lon="2.27897">
        <ele>355.8</ele>
        <time>2011-02-27T09:51:53Z</time>
      </trkpt>
      <trkpt lat="44.50788" lon="2.279">
        <ele>355.7</ele>
        <time>2011-02-27T09:51:54Z</time>
      </trkpt>
      <trkpt lat="44.50786" lon="2.27902">
        <ele>355.6</ele>
        <time>2011-02-27T09:51:55Z</time>
      </trkpt>
      <trkpt lat="44.50785" lon="2.27905">
        <ele>355.5</ele>
        <time>2011-02-27T09:51:56Z</time>
      </trkpt>
      <trkpt lat="44.50784" lon="2.27908">
        <ele>355.4</ele>
        <time>2011-02-27T09:51:57Z</time>
      </trkpt>
      <trkpt lat="44.50782" lon="2.27911">
        <ele>355.4</ele>
        <time>2011-02-27T09:51:58Z</time>
      </trkpt>
      <trkpt lat="44.5078" lon="2.27916">
        <ele>355.2</ele>
        <time>2011-02-27T09:52:00Z</time>
      </trkpt>
      <trkpt lat="44.50778" lon="2.27922">
        <ele>355.5</ele>
        <time>2011-02-27T09:52:02Z</time>
      </trkpt>
      <trkpt lat="44.50776" lon="2.27927">
        <ele>356.1</ele>
        <time>2011-02-27T09:52:04Z</time>
      </trkpt>
      <trkpt lat="44.50774" lon="2.27932">
        <ele>356.6</ele>
        <time>2011-02-27T09:52:06Z</time>
      </trkpt>
      <trkpt lat="44.50773" lon="2.27936">
        <ele>357.1</ele>
        <time>2011-02-27T09:52:08Z</time>
      </trkpt>
      <trkpt lat="44.5077" lon="2.27942">
        <ele>357.6</ele>
        <time>2011-02-27T09:52:11Z</time>
      </trkpt>
      <trkpt lat="44.50768" lon="2.27947">
        <ele>358.1</ele>
        <time>2011-02-27T09:52:14Z</time>
      </trkpt>
      <trkpt lat="44.50768" lon="2.27951">
        <ele>358.4</ele>
        <time>2011-02-27T09:52:17Z</time>
      </trkpt>
      <trkpt lat="44.50766" lon="2.27957">
        <ele>358.9</ele>
        <time>2011-02-27T09:52:20Z</time>
      </trkpt>
      <trkpt lat="44.50763" lon="2.27962">
        <ele>359.3</ele>
        <time>2011-02-27T09:52:23Z</time>
      </trkpt>
      <trkpt lat="44.50762" lon="2.27966">
        <ele>359.7</ele>
        <time>2011-02-27T09:52:25Z</time>
      </trkpt>
      <trkpt lat="44.50761" lon="2.27971">
        <ele>360</ele>
        <time>2011-02-27T09:52:27Z</time>
      </trkpt>
      <trkpt lat="44.50761" lon="2.27973">
        <ele>360.1</ele>
        <time>2011-02-27T09:52:28Z</time>
      </trkpt>
      <trkpt lat="44.5076" lon="2.2798">
        <ele>360.5</ele>
        <time>2011-02-27T09:52:31Z</time>
      </trkpt>
      <trkpt lat="44.50759" lon="2.27984">
        <ele>360.8</ele>
        <time>2011-02-27T09:52:32Z</time>
      </trkpt>
      <trkpt lat="44.50758" lon="2.27989">
        <ele>361.1</ele>
        <time>2011-02-27T09:52:33Z</time>
      </trkpt>
      <trkpt lat="44.50757" lon="2.27993">
        <ele>361.3</ele>
        <time>2011-02-27T09:52:34Z</time>
      </trkpt>
      <trkpt lat="44.50755" lon="2.27998">
        <ele>361.6</ele>
        <time>2011-02-27T09:52:36Z</time>
      </trkpt>
      <trkpt lat="44.50755" lon="2.28001">
        <ele>361.7</ele>
        <time>2011-02-27T09:52:37Z</time>
      </trkpt>
      <trkpt lat="44.50755" lon="2.28006">
        <ele>362.2</ele>
        <time>2011-02-27T09:52:38Z</time>
      </trkpt>
      <trkpt lat="44.50754" lon="2.2801">
        <ele>362.5</ele>
        <time>2011-02-27T09:52:39Z</time>
      </trkpt>
      <trkpt lat="44.50753" lon="2.28015">
        <ele>363.1</ele>
        <time>2011-02-27T09:52:41Z</time>
      </trkpt>
      <trkpt lat="44.50751" lon="2.28019">
        <ele>363.5</ele>
        <time>2011-02-27T09:52:43Z</time>
      </trkpt>
      <trkpt lat="44.5075" lon="2.28025">
        <ele>364</ele>
        <time>2011-02-27T09:52:46Z</time>
      </trkpt>
      <trkpt lat="44.50749" lon="2.28029">
        <ele>364.5</ele>
        <time>2011-02-27T09:52:48Z</time>
      </trkpt>
      <trkpt lat="44.50749" lon="2.28034">
        <ele>365</ele>
        <time>2011-02-27T09:52:50Z</time>
      </trkpt>
      <trkpt lat="44.50748" lon="2.28038">
        <ele>365.2</ele>
        <time>2011-02-27T09:52:51Z</time>
      </trkpt>
      <trkpt lat="44.50747" lon="2.28041">
        <ele>365.6</ele>
        <time>2011-02-27T09:52:52Z</time>
      </trkpt>
      <trkpt lat="44.50746" lon="2.28045">
        <ele>366.1</ele>
        <time>2011-02-27T09:52:53Z</time>
      </trkpt>
      <trkpt lat="44.50744" lon="2.28049">
        <ele>366.5</ele>
        <time>2011-02-27T09:52:54Z</time>
      </trkpt>
      <trkpt lat="44.50743" lon="2.28053">
        <ele>367</ele>
        <time>2011-02-27T09:52:55Z</time>
      </trkpt>
      <trkpt lat="44.50741" lon="2.28055">
        <ele>367.4</ele>
        <time>2011-02-27T09:52:56Z</time>
      </trkpt>
      <trkpt lat="44.50739" lon="2.28057">
        <ele>367.8</ele>
        <time>2011-02-27T09:52:57Z</time>
      </trkpt>
      <trkpt lat="44.50738" lon="2.2806">
        <ele>368.1</ele>
        <time>2011-02-27T09:52:58Z</time>
      </trkpt>
      <trkpt lat="44.50737" lon="2.28063">
        <ele>368.5</ele>
        <time>2011-02-27T09:52:59Z</time>
      </trkpt>
      <trkpt lat="44.50736" lon="2.28066">
        <ele>368.9</ele>
        <time>2011-02-27T09:53:00Z</time>
      </trkpt>
      <trkpt lat="44.50736" lon="2.2807">
        <ele>369.1</ele>
        <time>2011-02-27T09:53:01Z</time>
      </trkpt>
      <trkpt lat="44.50736" lon="2.28073">
        <ele>369.4</ele>
        <time>2011-02-27T09:53:02Z</time>
      </trkpt>
      <trkpt lat="44.50737" lon="2.28079">
        <ele>369.8</ele>
        <time>2011-02-27T09:53:04Z</time>
      </trkpt>
      <trkpt lat="44.50736" lon="2.28085">
        <ele>370.5</ele>
        <time>2011-02-27T09:53:06Z</time>
      </trkpt>
      <trkpt lat="44.50734" lon="2.28091">
        <ele>371.5</ele>
        <time>2011-02-27T09:53:09Z</time>
      </trkpt>
      <trkpt lat="44.50734" lon="2.28097">
        <ele>372.5</ele>
        <time>2011-02-27T09:53:16Z</time>
      </trkpt>
      <trkpt lat="44.50731" lon="2.28101">
        <ele>373.4</ele>
        <time>2011-02-27T09:53:26Z</time>
      </trkpt>
      <trkpt lat="44.50732" lon="2.28107">
        <ele>374.3</ele>
        <time>2011-02-27T09:53:41Z</time>
      </trkpt>
      <trkpt lat="44.50732" lon="2.28107">
        <ele>374.3</ele>
        <time>2011-02-27T09:53:42Z</time>
      </trkpt>
      <trkpt lat="44.50732" lon="2.28109">
        <ele>374.7</ele>
        <time>2011-02-27T09:54:37Z</time>
      </trkpt>
      <trkpt lat="44.50736" lon="2.28111">
        <ele>374.5</ele>
        <time>2011-02-27T09:54:40Z</time>
      </trkpt>
      <trkpt lat="44.50739" lon="2.28113">
        <ele>374.4</ele>
        <time>2011-02-27T09:54:43Z</time>
      </trkpt>
      <trkpt lat="44.50741" lon="2.28114">
        <ele>374.5</ele>
        <time>2011-02-27T09:54:44Z</time>
      </trkpt>
      <trkpt lat="44.50746" lon="2.28115">
        <ele>374.3</ele>
        <time>2011-02-27T09:54:47Z</time>
      </trkpt>
      <trkpt lat="44.50749" lon="2.28117">
        <ele>374.2</ele>
        <time>2011-02-27T09:54:49Z</time>
      </trkpt>
      <trkpt lat="44.50753" lon="2.28118">
        <ele>374.3</ele>
        <time>2011-02-27T09:54:51Z</time>
      </trkpt>
      <trkpt lat="44.50756" lon="2.2812">
        <ele>374.7</ele>
        <time>2011-02-27T09:54:53Z</time>
      </trkpt>
      <trkpt lat="44.5076" lon="2.28122">
        <ele>374.9</ele>
        <time>2011-02-27T09:54:55Z</time>
      </trkpt>
      <trkpt lat="44.50763" lon="2.28124">
        <ele>375.1</ele>
        <time>2011-02-27T09:54:56Z</time>
      </trkpt>
      <trkpt lat="44.50765" lon="2.28125">
        <ele>375.3</ele>
        <time>2011-02-27T09:54:57Z</time>
      </trkpt>
      <trkpt lat="44.50767" lon="2.28126">
        <ele>375.5</ele>
        <time>2011-02-27T09:54:58Z</time>
      </trkpt>
      <trkpt lat="44.50769" lon="2.28127">
        <ele>375.7</ele>
        <time>2011-02-27T09:54:59Z</time>
      </trkpt>
      <trkpt lat="44.50772" lon="2.28128">
        <ele>375.9</ele>
        <time>2011-02-27T09:55:00Z</time>
      </trkpt>
      <trkpt lat="44.50774" lon="2.28129">
        <ele>376.1</ele>
        <time>2011-02-27T09:55:01Z</time>
      </trkpt>
      <trkpt lat="44.50777" lon="2.2813">
        <ele>376.1</ele>
        <time>2011-02-27T09:55:02Z</time>
      </trkpt>
      <trkpt lat="44.50779" lon="2.28131">
        <ele>376.3</ele>
        <time>2011-02-27T09:55:03Z</time>
      </trkpt>
      <trkpt lat="44.50782" lon="2.28132">
        <ele>376.5</ele>
        <time>2011-02-27T09:55:04Z</time>
      </trkpt>
      <trkpt lat="44.50784" lon="2.28133">
        <ele>376.7</ele>
        <time>2011-02-27T09:55:05Z</time>
      </trkpt>
      <trkpt lat="44.50786" lon="2.28134">
        <ele>376.9</ele>
        <time>2011-02-27T09:55:06Z</time>
      </trkpt>
      <trkpt lat="44.50788" lon="2.28136">
        <ele>377.1</ele>
        <time>2011-02-27T09:55:07Z</time>
      </trkpt>
      <trkpt lat="44.50792" lon="2.28138">
        <ele>377.5</ele>
        <time>2011-02-27T09:55:09Z</time>
      </trkpt>
      <trkpt lat="44.50795" lon="2.28141">
        <ele>377.9</ele>
        <time>2011-02-27T09:55:11Z</time>
      </trkpt>
      <trkpt lat="44.50799" lon="2.28144">
        <ele>378.3</ele>
        <time>2011-02-27T09:55:13Z</time>
      </trkpt>
      <trkpt lat="44.50802" lon="2.28147">
        <ele>379</ele>
        <time>2011-02-27T09:55:17Z</time>
      </trkpt>
      <trkpt lat="44.50805" lon="2.28151">
        <ele>379.6</ele>
        <time>2011-02-27T09:55:26Z</time>
      </trkpt>
      <trkpt lat="44.50808" lon="2.28155">
        <ele>380.2</ele>
        <time>2011-02-27T09:55:36Z</time>
      </trkpt>
      <trkpt lat="44.50811" lon="2.28161">
        <ele>381</ele>
        <time>2011-02-27T09:56:05Z</time>
      </trkpt>
      <trkpt lat="44.50811" lon="2.28161">
        <ele>381</ele>
        <time>2011-02-27T09:56:06Z</time>
      </trkpt>
      <trkpt lat="44.50814" lon="2.2817">
        <ele>382.4</ele>
        <time>2011-02-27T09:56:58Z</time>
      </trkpt>
      <trkpt lat="44.50815" lon="2.28175">
        <ele>383.3</ele>
        <time>2011-02-27T09:57:00Z</time>
      </trkpt>
      <trkpt lat="44.50817" lon="2.28181">
        <ele>384.3</ele>
        <time>2011-02-27T09:57:03Z</time>
      </trkpt>
      <trkpt lat="44.50817" lon="2.28185">
        <ele>385.2</ele>
        <time>2011-02-27T09:57:05Z</time>
      </trkpt>
      <trkpt lat="44.50818" lon="2.28191">
        <ele>386.1</ele>
        <time>2011-02-27T09:57:08Z</time>
      </trkpt>
      <trkpt lat="44.50818" lon="2.28192">
        <ele>386.3</ele>
        <time>2011-02-27T09:57:09Z</time>
      </trkpt>
      <trkpt lat="44.50822" lon="2.28198">
        <ele>387.5</ele>
        <time>2011-02-27T09:57:14Z</time>
      </trkpt>
      <trkpt lat="44.50825" lon="2.28201">
        <ele>388</ele>
        <time>2011-02-27T09:57:16Z</time>
      </trkpt>
      <trkpt lat="44.50829" lon="2.28204">
        <ele>388.7</ele>
        <time>2011-02-27T09:57:19Z</time>
      </trkpt>
      <trkpt lat="44.50833" lon="2.28205">
        <ele>388.8</ele>
        <time>2011-02-27T09:57:23Z</time>
      </trkpt>
      <trkpt lat="44.50837" lon="2.28204">
        <ele>388.9</ele>
        <time>2011-02-27T09:57:26Z</time>
      </trkpt>
      <trkpt lat="44.50839" lon="2.28207">
        <ele>389.8</ele>
        <time>2011-02-27T09:57:28Z</time>
      </trkpt>
      <trkpt lat="44.50842" lon="2.28211">
        <ele>390.7</ele>
        <time>2011-02-27T09:57:31Z</time>
      </trkpt>
      <trkpt lat="44.50844" lon="2.28215">
        <ele>391.6</ele>
        <time>2011-02-27T09:57:33Z</time>
      </trkpt>
      <trkpt lat="44.50848" lon="2.28218">
        <ele>392.3</ele>
        <time>2011-02-27T09:57:36Z</time>
      </trkpt>
      <trkpt lat="44.50851" lon="2.28219">
        <ele>392.9</ele>
        <time>2011-02-27T09:57:39Z</time>
      </trkpt>
      <trkpt lat="44.50856" lon="2.2822">
        <ele>393.2</ele>
        <time>2011-02-27T09:57:43Z</time>
      </trkpt>
      <trkpt lat="44.50858" lon="2.28223">
        <ele>394</ele>
        <time>2011-02-27T09:57:46Z</time>
      </trkpt>
      <trkpt lat="44.5086" lon="2.28227">
        <ele>394.8</ele>
        <time>2011-02-27T09:57:49Z</time>
      </trkpt>
      <trkpt lat="44.50864" lon="2.2823">
        <ele>395.5</ele>
        <time>2011-02-27T09:57:56Z</time>
      </trkpt>
      <trkpt lat="44.50868" lon="2.28233">
        <ele>396.2</ele>
        <time>2011-02-27T09:58:01Z</time>
      </trkpt>
      <trkpt lat="44.50871" lon="2.28235">
        <ele>396.9</ele>
        <time>2011-02-27T09:58:05Z</time>
      </trkpt>
      <trkpt lat="44.50875" lon="2.28237">
        <ele>397.5</ele>
        <time>2011-02-27T09:58:08Z</time>
      </trkpt>
      <trkpt lat="44.50878" lon="2.28238">
        <ele>397.8</ele>
        <time>2011-02-27T09:58:11Z</time>
      </trkpt>
      <trkpt lat="44.50879" lon="2.28237">
        <ele>397.8</ele>
        <time>2011-02-27T09:58:12Z</time>
      </trkpt>
      <trkpt lat="44.50887" lon="2.2824">
        <ele>398.7</ele>
        <time>2011-02-27T09:58:22Z</time>
      </trkpt>
      <trkpt lat="44.50891" lon="2.28238">
        <ele>398.8</ele>
        <time>2011-02-27T09:58:30Z</time>
      </trkpt>
      <trkpt lat="44.50895" lon="2.28237">
        <ele>398.9</ele>
        <time>2011-02-27T09:58:36Z</time>
      </trkpt>
      <trkpt lat="44.50899" lon="2.28236">
        <ele>399</ele>
        <time>2011-02-27T09:58:40Z</time>
      </trkpt>
      <trkpt lat="44.50903" lon="2.28235">
        <ele>399.1</ele>
        <time>2011-02-27T09:58:43Z</time>
      </trkpt>
      <trkpt lat="44.50907" lon="2.28234">
        <ele>399.3</ele>
        <time>2011-02-27T09:58:46Z</time>
      </trkpt>
      <trkpt lat="44.50911" lon="2.28233">
        <ele>399.4</ele>
        <time>2011-02-27T09:58:49Z</time>
      </trkpt>
      <trkpt lat="44.50915" lon="2.28233">
        <ele>399.7</ele>
        <time>2011-02-27T09:58:52Z</time>
      </trkpt>
      <trkpt lat="44.50919" lon="2.28234">
        <ele>399.7</ele>
        <time>2011-02-27T09:58:55Z</time>
      </trkpt>
      <trkpt lat="44.50923" lon="2.28233">
        <ele>399.3</ele>
        <time>2011-02-27T09:58:58Z</time>
      </trkpt>
      <trkpt lat="44.50927" lon="2.28232">
        <ele>398.5</ele>
        <time>2011-02-27T09:59:02Z</time>
      </trkpt>
      <trkpt lat="44.50932" lon="2.28231">
        <ele>398.1</ele>
        <time>2011-02-27T09:59:06Z</time>
      </trkpt>
      <trkpt lat="44.50935" lon="2.28229">
        <ele>397.4</ele>
        <time>2011-02-27T09:59:09Z</time>
      </trkpt>
      <trkpt lat="44.50939" lon="2.28227">
        <ele>396.8</ele>
        <time>2011-02-27T09:59:17Z</time>
      </trkpt>
      <trkpt lat="44.5094" lon="2.28227">
        <ele>396.8</ele>
        <time>2011-02-27T09:59:18Z</time>
      </trkpt>
      <trkpt lat="44.50947" lon="2.28225">
        <ele>395.8</ele>
        <time>2011-02-27T09:59:26Z</time>
      </trkpt>
      <trkpt lat="44.50951" lon="2.28223">
        <ele>395.2</ele>
        <time>2011-02-27T09:59:31Z</time>
      </trkpt>
      <trkpt lat="44.50955" lon="2.28223">
        <ele>394.7</ele>
        <time>2011-02-27T09:59:38Z</time>
      </trkpt>
      <trkpt lat="44.50959" lon="2.28221">
        <ele>394.2</ele>
        <time>2011-02-27T09:59:45Z</time>
      </trkpt>
      <trkpt lat="44.50963" lon="2.2822">
        <ele>393.6</ele>
        <time>2011-02-27T09:59:49Z</time>
      </trkpt>
      <trkpt lat="44.50966" lon="2.2822">
        <ele>393.2</ele>
        <time>2011-02-27T09:59:53Z</time>
      </trkpt>
      <trkpt lat="44.5097" lon="2.28218">
        <ele>392.6</ele>
        <time>2011-02-27T09:59:56Z</time>
      </trkpt>
      <trkpt lat="44.50974" lon="2.28216">
        <ele>391.9</ele>
        <time>2011-02-27T10:00:00Z</time>
      </trkpt>
      <trkpt lat="44.50977" lon="2.28213">
        <ele>391.3</ele>
        <time>2011-02-27T10:00:03Z</time>
      </trkpt>
      <trkpt lat="44.5098" lon="2.28211">
        <ele>390.8</ele>
        <time>2011-02-27T10:00:07Z</time>
      </trkpt>
      <trkpt lat="44.50983" lon="2.28209">
        <ele>390.2</ele>
        <time>2011-02-27T10:00:10Z</time>
      </trkpt>
      <trkpt lat="44.50987" lon="2.28208">
        <ele>389.7</ele>
        <time>2011-02-27T10:00:13Z</time>
      </trkpt>
      <trkpt lat="44.5099" lon="2.28207">
        <ele>389.3</ele>
        <time>2011-02-27T10:00:16Z</time>
      </trkpt>
      <trkpt lat="44.50994" lon="2.28207">
        <ele>388.8</ele>
        <time>2011-02-27T10:00:19Z</time>
      </trkpt>
      <trkpt lat="44.50995" lon="2.28207">
        <ele>388.7</ele>
        <time>2011-02-27T10:00:20Z</time>
      </trkpt>
      <trkpt lat="44.51002" lon="2.28205">
        <ele>388</ele>
        <time>2011-02-27T10:00:27Z</time>
      </trkpt>
      <trkpt lat="44.51006" lon="2.28204">
        <ele>387.8</ele>
        <time>2011-02-27T10:00:34Z</time>
      </trkpt>
      <trkpt lat="44.5101" lon="2.28205">
        <ele>387.9</ele>
        <time>2011-02-27T10:00:43Z</time>
      </trkpt>
      <trkpt lat="44.51013" lon="2.28209">
        <ele>388.3</ele>
        <time>2011-02-27T10:00:49Z</time>
      </trkpt>
      <trkpt lat="44.51015" lon="2.28214">
        <ele>388.8</ele>
        <time>2011-02-27T10:00:54Z</time>
      </trkpt>
      <trkpt lat="44.51017" lon="2.28219">
        <ele>389.4</ele>
        <time>2011-02-27T10:00:58Z</time>
      </trkpt>
      <trkpt lat="44.51019" lon="2.28224">
        <ele>389.9</ele>
        <time>2011-02-27T10:01:01Z</time>
      </trkpt>
      <trkpt lat="44.51021" lon="2.28229">
        <ele>390.5</ele>
        <time>2011-02-27T10:01:04Z</time>
      </trkpt>
      <trkpt lat="44.51023" lon="2.28234">
        <ele>391.2</ele>
        <time>2011-02-27T10:01:07Z</time>
      </trkpt>
      <trkpt lat="44.51025" lon="2.28238">
        <ele>391.7</ele>
        <time>2011-02-27T10:01:09Z</time>
      </trkpt>
      <trkpt lat="44.51026" lon="2.28242">
        <ele>392.2</ele>
        <time>2011-02-27T10:01:11Z</time>
      </trkpt>
      <trkpt lat="44.51028" lon="2.28245">
        <ele>392.7</ele>
        <time>2011-02-27T10:01:13Z</time>
      </trkpt>
      <trkpt lat="44.51029" lon="2.28249">
        <ele>393.2</ele>
        <time>2011-02-27T10:01:15Z</time>
      </trkpt>
      <trkpt lat="44.51031" lon="2.28253">
        <ele>393.7</ele>
        <time>2011-02-27T10:01:17Z</time>
      </trkpt>
      <trkpt lat="44.51032" lon="2.28257">
        <ele>394.3</ele>
        <time>2011-02-27T10:01:19Z</time>
      </trkpt>
      <trkpt lat="44.51034" lon="2.2826">
        <ele>394.7</ele>
        <time>2011-02-27T10:01:21Z</time>
      </trkpt>
      <trkpt lat="44.51035" lon="2.28262">
        <ele>395.1</ele>
        <time>2011-02-27T10:01:22Z</time>
      </trkpt>
      <trkpt lat="44.51038" lon="2.28267">
        <ele>395.8</ele>
        <time>2011-02-27T10:01:25Z</time>
      </trkpt>
      <trkpt lat="44.51042" lon="2.28271">
        <ele>396.4</ele>
        <time>2011-02-27T10:01:28Z</time>
      </trkpt>
      <trkpt lat="44.51044" lon="2.28274">
        <ele>396.8</ele>
        <time>2011-02-27T10:01:30Z</time>
      </trkpt>
      <trkpt lat="44.51047" lon="2.28277">
        <ele>397.1</ele>
        <time>2011-02-27T10:01:32Z</time>
      </trkpt>
      <trkpt lat="44.51049" lon="2.28279">
        <ele>397.5</ele>
        <time>2011-02-27T10:01:34Z</time>
      </trkpt>
      <trkpt lat="44.51053" lon="2.28283">
        <ele>398.1</ele>
        <time>2011-02-27T10:01:37Z</time>
      </trkpt>
      <trkpt lat="44.51056" lon="2.28286">
        <ele>398.6</ele>
        <time>2011-02-27T10:01:40Z</time>
      </trkpt>
      <trkpt lat="44.5106" lon="2.2829">
        <ele>399</ele>
        <time>2011-02-27T10:01:43Z</time>
      </trkpt>
      <trkpt lat="44.51064" lon="2.28293">
        <ele>399.6</ele>
        <time>2011-02-27T10:01:46Z</time>
      </trkpt>
      <trkpt lat="44.51067" lon="2.28296">
        <ele>399.9</ele>
        <time>2011-02-27T10:01:49Z</time>
      </trkpt>
      <trkpt lat="44.51071" lon="2.28299">
        <ele>400.3</ele>
        <time>2011-02-27T10:01:52Z</time>
      </trkpt>
      <trkpt lat="44.51074" lon="2.28302">
        <ele>400.7</ele>
        <time>2011-02-27T10:01:55Z</time>
      </trkpt>
      <trkpt lat="44.51076" lon="2.28304">
        <ele>401</ele>
        <time>2011-02-27T10:01:57Z</time>
      </trkpt>
      <trkpt lat="44.51079" lon="2.28307">
        <ele>401.4</ele>
        <time>2011-02-27T10:01:59Z</time>
      </trkpt>
      <trkpt lat="44.51082" lon="2.28309">
        <ele>401.7</ele>
        <time>2011-02-27T10:02:01Z</time>
      </trkpt>
      <trkpt lat="44.51085" lon="2.28311">
        <ele>402.2</ele>
        <time>2011-02-27T10:02:03Z</time>
      </trkpt>
      <trkpt lat="44.51087" lon="2.28314">
        <ele>402.8</ele>
        <time>2011-02-27T10:02:05Z</time>
      </trkpt>
      <trkpt lat="44.51091" lon="2.28318">
        <ele>403.5</ele>
        <time>2011-02-27T10:02:08Z</time>
      </trkpt>
      <trkpt lat="44.51093" lon="2.28321">
        <ele>404.1</ele>
        <time>2011-02-27T10:02:10Z</time>
      </trkpt>
      <trkpt lat="44.51097" lon="2.28324">
        <ele>404.7</ele>
        <time>2011-02-27T10:02:13Z</time>
      </trkpt>
      <trkpt lat="44.51101" lon="2.28326">
        <ele>405.3</ele>
        <time>2011-02-27T10:02:16Z</time>
      </trkpt>
      <trkpt lat="44.51104" lon="2.28329">
        <ele>405.9</ele>
        <time>2011-02-27T10:02:19Z</time>
      </trkpt>
      <trkpt lat="44.51108" lon="2.28332">
        <ele>406.6</ele>
        <time>2011-02-27T10:02:22Z</time>
      </trkpt>
      <trkpt lat="44.51109" lon="2.28333">
        <ele>406.7</ele>
        <time>2011-02-27T10:02:23Z</time>
      </trkpt>
      <trkpt lat="44.51114" lon="2.28338">
        <ele>407.4</ele>
        <time>2011-02-27T10:02:28Z</time>
      </trkpt>
      <trkpt lat="44.51117" lon="2.28341">
        <ele>407.7</ele>
        <time>2011-02-27T10:02:31Z</time>
      </trkpt>
      <trkpt lat="44.51121" lon="2.28344">
        <ele>408</ele>
        <time>2011-02-27T10:02:34Z</time>
      </trkpt>
      <trkpt lat="44.51124" lon="2.28346">
        <ele>408.2</ele>
        <time>2011-02-27T10:02:37Z</time>
      </trkpt>
      <trkpt lat="44.51128" lon="2.28348">
        <ele>408.4</ele>
        <time>2011-02-27T10:02:40Z</time>
      </trkpt>
      <trkpt lat="44.51132" lon="2.2835">
        <ele>408.5</ele>
        <time>2011-02-27T10:02:43Z</time>
      </trkpt>
      <trkpt lat="44.51135" lon="2.28353">
        <ele>408.7</ele>
        <time>2011-02-27T10:02:46Z</time>
      </trkpt>
      <trkpt lat="44.51137" lon="2.28356">
        <ele>408.7</ele>
        <time>2011-02-27T10:02:48Z</time>
      </trkpt>
      <trkpt lat="44.51139" lon="2.2836">
        <ele>408.7</ele>
        <time>2011-02-27T10:02:50Z</time>
      </trkpt>
      <trkpt lat="44.51142" lon="2.28363">
        <ele>408.7</ele>
        <time>2011-02-27T10:02:52Z</time>
      </trkpt>
      <trkpt lat="44.51145" lon="2.28366">
        <ele>408.6</ele>
        <time>2011-02-27T10:02:54Z</time>
      </trkpt>
      <trkpt lat="44.51147" lon="2.28368">
        <ele>408.6</ele>
        <time>2011-02-27T10:02:56Z</time>
      </trkpt>
      <trkpt lat="44.5115" lon="2.2837">
        <ele>408.5</ele>
        <time>2011-02-27T10:02:58Z</time>
      </trkpt>
      <trkpt lat="44.51154" lon="2.28374">
        <ele>408.3</ele>
        <time>2011-02-27T10:03:01Z</time>
      </trkpt>
      <trkpt lat="44.51157" lon="2.28376">
        <ele>408.2</ele>
        <time>2011-02-27T10:03:03Z</time>
      </trkpt>
      <trkpt lat="44.51161" lon="2.28378">
        <ele>408</ele>
        <time>2011-02-27T10:03:06Z</time>
      </trkpt>
      <trkpt lat="44.51165" lon="2.2838">
        <ele>407.8</ele>
        <time>2011-02-27T10:03:09Z</time>
      </trkpt>
      <trkpt lat="44.51169" lon="2.28382">
        <ele>407.4</ele>
        <time>2011-02-27T10:03:12Z</time>
      </trkpt>
      <trkpt lat="44.51173" lon="2.28384">
        <ele>407.1</ele>
        <time>2011-02-27T10:03:15Z</time>
      </trkpt>
      <trkpt lat="44.51177" lon="2.28385">
        <ele>406.7</ele>
        <time>2011-02-27T10:03:19Z</time>
      </trkpt>
      <trkpt lat="44.5118" lon="2.28387">
        <ele>406.2</ele>
        <time>2011-02-27T10:03:22Z</time>
      </trkpt>
      <trkpt lat="44.51184" lon="2.2839">
        <ele>405.7</ele>
        <time>2011-02-27T10:03:26Z</time>
      </trkpt>
      <trkpt lat="44.51185" lon="2.2839">
        <ele>405.6</ele>
        <time>2011-02-27T10:03:27Z</time>
      </trkpt>
      <trkpt lat="44.51191" lon="2.28395">
        <ele>404.6</ele>
        <time>2011-02-27T10:04:32Z</time>
      </trkpt>
      <trkpt lat="44.51192" lon="2.28395">
        <ele>404.5</ele>
        <time>2011-02-27T10:04:33Z</time>
      </trkpt>
      <trkpt lat="44.51197" lon="2.28401">
        <ele>403.4</ele>
        <time>2011-02-27T10:04:52Z</time>
      </trkpt>
      <trkpt lat="44.51201" lon="2.28405">
        <ele>402.4</ele>
        <time>2011-02-27T10:05:38Z</time>
      </trkpt>
      <trkpt lat="44.51204" lon="2.28406">
        <ele>401.9</ele>
        <time>2011-02-26T10:52:27Z</time>
      </trkpt>
      <trkpt lat="44.51209" lon="2.28406">
        <ele>401.4</ele>
        <time>2011-02-26T14:53:34Z</time>
      </trkpt>
      <trkpt lat="44.51211" lon="2.28406">
        <ele>401.4</ele>
        <time>2011-02-26T16:17:26Z</time>
      </trkpt>
      <trkpt lat="44.51213" lon="2.28406">
        <ele>401.2</ele>
        <time>2011-02-26T17:46:15Z</time>
      </trkpt>
      <trkpt lat="44.51215" lon="2.28406">
        <ele>401</ele>
        <time>2011-02-26T19:18:11Z</time>
      </trkpt>
      <trkpt lat="44.51217" lon="2.28406">
        <ele>400.8</ele>
        <time>2011-02-26T20:38:59Z</time>
      </trkpt>
      <trkpt lat="44.51218" lon="2.28405">
        <ele>400.9</ele>
        <time>2011-02-26T21:47:20Z</time>
      </trkpt>
      <trkpt lat="44.51219" lon="2.28404">
        <ele>400.8</ele>
        <time>2011-02-26T22:55:46Z</time>
      </trkpt>
      <trkpt lat="44.51221" lon="2.28403">
        <ele>400.9</ele>
        <time>2011-02-27T00:03:23Z</time>
      </trkpt>
      <trkpt lat="44.51222" lon="2.28402">
        <ele>400.7</ele>
        <time>2011-02-27T01:12:51Z</time>
      </trkpt>
      <trkpt lat="44.51223" lon="2.28402">
        <ele>400.8</ele>
        <time>2011-02-27T02:21:12Z</time>
      </trkpt>
      <trkpt lat="44.51224" lon="2.284">
        <ele>401</ele>
        <time>2011-02-27T03:24:03Z</time>
      </trkpt>
      <trkpt lat="44.51224" lon="2.28401">
        <ele>401</ele>
        <time>2011-02-27T10:33:52Z</time>
      </trkpt>
      <trkpt lat="44.51227" lon="2.28399">
        <ele>400.9</ele>
        <time>2011-02-27T10:33:54Z</time>
      </trkpt>
      <trkpt lat="44.51231" lon="2.28397">
        <ele>400.9</ele>
        <time>2011-02-27T10:33:56Z</time>
      </trkpt>
      <trkpt lat="44.51234" lon="2.28395">
        <ele>401.1</ele>
        <time>2011-02-27T10:33:58Z</time>
      </trkpt>
      <trkpt lat="44.51236" lon="2.28393">
        <ele>401.4</ele>
        <time>2011-02-27T10:34:00Z</time>
      </trkpt>
      <trkpt lat="44.51239" lon="2.2839">
        <ele>401.7</ele>
        <time>2011-02-27T10:34:02Z</time>
      </trkpt>
      <trkpt lat="44.51242" lon="2.28387">
        <ele>402</ele>
        <time>2011-02-27T10:34:05Z</time>
      </trkpt>
      <trkpt lat="44.51246" lon="2.28385">
        <ele>402</ele>
        <time>2011-02-27T10:34:08Z</time>
      </trkpt>
      <trkpt lat="44.5125" lon="2.28383">
        <ele>402.3</ele>
        <time>2011-02-27T10:34:11Z</time>
      </trkpt>
      <trkpt lat="44.51253" lon="2.28381">
        <ele>402.3</ele>
        <time>2011-02-27T10:34:14Z</time>
      </trkpt>
      <trkpt lat="44.51257" lon="2.28379">
        <ele>402.6</ele>
        <time>2011-02-27T10:34:18Z</time>
      </trkpt>
      <trkpt lat="44.51261" lon="2.28377">
        <ele>402.8</ele>
        <time>2011-02-27T10:34:22Z</time>
      </trkpt>
      <trkpt lat="44.51264" lon="2.28376">
        <ele>402.7</ele>
        <time>2011-02-27T10:34:26Z</time>
      </trkpt>
      <trkpt lat="44.51268" lon="2.28375">
        <ele>402.4</ele>
        <time>2011-02-27T10:34:28Z</time>
      </trkpt>
      <trkpt lat="44.51271" lon="2.28375">
        <ele>402.1</ele>
        <time>2011-02-27T10:34:29Z</time>
      </trkpt>
      <trkpt lat="44.51274" lon="2.28374">
        <ele>402.1</ele>
        <time>2011-02-27T10:34:30Z</time>
      </trkpt>
      <trkpt lat="44.51276" lon="2.28373">
        <ele>402.1</ele>
        <time>2011-02-27T10:34:31Z</time>
      </trkpt>
      <trkpt lat="44.51279" lon="2.28372">
        <ele>402.2</ele>
        <time>2011-02-27T10:34:32Z</time>
      </trkpt>
      <trkpt lat="44.51281" lon="2.28371">
        <ele>402.2</ele>
        <time>2011-02-27T10:34:33Z</time>
      </trkpt>
      <trkpt lat="44.51284" lon="2.2837">
        <ele>402.2</ele>
        <time>2011-02-27T10:34:34Z</time>
      </trkpt>
      <trkpt lat="44.51287" lon="2.28369">
        <ele>402</ele>
        <time>2011-02-27T10:34:35Z</time>
      </trkpt>
      <trkpt lat="44.5129" lon="2.28369">
        <ele>401.6</ele>
        <time>2011-02-27T10:34:36Z</time>
      </trkpt>
      <trkpt lat="44.51293" lon="2.28368">
        <ele>401.4</ele>
        <time>2011-02-27T10:34:37Z</time>
      </trkpt>
      <trkpt lat="44.51296" lon="2.28368">
        <ele>401.1</ele>
        <time>2011-02-27T10:34:38Z</time>
      </trkpt>
      <trkpt lat="44.51299" lon="2.28369">
        <ele>400.8</ele>
        <time>2011-02-27T10:34:39Z</time>
      </trkpt>
      <trkpt lat="44.51302" lon="2.28369">
        <ele>400.5</ele>
        <time>2011-02-27T10:34:40Z</time>
      </trkpt>
      <trkpt lat="44.51305" lon="2.2837">
        <ele>400</ele>
        <time>2011-02-27T10:34:41Z</time>
      </trkpt>
      <trkpt lat="44.51308" lon="2.2837">
        <ele>399.7</ele>
        <time>2011-02-27T10:34:42Z</time>
      </trkpt>
      <trkpt lat="44.51311" lon="2.28371">
        <ele>399.2</ele>
        <time>2011-02-27T10:34:43Z</time>
      </trkpt>
      <trkpt lat="44.51314" lon="2.28372">
        <ele>398.9</ele>
        <time>2011-02-27T10:34:44Z</time>
      </trkpt>
      <trkpt lat="44.51317" lon="2.28373">
        <ele>398.4</ele>
        <time>2011-02-27T10:34:45Z</time>
      </trkpt>
      <trkpt lat="44.5132" lon="2.28374">
        <ele>397.9</ele>
        <time>2011-02-27T10:34:46Z</time>
      </trkpt>
      <trkpt lat="44.51324" lon="2.28375">
        <ele>397.3</ele>
        <time>2011-02-27T10:34:47Z</time>
      </trkpt>
      <trkpt lat="44.51328" lon="2.28377">
        <ele>396.7</ele>
        <time>2011-02-27T10:34:48Z</time>
      </trkpt>
      <trkpt lat="44.51333" lon="2.28381">
        <ele>395.7</ele>
        <time>2011-02-27T10:34:49Z</time>
      </trkpt>
      <trkpt lat="44.51338" lon="2.28383">
        <ele>394.8</ele>
        <time>2011-02-27T10:34:50Z</time>
      </trkpt>
      <trkpt lat="44.51345" lon="2.28383">
        <ele>394.2</ele>
        <time>2011-02-27T10:34:51Z</time>
      </trkpt>
      <trkpt lat="44.5135" lon="2.28383">
        <ele>393.7</ele>
        <time>2011-02-27T10:34:52Z</time>
      </trkpt>
      <trkpt lat="44.51356" lon="2.28382">
        <ele>393.4</ele>
        <time>2011-02-27T10:34:53Z</time>
      </trkpt>
      <trkpt lat="44.51361" lon="2.2838">
        <ele>393.2</ele>
        <time>2011-02-27T10:34:54Z</time>
      </trkpt>
      <trkpt lat="44.51366" lon="2.28377">
        <ele>393</ele>
        <time>2011-02-27T10:34:55Z</time>
      </trkpt>
      <trkpt lat="44.51371" lon="2.28374">
        <ele>392.8</ele>
        <time>2011-02-27T10:34:56Z</time>
      </trkpt>
      <trkpt lat="44.51377" lon="2.28371">
        <ele>392.6</ele>
        <time>2011-02-27T10:34:57Z</time>
      </trkpt>
      <trkpt lat="44.51382" lon="2.28368">
        <ele>392.3</ele>
        <time>2011-02-27T10:34:58Z</time>
      </trkpt>
      <trkpt lat="44.51388" lon="2.28366">
        <ele>391.7</ele>
        <time>2011-02-27T10:34:59Z</time>
      </trkpt>
      <trkpt lat="44.51394" lon="2.28364">
        <ele>391.2</ele>
        <time>2011-02-27T10:35:00Z</time>
      </trkpt>
      <trkpt lat="44.514" lon="2.2836">
        <ele>390.8</ele>
        <time>2011-02-27T10:35:01Z</time>
      </trkpt>
      <trkpt lat="44.51407" lon="2.28356">
        <ele>390.2</ele>
        <time>2011-02-27T10:35:02Z</time>
      </trkpt>
      <trkpt lat="44.51413" lon="2.28353">
        <ele>389.6</ele>
        <time>2011-02-27T10:35:03Z</time>
      </trkpt>
      <trkpt lat="44.5142" lon="2.2835">
        <ele>388.6</ele>
        <time>2011-02-27T10:35:04Z</time>
      </trkpt>
      <trkpt lat="44.51426" lon="2.28349">
        <ele>387.3</ele>
        <time>2011-02-27T10:35:05Z</time>
      </trkpt>
      <trkpt lat="44.51432" lon="2.28349">
        <ele>386.2</ele>
        <time>2011-02-27T10:35:06Z</time>
      </trkpt>
      <trkpt lat="44.51437" lon="2.28348">
        <ele>384.9</ele>
        <time>2011-02-27T10:35:07Z</time>
      </trkpt>
      <trkpt lat="44.51443" lon="2.28347">
        <ele>383.8</ele>
        <time>2011-02-27T10:35:08Z</time>
      </trkpt>
      <trkpt lat="44.51448" lon="2.28346">
        <ele>382.7</ele>
        <time>2011-02-27T10:35:09Z</time>
      </trkpt>
      <trkpt lat="44.51453" lon="2.28345">
        <ele>381.9</ele>
        <time>2011-02-27T10:35:10Z</time>
      </trkpt>
      <trkpt lat="44.51456" lon="2.28344">
        <ele>381.2</ele>
        <time>2011-02-27T10:35:11Z</time>
      </trkpt>
      <trkpt lat="44.5146" lon="2.28343">
        <ele>380.3</ele>
        <time>2011-02-27T10:35:13Z</time>
      </trkpt>
      <trkpt lat="44.51464" lon="2.28343">
        <ele>379.5</ele>
        <time>2011-02-27T10:35:17Z</time>
      </trkpt>
      <trkpt lat="44.51468" lon="2.28344">
        <ele>378.7</ele>
        <time>2011-02-27T10:35:22Z</time>
      </trkpt>
      <trkpt lat="44.51471" lon="2.28342">
        <ele>378.1</ele>
        <time>2011-02-27T10:35:24Z</time>
      </trkpt>
      <trkpt lat="44.51474" lon="2.28343">
        <ele>377.3</ele>
        <time>2011-02-27T10:35:26Z</time>
      </trkpt>
      <trkpt lat="44.51478" lon="2.28342">
        <ele>376.5</ele>
        <time>2011-02-27T10:35:28Z</time>
      </trkpt>
      <trkpt lat="44.51481" lon="2.28343">
        <ele>376</ele>
        <time>2011-02-27T10:35:29Z</time>
      </trkpt>
      <trkpt lat="44.51485" lon="2.28342">
        <ele>375.2</ele>
        <time>2011-02-27T10:35:30Z</time>
      </trkpt>
      <trkpt lat="44.51488" lon="2.28341">
        <ele>374.5</ele>
        <time>2011-02-27T10:35:31Z</time>
      </trkpt>
      <trkpt lat="44.51491" lon="2.2834">
        <ele>373.8</ele>
        <time>2011-02-27T10:35:32Z</time>
      </trkpt>
      <trkpt lat="44.51495" lon="2.2834">
        <ele>373</ele>
        <time>2011-02-27T10:35:33Z</time>
      </trkpt>
      <trkpt lat="44.515" lon="2.2834">
        <ele>371.9</ele>
        <time>2011-02-27T10:35:34Z</time>
      </trkpt>
      <trkpt lat="44.51503" lon="2.28339">
        <ele>371.6</ele>
        <time>2011-02-27T10:35:35Z</time>
      </trkpt>
      <trkpt lat="44.51506" lon="2.28338">
        <ele>371.2</ele>
        <time>2011-02-27T10:35:36Z</time>
      </trkpt>
      <trkpt lat="44.5151" lon="2.28337">
        <ele>370.9</ele>
        <time>2011-02-27T10:35:37Z</time>
      </trkpt>
      <trkpt lat="44.51514" lon="2.28337">
        <ele>370.5</ele>
        <time>2011-02-27T10:35:38Z</time>
      </trkpt>
      <trkpt lat="44.51518" lon="2.28338">
        <ele>370</ele>
        <time>2011-02-27T10:35:39Z</time>
      </trkpt>
      <trkpt lat="44.51523" lon="2.28337">
        <ele>369.5</ele>
        <time>2011-02-27T10:35:40Z</time>
      </trkpt>
      <trkpt lat="44.51528" lon="2.28338">
        <ele>368.9</ele>
        <time>2011-02-27T10:35:41Z</time>
      </trkpt>
      <trkpt lat="44.51534" lon="2.28339">
        <ele>368.2</ele>
        <time>2011-02-27T10:35:42Z</time>
      </trkpt>
      <trkpt lat="44.5154" lon="2.2834">
        <ele>367.5</ele>
        <time>2011-02-27T10:35:43Z</time>
      </trkpt>
      <trkpt lat="44.51545" lon="2.28341">
        <ele>366.9</ele>
        <time>2011-02-27T10:35:44Z</time>
      </trkpt>
      <trkpt lat="44.5155" lon="2.28341">
        <ele>366.4</ele>
        <time>2011-02-27T10:35:45Z</time>
      </trkpt>
      <trkpt lat="44.51553" lon="2.28341">
        <ele>366</ele>
        <time>2011-02-27T10:35:46Z</time>
      </trkpt>
      <trkpt lat="44.51557" lon="2.28342">
        <ele>365.6</ele>
        <time>2011-02-27T10:35:47Z</time>
      </trkpt>
      <trkpt lat="44.51562" lon="2.28343">
        <ele>365</ele>
        <time>2011-02-27T10:35:48Z</time>
      </trkpt>
      <trkpt lat="44.51567" lon="2.28343">
        <ele>364.4</ele>
        <time>2011-02-27T10:35:49Z</time>
      </trkpt>
      <trkpt lat="44.51572" lon="2.28344">
        <ele>363.7</ele>
        <time>2011-02-27T10:35:50Z</time>
      </trkpt>
      <trkpt lat="44.51578" lon="2.28345">
        <ele>363.1</ele>
        <time>2011-02-27T10:35:51Z</time>
      </trkpt>
      <trkpt lat="44.51585" lon="2.28344">
        <ele>362.4</ele>
        <time>2011-02-27T10:35:52Z</time>
      </trkpt>
      <trkpt lat="44.51591" lon="2.28345">
        <ele>361.9</ele>
        <time>2011-02-27T10:35:53Z</time>
      </trkpt>
      <trkpt lat="44.51597" lon="2.28345">
        <ele>361.3</ele>
        <time>2011-02-27T10:35:54Z</time>
      </trkpt>
      <trkpt lat="44.51604" lon="2.28346">
        <ele>360.7</ele>
        <time>2011-02-27T10:35:55Z</time>
      </trkpt>
      <trkpt lat="44.51611" lon="2.28347">
        <ele>360</ele>
        <time>2011-02-27T10:35:56Z</time>
      </trkpt>
      <trkpt lat="44.51618" lon="2.28347">
        <ele>359.5</ele>
        <time>2011-02-27T10:35:57Z</time>
      </trkpt>
      <trkpt lat="44.51624" lon="2.28346">
        <ele>359.1</ele>
        <time>2011-02-27T10:35:58Z</time>
      </trkpt>
      <trkpt lat="44.5163" lon="2.28344">
        <ele>358.7</ele>
        <time>2011-02-27T10:35:59Z</time>
      </trkpt>
      <trkpt lat="44.51636" lon="2.28342">
        <ele>358.5</ele>
        <time>2011-02-27T10:36:00Z</time>
      </trkpt>
      <trkpt lat="44.51641" lon="2.2834">
        <ele>358.2</ele>
        <time>2011-02-27T10:36:01Z</time>
      </trkpt>
      <trkpt lat="44.51646" lon="2.28338">
        <ele>358.1</ele>
        <time>2011-02-27T10:36:02Z</time>
      </trkpt>
      <trkpt lat="44.51651" lon="2.28336">
        <ele>357.8</ele>
        <time>2011-02-27T10:36:03Z</time>
      </trkpt>
      <trkpt lat="44.51657" lon="2.28336">
        <ele>357.6</ele>
        <time>2011-02-27T10:36:04Z</time>
      </trkpt>
      <trkpt lat="44.51663" lon="2.28335">
        <ele>357.1</ele>
        <time>2011-02-27T10:36:05Z</time>
      </trkpt>
      <trkpt lat="44.5167" lon="2.28333">
        <ele>356.5</ele>
        <time>2011-02-27T10:36:06Z</time>
      </trkpt>
      <trkpt lat="44.51676" lon="2.2833">
        <ele>355.6</ele>
        <time>2011-02-27T10:36:07Z</time>
      </trkpt>
      <trkpt lat="44.51682" lon="2.28326">
        <ele>354.8</ele>
        <time>2011-02-27T10:36:08Z</time>
      </trkpt>
      <trkpt lat="44.51688" lon="2.28323">
        <ele>354</ele>
        <time>2011-02-27T10:36:09Z</time>
      </trkpt>
      <trkpt lat="44.51694" lon="2.2832">
        <ele>353.3</ele>
        <time>2011-02-27T10:36:10Z</time>
      </trkpt>
      <trkpt lat="44.51699" lon="2.28317">
        <ele>352.6</ele>
        <time>2011-02-27T10:36:11Z</time>
      </trkpt>
      <trkpt lat="44.51704" lon="2.28315">
        <ele>351.9</ele>
        <time>2011-02-27T10:36:12Z</time>
      </trkpt>
      <trkpt lat="44.5171" lon="2.28312">
        <ele>351.3</ele>
        <time>2011-02-27T10:36:13Z</time>
      </trkpt>
      <trkpt lat="44.51716" lon="2.28309">
        <ele>350.6</ele>
        <time>2011-02-27T10:36:14Z</time>
      </trkpt>
      <trkpt lat="44.51722" lon="2.28306">
        <ele>350</ele>
        <time>2011-02-27T10:36:15Z</time>
      </trkpt>
      <trkpt lat="44.51729" lon="2.28302">
        <ele>349.4</ele>
        <time>2011-02-27T10:36:16Z</time>
      </trkpt>
      <trkpt lat="44.51735" lon="2.28298">
        <ele>348.8</ele>
        <time>2011-02-27T10:36:17Z</time>
      </trkpt>
      <trkpt lat="44.51741" lon="2.28294">
        <ele>348.3</ele>
        <time>2011-02-27T10:36:18Z</time>
      </trkpt>
      <trkpt lat="44.51747" lon="2.2829">
        <ele>347.9</ele>
        <time>2011-02-27T10:36:19Z</time>
      </trkpt>
      <trkpt lat="44.51753" lon="2.28286">
        <ele>347.5</ele>
        <time>2011-02-27T10:36:20Z</time>
      </trkpt>
      <trkpt lat="44.51758" lon="2.28282">
        <ele>347.2</ele>
        <time>2011-02-27T10:36:21Z</time>
      </trkpt>
      <trkpt lat="44.51764" lon="2.28279">
        <ele>346.8</ele>
        <time>2011-02-27T10:36:22Z</time>
      </trkpt>
      <trkpt lat="44.5177" lon="2.28277">
        <ele>346.3</ele>
        <time>2011-02-27T10:36:23Z</time>
      </trkpt>
      <trkpt lat="44.51776" lon="2.28275">
        <ele>345.8</ele>
        <time>2011-02-27T10:36:24Z</time>
      </trkpt>
      <trkpt lat="44.51781" lon="2.28273">
        <ele>345.2</ele>
        <time>2011-02-27T10:36:25Z</time>
      </trkpt>
      <trkpt lat="44.51787" lon="2.2827">
        <ele>344.7</ele>
        <time>2011-02-27T10:36:26Z</time>
      </trkpt>
      <trkpt lat="44.51793" lon="2.28268">
        <ele>344.1</ele>
        <time>2011-02-27T10:36:27Z</time>
      </trkpt>
      <trkpt lat="44.51799" lon="2.28265">
        <ele>343.4</ele>
        <time>2011-02-27T10:36:28Z</time>
      </trkpt>
      <trkpt lat="44.51806" lon="2.28262">
        <ele>342.6</ele>
        <time>2011-02-27T10:36:29Z</time>
      </trkpt>
      <trkpt lat="44.51813" lon="2.28259">
        <ele>341.8</ele>
        <time>2011-02-27T10:36:30Z</time>
      </trkpt>
      <trkpt lat="44.51819" lon="2.28256">
        <ele>340.9</ele>
        <time>2011-02-27T10:36:31Z</time>
      </trkpt>
      <trkpt lat="44.51826" lon="2.28252">
        <ele>340</ele>
        <time>2011-02-27T10:36:32Z</time>
      </trkpt>
      <trkpt lat="44.51832" lon="2.28249">
        <ele>339</ele>
        <time>2011-02-27T10:36:33Z</time>
      </trkpt>
      <trkpt lat="44.51838" lon="2.28246">
        <ele>338.5</ele>
        <time>2011-02-27T10:36:34Z</time>
      </trkpt>
      <trkpt lat="44.51843" lon="2.28245">
        <ele>338.1</ele>
        <time>2011-02-27T10:36:35Z</time>
      </trkpt>
      <trkpt lat="44.51847" lon="2.28245">
        <ele>338.1</ele>
        <time>2011-02-27T10:36:36Z</time>
      </trkpt>
      <trkpt lat="44.51851" lon="2.28247">
        <ele>338.3</ele>
        <time>2011-02-27T10:36:37Z</time>
      </trkpt>
      <trkpt lat="44.51853" lon="2.28251">
        <ele>338.6</ele>
        <time>2011-02-27T10:36:38Z</time>
      </trkpt>
      <trkpt lat="44.51856" lon="2.28255">
        <ele>338.7</ele>
        <time>2011-02-27T10:36:39Z</time>
      </trkpt>
      <trkpt lat="44.51859" lon="2.28259">
        <ele>338.9</ele>
        <time>2011-02-27T10:36:40Z</time>
      </trkpt>
      <trkpt lat="44.51862" lon="2.28263">
        <ele>339</ele>
        <time>2011-02-27T10:36:41Z</time>
      </trkpt>
      <trkpt lat="44.51865" lon="2.28267">
        <ele>339.1</ele>
        <time>2011-02-27T10:36:42Z</time>
      </trkpt>
      <trkpt lat="44.51868" lon="2.28271">
        <ele>339.2</ele>
        <time>2011-02-27T10:36:43Z</time>
      </trkpt>
      <trkpt lat="44.51871" lon="2.28275">
        <ele>339.3</ele>
        <time>2011-02-27T10:36:44Z</time>
      </trkpt>
      <trkpt lat="44.51874" lon="2.2828">
        <ele>339.4</ele>
        <time>2011-02-27T10:36:45Z</time>
      </trkpt>
      <trkpt lat="44.51877" lon="2.28284">
        <ele>339.6</ele>
        <time>2011-02-27T10:36:46Z</time>
      </trkpt>
      <trkpt lat="44.5188" lon="2.28289">
        <ele>339.6</ele>
        <time>2011-02-27T10:36:47Z</time>
      </trkpt>
      <trkpt lat="44.51883" lon="2.28293">
        <ele>339.8</ele>
        <time>2011-02-27T10:36:48Z</time>
      </trkpt>
      <trkpt lat="44.51886" lon="2.28298">
        <ele>339.8</ele>
        <time>2011-02-27T10:36:49Z</time>
      </trkpt>
      <trkpt lat="44.5189" lon="2.28302">
        <ele>339.9</ele>
        <time>2011-02-27T10:36:50Z</time>
      </trkpt>
      <trkpt lat="44.51893" lon="2.28307">
        <ele>340</ele>
        <time>2011-02-27T10:36:51Z</time>
      </trkpt>
      <trkpt lat="44.51896" lon="2.28312">
        <ele>340.1</ele>
        <time>2011-02-27T10:36:52Z</time>
      </trkpt>
      <trkpt lat="44.51899" lon="2.28316">
        <ele>340.1</ele>
        <time>2011-02-27T10:36:53Z</time>
      </trkpt>
      <trkpt lat="44.51902" lon="2.28321">
        <ele>340.2</ele>
        <time>2011-02-27T10:36:55Z</time>
      </trkpt>
      <trkpt lat="44.51906" lon="2.28321">
        <ele>340</ele>
        <time>2011-02-27T10:37:22Z</time>
      </trkpt>
      <trkpt lat="44.5191" lon="2.28318">
        <ele>339.7</ele>
        <time>2011-02-27T10:37:25Z</time>
      </trkpt>
      <trkpt lat="44.51912" lon="2.28316">
        <ele>339.5</ele>
        <time>2011-02-27T10:37:26Z</time>
      </trkpt>
      <trkpt lat="44.51915" lon="2.28313">
        <ele>339.3</ele>
        <time>2011-02-27T10:37:27Z</time>
      </trkpt>
      <trkpt lat="44.51918" lon="2.28311">
        <ele>339.1</ele>
        <time>2011-02-27T10:37:28Z</time>
      </trkpt>
      <trkpt lat="44.5192" lon="2.28308">
        <ele>338.8</ele>
        <time>2011-02-27T10:37:29Z</time>
      </trkpt>
      <trkpt lat="44.51922" lon="2.28306">
        <ele>338.7</ele>
        <time>2011-02-27T10:37:30Z</time>
      </trkpt>
      <trkpt lat="44.51925" lon="2.28303">
        <ele>338.4</ele>
        <time>2011-02-27T10:37:32Z</time>
      </trkpt>
      <trkpt lat="44.51928" lon="2.283">
        <ele>338.1</ele>
        <time>2011-02-27T10:37:34Z</time>
      </trkpt>
      <trkpt lat="44.5193" lon="2.28299">
        <ele>338</ele>
        <time>2011-02-27T10:37:35Z</time>
      </trkpt>
      <trkpt lat="44.51932" lon="2.28296">
        <ele>337.8</ele>
        <time>2011-02-27T10:37:36Z</time>
      </trkpt>
      <trkpt lat="44.51934" lon="2.28294">
        <ele>337.7</ele>
        <time>2011-02-27T10:37:37Z</time>
      </trkpt>
      <trkpt lat="44.51936" lon="2.28292">
        <ele>337.5</ele>
        <time>2011-02-27T10:37:38Z</time>
      </trkpt>
      <trkpt lat="44.51938" lon="2.2829">
        <ele>337.4</ele>
        <time>2011-02-27T10:37:39Z</time>
      </trkpt>
      <trkpt lat="44.5194" lon="2.28287">
        <ele>337.3</ele>
        <time>2011-02-27T10:37:40Z</time>
      </trkpt>
      <trkpt lat="44.51943" lon="2.28284">
        <ele>337.2</ele>
        <time>2011-02-27T10:37:41Z</time>
      </trkpt>
      <trkpt lat="44.51946" lon="2.2828">
        <ele>337.1</ele>
        <time>2011-02-27T10:37:42Z</time>
      </trkpt>
      <trkpt lat="44.51949" lon="2.28277">
        <ele>337</ele>
        <time>2011-02-27T10:37:43Z</time>
      </trkpt>
      <trkpt lat="44.51951" lon="2.28274">
        <ele>336.9</ele>
        <time>2011-02-27T10:37:44Z</time>
      </trkpt>
      <trkpt lat="44.51953" lon="2.28271">
        <ele>336.9</ele>
        <time>2011-02-27T10:37:45Z</time>
      </trkpt>
      <trkpt lat="44.51956" lon="2.28268">
        <ele>336.8</ele>
        <time>2011-02-27T10:37:46Z</time>
      </trkpt>
      <trkpt lat="44.5196" lon="2.28265">
        <ele>336.8</ele>
        <time>2011-02-27T10:37:47Z</time>
      </trkpt>
      <trkpt lat="44.51964" lon="2.28263">
        <ele>336.8</ele>
        <time>2011-02-27T10:37:48Z</time>
      </trkpt>
      <trkpt lat="44.51967" lon="2.28261">
        <ele>336.8</ele>
        <time>2011-02-27T10:37:49Z</time>
      </trkpt>
      <trkpt lat="44.51972" lon="2.28259">
        <ele>336.8</ele>
        <time>2011-02-27T10:37:50Z</time>
      </trkpt>
      <trkpt lat="44.51976" lon="2.28257">
        <ele>336.8</ele>
        <time>2011-02-27T10:37:51Z</time>
      </trkpt>
      <trkpt lat="44.5198" lon="2.28256">
        <ele>336.8</ele>
        <time>2011-02-27T10:37:52Z</time>
      </trkpt>
      <trkpt lat="44.51984" lon="2.28254">
        <ele>336.8</ele>
        <time>2011-02-27T10:37:53Z</time>
      </trkpt>
      <trkpt lat="44.51989" lon="2.28252">
        <ele>336.9</ele>
        <time>2011-02-27T10:37:54Z</time>
      </trkpt>
      <trkpt lat="44.51993" lon="2.28251">
        <ele>337</ele>
        <time>2011-02-27T10:37:55Z</time>
      </trkpt>
      <trkpt lat="44.51997" lon="2.28249">
        <ele>336.8</ele>
        <time>2011-02-27T10:37:56Z</time>
      </trkpt>
      <trkpt lat="44.52" lon="2.28247">
        <ele>336.3</ele>
        <time>2011-02-27T10:37:57Z</time>
      </trkpt>
      <trkpt lat="44.52004" lon="2.28245">
        <ele>335.4</ele>
        <time>2011-02-27T10:37:58Z</time>
      </trkpt>
      <trkpt lat="44.52007" lon="2.28243">
        <ele>334.9</ele>
        <time>2011-02-27T10:37:59Z</time>
      </trkpt>
      <trkpt lat="44.5201" lon="2.28241">
        <ele>334.1</ele>
        <time>2011-02-27T10:38:00Z</time>
      </trkpt>
      <trkpt lat="44.52013" lon="2.28239">
        <ele>333.6</ele>
        <time>2011-02-27T10:38:01Z</time>
      </trkpt>
      <trkpt lat="44.52016" lon="2.28238">
        <ele>333.1</ele>
        <time>2011-02-27T10:38:02Z</time>
      </trkpt>
      <trkpt lat="44.52018" lon="2.28237">
        <ele>332.6</ele>
        <time>2011-02-27T10:38:03Z</time>
      </trkpt>
      <trkpt lat="44.52021" lon="2.28236">
        <ele>332.3</ele>
        <time>2011-02-27T10:38:04Z</time>
      </trkpt>
      <trkpt lat="44.52023" lon="2.28235">
        <ele>331.9</ele>
        <time>2011-02-27T10:38:05Z</time>
      </trkpt>
      <trkpt lat="44.52026" lon="2.28234">
        <ele>331.6</ele>
        <time>2011-02-27T10:38:06Z</time>
      </trkpt>
      <trkpt lat="44.52029" lon="2.28234">
        <ele>331.1</ele>
        <time>2011-02-27T10:38:07Z</time>
      </trkpt>
      <trkpt lat="44.52032" lon="2.28234">
        <ele>330.8</ele>
        <time>2011-02-27T10:38:08Z</time>
      </trkpt>
      <trkpt lat="44.52035" lon="2.28233">
        <ele>330.5</ele>
        <time>2011-02-27T10:38:09Z</time>
      </trkpt>
      <trkpt lat="44.52039" lon="2.28233">
        <ele>330.1</ele>
        <time>2011-02-27T10:38:10Z</time>
      </trkpt>
      <trkpt lat="44.52042" lon="2.28233">
        <ele>329.6</ele>
        <time>2011-02-27T10:38:11Z</time>
      </trkpt>
      <trkpt lat="44.52045" lon="2.28233">
        <ele>329.5</ele>
        <time>2011-02-27T10:38:12Z</time>
      </trkpt>
      <trkpt lat="44.52048" lon="2.28234">
        <ele>329.2</ele>
        <time>2011-02-27T10:38:13Z</time>
      </trkpt>
      <trkpt lat="44.5205" lon="2.28234">
        <ele>329</ele>
        <time>2011-02-27T10:38:14Z</time>
      </trkpt>
      <trkpt lat="44.52053" lon="2.28234">
        <ele>328.7</ele>
        <time>2011-02-27T10:38:15Z</time>
      </trkpt>
      <trkpt lat="44.52056" lon="2.28234">
        <ele>328.5</ele>
        <time>2011-02-27T10:38:16Z</time>
      </trkpt>
      <trkpt lat="44.52059" lon="2.28235">
        <ele>328.4</ele>
        <time>2011-02-27T10:38:17Z</time>
      </trkpt>
      <trkpt lat="44.52061" lon="2.28235">
        <ele>328.1</ele>
        <time>2011-02-27T10:38:18Z</time>
      </trkpt>
      <trkpt lat="44.52064" lon="2.28235">
        <ele>327.8</ele>
        <time>2011-02-27T10:38:19Z</time>
      </trkpt>
      <trkpt lat="44.52067" lon="2.28235">
        <ele>327.5</ele>
        <time>2011-02-27T10:38:20Z</time>
      </trkpt>
      <trkpt lat="44.52071" lon="2.28234">
        <ele>326.9</ele>
        <time>2011-02-27T10:38:21Z</time>
      </trkpt>
      <trkpt lat="44.52076" lon="2.28233">
        <ele>326.5</ele>
        <time>2011-02-27T10:38:22Z</time>
      </trkpt>
      <trkpt lat="44.5208" lon="2.28233">
        <ele>325.9</ele>
        <time>2011-02-27T10:38:23Z</time>
      </trkpt>
      <trkpt lat="44.52085" lon="2.28232">
        <ele>325.4</ele>
        <time>2011-02-27T10:38:24Z</time>
      </trkpt>
      <trkpt lat="44.5209" lon="2.28232">
        <ele>324.7</ele>
        <time>2011-02-27T10:38:25Z</time>
      </trkpt>
      <trkpt lat="44.52095" lon="2.28232">
        <ele>324.1</ele>
        <time>2011-02-27T10:38:26Z</time>
      </trkpt>
      <trkpt lat="44.521" lon="2.28232">
        <ele>323.5</ele>
        <time>2011-02-27T10:38:27Z</time>
      </trkpt>
      <trkpt lat="44.52106" lon="2.28233">
        <ele>322.8</ele>
        <time>2011-02-27T10:38:28Z</time>
      </trkpt>
      <trkpt lat="44.52109" lon="2.28233">
        <ele>322.4</ele>
        <time>2011-02-27T10:38:29Z</time>
      </trkpt>
      <trkpt lat="44.52113" lon="2.28233">
        <ele>322</ele>
        <time>2011-02-27T10:38:31Z</time>
      </trkpt>
      <trkpt lat="44.52116" lon="2.28233">
        <ele>321.5</ele>
        <time>2011-02-27T10:38:33Z</time>
      </trkpt>
      <trkpt lat="44.5212" lon="2.28232">
        <ele>321.1</ele>
        <time>2011-02-27T10:38:35Z</time>
      </trkpt>
      <trkpt lat="44.52123" lon="2.28233">
        <ele>320.9</ele>
        <time>2011-02-27T10:38:36Z</time>
      </trkpt>
      <trkpt lat="44.52126" lon="2.28234">
        <ele>320.5</ele>
        <time>2011-02-27T10:38:37Z</time>
      </trkpt>
      <trkpt lat="44.52129" lon="2.28235">
        <ele>320.3</ele>
        <time>2011-02-27T10:38:38Z</time>
      </trkpt>
      <trkpt lat="44.52132" lon="2.28235">
        <ele>319.9</ele>
        <time>2011-02-27T10:38:39Z</time>
      </trkpt>
      <trkpt lat="44.52136" lon="2.28236">
        <ele>319.5</ele>
        <time>2011-02-27T10:38:40Z</time>
      </trkpt>
      <trkpt lat="44.5214" lon="2.28236">
        <ele>319</ele>
        <time>2011-02-27T10:38:41Z</time>
      </trkpt>
      <trkpt lat="44.52144" lon="2.28236">
        <ele>318.4</ele>
        <time>2011-02-27T10:38:42Z</time>
      </trkpt>
      <trkpt lat="44.52149" lon="2.28236">
        <ele>317.8</ele>
        <time>2011-02-27T10:38:43Z</time>
      </trkpt>
      <trkpt lat="44.52153" lon="2.28236">
        <ele>317.3</ele>
        <time>2011-02-27T10:38:44Z</time>
      </trkpt>
      <trkpt lat="44.52158" lon="2.28236">
        <ele>316.8</ele>
        <time>2011-02-27T10:38:45Z</time>
      </trkpt>
      <trkpt lat="44.52162" lon="2.28235">
        <ele>316.1</ele>
        <time>2011-02-27T10:38:46Z</time>
      </trkpt>
      <trkpt lat="44.52167" lon="2.28234">
        <ele>315.5</ele>
        <time>2011-02-27T10:38:47Z</time>
      </trkpt>
      <trkpt lat="44.52172" lon="2.28233">
        <ele>314.5</ele>
        <time>2011-02-27T10:38:48Z</time>
      </trkpt>
      <trkpt lat="44.52177" lon="2.28232">
        <ele>313.8</ele>
        <time>2011-02-27T10:38:49Z</time>
      </trkpt>
      <trkpt lat="44.52181" lon="2.2823">
        <ele>313</ele>
        <time>2011-02-27T10:38:50Z</time>
      </trkpt>
      <trkpt lat="44.52184" lon="2.28227">
        <ele>312.5</ele>
        <time>2011-02-27T10:38:51Z</time>
      </trkpt>
      <trkpt lat="44.52184" lon="2.28224">
        <ele>312.1</ele>
        <time>2011-02-27T10:38:52Z</time>
      </trkpt>
      <trkpt lat="44.52183" lon="2.2822">
        <ele>312</ele>
        <time>2011-02-27T10:38:53Z</time>
      </trkpt>
      <trkpt lat="44.52182" lon="2.28215">
        <ele>311.8</ele>
        <time>2011-02-27T10:38:54Z</time>
      </trkpt>
      <trkpt lat="44.52181" lon="2.28209">
        <ele>311.5</ele>
        <time>2011-02-27T10:38:55Z</time>
      </trkpt>
      <trkpt lat="44.52179" lon="2.28203">
        <ele>311.2</ele>
        <time>2011-02-27T10:38:56Z</time>
      </trkpt>
      <trkpt lat="44.52176" lon="2.28196">
        <ele>310.9</ele>
        <time>2011-02-27T10:38:57Z</time>
      </trkpt>
      <trkpt lat="44.52173" lon="2.28188">
        <ele>310.5</ele>
        <time>2011-02-27T10:38:58Z</time>
      </trkpt>
      <trkpt lat="44.52168" lon="2.28181">
        <ele>310.3</ele>
        <time>2011-02-27T10:38:59Z</time>
      </trkpt>
      <trkpt lat="44.52163" lon="2.28174">
        <ele>310</ele>
        <time>2011-02-27T10:39:00Z</time>
      </trkpt>
      <trkpt lat="44.52157" lon="2.28168">
        <ele>310.1</ele>
        <time>2011-02-27T10:39:01Z</time>
      </trkpt>
      <trkpt lat="44.52151" lon="2.28164">
        <ele>310.2</ele>
        <time>2011-02-27T10:39:02Z</time>
      </trkpt>
      <trkpt lat="44.52145" lon="2.28161">
        <ele>310.2</ele>
        <time>2011-02-27T10:39:03Z</time>
      </trkpt>
      <trkpt lat="44.5214" lon="2.28158">
        <ele>310.3</ele>
        <time>2011-02-27T10:39:04Z</time>
      </trkpt>
      <trkpt lat="44.52134" lon="2.28155">
        <ele>310.4</ele>
        <time>2011-02-27T10:39:05Z</time>
      </trkpt>
      <trkpt lat="44.52128" lon="2.28153">
        <ele>310.5</ele>
        <time>2011-02-27T10:39:06Z</time>
      </trkpt>
      <trkpt lat="44.5212" lon="2.2815">
        <ele>310.7</ele>
        <time>2011-02-27T10:39:07Z</time>
      </trkpt>
      <trkpt lat="44.52112" lon="2.28149">
        <ele>311.2</ele>
        <time>2011-02-27T10:39:08Z</time>
      </trkpt>
      <trkpt lat="44.52105" lon="2.28149">
        <ele>311.8</ele>
        <time>2011-02-27T10:39:09Z</time>
      </trkpt>
      <trkpt lat="44.52096" lon="2.28147">
        <ele>312</ele>
        <time>2011-02-27T10:39:10Z</time>
      </trkpt>
      <trkpt lat="44.52088" lon="2.28143">
        <ele>311.9</ele>
        <time>2011-02-27T10:39:11Z</time>
      </trkpt>
      <trkpt lat="44.52083" lon="2.28137">
        <ele>311.3</ele>
        <time>2011-02-27T10:39:12Z</time>
      </trkpt>
      <trkpt lat="44.52078" lon="2.2813">
        <ele>310</ele>
        <time>2011-02-27T10:39:13Z</time>
      </trkpt>
      <trkpt lat="44.52074" lon="2.28122">
        <ele>308.6</ele>
        <time>2011-02-27T10:39:14Z</time>
      </trkpt>
      <trkpt lat="44.5207" lon="2.28114">
        <ele>307.1</ele>
        <time>2011-02-27T10:39:15Z</time>
      </trkpt>
      <trkpt lat="44.52067" lon="2.28108">
        <ele>305.9</ele>
        <time>2011-02-27T10:39:16Z</time>
      </trkpt>
      <trkpt lat="44.52063" lon="2.28101">
        <ele>304.7</ele>
        <time>2011-02-27T10:39:17Z</time>
      </trkpt>
      <trkpt lat="44.5206" lon="2.28094">
        <ele>303.4</ele>
        <time>2011-02-27T10:39:18Z</time>
      </trkpt>
      <trkpt lat="44.52058" lon="2.28088">
        <ele>302.1</ele>
        <time>2011-02-27T10:39:19Z</time>
      </trkpt>
      <trkpt lat="44.52055" lon="2.28083">
        <ele>301.3</ele>
        <time>2011-02-27T10:39:22Z</time>
      </trkpt>
      <trkpt lat="44.52052" lon="2.28079">
        <ele>301.3</ele>
        <time>2011-02-27T10:39:40Z</time>
      </trkpt>
      <trkpt lat="44.52052" lon="2.28079">
        <ele>301.3</ele>
        <time>2011-02-27T10:39:41Z</time>
      </trkpt>
      <trkpt lat="44.52053" lon="2.2807">
        <ele>301.2</ele>
        <time>2011-02-27T10:39:59Z</time>
      </trkpt>
      <trkpt lat="44.52051" lon="2.28066">
        <ele>301.2</ele>
        <time>2011-02-27T10:40:00Z</time>
      </trkpt>
      <trkpt lat="44.52049" lon="2.28062">
        <ele>301.2</ele>
        <time>2011-02-27T10:40:01Z</time>
      </trkpt>
      <trkpt lat="44.52047" lon="2.28058">
        <ele>301.1</ele>
        <time>2011-02-27T10:40:02Z</time>
      </trkpt>
      <trkpt lat="44.52046" lon="2.28055">
        <ele>301.1</ele>
        <time>2011-02-27T10:40:03Z</time>
      </trkpt>
      <trkpt lat="44.52044" lon="2.2805">
        <ele>301.1</ele>
        <time>2011-02-27T10:40:05Z</time>
      </trkpt>
      <trkpt lat="44.52044" lon="2.28045">
        <ele>301</ele>
        <time>2011-02-27T10:40:07Z</time>
      </trkpt>
      <trkpt lat="44.52044" lon="2.2804">
        <ele>300.9</ele>
        <time>2011-02-27T10:40:09Z</time>
      </trkpt>
      <trkpt lat="44.52045" lon="2.28036">
        <ele>300.9</ele>
        <time>2011-02-27T10:40:11Z</time>
      </trkpt>
      <trkpt lat="44.52049" lon="2.28033">
        <ele>300.8</ele>
        <time>2011-02-27T10:40:13Z</time>
      </trkpt>
      <trkpt lat="44.52051" lon="2.28031">
        <ele>300.8</ele>
        <time>2011-02-27T10:40:14Z</time>
      </trkpt>
      <trkpt lat="44.52054" lon="2.2803">
        <ele>300.7</ele>
        <time>2011-02-27T10:40:15Z</time>
      </trkpt>
      <trkpt lat="44.52056" lon="2.28029">
        <ele>300.7</ele>
        <time>2011-02-27T10:40:16Z</time>
      </trkpt>
      <trkpt lat="44.52059" lon="2.28028">
        <ele>300.6</ele>
        <time>2011-02-27T10:40:17Z</time>
      </trkpt>
      <trkpt lat="44.52061" lon="2.28026">
        <ele>300.6</ele>
        <time>2011-02-27T10:40:18Z</time>
      </trkpt>
      <trkpt lat="44.52064" lon="2.28025">
        <ele>300.5</ele>
        <time>2011-02-27T10:40:19Z</time>
      </trkpt>
      <trkpt lat="44.52067" lon="2.28024">
        <ele>300.5</ele>
        <time>2011-02-27T10:40:20Z</time>
      </trkpt>
      <trkpt lat="44.52069" lon="2.28023">
        <ele>300.4</ele>
        <time>2011-02-27T10:40:21Z</time>
      </trkpt>
      <trkpt lat="44.52072" lon="2.28022">
        <ele>300.4</ele>
        <time>2011-02-27T10:40:22Z</time>
      </trkpt>
      <trkpt lat="44.52075" lon="2.2802">
        <ele>300.3</ele>
        <time>2011-02-27T10:40:23Z</time>
      </trkpt>
      <trkpt lat="44.52077" lon="2.28019">
        <ele>300.3</ele>
        <time>2011-02-27T10:40:24Z</time>
      </trkpt>
      <trkpt lat="44.52079" lon="2.28018">
        <ele>300.3</ele>
        <time>2011-02-27T10:40:25Z</time>
      </trkpt>
      <trkpt lat="44.52081" lon="2.28017">
        <ele>300.2</ele>
        <time>2011-02-27T10:40:26Z</time>
      </trkpt>
      <trkpt lat="44.52083" lon="2.28016">
        <ele>300.2</ele>
        <time>2011-02-27T10:40:27Z</time>
      </trkpt>
      <trkpt lat="44.52087" lon="2.28014">
        <ele>300.1</ele>
        <time>2011-02-27T10:40:28Z</time>
      </trkpt>
      <trkpt lat="44.5209" lon="2.28013">
        <ele>300.1</ele>
        <time>2011-02-27T10:40:29Z</time>
      </trkpt>
      <trkpt lat="44.52093" lon="2.28012">
        <ele>300</ele>
        <time>2011-02-27T10:40:30Z</time>
      </trkpt>
      <trkpt lat="44.52096" lon="2.28012">
        <ele>300</ele>
        <time>2011-02-27T10:40:31Z</time>
      </trkpt>
      <trkpt lat="44.52099" lon="2.28011">
        <ele>299.9</ele>
        <time>2011-02-27T10:40:32Z</time>
      </trkpt>
      <trkpt lat="44.52102" lon="2.2801">
        <ele>299.9</ele>
        <time>2011-02-27T10:40:33Z</time>
      </trkpt>
      <trkpt lat="44.52105" lon="2.28009">
        <ele>299.8</ele>
        <time>2011-02-27T10:40:34Z</time>
      </trkpt>
      <trkpt lat="44.52108" lon="2.28008">
        <ele>299.8</ele>
        <time>2011-02-27T10:40:35Z</time>
      </trkpt>
      <trkpt lat="44.52111" lon="2.28007">
        <ele>299.7</ele>
        <time>2011-02-27T10:40:36Z</time>
      </trkpt>
      <trkpt lat="44.52114" lon="2.28006">
        <ele>299.7</ele>
        <time>2011-02-27T10:40:37Z</time>
      </trkpt>
      <trkpt lat="44.52118" lon="2.28004">
        <ele>299.6</ele>
        <time>2011-02-27T10:40:38Z</time>
      </trkpt>
      <trkpt lat="44.52121" lon="2.28003">
        <ele>299.6</ele>
        <time>2011-02-27T10:40:39Z</time>
      </trkpt>
      <trkpt lat="44.52125" lon="2.28001">
        <ele>299.5</ele>
        <time>2011-02-27T10:40:40Z</time>
      </trkpt>
      <trkpt lat="44.52128" lon="2.28">
        <ele>299.5</ele>
        <time>2011-02-27T10:40:41Z</time>
      </trkpt>
      <trkpt lat="44.52132" lon="2.27999">
        <ele>299.5</ele>
        <time>2011-02-27T10:40:42Z</time>
      </trkpt>
      <trkpt lat="44.52135" lon="2.27997">
        <ele>299.5</ele>
        <time>2011-02-27T10:40:43Z</time>
      </trkpt>
      <trkpt lat="44.52138" lon="2.27996">
        <ele>299.4</ele>
        <time>2011-02-27T10:40:44Z</time>
      </trkpt>
      <trkpt lat="44.52141" lon="2.27995">
        <ele>299.4</ele>
        <time>2011-02-27T10:40:45Z</time>
      </trkpt>
      <trkpt lat="44.52144" lon="2.27994">
        <ele>299.4</ele>
        <time>2011-02-27T10:40:46Z</time>
      </trkpt>
      <trkpt lat="44.52148" lon="2.27992">
        <ele>299.4</ele>
        <time>2011-02-27T10:40:47Z</time>
      </trkpt>
      <trkpt lat="44.52151" lon="2.2799">
        <ele>299.4</ele>
        <time>2011-02-27T10:40:48Z</time>
      </trkpt>
      <trkpt lat="44.52154" lon="2.27989">
        <ele>299.3</ele>
        <time>2011-02-27T10:40:49Z</time>
      </trkpt>
      <trkpt lat="44.52158" lon="2.27988">
        <ele>299.3</ele>
        <time>2011-02-27T10:40:50Z</time>
      </trkpt>
      <trkpt lat="44.52161" lon="2.27987">
        <ele>299.2</ele>
        <time>2011-02-27T10:40:51Z</time>
      </trkpt>
      <trkpt lat="44.52164" lon="2.27986">
        <ele>299.2</ele>
        <time>2011-02-27T10:40:52Z</time>
      </trkpt>
      <trkpt lat="44.52168" lon="2.27984">
        <ele>299.1</ele>
        <time>2011-02-27T10:40:53Z</time>
      </trkpt>
      <trkpt lat="44.52171" lon="2.27983">
        <ele>298.9</ele>
        <time>2011-02-27T10:40:54Z</time>
      </trkpt>
      <trkpt lat="44.52174" lon="2.27982">
        <ele>298.7</ele>
        <time>2011-02-27T10:40:55Z</time>
      </trkpt>
      <trkpt lat="44.52177" lon="2.27982">
        <ele>298.4</ele>
        <time>2011-02-27T10:40:56Z</time>
      </trkpt>
      <trkpt lat="44.5218" lon="2.27981">
        <ele>298.2</ele>
        <time>2011-02-27T10:40:57Z</time>
      </trkpt>
      <trkpt lat="44.52183" lon="2.27979">
        <ele>298</ele>
        <time>2011-02-27T10:40:58Z</time>
      </trkpt>
      <trkpt lat="44.52186" lon="2.27978">
        <ele>297.8</ele>
        <time>2011-02-27T10:40:59Z</time>
      </trkpt>
      <trkpt lat="44.52189" lon="2.27976">
        <ele>297.7</ele>
        <time>2011-02-27T10:41:00Z</time>
      </trkpt>
      <trkpt lat="44.52191" lon="2.27974">
        <ele>297.6</ele>
        <time>2011-02-27T10:41:01Z</time>
      </trkpt>
      <trkpt lat="44.52193" lon="2.27971">
        <ele>297.6</ele>
        <time>2011-02-27T10:41:02Z</time>
      </trkpt>
      <trkpt lat="44.52196" lon="2.27968">
        <ele>297.6</ele>
        <time>2011-02-27T10:41:03Z</time>
      </trkpt>
      <trkpt lat="44.52198" lon="2.27965">
        <ele>297.6</ele>
        <time>2011-02-27T10:41:04Z</time>
      </trkpt>
      <trkpt lat="44.52199" lon="2.27961">
        <ele>297.8</ele>
        <time>2011-02-27T10:41:05Z</time>
      </trkpt>
      <trkpt lat="44.52201" lon="2.27957">
        <ele>297.9</ele>
        <time>2011-02-27T10:41:06Z</time>
      </trkpt>
      <trkpt lat="44.52202" lon="2.27953">
        <ele>298.1</ele>
        <time>2011-02-27T10:41:07Z</time>
      </trkpt>
      <trkpt lat="44.52204" lon="2.27949">
        <ele>298.3</ele>
        <time>2011-02-27T10:41:08Z</time>
      </trkpt>
      <trkpt lat="44.52205" lon="2.27945">
        <ele>298.6</ele>
        <time>2011-02-27T10:41:09Z</time>
      </trkpt>
      <trkpt lat="44.52206" lon="2.27941">
        <ele>298.9</ele>
        <time>2011-02-27T10:41:10Z</time>
      </trkpt>
      <trkpt lat="44.52207" lon="2.27937">
        <ele>299.1</ele>
        <time>2011-02-27T10:41:11Z</time>
      </trkpt>
      <trkpt lat="44.52208" lon="2.27933">
        <ele>299.4</ele>
        <time>2011-02-27T10:41:12Z</time>
      </trkpt>
      <trkpt lat="44.52209" lon="2.27929">
        <ele>299.7</ele>
        <time>2011-02-27T10:41:13Z</time>
      </trkpt>
      <trkpt lat="44.52211" lon="2.27923">
        <ele>300.1</ele>
        <time>2011-02-27T10:41:15Z</time>
      </trkpt>
      <trkpt lat="44.52211" lon="2.27917">
        <ele>300.5</ele>
        <time>2011-02-27T10:41:17Z</time>
      </trkpt>
      <trkpt lat="44.52212" lon="2.27911">
        <ele>300.7</ele>
        <time>2011-02-27T10:41:19Z</time>
      </trkpt>
      <trkpt lat="44.52212" lon="2.27908">
        <ele>300.7</ele>
        <time>2011-02-27T10:41:20Z</time>
      </trkpt>
      <trkpt lat="44.52213" lon="2.27902">
        <ele>300.9</ele>
        <time>2011-02-27T10:41:22Z</time>
      </trkpt>
      <trkpt lat="44.52214" lon="2.27898">
        <ele>301</ele>
        <time>2011-02-27T10:41:24Z</time>
      </trkpt>
      <trkpt lat="44.52215" lon="2.27894">
        <ele>301.1</ele>
        <time>2011-02-27T10:41:26Z</time>
      </trkpt>
      <trkpt lat="44.52216" lon="2.2789">
        <ele>301.2</ele>
        <time>2011-02-27T10:41:27Z</time>
      </trkpt>
      <trkpt lat="44.52217" lon="2.27886">
        <ele>301.4</ele>
        <time>2011-02-27T10:41:28Z</time>
      </trkpt>
      <trkpt lat="44.52217" lon="2.27882">
        <ele>301.5</ele>
        <time>2011-02-27T10:41:29Z</time>
      </trkpt>
      <trkpt lat="44.52217" lon="2.27877">
        <ele>301.6</ele>
        <time>2011-02-27T10:41:30Z</time>
      </trkpt>
      <trkpt lat="44.52216" lon="2.27872">
        <ele>301.7</ele>
        <time>2011-02-27T10:41:31Z</time>
      </trkpt>
      <trkpt lat="44.52216" lon="2.27868">
        <ele>301.7</ele>
        <time>2011-02-27T10:41:32Z</time>
      </trkpt>
      <trkpt lat="44.52215" lon="2.27864">
        <ele>301.8</ele>
        <time>2011-02-27T10:41:33Z</time>
      </trkpt>
      <trkpt lat="44.52215" lon="2.27859">
        <ele>301.9</ele>
        <time>2011-02-27T10:41:34Z</time>
      </trkpt>
      <trkpt lat="44.52214" lon="2.27855">
        <ele>302</ele>
        <time>2011-02-27T10:41:35Z</time>
      </trkpt>
      <trkpt lat="44.52214" lon="2.27851">
        <ele>302</ele>
        <time>2011-02-27T10:41:36Z</time>
      </trkpt>
      <trkpt lat="44.52214" lon="2.27847">
        <ele>302.1</ele>
        <time>2011-02-27T10:41:37Z</time>
      </trkpt>
      <trkpt lat="44.52215" lon="2.27844">
        <ele>302.2</ele>
        <time>2011-02-27T10:41:38Z</time>
      </trkpt>
      <trkpt lat="44.52216" lon="2.27841">
        <ele>302.4</ele>
        <time>2011-02-27T10:41:39Z</time>
      </trkpt>
      <trkpt lat="44.52219" lon="2.27837">
        <ele>302.7</ele>
        <time>2011-02-27T10:41:41Z</time>
      </trkpt>
      <trkpt lat="44.52223" lon="2.27835">
        <ele>303</ele>
        <time>2011-02-27T10:41:43Z</time>
      </trkpt>
      <trkpt lat="44.52225" lon="2.27835">
        <ele>303.2</ele>
        <time>2011-02-27T10:41:44Z</time>
      </trkpt>
      <trkpt lat="44.52227" lon="2.27837">
        <ele>303.2</ele>
        <time>2011-02-27T10:41:45Z</time>
      </trkpt>
      <trkpt lat="44.52229" lon="2.27841">
        <ele>303.2</ele>
        <time>2011-02-27T10:41:46Z</time>
      </trkpt>
      <trkpt lat="44.5223" lon="2.27846">
        <ele>303.2</ele>
        <time>2011-02-27T10:41:47Z</time>
      </trkpt>
      <trkpt lat="44.52231" lon="2.27851">
        <ele>303</ele>
        <time>2011-02-27T10:41:48Z</time>
      </trkpt>
      <trkpt lat="44.52232" lon="2.27856">
        <ele>302.9</ele>
        <time>2011-02-27T10:41:49Z</time>
      </trkpt>
      <trkpt lat="44.52233" lon="2.27861">
        <ele>302.8</ele>
        <time>2011-02-27T10:41:50Z</time>
      </trkpt>
      <trkpt lat="44.52233" lon="2.27866">
        <ele>302.7</ele>
        <time>2011-02-27T10:41:51Z</time>
      </trkpt>
      <trkpt lat="44.52234" lon="2.27871">
        <ele>302.5</ele>
        <time>2011-02-27T10:41:52Z</time>
      </trkpt>
      <trkpt lat="44.52235" lon="2.27876">
        <ele>302.4</ele>
        <time>2011-02-27T10:41:53Z</time>
      </trkpt>
      <trkpt lat="44.52236" lon="2.27881">
        <ele>302.2</ele>
        <time>2011-02-27T10:41:54Z</time>
      </trkpt>
      <trkpt lat="44.52237" lon="2.27886">
        <ele>302</ele>
        <time>2011-02-27T10:41:55Z</time>
      </trkpt>
      <trkpt lat="44.52238" lon="2.27891">
        <ele>301.9</ele>
        <time>2011-02-27T10:41:56Z</time>
      </trkpt>
      <trkpt lat="44.52239" lon="2.27896">
        <ele>301.7</ele>
        <time>2011-02-27T10:41:57Z</time>
      </trkpt>
      <trkpt lat="44.5224" lon="2.27901">
        <ele>301.5</ele>
        <time>2011-02-27T10:41:58Z</time>
      </trkpt>
      <trkpt lat="44.52241" lon="2.27906">
        <ele>301.4</ele>
        <time>2011-02-27T10:41:59Z</time>
      </trkpt>
      <trkpt lat="44.52242" lon="2.27911">
        <ele>301.2</ele>
        <time>2011-02-27T10:42:00Z</time>
      </trkpt>
      <trkpt lat="44.52243" lon="2.27915">
        <ele>301</ele>
        <time>2011-02-27T10:42:01Z</time>
      </trkpt>
      <trkpt lat="44.52244" lon="2.2792">
        <ele>300.6</ele>
        <time>2011-02-27T10:42:02Z</time>
      </trkpt>
      <trkpt lat="44.52245" lon="2.27925">
        <ele>300</ele>
        <time>2011-02-27T10:42:03Z</time>
      </trkpt>
      <trkpt lat="44.52246" lon="2.2793">
        <ele>299.3</ele>
        <time>2011-02-27T10:42:04Z</time>
      </trkpt>
      <trkpt lat="44.52247" lon="2.27934">
        <ele>298.8</ele>
        <time>2011-02-27T10:42:05Z</time>
      </trkpt>
      <trkpt lat="44.52248" lon="2.27939">
        <ele>298.1</ele>
        <time>2011-02-27T10:42:06Z</time>
      </trkpt>
      <trkpt lat="44.52249" lon="2.27944">
        <ele>297.4</ele>
        <time>2011-02-27T10:42:07Z</time>
      </trkpt>
      <trkpt lat="44.52249" lon="2.2795">
        <ele>296.7</ele>
        <time>2011-02-27T10:42:08Z</time>
      </trkpt>
      <trkpt lat="44.5225" lon="2.27956">
        <ele>295.8</ele>
        <time>2011-02-27T10:42:09Z</time>
      </trkpt>
      <trkpt lat="44.52251" lon="2.27962">
        <ele>295.1</ele>
        <time>2011-02-27T10:42:10Z</time>
      </trkpt>
      <trkpt lat="44.52252" lon="2.27968">
        <ele>294.2</ele>
        <time>2011-02-27T10:42:11Z</time>
      </trkpt>
      <trkpt lat="44.52253" lon="2.27974">
        <ele>293.4</ele>
        <time>2011-02-27T10:42:12Z</time>
      </trkpt>
      <trkpt lat="44.52254" lon="2.27981">
        <ele>292.5</ele>
        <time>2011-02-27T10:42:13Z</time>
      </trkpt>
      <trkpt lat="44.52256" lon="2.27987">
        <ele>291.8</ele>
        <time>2011-02-27T10:42:14Z</time>
      </trkpt>
      <trkpt lat="44.52257" lon="2.27993">
        <ele>291</ele>
        <time>2011-02-27T10:42:15Z</time>
      </trkpt>
      <trkpt lat="44.52259" lon="2.27999">
        <ele>290.2</ele>
        <time>2011-02-27T10:42:16Z</time>
      </trkpt>
      <trkpt lat="44.52261" lon="2.28005">
        <ele>290.2</ele>
        <time>2011-02-27T10:42:17Z</time>
      </trkpt>
      <trkpt lat="44.52263" lon="2.28012">
        <ele>290.4</ele>
        <time>2011-02-27T10:42:18Z</time>
      </trkpt>
      <trkpt lat="44.52265" lon="2.28019">
        <ele>290.6</ele>
        <time>2011-02-27T10:42:19Z</time>
      </trkpt>
      <trkpt lat="44.52268" lon="2.28025">
        <ele>290.8</ele>
        <time>2011-02-27T10:42:20Z</time>
      </trkpt>
      <trkpt lat="44.5227" lon="2.2803">
        <ele>290.9</ele>
        <time>2011-02-27T10:42:21Z</time>
      </trkpt>
      <trkpt lat="44.52274" lon="2.28034">
        <ele>290.9</ele>
        <time>2011-02-27T10:42:22Z</time>
      </trkpt>
      <trkpt lat="44.52278" lon="2.28036">
        <ele>290.9</ele>
        <time>2011-02-27T10:42:23Z</time>
      </trkpt>
      <trkpt lat="44.52282" lon="2.28038">
        <ele>290.8</ele>
        <time>2011-02-27T10:42:24Z</time>
      </trkpt>
      <trkpt lat="44.52287" lon="2.28039">
        <ele>290.6</ele>
        <time>2011-02-27T10:42:25Z</time>
      </trkpt>
      <trkpt lat="44.52292" lon="2.28039">
        <ele>290.5</ele>
        <time>2011-02-27T10:42:26Z</time>
      </trkpt>
      <trkpt lat="44.52296" lon="2.28038">
        <ele>290.3</ele>
        <time>2011-02-27T10:42:27Z</time>
      </trkpt>
      <trkpt lat="44.52301" lon="2.28037">
        <ele>290.2</ele>
        <time>2011-02-27T10:42:28Z</time>
      </trkpt>
      <trkpt lat="44.52306" lon="2.28036">
        <ele>290</ele>
        <time>2011-02-27T10:42:29Z</time>
      </trkpt>
      <trkpt lat="44.52311" lon="2.28034">
        <ele>289.8</ele>
        <time>2011-02-27T10:42:30Z</time>
      </trkpt>
      <trkpt lat="44.52316" lon="2.28033">
        <ele>289.7</ele>
        <time>2011-02-27T10:42:31Z</time>
      </trkpt>
      <trkpt lat="44.52321" lon="2.28033">
        <ele>289.6</ele>
        <time>2011-02-27T10:42:32Z</time>
      </trkpt>
      <trkpt lat="44.52327" lon="2.28034">
        <ele>289.4</ele>
        <time>2011-02-27T10:42:33Z</time>
      </trkpt>
      <trkpt lat="44.52332" lon="2.28035">
        <ele>289.2</ele>
        <time>2011-02-27T10:42:34Z</time>
      </trkpt>
      <trkpt lat="44.52337" lon="2.28036">
        <ele>288.8</ele>
        <time>2011-02-27T10:42:35Z</time>
      </trkpt>
      <trkpt lat="44.52343" lon="2.28038">
        <ele>288.3</ele>
        <time>2011-02-27T10:42:36Z</time>
      </trkpt>
      <trkpt lat="44.52348" lon="2.2804">
        <ele>287.9</ele>
        <time>2011-02-27T10:42:37Z</time>
      </trkpt>
      <trkpt lat="44.52353" lon="2.28042">
        <ele>287.5</ele>
        <time>2011-02-27T10:42:38Z</time>
      </trkpt>
      <trkpt lat="44.52358" lon="2.28045">
        <ele>287.1</ele>
        <time>2011-02-27T10:42:39Z</time>
      </trkpt>
      <trkpt lat="44.52362" lon="2.28047">
        <ele>286.7</ele>
        <time>2011-02-27T10:42:40Z</time>
      </trkpt>
      <trkpt lat="44.52367" lon="2.28049">
        <ele>286.3</ele>
        <time>2011-02-27T10:42:41Z</time>
      </trkpt>
      <trkpt lat="44.52372" lon="2.28051">
        <ele>285.9</ele>
        <time>2011-02-27T10:42:42Z</time>
      </trkpt>
      <trkpt lat="44.52376" lon="2.28052">
        <ele>285.6</ele>
        <time>2011-02-27T10:42:43Z</time>
      </trkpt>
      <trkpt lat="44.52381" lon="2.28053">
        <ele>285.2</ele>
        <time>2011-02-27T10:42:44Z</time>
      </trkpt>
      <trkpt lat="44.52386" lon="2.28055">
        <ele>284.9</ele>
        <time>2011-02-27T10:42:45Z</time>
      </trkpt>
      <trkpt lat="44.52391" lon="2.28057">
        <ele>284.5</ele>
        <time>2011-02-27T10:42:46Z</time>
      </trkpt>
      <trkpt lat="44.52396" lon="2.28058">
        <ele>284.2</ele>
        <time>2011-02-27T10:42:47Z</time>
      </trkpt>
      <trkpt lat="44.52401" lon="2.2806">
        <ele>283.8</ele>
        <time>2011-02-27T10:42:48Z</time>
      </trkpt>
      <trkpt lat="44.52406" lon="2.28061">
        <ele>283.5</ele>
        <time>2011-02-27T10:42:49Z</time>
      </trkpt>
      <trkpt lat="44.52411" lon="2.28062">
        <ele>283.2</ele>
        <time>2011-02-27T10:42:50Z</time>
      </trkpt>
      <trkpt lat="44.52415" lon="2.28063">
        <ele>282.8</ele>
        <time>2011-02-27T10:42:51Z</time>
      </trkpt>
      <trkpt lat="44.5242" lon="2.28064">
        <ele>282.7</ele>
        <time>2011-02-27T10:42:52Z</time>
      </trkpt>
      <trkpt lat="44.52424" lon="2.28065">
        <ele>282.6</ele>
        <time>2011-02-27T10:42:53Z</time>
      </trkpt>
      <trkpt lat="44.52429" lon="2.28067">
        <ele>282.5</ele>
        <time>2011-02-27T10:42:54Z</time>
      </trkpt>
      <trkpt lat="44.52433" lon="2.28069">
        <ele>282.4</ele>
        <time>2011-02-27T10:42:55Z</time>
      </trkpt>
      <trkpt lat="44.52438" lon="2.28072">
        <ele>282.3</ele>
        <time>2011-02-27T10:42:56Z</time>
      </trkpt>
      <trkpt lat="44.52442" lon="2.28074">
        <ele>282.2</ele>
        <time>2011-02-27T10:42:57Z</time>
      </trkpt>
      <trkpt lat="44.52446" lon="2.28078">
        <ele>282.2</ele>
        <time>2011-02-27T10:42:58Z</time>
      </trkpt>
      <trkpt lat="44.52449" lon="2.28082">
        <ele>282.2</ele>
        <time>2011-02-27T10:42:59Z</time>
      </trkpt>
      <trkpt lat="44.52451" lon="2.28088">
        <ele>282.1</ele>
        <time>2011-02-27T10:43:00Z</time>
      </trkpt>
      <trkpt lat="44.52453" lon="2.28094">
        <ele>282</ele>
        <time>2011-02-27T10:43:01Z</time>
      </trkpt>
      <trkpt lat="44.52455" lon="2.281">
        <ele>281.9</ele>
        <time>2011-02-27T10:43:02Z</time>
      </trkpt>
      <trkpt lat="44.52457" lon="2.28107">
        <ele>281.7</ele>
        <time>2011-02-27T10:43:03Z</time>
      </trkpt>
      <trkpt lat="44.52459" lon="2.28114">
        <ele>281.6</ele>
        <time>2011-02-27T10:43:04Z</time>
      </trkpt>
      <trkpt lat="44.52461" lon="2.28121">
        <ele>281.5</ele>
        <time>2011-02-27T10:43:05Z</time>
      </trkpt>
      <trkpt lat="44.52463" lon="2.28127">
        <ele>281.4</ele>
        <time>2011-02-27T10:43:06Z</time>
      </trkpt>
      <trkpt lat="44.52465" lon="2.28134">
        <ele>281.3</ele>
        <time>2011-02-27T10:43:07Z</time>
      </trkpt>
      <trkpt lat="44.52468" lon="2.2814">
        <ele>281.3</ele>
        <time>2011-02-27T10:43:08Z</time>
      </trkpt>
      <trkpt lat="44.5247" lon="2.28146">
        <ele>281.2</ele>
        <time>2011-02-27T10:43:09Z</time>
      </trkpt>
      <trkpt lat="44.52473" lon="2.28153">
        <ele>281.1</ele>
        <time>2011-02-27T10:43:10Z</time>
      </trkpt>
      <trkpt lat="44.52476" lon="2.28159">
        <ele>281.1</ele>
        <time>2011-02-27T10:43:11Z</time>
      </trkpt>
      <trkpt lat="44.52479" lon="2.28165">
        <ele>281</ele>
        <time>2011-02-27T10:43:12Z</time>
      </trkpt>
      <trkpt lat="44.52482" lon="2.28171">
        <ele>281.1</ele>
        <time>2011-02-27T10:43:13Z</time>
      </trkpt>
      <trkpt lat="44.52485" lon="2.28176">
        <ele>281.3</ele>
        <time>2011-02-27T10:43:14Z</time>
      </trkpt>
      <trkpt lat="44.52488" lon="2.28182">
        <ele>281.5</ele>
        <time>2011-02-27T10:43:15Z</time>
      </trkpt>
      <trkpt lat="44.52491" lon="2.28188">
        <ele>281.7</ele>
        <time>2011-02-27T10:43:16Z</time>
      </trkpt>
      <trkpt lat="44.52493" lon="2.28194">
        <ele>281.9</ele>
        <time>2011-02-27T10:43:17Z</time>
      </trkpt>
      <trkpt lat="44.52495" lon="2.28199">
        <ele>282.1</ele>
        <time>2011-02-27T10:43:18Z</time>
      </trkpt>
      <trkpt lat="44.52497" lon="2.28203">
        <ele>282.3</ele>
        <time>2011-02-27T10:43:19Z</time>
      </trkpt>
      <trkpt lat="44.52499" lon="2.28208">
        <ele>282.4</ele>
        <time>2011-02-27T10:43:20Z</time>
      </trkpt>
      <trkpt lat="44.52501" lon="2.28212">
        <ele>282.7</ele>
        <time>2011-02-27T10:43:21Z</time>
      </trkpt>
      <trkpt lat="44.52502" lon="2.28216">
        <ele>282.9</ele>
        <time>2011-02-27T10:43:22Z</time>
      </trkpt>
      <trkpt lat="44.52503" lon="2.2822">
        <ele>283.2</ele>
        <time>2011-02-27T10:43:23Z</time>
      </trkpt>
      <trkpt lat="44.52503" lon="2.28224">
        <ele>283.4</ele>
        <time>2011-02-27T10:43:24Z</time>
      </trkpt>
      <trkpt lat="44.52504" lon="2.28229">
        <ele>283.6</ele>
        <time>2011-02-27T10:43:25Z</time>
      </trkpt>
      <trkpt lat="44.52504" lon="2.28234">
        <ele>283.8</ele>
        <time>2011-02-27T10:43:26Z</time>
      </trkpt>
      <trkpt lat="44.52504" lon="2.28238">
        <ele>284</ele>
        <time>2011-02-27T10:43:27Z</time>
      </trkpt>
      <trkpt lat="44.52504" lon="2.28242">
        <ele>284.1</ele>
        <time>2011-02-27T10:43:28Z</time>
      </trkpt>
      <trkpt lat="44.52504" lon="2.28246">
        <ele>284.2</ele>
        <time>2011-02-27T10:43:29Z</time>
      </trkpt>
      <trkpt lat="44.52502" lon="2.28251">
        <ele>284.3</ele>
        <time>2011-02-27T10:43:31Z</time>
      </trkpt>
      <trkpt lat="44.52502" lon="2.28255">
        <ele>284.4</ele>
        <time>2011-02-27T10:43:32Z</time>
      </trkpt>
      <trkpt lat="44.52501" lon="2.28259">
        <ele>284.5</ele>
        <time>2011-02-27T10:43:33Z</time>
      </trkpt>
      <trkpt lat="44.525" lon="2.28263">
        <ele>284.6</ele>
        <time>2011-02-27T10:43:34Z</time>
      </trkpt>
      <trkpt lat="44.525" lon="2.28266">
        <ele>284.8</ele>
        <time>2011-02-27T10:43:35Z</time>
      </trkpt>
      <trkpt lat="44.525" lon="2.28269">
        <ele>284.9</ele>
        <time>2011-02-27T10:43:36Z</time>
      </trkpt>
      <trkpt lat="44.52499" lon="2.28273">
        <ele>285</ele>
        <time>2011-02-27T10:43:37Z</time>
      </trkpt>
      <trkpt lat="44.52499" lon="2.28276">
        <ele>285.1</ele>
        <time>2011-02-27T10:43:38Z</time>
      </trkpt>
      <trkpt lat="44.52498" lon="2.28279">
        <ele>285.3</ele>
        <time>2011-02-27T10:43:39Z</time>
      </trkpt>
      <trkpt lat="44.52498" lon="2.28283">
        <ele>285.5</ele>
        <time>2011-02-27T10:43:40Z</time>
      </trkpt>
      <trkpt lat="44.52498" lon="2.28287">
        <ele>285.7</ele>
        <time>2011-02-27T10:43:41Z</time>
      </trkpt>
      <trkpt lat="44.52498" lon="2.2829">
        <ele>285.8</ele>
        <time>2011-02-27T10:43:42Z</time>
      </trkpt>
      <trkpt lat="44.52497" lon="2.28294">
        <ele>286</ele>
        <time>2011-02-27T10:43:43Z</time>
      </trkpt>
      <trkpt lat="44.52497" lon="2.28298">
        <ele>286.1</ele>
        <time>2011-02-27T10:43:44Z</time>
      </trkpt>
      <trkpt lat="44.52496" lon="2.28301">
        <ele>286.3</ele>
        <time>2011-02-27T10:43:45Z</time>
      </trkpt>
      <trkpt lat="44.52496" lon="2.28305">
        <ele>286.4</ele>
        <time>2011-02-27T10:43:46Z</time>
      </trkpt>
      <trkpt lat="44.52496" lon="2.28308">
        <ele>286.5</ele>
        <time>2011-02-27T10:43:47Z</time>
      </trkpt>
      <trkpt lat="44.52495" lon="2.28312">
        <ele>286.7</ele>
        <time>2011-02-27T10:43:48Z</time>
      </trkpt>
      <trkpt lat="44.52495" lon="2.28315">
        <ele>286.9</ele>
        <time>2011-02-27T10:43:49Z</time>
      </trkpt>
      <trkpt lat="44.52495" lon="2.2832">
        <ele>287.1</ele>
        <time>2011-02-27T10:43:50Z</time>
      </trkpt>
      <trkpt lat="44.52495" lon="2.28324">
        <ele>287.3</ele>
        <time>2011-02-27T10:43:51Z</time>
      </trkpt>
      <trkpt lat="44.52495" lon="2.28329">
        <ele>287.5</ele>
        <time>2011-02-27T10:43:52Z</time>
      </trkpt>
      <trkpt lat="44.52495" lon="2.28334">
        <ele>287.8</ele>
        <time>2011-02-27T10:43:53Z</time>
      </trkpt>
      <trkpt lat="44.52495" lon="2.28338">
        <ele>288.1</ele>
        <time>2011-02-27T10:43:54Z</time>
      </trkpt>
      <trkpt lat="44.52495" lon="2.28343">
        <ele>288.5</ele>
        <time>2011-02-27T10:43:55Z</time>
      </trkpt>
      <trkpt lat="44.52495" lon="2.28348">
        <ele>289</ele>
        <time>2011-02-27T10:43:56Z</time>
      </trkpt>
      <trkpt lat="44.52496" lon="2.28352">
        <ele>289.3</ele>
        <time>2011-02-27T10:43:57Z</time>
      </trkpt>
      <trkpt lat="44.52496" lon="2.28357">
        <ele>289.7</ele>
        <time>2011-02-27T10:43:58Z</time>
      </trkpt>
      <trkpt lat="44.52496" lon="2.28362">
        <ele>290.2</ele>
        <time>2011-02-27T10:43:59Z</time>
      </trkpt>
      <trkpt lat="44.52496" lon="2.28367">
        <ele>290.5</ele>
        <time>2011-02-27T10:44:00Z</time>
      </trkpt>
      <trkpt lat="44.52496" lon="2.28372">
        <ele>290.9</ele>
        <time>2011-02-27T10:44:01Z</time>
      </trkpt>
      <trkpt lat="44.52496" lon="2.28377">
        <ele>291.4</ele>
        <time>2011-02-27T10:44:02Z</time>
      </trkpt>
      <trkpt lat="44.52496" lon="2.28382">
        <ele>291.8</ele>
        <time>2011-02-27T10:44:03Z</time>
      </trkpt>
      <trkpt lat="44.52497" lon="2.28387">
        <ele>292.3</ele>
        <time>2011-02-27T10:44:04Z</time>
      </trkpt>
      <trkpt lat="44.52497" lon="2.28392">
        <ele>292.6</ele>
        <time>2011-02-27T10:44:05Z</time>
      </trkpt>
      <trkpt lat="44.52497" lon="2.28396">
        <ele>293.1</ele>
        <time>2011-02-27T10:44:06Z</time>
      </trkpt>
      <trkpt lat="44.52498" lon="2.28401">
        <ele>293.4</ele>
        <time>2011-02-27T10:44:07Z</time>
      </trkpt>
      <trkpt lat="44.52498" lon="2.28405">
        <ele>293.9</ele>
        <time>2011-02-27T10:44:08Z</time>
      </trkpt>
      <trkpt lat="44.52498" lon="2.2841">
        <ele>294.3</ele>
        <time>2011-02-27T10:44:09Z</time>
      </trkpt>
      <trkpt lat="44.52498" lon="2.28415">
        <ele>294.8</ele>
        <time>2011-02-27T10:44:10Z</time>
      </trkpt>
      <trkpt lat="44.52498" lon="2.2842">
        <ele>294.9</ele>
        <time>2011-02-27T10:44:11Z</time>
      </trkpt>
      <trkpt lat="44.52498" lon="2.28425">
        <ele>295</ele>
        <time>2011-02-27T10:44:12Z</time>
      </trkpt>
      <trkpt lat="44.52498" lon="2.2843">
        <ele>295.1</ele>
        <time>2011-02-27T10:44:13Z</time>
      </trkpt>
      <trkpt lat="44.52497" lon="2.28435">
        <ele>295.2</ele>
        <time>2011-02-27T10:44:14Z</time>
      </trkpt>
      <trkpt lat="44.52496" lon="2.2844">
        <ele>295.2</ele>
        <time>2011-02-27T10:44:15Z</time>
      </trkpt>
      <trkpt lat="44.52496" lon="2.28445">
        <ele>295.3</ele>
        <time>2011-02-27T10:44:16Z</time>
      </trkpt>
      <trkpt lat="44.52495" lon="2.2845">
        <ele>295.3</ele>
        <time>2011-02-27T10:44:17Z</time>
      </trkpt>
      <trkpt lat="44.52495" lon="2.28455">
        <ele>295.4</ele>
        <time>2011-02-27T10:44:18Z</time>
      </trkpt>
      <trkpt lat="44.52494" lon="2.28459">
        <ele>295.4</ele>
        <time>2011-02-27T10:44:19Z</time>
      </trkpt>
      <trkpt lat="44.52493" lon="2.28464">
        <ele>295.4</ele>
        <time>2011-02-27T10:44:20Z</time>
      </trkpt>
      <trkpt lat="44.52492" lon="2.28469">
        <ele>295.4</ele>
        <time>2011-02-27T10:44:21Z</time>
      </trkpt>
      <trkpt lat="44.52492" lon="2.28473">
        <ele>295.5</ele>
        <time>2011-02-27T10:44:22Z</time>
      </trkpt>
      <trkpt lat="44.52491" lon="2.28478">
        <ele>295.5</ele>
        <time>2011-02-27T10:44:23Z</time>
      </trkpt>
      <trkpt lat="44.5249" lon="2.28482">
        <ele>295.5</ele>
        <time>2011-02-27T10:44:24Z</time>
      </trkpt>
      <trkpt lat="44.52489" lon="2.28487">
        <ele>295.5</ele>
        <time>2011-02-27T10:44:25Z</time>
      </trkpt>
      <trkpt lat="44.52488" lon="2.28492">
        <ele>295.4</ele>
        <time>2011-02-27T10:44:26Z</time>
      </trkpt>
      <trkpt lat="44.52488" lon="2.28496">
        <ele>295.4</ele>
        <time>2011-02-27T10:44:27Z</time>
      </trkpt>
      <trkpt lat="44.52487" lon="2.28501">
        <ele>295.4</ele>
        <time>2011-02-27T10:44:28Z</time>
      </trkpt>
      <trkpt lat="44.52486" lon="2.28506">
        <ele>295.6</ele>
        <time>2011-02-27T10:44:29Z</time>
      </trkpt>
      <trkpt lat="44.52485" lon="2.2851">
        <ele>295.7</ele>
        <time>2011-02-27T10:44:30Z</time>
      </trkpt>
      <trkpt lat="44.52484" lon="2.28515">
        <ele>295.8</ele>
        <time>2011-02-27T10:44:31Z</time>
      </trkpt>
      <trkpt lat="44.52484" lon="2.28519">
        <ele>295.9</ele>
        <time>2011-02-27T10:44:32Z</time>
      </trkpt>
      <trkpt lat="44.52483" lon="2.28524">
        <ele>296</ele>
        <time>2011-02-27T10:44:33Z</time>
      </trkpt>
      <trkpt lat="44.52482" lon="2.28529">
        <ele>296.1</ele>
        <time>2011-02-27T10:44:34Z</time>
      </trkpt>
      <trkpt lat="44.52481" lon="2.28533">
        <ele>296.1</ele>
        <time>2011-02-27T10:44:35Z</time>
      </trkpt>
      <trkpt lat="44.5248" lon="2.28538">
        <ele>296.2</ele>
        <time>2011-02-27T10:44:36Z</time>
      </trkpt>
      <trkpt lat="44.5248" lon="2.28543">
        <ele>296.4</ele>
        <time>2011-02-27T10:44:37Z</time>
      </trkpt>
      <trkpt lat="44.52479" lon="2.28548">
        <ele>296.5</ele>
        <time>2011-02-27T10:44:38Z</time>
      </trkpt>
      <trkpt lat="44.52478" lon="2.28553">
        <ele>296.5</ele>
        <time>2011-02-27T10:44:39Z</time>
      </trkpt>
      <trkpt lat="44.52477" lon="2.28558">
        <ele>296.6</ele>
        <time>2011-02-27T10:44:40Z</time>
      </trkpt>
      <trkpt lat="44.52477" lon="2.28562">
        <ele>296.7</ele>
        <time>2011-02-27T10:44:41Z</time>
      </trkpt>
      <trkpt lat="44.52476" lon="2.28567">
        <ele>296.8</ele>
        <time>2011-02-27T10:44:42Z</time>
      </trkpt>
      <trkpt lat="44.52475" lon="2.28572">
        <ele>296.8</ele>
        <time>2011-02-27T10:44:43Z</time>
      </trkpt>
      <trkpt lat="44.52474" lon="2.28576">
        <ele>296.8</ele>
        <time>2011-02-27T10:44:44Z</time>
      </trkpt>
      <trkpt lat="44.52474" lon="2.28581">
        <ele>296.8</ele>
        <time>2011-02-27T10:44:45Z</time>
      </trkpt>
      <trkpt lat="44.52473" lon="2.28585">
        <ele>296.9</ele>
        <time>2011-02-27T10:44:46Z</time>
      </trkpt>
      <trkpt lat="44.52473" lon="2.28589">
        <ele>296.8</ele>
        <time>2011-02-27T10:44:47Z</time>
      </trkpt>
      <trkpt lat="44.52472" lon="2.28594">
        <ele>296.8</ele>
        <time>2011-02-27T10:44:48Z</time>
      </trkpt>
      <trkpt lat="44.52472" lon="2.28598">
        <ele>296.8</ele>
        <time>2011-02-27T10:44:49Z</time>
      </trkpt>
      <trkpt lat="44.52471" lon="2.28602">
        <ele>296.8</ele>
        <time>2011-02-27T10:44:50Z</time>
      </trkpt>
      <trkpt lat="44.52471" lon="2.28607">
        <ele>296.7</ele>
        <time>2011-02-27T10:44:51Z</time>
      </trkpt>
      <trkpt lat="44.5247" lon="2.28611">
        <ele>296.7</ele>
        <time>2011-02-27T10:44:52Z</time>
      </trkpt>
      <trkpt lat="44.52469" lon="2.28616">
        <ele>296.6</ele>
        <time>2011-02-27T10:44:53Z</time>
      </trkpt>
      <trkpt lat="44.52469" lon="2.28621">
        <ele>296.6</ele>
        <time>2011-02-27T10:44:54Z</time>
      </trkpt>
      <trkpt lat="44.52468" lon="2.28626">
        <ele>296.5</ele>
        <time>2011-02-27T10:44:55Z</time>
      </trkpt>
      <trkpt lat="44.52468" lon="2.28631">
        <ele>296.4</ele>
        <time>2011-02-27T10:44:56Z</time>
      </trkpt>
      <trkpt lat="44.52467" lon="2.28636">
        <ele>296.4</ele>
        <time>2011-02-27T10:44:57Z</time>
      </trkpt>
      <trkpt lat="44.52466" lon="2.28641">
        <ele>296.3</ele>
        <time>2011-02-27T10:44:58Z</time>
      </trkpt>
      <trkpt lat="44.52466" lon="2.28645">
        <ele>296.2</ele>
        <time>2011-02-27T10:44:59Z</time>
      </trkpt>
      <trkpt lat="44.52465" lon="2.2865">
        <ele>296.2</ele>
        <time>2011-02-27T10:45:00Z</time>
      </trkpt>
      <trkpt lat="44.52465" lon="2.28655">
        <ele>296.4</ele>
        <time>2011-02-27T10:45:01Z</time>
      </trkpt>
      <trkpt lat="44.52466" lon="2.28659">
        <ele>296.5</ele>
        <time>2011-02-27T10:45:02Z</time>
      </trkpt>
      <trkpt lat="44.52467" lon="2.28663">
        <ele>296.7</ele>
        <time>2011-02-27T10:45:03Z</time>
      </trkpt>
      <trkpt lat="44.52467" lon="2.28667">
        <ele>296.8</ele>
        <time>2011-02-27T10:45:04Z</time>
      </trkpt>
      <trkpt lat="44.52466" lon="2.28672">
        <ele>297.4</ele>
        <time>2011-02-27T10:45:05Z</time>
      </trkpt>
      <trkpt lat="44.52466" lon="2.28677">
        <ele>297.9</ele>
        <time>2011-02-27T10:45:06Z</time>
      </trkpt>
      <trkpt lat="44.52465" lon="2.28682">
        <ele>298.2</ele>
        <time>2011-02-27T10:45:07Z</time>
      </trkpt>
      <trkpt lat="44.52464" lon="2.28687">
        <ele>298.6</ele>
        <time>2011-02-27T10:45:08Z</time>
      </trkpt>
      <trkpt lat="44.52463" lon="2.28691">
        <ele>298.9</ele>
        <time>2011-02-27T10:45:09Z</time>
      </trkpt>
      <trkpt lat="44.52463" lon="2.28696">
        <ele>299.3</ele>
        <time>2011-02-27T10:45:10Z</time>
      </trkpt>
      <trkpt lat="44.52462" lon="2.287">
        <ele>299.6</ele>
        <time>2011-02-27T10:45:11Z</time>
      </trkpt>
      <trkpt lat="44.52461" lon="2.28705">
        <ele>300</ele>
        <time>2011-02-27T10:45:12Z</time>
      </trkpt>
      <trkpt lat="44.5246" lon="2.28709">
        <ele>300.3</ele>
        <time>2011-02-27T10:45:13Z</time>
      </trkpt>
      <trkpt lat="44.52459" lon="2.28714">
        <ele>300.6</ele>
        <time>2011-02-27T10:45:14Z</time>
      </trkpt>
      <trkpt lat="44.52458" lon="2.28718">
        <ele>300.7</ele>
        <time>2011-02-27T10:45:15Z</time>
      </trkpt>
      <trkpt lat="44.52456" lon="2.28723">
        <ele>300.8</ele>
        <time>2011-02-27T10:45:16Z</time>
      </trkpt>
      <trkpt lat="44.52454" lon="2.28727">
        <ele>300.5</ele>
        <time>2011-02-27T10:45:17Z</time>
      </trkpt>
      <trkpt lat="44.52452" lon="2.28732">
        <ele>300.4</ele>
        <time>2011-02-27T10:45:18Z</time>
      </trkpt>
      <trkpt lat="44.52451" lon="2.28736">
        <ele>300.7</ele>
        <time>2011-02-27T10:45:19Z</time>
      </trkpt>
      <trkpt lat="44.5245" lon="2.2874">
        <ele>300.8</ele>
        <time>2011-02-27T10:45:20Z</time>
      </trkpt>
      <trkpt lat="44.52449" lon="2.28744">
        <ele>300.8</ele>
        <time>2011-02-27T10:45:21Z</time>
      </trkpt>
      <trkpt lat="44.52447" lon="2.28748">
        <ele>300.6</ele>
        <time>2011-02-27T10:45:22Z</time>
      </trkpt>
      <trkpt lat="44.52445" lon="2.28752">
        <ele>300.3</ele>
        <time>2011-02-27T10:45:23Z</time>
      </trkpt>
      <trkpt lat="44.52443" lon="2.28755">
        <ele>299.9</ele>
        <time>2011-02-27T10:45:24Z</time>
      </trkpt>
      <trkpt lat="44.52441" lon="2.28759">
        <ele>299.6</ele>
        <time>2011-02-27T10:45:25Z</time>
      </trkpt>
      <trkpt lat="44.52439" lon="2.28762">
        <ele>299.3</ele>
        <time>2011-02-27T10:45:26Z</time>
      </trkpt>
      <trkpt lat="44.52437" lon="2.28766">
        <ele>299</ele>
        <time>2011-02-27T10:45:27Z</time>
      </trkpt>
      <trkpt lat="44.52435" lon="2.28769">
        <ele>298.7</ele>
        <time>2011-02-27T10:45:28Z</time>
      </trkpt>
      <trkpt lat="44.52434" lon="2.28772">
        <ele>298.3</ele>
        <time>2011-02-27T10:45:29Z</time>
      </trkpt>
      <trkpt lat="44.52432" lon="2.28775">
        <ele>298</ele>
        <time>2011-02-27T10:45:30Z</time>
      </trkpt>
      <trkpt lat="44.5243" lon="2.28778">
        <ele>297.6</ele>
        <time>2011-02-27T10:45:31Z</time>
      </trkpt>
      <trkpt lat="44.52428" lon="2.28782">
        <ele>297.3</ele>
        <time>2011-02-27T10:45:32Z</time>
      </trkpt>
      <trkpt lat="44.52427" lon="2.28785">
        <ele>296.8</ele>
        <time>2011-02-27T10:45:33Z</time>
      </trkpt>
      <trkpt lat="44.52425" lon="2.28788">
        <ele>296.6</ele>
        <time>2011-02-27T10:45:34Z</time>
      </trkpt>
      <trkpt lat="44.52423" lon="2.28791">
        <ele>296.1</ele>
        <time>2011-02-27T10:45:35Z</time>
      </trkpt>
      <trkpt lat="44.52421" lon="2.28795">
        <ele>295.8</ele>
        <time>2011-02-27T10:45:36Z</time>
      </trkpt>
      <trkpt lat="44.5242" lon="2.28799">
        <ele>295.5</ele>
        <time>2011-02-27T10:45:37Z</time>
      </trkpt>
      <trkpt lat="44.52418" lon="2.28802">
        <ele>295.1</ele>
        <time>2011-02-27T10:45:38Z</time>
      </trkpt>
      <trkpt lat="44.52416" lon="2.28806">
        <ele>294.9</ele>
        <time>2011-02-27T10:45:39Z</time>
      </trkpt>
      <trkpt lat="44.52414" lon="2.28809">
        <ele>295.2</ele>
        <time>2011-02-27T10:45:40Z</time>
      </trkpt>
      <trkpt lat="44.52412" lon="2.28813">
        <ele>295.4</ele>
        <time>2011-02-27T10:45:41Z</time>
      </trkpt>
      <trkpt lat="44.5241" lon="2.28817">
        <ele>295.6</ele>
        <time>2011-02-27T10:45:42Z</time>
      </trkpt>
      <trkpt lat="44.52408" lon="2.2882">
        <ele>295.8</ele>
        <time>2011-02-27T10:45:43Z</time>
      </trkpt>
      <trkpt lat="44.52406" lon="2.28824">
        <ele>295.9</ele>
        <time>2011-02-27T10:45:44Z</time>
      </trkpt>
      <trkpt lat="44.52404" lon="2.28828">
        <ele>296.1</ele>
        <time>2011-02-27T10:45:45Z</time>
      </trkpt>
      <trkpt lat="44.52402" lon="2.28832">
        <ele>296.2</ele>
        <time>2011-02-27T10:45:46Z</time>
      </trkpt>
      <trkpt lat="44.52401" lon="2.28835">
        <ele>296.2</ele>
        <time>2011-02-27T10:45:47Z</time>
      </trkpt>
      <trkpt lat="44.52399" lon="2.28839">
        <ele>296</ele>
        <time>2011-02-27T10:45:48Z</time>
      </trkpt>
      <trkpt lat="44.52398" lon="2.28842">
        <ele>295.9</ele>
        <time>2011-02-27T10:45:49Z</time>
      </trkpt>
      <trkpt lat="44.52396" lon="2.28845">
        <ele>295.8</ele>
        <time>2011-02-27T10:45:50Z</time>
      </trkpt>
      <trkpt lat="44.52395" lon="2.28849">
        <ele>295.6</ele>
        <time>2011-02-27T10:45:51Z</time>
      </trkpt>
      <trkpt lat="44.52394" lon="2.28853">
        <ele>295.5</ele>
        <time>2011-02-27T10:45:52Z</time>
      </trkpt>
      <trkpt lat="44.52393" lon="2.28857">
        <ele>295.4</ele>
        <time>2011-02-27T10:45:53Z</time>
      </trkpt>
      <trkpt lat="44.52391" lon="2.28861">
        <ele>295.2</ele>
        <time>2011-02-27T10:45:54Z</time>
      </trkpt>
      <trkpt lat="44.5239" lon="2.28865">
        <ele>295.1</ele>
        <time>2011-02-27T10:45:55Z</time>
      </trkpt>
      <trkpt lat="44.5239" lon="2.28868">
        <ele>295</ele>
        <time>2011-02-27T10:45:56Z</time>
      </trkpt>
      <trkpt lat="44.52389" lon="2.28872">
        <ele>294.9</ele>
        <time>2011-02-27T10:45:57Z</time>
      </trkpt>
      <trkpt lat="44.52388" lon="2.28876">
        <ele>294.8</ele>
        <time>2011-02-27T10:45:58Z</time>
      </trkpt>
      <trkpt lat="44.52387" lon="2.2888">
        <ele>294.7</ele>
        <time>2011-02-27T10:45:59Z</time>
      </trkpt>
      <trkpt lat="44.52387" lon="2.28884">
        <ele>294.6</ele>
        <time>2011-02-27T10:46:00Z</time>
      </trkpt>
      <trkpt lat="44.52386" lon="2.28888">
        <ele>294.5</ele>
        <time>2011-02-27T10:46:01Z</time>
      </trkpt>
      <trkpt lat="44.52386" lon="2.28892">
        <ele>294.4</ele>
        <time>2011-02-27T10:46:02Z</time>
      </trkpt>
      <trkpt lat="44.52386" lon="2.28896">
        <ele>294.3</ele>
        <time>2011-02-27T10:46:03Z</time>
      </trkpt>
      <trkpt lat="44.52385" lon="2.28901">
        <ele>294.2</ele>
        <time>2011-02-27T10:46:04Z</time>
      </trkpt>
      <trkpt lat="44.52385" lon="2.28905">
        <ele>294.1</ele>
        <time>2011-02-27T10:46:05Z</time>
      </trkpt>
      <trkpt lat="44.52386" lon="2.28909">
        <ele>294</ele>
        <time>2011-02-27T10:46:06Z</time>
      </trkpt>
      <trkpt lat="44.52386" lon="2.28913">
        <ele>294</ele>
        <time>2011-02-27T10:46:07Z</time>
      </trkpt>
      <trkpt lat="44.52386" lon="2.28916">
        <ele>293.9</ele>
        <time>2011-02-27T10:46:08Z</time>
      </trkpt>
      <trkpt lat="44.52386" lon="2.28921">
        <ele>294</ele>
        <time>2011-02-27T10:46:09Z</time>
      </trkpt>
      <trkpt lat="44.52386" lon="2.28925">
        <ele>294.2</ele>
        <time>2011-02-27T10:46:10Z</time>
      </trkpt>
      <trkpt lat="44.52387" lon="2.28929">
        <ele>294.3</ele>
        <time>2011-02-27T10:46:11Z</time>
      </trkpt>
      <trkpt lat="44.52387" lon="2.28933">
        <ele>294.4</ele>
        <time>2011-02-27T10:46:12Z</time>
      </trkpt>
      <trkpt lat="44.52388" lon="2.28938">
        <ele>294.6</ele>
        <time>2011-02-27T10:46:13Z</time>
      </trkpt>
      <trkpt lat="44.52388" lon="2.28941">
        <ele>294.8</ele>
        <time>2011-02-27T10:46:14Z</time>
      </trkpt>
      <trkpt lat="44.52389" lon="2.28945">
        <ele>294.9</ele>
        <time>2011-02-27T10:46:15Z</time>
      </trkpt>
      <trkpt lat="44.5239" lon="2.28949">
        <ele>295.1</ele>
        <time>2011-02-27T10:46:16Z</time>
      </trkpt>
      <trkpt lat="44.52391" lon="2.28954">
        <ele>295.3</ele>
        <time>2011-02-27T10:46:17Z</time>
      </trkpt>
      <trkpt lat="44.52392" lon="2.28958">
        <ele>295.4</ele>
        <time>2011-02-27T10:46:18Z</time>
      </trkpt>
      <trkpt lat="44.52393" lon="2.28962">
        <ele>295.6</ele>
        <time>2011-02-27T10:46:19Z</time>
      </trkpt>
      <trkpt lat="44.52394" lon="2.28966">
        <ele>295.8</ele>
        <time>2011-02-27T10:46:20Z</time>
      </trkpt>
      <trkpt lat="44.52395" lon="2.2897">
        <ele>296</ele>
        <time>2011-02-27T10:46:21Z</time>
      </trkpt>
      <trkpt lat="44.52397" lon="2.28974">
        <ele>296.2</ele>
        <time>2011-02-27T10:46:22Z</time>
      </trkpt>
      <trkpt lat="44.52398" lon="2.28978">
        <ele>296.4</ele>
        <time>2011-02-27T10:46:23Z</time>
      </trkpt>
      <trkpt lat="44.524" lon="2.28982">
        <ele>296.6</ele>
        <time>2011-02-27T10:46:24Z</time>
      </trkpt>
      <trkpt lat="44.52401" lon="2.28985">
        <ele>296.7</ele>
        <time>2011-02-27T10:46:25Z</time>
      </trkpt>
      <trkpt lat="44.52402" lon="2.28989">
        <ele>296.9</ele>
        <time>2011-02-27T10:46:26Z</time>
      </trkpt>
      <trkpt lat="44.52403" lon="2.28992">
        <ele>297.1</ele>
        <time>2011-02-27T10:46:27Z</time>
      </trkpt>
      <trkpt lat="44.52405" lon="2.28996">
        <ele>297.3</ele>
        <time>2011-02-27T10:46:28Z</time>
      </trkpt>
      <trkpt lat="44.52407" lon="2.29">
        <ele>297.5</ele>
        <time>2011-02-27T10:46:29Z</time>
      </trkpt>
      <trkpt lat="44.52408" lon="2.29004">
        <ele>297.8</ele>
        <time>2011-02-27T10:46:30Z</time>
      </trkpt>
      <trkpt lat="44.5241" lon="2.29008">
        <ele>298</ele>
        <time>2011-02-27T10:46:31Z</time>
      </trkpt>
      <trkpt lat="44.52411" lon="2.29012">
        <ele>298.2</ele>
        <time>2011-02-27T10:46:32Z</time>
      </trkpt>
      <trkpt lat="44.52413" lon="2.29015">
        <ele>298.5</ele>
        <time>2011-02-27T10:46:33Z</time>
      </trkpt>
      <trkpt lat="44.52414" lon="2.29019">
        <ele>298.8</ele>
        <time>2011-02-27T10:46:34Z</time>
      </trkpt>
      <trkpt lat="44.52416" lon="2.29023">
        <ele>299</ele>
        <time>2011-02-27T10:46:35Z</time>
      </trkpt>
      <trkpt lat="44.52417" lon="2.29027">
        <ele>299.4</ele>
        <time>2011-02-27T10:46:36Z</time>
      </trkpt>
      <trkpt lat="44.52419" lon="2.2903">
        <ele>300.1</ele>
        <time>2011-02-27T10:46:37Z</time>
      </trkpt>
      <trkpt lat="44.5242" lon="2.29034">
        <ele>300.8</ele>
        <time>2011-02-27T10:46:38Z</time>
      </trkpt>
      <trkpt lat="44.52422" lon="2.29037">
        <ele>301.5</ele>
        <time>2011-02-27T10:46:39Z</time>
      </trkpt>
      <trkpt lat="44.52424" lon="2.2904">
        <ele>302.2</ele>
        <time>2011-02-27T10:46:40Z</time>
      </trkpt>
      <trkpt lat="44.52426" lon="2.29043">
        <ele>303</ele>
        <time>2011-02-27T10:46:41Z</time>
      </trkpt>
      <trkpt lat="44.52428" lon="2.29046">
        <ele>303.7</ele>
        <time>2011-02-27T10:46:42Z</time>
      </trkpt>
      <trkpt lat="44.5243" lon="2.29049">
        <ele>304.6</ele>
        <time>2011-02-27T10:46:43Z</time>
      </trkpt>
      <trkpt lat="44.52431" lon="2.29052">
        <ele>305.3</ele>
        <time>2011-02-27T10:46:44Z</time>
      </trkpt>
      <trkpt lat="44.52433" lon="2.29055">
        <ele>306.1</ele>
        <time>2011-02-27T10:46:45Z</time>
      </trkpt>
      <trkpt lat="44.52435" lon="2.29058">
        <ele>307</ele>
        <time>2011-02-27T10:46:46Z</time>
      </trkpt>
      <trkpt lat="44.52438" lon="2.2906">
        <ele>307.8</ele>
        <time>2011-02-27T10:46:47Z</time>
      </trkpt>
      <trkpt lat="44.5244" lon="2.29062">
        <ele>308.7</ele>
        <time>2011-02-27T10:46:48Z</time>
      </trkpt>
      <trkpt lat="44.52442" lon="2.29064">
        <ele>309.5</ele>
        <time>2011-02-27T10:46:49Z</time>
      </trkpt>
      <trkpt lat="44.52444" lon="2.29066">
        <ele>310.5</ele>
        <time>2011-02-27T10:46:50Z</time>
      </trkpt>
      <trkpt lat="44.52447" lon="2.29068">
        <ele>311.3</ele>
        <time>2011-02-27T10:46:51Z</time>
      </trkpt>
      <trkpt lat="44.52449" lon="2.2907">
        <ele>312.4</ele>
        <time>2011-02-27T10:46:52Z</time>
      </trkpt>
      <trkpt lat="44.52451" lon="2.29072">
        <ele>313.3</ele>
        <time>2011-02-27T10:46:53Z</time>
      </trkpt>
      <trkpt lat="44.52454" lon="2.29074">
        <ele>314.1</ele>
        <time>2011-02-27T10:46:54Z</time>
      </trkpt>
      <trkpt lat="44.52456" lon="2.29076">
        <ele>315.1</ele>
        <time>2011-02-27T10:46:55Z</time>
      </trkpt>
      <trkpt lat="44.52458" lon="2.29078">
        <ele>316</ele>
        <time>2011-02-27T10:46:56Z</time>
      </trkpt>
      <trkpt lat="44.5246" lon="2.2908">
        <ele>316.9</ele>
        <time>2011-02-27T10:46:57Z</time>
      </trkpt>
      <trkpt lat="44.52462" lon="2.29081">
        <ele>317.8</ele>
        <time>2011-02-27T10:46:58Z</time>
      </trkpt>
      <trkpt lat="44.52465" lon="2.29083">
        <ele>318.5</ele>
        <time>2011-02-27T10:46:59Z</time>
      </trkpt>
      <trkpt lat="44.52467" lon="2.29085">
        <ele>319.4</ele>
        <time>2011-02-27T10:47:00Z</time>
      </trkpt>
      <trkpt lat="44.52469" lon="2.29087">
        <ele>320.2</ele>
        <time>2011-02-27T10:47:01Z</time>
      </trkpt>
      <trkpt lat="44.52471" lon="2.29089">
        <ele>321.1</ele>
        <time>2011-02-27T10:47:02Z</time>
      </trkpt>
      <trkpt lat="44.52473" lon="2.29091">
        <ele>321.9</ele>
        <time>2011-02-27T10:47:03Z</time>
      </trkpt>
      <trkpt lat="44.52475" lon="2.29094">
        <ele>322.5</ele>
        <time>2011-02-27T10:47:04Z</time>
      </trkpt>
      <trkpt lat="44.52477" lon="2.29097">
        <ele>323.3</ele>
        <time>2011-02-27T10:47:05Z</time>
      </trkpt>
      <trkpt lat="44.52478" lon="2.291">
        <ele>324.1</ele>
        <time>2011-02-27T10:47:06Z</time>
      </trkpt>
      <trkpt lat="44.5248" lon="2.29103">
        <ele>324.7</ele>
        <time>2011-02-27T10:47:07Z</time>
      </trkpt>
      <trkpt lat="44.52482" lon="2.29105">
        <ele>325.5</ele>
        <time>2011-02-27T10:47:08Z</time>
      </trkpt>
      <trkpt lat="44.52483" lon="2.29109">
        <ele>326.1</ele>
        <time>2011-02-27T10:47:09Z</time>
      </trkpt>
      <trkpt lat="44.52485" lon="2.29112">
        <ele>326.7</ele>
        <time>2011-02-27T10:47:10Z</time>
      </trkpt>
      <trkpt lat="44.52486" lon="2.29116">
        <ele>327.1</ele>
        <time>2011-02-27T10:47:11Z</time>
      </trkpt>
      <trkpt lat="44.52487" lon="2.29119">
        <ele>327.7</ele>
        <time>2011-02-27T10:47:12Z</time>
      </trkpt>
      <trkpt lat="44.52488" lon="2.29123">
        <ele>328.2</ele>
        <time>2011-02-27T10:47:13Z</time>
      </trkpt>
      <trkpt lat="44.52489" lon="2.29126">
        <ele>328.7</ele>
        <time>2011-02-27T10:47:14Z</time>
      </trkpt>
      <trkpt lat="44.5249" lon="2.2913">
        <ele>329.1</ele>
        <time>2011-02-27T10:47:15Z</time>
      </trkpt>
      <trkpt lat="44.5249" lon="2.29133">
        <ele>329.5</ele>
        <time>2011-02-27T10:47:16Z</time>
      </trkpt>
      <trkpt lat="44.52491" lon="2.29137">
        <ele>329.7</ele>
        <time>2011-02-27T10:47:17Z</time>
      </trkpt>
      <trkpt lat="44.52491" lon="2.2914">
        <ele>330</ele>
        <time>2011-02-27T10:47:18Z</time>
      </trkpt>
      <trkpt lat="44.52491" lon="2.29143">
        <ele>330.1</ele>
        <time>2011-02-27T10:47:19Z</time>
      </trkpt>
      <trkpt lat="44.52491" lon="2.29147">
        <ele>330.3</ele>
        <time>2011-02-27T10:47:20Z</time>
      </trkpt>
      <trkpt lat="44.52491" lon="2.2915">
        <ele>330.4</ele>
        <time>2011-02-27T10:47:21Z</time>
      </trkpt>
      <trkpt lat="44.52491" lon="2.29153">
        <ele>330.4</ele>
        <time>2011-02-27T10:47:22Z</time>
      </trkpt>
      <trkpt lat="44.52491" lon="2.29157">
        <ele>330.5</ele>
        <time>2011-02-27T10:47:23Z</time>
      </trkpt>
      <trkpt lat="44.52491" lon="2.2916">
        <ele>330.5</ele>
        <time>2011-02-27T10:47:24Z</time>
      </trkpt>
      <trkpt lat="44.5249" lon="2.29164">
        <ele>330.5</ele>
        <time>2011-02-27T10:47:25Z</time>
      </trkpt>
      <trkpt lat="44.5249" lon="2.29167">
        <ele>330.5</ele>
        <time>2011-02-27T10:47:26Z</time>
      </trkpt>
      <trkpt lat="44.52489" lon="2.29171">
        <ele>330.1</ele>
        <time>2011-02-27T10:47:27Z</time>
      </trkpt>
      <trkpt lat="44.52489" lon="2.29175">
        <ele>329.6</ele>
        <time>2011-02-27T10:47:28Z</time>
      </trkpt>
      <trkpt lat="44.52488" lon="2.29178">
        <ele>329.1</ele>
        <time>2011-02-27T10:47:29Z</time>
      </trkpt>
      <trkpt lat="44.52488" lon="2.29182">
        <ele>328.9</ele>
        <time>2011-02-27T10:47:30Z</time>
      </trkpt>
      <trkpt lat="44.52488" lon="2.29186">
        <ele>328.5</ele>
        <time>2011-02-27T10:47:31Z</time>
      </trkpt>
      <trkpt lat="44.52487" lon="2.29189">
        <ele>328.1</ele>
        <time>2011-02-27T10:47:32Z</time>
      </trkpt>
      <trkpt lat="44.52487" lon="2.29193">
        <ele>327.7</ele>
        <time>2011-02-27T10:47:33Z</time>
      </trkpt>
      <trkpt lat="44.52487" lon="2.29196">
        <ele>327.4</ele>
        <time>2011-02-27T10:47:34Z</time>
      </trkpt>
      <trkpt lat="44.52487" lon="2.292">
        <ele>327.2</ele>
        <time>2011-02-27T10:47:35Z</time>
      </trkpt>
      <trkpt lat="44.52486" lon="2.29203">
        <ele>326.8</ele>
        <time>2011-02-27T10:47:36Z</time>
      </trkpt>
      <trkpt lat="44.52486" lon="2.29207">
        <ele>326.5</ele>
        <time>2011-02-27T10:47:37Z</time>
      </trkpt>
    </trkseg>
  </trk>
</gpx>